<?xml version="1.0" encoding="UTF-8" standalone="no" ?>
<gpx xmlns="http://www.topografix.com/GPX/1/1" xmlns:xsi="http://www.w3.org/2001/XMLSchema-instance" xsi:schemaLocation="http://www.topografix.com/GPX/1/1 http://www.topografix.com/GPX/1/1/gpx.xsd" version="1.1" creator="VisuGPX - https://www.visugpx.com">
  <metadata>
    <name>Trek Ecrins </name>
    <desc><![CDATA[Trek de 3 jours au départ des Andrieux vers le refuge des Souffles le premier jour. Puis col de Colombe et refuge de l'Olan le second jour. Retour aux Andrieux le dernier jour.]]></desc>
  </metadata>
  <wpt lat="44.82057" lon="6.16584">
    <ele>1046</ele>
    <name><![CDATA[Arrivée]]></name>
    <desc><![CDATA[La Chapelle-En-Valgaudémar]]></desc>
    <cmt><![CDATA[La Chapelle-En-Valgaudémar]]></cmt>
  </wpt>
  <wpt lat="44.82066" lon="6.16601">
    <ele>1046.6</ele>
    <name><![CDATA[Départ]]></name>
    <desc><![CDATA[parking]]></desc>
    <cmt><![CDATA[parking]]></cmt>
  </wpt>
  <wpt lat="44.84147" lon="6.20453">
    <ele>2338.8</ele>
    <name><![CDATA[Refuge de L'Ol]]></name>
    <desc><![CDATA[Refuge de L'Olan]]></desc>
    <cmt><![CDATA[Refuge de L'Olan]]></cmt>
  </wpt>
  <wpt lat="44.84467" lon="6.14653">
    <ele>1968.5</ele>
    <name><![CDATA[Refuge Des Sou]]></name>
    <desc><![CDATA[Refuge Des Souffles]]></desc>
    <cmt><![CDATA[Refuge Des Souffles]]></cmt>
  </wpt>
  <trk>
    <name><![CDATA[Jour 1]]></name>
    <trkseg>
      <trkpt lat="44.82076" lon="6.16577">
        <ele>1064.3166503906</ele>
        <time>2020-08-14T10:33:34Z</time>
      </trkpt>
      <trkpt lat="44.82074" lon="6.1658">
        <ele>1047.4936523438</ele>
        <time>2020-08-14T10:34:58Z</time>
      </trkpt>
      <trkpt lat="44.82073" lon="6.16581">
        <ele>1047.9743652344</ele>
        <time>2020-08-14T10:35:11Z</time>
      </trkpt>
      <trkpt lat="44.82073" lon="6.1658">
        <ele>1047.4936523438</ele>
        <time>2020-08-14T10:35:14Z</time>
      </trkpt>
      <trkpt lat="44.82082" lon="6.16561">
        <ele>1043.6484375</ele>
        <time>2020-08-14T10:35:25Z</time>
      </trkpt>
      <trkpt lat="44.82086" lon="6.16556">
        <ele>1042.6872558594</ele>
        <time>2020-08-14T10:35:29Z</time>
      </trkpt>
      <trkpt lat="44.82094" lon="6.16546">
        <ele>1040.7644042969</ele>
        <time>2020-08-14T10:35:36Z</time>
      </trkpt>
      <trkpt lat="44.82101" lon="6.16524">
        <ele>1036.4387207031</ele>
        <time>2020-08-14T10:35:49Z</time>
      </trkpt>
      <trkpt lat="44.8211" lon="6.16498">
        <ele>1032.1125488281</ele>
        <time>2020-08-14T10:36:03Z</time>
      </trkpt>
      <trkpt lat="44.82111" lon="6.16482">
        <ele>1028.748046875</ele>
        <time>2020-08-14T10:36:13Z</time>
      </trkpt>
      <trkpt lat="44.82101" lon="6.16486">
        <ele>1034.03515625</ele>
        <time>2020-08-14T10:36:27Z</time>
      </trkpt>
      <trkpt lat="44.82101" lon="6.16484">
        <ele>1034.9965820312</ele>
        <time>2020-08-14T10:36:38Z</time>
      </trkpt>
      <trkpt lat="44.82101" lon="6.16457">
        <ele>1036.9191894531</ele>
        <time>2020-08-14T10:36:53Z</time>
      </trkpt>
      <trkpt lat="44.82093" lon="6.16412">
        <ele>1039.8032226562</ele>
        <time>2020-08-14T10:37:18Z</time>
      </trkpt>
      <trkpt lat="44.82089" lon="6.16394">
        <ele>1040.7644042969</ele>
        <time>2020-08-14T10:37:30Z</time>
      </trkpt>
      <trkpt lat="44.82088" lon="6.16389">
        <ele>1040.2839355469</ele>
        <time>2020-08-14T10:37:33Z</time>
      </trkpt>
      <trkpt lat="44.82089" lon="6.16381">
        <ele>1037.8806152344</ele>
        <time>2020-08-14T10:37:39Z</time>
      </trkpt>
      <trkpt lat="44.8209" lon="6.16351">
        <ele>1035.9577636719</ele>
        <time>2020-08-14T10:37:57Z</time>
      </trkpt>
      <trkpt lat="44.82091" lon="6.16327">
        <ele>1034.9965820312</ele>
        <time>2020-08-14T10:38:10Z</time>
      </trkpt>
      <trkpt lat="44.82089" lon="6.1632">
        <ele>1036.4387207031</ele>
        <time>2020-08-14T10:38:14Z</time>
      </trkpt>
      <trkpt lat="44.82089" lon="6.16305">
        <ele>1038.8420410156</ele>
        <time>2020-08-14T10:38:22Z</time>
      </trkpt>
      <trkpt lat="44.82089" lon="6.16296">
        <ele>1040.2839355469</ele>
        <time>2020-08-14T10:38:27Z</time>
      </trkpt>
      <trkpt lat="44.82088" lon="6.16287">
        <ele>1041.7258300781</ele>
        <time>2020-08-14T10:38:32Z</time>
      </trkpt>
      <trkpt lat="44.8209" lon="6.16283">
        <ele>1042.2065429688</ele>
        <time>2020-08-14T10:38:34Z</time>
      </trkpt>
      <trkpt lat="44.82091" lon="6.16271">
        <ele>1044.1291503906</ele>
        <time>2020-08-14T10:38:41Z</time>
      </trkpt>
      <trkpt lat="44.82096" lon="6.16254">
        <ele>1047.9743652344</ele>
        <time>2020-08-14T10:38:52Z</time>
      </trkpt>
      <trkpt lat="44.82109" lon="6.16244">
        <ele>1045.5710449219</ele>
        <time>2020-08-14T10:39:11Z</time>
      </trkpt>
      <trkpt lat="44.82108" lon="6.16245">
        <ele>1045.0903320312</ele>
        <time>2020-08-14T10:39:14Z</time>
      </trkpt>
      <trkpt lat="44.82115" lon="6.16244">
        <ele>1044.1291503906</ele>
        <time>2020-08-14T10:39:30Z</time>
      </trkpt>
      <trkpt lat="44.82111" lon="6.1623">
        <ele>1042.6872558594</ele>
        <time>2020-08-14T10:40:01Z</time>
      </trkpt>
      <trkpt lat="44.82123" lon="6.16208">
        <ele>1043.1677246094</ele>
        <time>2020-08-14T10:40:12Z</time>
      </trkpt>
      <trkpt lat="44.82123" lon="6.16209">
        <ele>1044.1291503906</ele>
        <time>2020-08-14T10:40:31Z</time>
      </trkpt>
      <trkpt lat="44.8211" lon="6.16225">
        <ele>1041.7258300781</ele>
        <time>2020-08-14T10:40:49Z</time>
      </trkpt>
      <trkpt lat="44.82113" lon="6.16233">
        <ele>1041.7258300781</ele>
        <time>2020-08-14T10:41:01Z</time>
      </trkpt>
      <trkpt lat="44.82103" lon="6.16237">
        <ele>1042.6872558594</ele>
        <time>2020-08-14T10:41:05Z</time>
      </trkpt>
      <trkpt lat="44.82106" lon="6.16245">
        <ele>1044.1291503906</ele>
        <time>2020-08-14T10:41:14Z</time>
      </trkpt>
      <trkpt lat="44.82113" lon="6.16266">
        <ele>1044.6096191406</ele>
        <time>2020-08-14T10:41:30Z</time>
      </trkpt>
      <trkpt lat="44.82114" lon="6.16266">
        <ele>1045.5710449219</ele>
        <time>2020-08-14T10:41:54Z</time>
      </trkpt>
      <trkpt lat="44.82112" lon="6.16236">
        <ele>1043.6484375</ele>
        <time>2020-08-14T10:42:12Z</time>
      </trkpt>
      <trkpt lat="44.82114" lon="6.16234">
        <ele>1043.1677246094</ele>
        <time>2020-08-14T10:42:15Z</time>
      </trkpt>
      <trkpt lat="44.82138" lon="6.16215">
        <ele>1044.6096191406</ele>
        <time>2020-08-14T10:42:34Z</time>
      </trkpt>
      <trkpt lat="44.82155" lon="6.16207">
        <ele>1042.2065429688</ele>
        <time>2020-08-14T10:42:49Z</time>
      </trkpt>
      <trkpt lat="44.82164" lon="6.16198">
        <ele>1038.8420410156</ele>
        <time>2020-08-14T10:43:06Z</time>
      </trkpt>
      <trkpt lat="44.82183" lon="6.16168">
        <ele>1036.4387207031</ele>
        <time>2020-08-14T10:43:25Z</time>
      </trkpt>
      <trkpt lat="44.82187" lon="6.16164">
        <ele>1035.4770507812</ele>
        <time>2020-08-14T10:43:29Z</time>
      </trkpt>
      <trkpt lat="44.82204" lon="6.16139">
        <ele>1032.5932617188</ele>
        <time>2020-08-14T10:43:47Z</time>
      </trkpt>
      <trkpt lat="44.8221" lon="6.16127">
        <ele>1033.0737304688</ele>
        <time>2020-08-14T10:43:55Z</time>
      </trkpt>
      <trkpt lat="44.82212" lon="6.16123">
        <ele>1032.1125488281</ele>
        <time>2020-08-14T10:43:59Z</time>
      </trkpt>
      <trkpt lat="44.82226" lon="6.16111">
        <ele>1032.5932617188</ele>
        <time>2020-08-14T10:44:13Z</time>
      </trkpt>
      <trkpt lat="44.82226" lon="6.16108">
        <ele>1034.5158691406</ele>
        <time>2020-08-14T10:45:06Z</time>
      </trkpt>
      <trkpt lat="44.82225" lon="6.16116">
        <ele>1036.4387207031</ele>
        <time>2020-08-14T10:45:40Z</time>
      </trkpt>
      <trkpt lat="44.82232" lon="6.1614">
        <ele>1040.2839355469</ele>
        <time>2020-08-14T10:45:56Z</time>
      </trkpt>
      <trkpt lat="44.82231" lon="6.16152">
        <ele>1043.1677246094</ele>
        <time>2020-08-14T10:46:06Z</time>
      </trkpt>
      <trkpt lat="44.82235" lon="6.16181">
        <ele>1049.4162597656</ele>
        <time>2020-08-14T10:46:25Z</time>
      </trkpt>
      <trkpt lat="44.82235" lon="6.16182">
        <ele>1049.8969726562</ele>
        <time>2020-08-14T10:46:27Z</time>
      </trkpt>
      <trkpt lat="44.82243" lon="6.16193">
        <ele>1053.7424316406</ele>
        <time>2020-08-14T10:46:37Z</time>
      </trkpt>
      <trkpt lat="44.82252" lon="6.16212">
        <ele>1056.6262207031</ele>
        <time>2020-08-14T10:47:00Z</time>
      </trkpt>
      <trkpt lat="44.82256" lon="6.16227">
        <ele>1059.0295410156</ele>
        <time>2020-08-14T10:47:16Z</time>
      </trkpt>
      <trkpt lat="44.82261" lon="6.16243">
        <ele>1062.3940429688</ele>
        <time>2020-08-14T10:47:31Z</time>
      </trkpt>
      <trkpt lat="44.82261" lon="6.16262">
        <ele>1065.7587890625</ele>
        <time>2020-08-14T10:47:53Z</time>
      </trkpt>
      <trkpt lat="44.82263" lon="6.16282">
        <ele>1065.7587890625</ele>
        <time>2020-08-14T10:48:11Z</time>
      </trkpt>
      <trkpt lat="44.82268" lon="6.16298">
        <ele>1068.162109375</ele>
        <time>2020-08-14T10:48:28Z</time>
      </trkpt>
      <trkpt lat="44.82275" lon="6.16311">
        <ele>1070.5654296875</ele>
        <time>2020-08-14T10:48:44Z</time>
      </trkpt>
      <trkpt lat="44.82271" lon="6.16313">
        <ele>1070.5654296875</ele>
        <time>2020-08-14T10:49:48Z</time>
      </trkpt>
      <trkpt lat="44.82255" lon="6.16326">
        <ele>1070.5654296875</ele>
        <time>2020-08-14T10:50:04Z</time>
      </trkpt>
      <trkpt lat="44.82258" lon="6.16349">
        <ele>1071.0461425781</ele>
        <time>2020-08-14T10:50:18Z</time>
      </trkpt>
      <trkpt lat="44.82261" lon="6.16382">
        <ele>1072.0073242188</ele>
        <time>2020-08-14T10:50:42Z</time>
      </trkpt>
      <trkpt lat="44.82261" lon="6.16388">
        <ele>1071.5266113281</ele>
        <time>2020-08-14T10:50:46Z</time>
      </trkpt>
      <trkpt lat="44.82266" lon="6.16409">
        <ele>1070.0847167969</ele>
        <time>2020-08-14T10:51:00Z</time>
      </trkpt>
      <trkpt lat="44.82269" lon="6.1642">
        <ele>1069.1235351562</ele>
        <time>2020-08-14T10:51:07Z</time>
      </trkpt>
      <trkpt lat="44.82284" lon="6.16424">
        <ele>1070.5654296875</ele>
        <time>2020-08-14T10:51:24Z</time>
      </trkpt>
      <trkpt lat="44.82302" lon="6.16414">
        <ele>1073.4494628906</ele>
        <time>2020-08-14T10:51:42Z</time>
      </trkpt>
      <trkpt lat="44.82318" lon="6.16418">
        <ele>1080.6591796875</ele>
        <time>2020-08-14T10:52:08Z</time>
      </trkpt>
      <trkpt lat="44.82324" lon="6.16417">
        <ele>1082.1010742188</ele>
        <time>2020-08-14T10:52:17Z</time>
      </trkpt>
      <trkpt lat="44.8233" lon="6.16418">
        <ele>1084.5046386719</ele>
        <time>2020-08-14T10:52:29Z</time>
      </trkpt>
      <trkpt lat="44.82341" lon="6.16428">
        <ele>1089.3110351562</ele>
        <time>2020-08-14T10:52:46Z</time>
      </trkpt>
      <trkpt lat="44.82354" lon="6.16429">
        <ele>1092.1950683594</ele>
        <time>2020-08-14T10:53:06Z</time>
      </trkpt>
      <trkpt lat="44.82366" lon="6.16425">
        <ele>1095.0788574219</ele>
        <time>2020-08-14T10:53:24Z</time>
      </trkpt>
      <trkpt lat="44.82374" lon="6.16416">
        <ele>1094.5981445312</ele>
        <time>2020-08-14T10:53:41Z</time>
      </trkpt>
      <trkpt lat="44.8238" lon="6.16408">
        <ele>1094.1176757812</ele>
        <time>2020-08-14T10:53:57Z</time>
      </trkpt>
      <trkpt lat="44.82387" lon="6.16411">
        <ele>1096.0402832031</ele>
        <time>2020-08-14T10:54:10Z</time>
      </trkpt>
      <trkpt lat="44.82392" lon="6.16409">
        <ele>1095.0788574219</ele>
        <time>2020-08-14T10:54:29Z</time>
      </trkpt>
      <trkpt lat="44.82407" lon="6.1641">
        <ele>1098.443359375</ele>
        <time>2020-08-14T10:55:05Z</time>
      </trkpt>
      <trkpt lat="44.82418" lon="6.16411">
        <ele>1102.2888183594</ele>
        <time>2020-08-14T10:55:27Z</time>
      </trkpt>
      <trkpt lat="44.82427" lon="6.16404">
        <ele>1104.6921386719</ele>
        <time>2020-08-14T10:55:47Z</time>
      </trkpt>
      <trkpt lat="44.82431" lon="6.16384">
        <ele>1109.9792480469</ele>
        <time>2020-08-14T10:56:13Z</time>
      </trkpt>
      <trkpt lat="44.82436" lon="6.16364">
        <ele>1111.9020996094</ele>
        <time>2020-08-14T10:56:34Z</time>
      </trkpt>
      <trkpt lat="44.82436" lon="6.16346">
        <ele>1114.7858886719</ele>
        <time>2020-08-14T10:56:52Z</time>
      </trkpt>
      <trkpt lat="44.82437" lon="6.16341">
        <ele>1116.2280273438</ele>
        <time>2020-08-14T10:56:58Z</time>
      </trkpt>
      <trkpt lat="44.82438" lon="6.16334">
        <ele>1115.2666015625</ele>
        <time>2020-08-14T10:57:19Z</time>
      </trkpt>
      <trkpt lat="44.8244" lon="6.1633">
        <ele>1112.86328125</ele>
        <time>2020-08-14T10:57:56Z</time>
      </trkpt>
      <trkpt lat="44.82441" lon="6.16319">
        <ele>1112.86328125</ele>
        <time>2020-08-14T10:58:14Z</time>
      </trkpt>
      <trkpt lat="44.82448" lon="6.16319">
        <ele>1115.2666015625</ele>
        <time>2020-08-14T10:58:39Z</time>
      </trkpt>
      <trkpt lat="44.82459" lon="6.16322">
        <ele>1119.1120605469</ele>
        <time>2020-08-14T10:59:05Z</time>
      </trkpt>
      <trkpt lat="44.82476" lon="6.16314">
        <ele>1121.9958496094</ele>
        <time>2020-08-14T10:59:34Z</time>
      </trkpt>
      <trkpt lat="44.8249" lon="6.16314">
        <ele>1125.3603515625</ele>
        <time>2020-08-14T10:59:56Z</time>
      </trkpt>
      <trkpt lat="44.82497" lon="6.1631">
        <ele>1129.6862792969</ele>
        <time>2020-08-14T11:00:15Z</time>
      </trkpt>
      <trkpt lat="44.82497" lon="6.16315">
        <ele>1132.5705566406</ele>
        <time>2020-08-14T11:00:33Z</time>
      </trkpt>
      <trkpt lat="44.82499" lon="6.16322">
        <ele>1134.0124511719</ele>
        <time>2020-08-14T11:00:57Z</time>
      </trkpt>
      <trkpt lat="44.82499" lon="6.16322">
        <ele>1133.5317382812</ele>
        <time>2020-08-14T11:01:20Z</time>
      </trkpt>
      <trkpt lat="44.825" lon="6.16328">
        <ele>1130.6477050781</ele>
        <time>2020-08-14T11:01:33Z</time>
      </trkpt>
      <trkpt lat="44.82503" lon="6.16337">
        <ele>1131.6088867188</ele>
        <time>2020-08-14T11:01:49Z</time>
      </trkpt>
      <trkpt lat="44.82518" lon="6.16334">
        <ele>1134.9738769531</ele>
        <time>2020-08-14T11:02:16Z</time>
      </trkpt>
      <trkpt lat="44.82522" lon="6.16336">
        <ele>1137.376953125</ele>
        <time>2020-08-14T11:02:27Z</time>
      </trkpt>
      <trkpt lat="44.82523" lon="6.16347">
        <ele>1139.7802734375</ele>
        <time>2020-08-14T11:02:48Z</time>
      </trkpt>
      <trkpt lat="44.82526" lon="6.16351">
        <ele>1141.2221679688</ele>
        <time>2020-08-14T11:03:08Z</time>
      </trkpt>
      <trkpt lat="44.82526" lon="6.1635">
        <ele>1141.7028808594</ele>
        <time>2020-08-14T11:03:13Z</time>
      </trkpt>
      <trkpt lat="44.82532" lon="6.16345">
        <ele>1143.6254882812</ele>
        <time>2020-08-14T11:03:28Z</time>
      </trkpt>
      <trkpt lat="44.82537" lon="6.16333">
        <ele>1144.5866699219</ele>
        <time>2020-08-14T11:03:45Z</time>
      </trkpt>
      <trkpt lat="44.82542" lon="6.16325">
        <ele>1145.0673828125</ele>
        <time>2020-08-14T11:03:58Z</time>
      </trkpt>
      <trkpt lat="44.82553" lon="6.1631">
        <ele>1146.9899902344</ele>
        <time>2020-08-14T11:04:30Z</time>
      </trkpt>
      <trkpt lat="44.82559" lon="6.16302">
        <ele>1149.3935546875</ele>
        <time>2020-08-14T11:05:02Z</time>
      </trkpt>
      <trkpt lat="44.82559" lon="6.16306">
        <ele>1153.7194824219</ele>
        <time>2020-08-14T11:05:56Z</time>
      </trkpt>
      <trkpt lat="44.82562" lon="6.16309">
        <ele>1155.1613769531</ele>
        <time>2020-08-14T11:06:19Z</time>
      </trkpt>
      <trkpt lat="44.82563" lon="6.16311">
        <ele>1155.1613769531</ele>
        <time>2020-08-14T11:06:42Z</time>
      </trkpt>
      <trkpt lat="44.82565" lon="6.16311">
        <ele>1151.796875</ele>
        <time>2020-08-14T11:07:03Z</time>
      </trkpt>
      <trkpt lat="44.82568" lon="6.16314">
        <ele>1149.8742675781</ele>
        <time>2020-08-14T11:07:26Z</time>
      </trkpt>
      <trkpt lat="44.82579" lon="6.1631">
        <ele>1150.3549804688</ele>
        <time>2020-08-14T11:07:44Z</time>
      </trkpt>
      <trkpt lat="44.82582" lon="6.16303">
        <ele>1149.8742675781</ele>
        <time>2020-08-14T11:08:07Z</time>
      </trkpt>
      <trkpt lat="44.82586" lon="6.16293">
        <ele>1148.4321289062</ele>
        <time>2020-08-14T11:08:28Z</time>
      </trkpt>
      <trkpt lat="44.82591" lon="6.16288">
        <ele>1148.4321289062</ele>
        <time>2020-08-14T11:08:36Z</time>
      </trkpt>
      <trkpt lat="44.82599" lon="6.16267">
        <ele>1150.3549804688</ele>
        <time>2020-08-14T11:08:57Z</time>
      </trkpt>
      <trkpt lat="44.82609" lon="6.16256">
        <ele>1151.796875</ele>
        <time>2020-08-14T11:09:20Z</time>
      </trkpt>
      <trkpt lat="44.8261" lon="6.16249">
        <ele>1154.6806640625</ele>
        <time>2020-08-14T11:09:37Z</time>
      </trkpt>
      <trkpt lat="44.82604" lon="6.16237">
        <ele>1163.8129882812</ele>
        <time>2020-08-14T11:09:53Z</time>
      </trkpt>
      <trkpt lat="44.82613" lon="6.16236">
        <ele>1164.2939453125</ele>
        <time>2020-08-14T11:10:16Z</time>
      </trkpt>
      <trkpt lat="44.82619" lon="6.16241">
        <ele>1166.697265625</ele>
        <time>2020-08-14T11:10:43Z</time>
      </trkpt>
      <trkpt lat="44.82616" lon="6.16218">
        <ele>1168.6198730469</ele>
        <time>2020-08-14T11:11:10Z</time>
      </trkpt>
      <trkpt lat="44.82616" lon="6.16217">
        <ele>1168.6198730469</ele>
        <time>2020-08-14T11:11:11Z</time>
      </trkpt>
      <trkpt lat="44.82617" lon="6.16207">
        <ele>1170.5424804688</ele>
        <time>2020-08-14T11:11:18Z</time>
      </trkpt>
      <trkpt lat="44.82618" lon="6.16192">
        <ele>1174.8684082031</ele>
        <time>2020-08-14T11:11:39Z</time>
      </trkpt>
      <trkpt lat="44.82613" lon="6.16177">
        <ele>1179.6748046875</ele>
        <time>2020-08-14T11:12:02Z</time>
      </trkpt>
      <trkpt lat="44.82615" lon="6.16176">
        <ele>1180.1557617188</ele>
        <time>2020-08-14T11:12:20Z</time>
      </trkpt>
      <trkpt lat="44.82617" lon="6.16163">
        <ele>1182.0783691406</ele>
        <time>2020-08-14T11:12:42Z</time>
      </trkpt>
      <trkpt lat="44.82621" lon="6.16147">
        <ele>1183.0395507812</ele>
        <time>2020-08-14T11:13:02Z</time>
      </trkpt>
      <trkpt lat="44.82618" lon="6.16128">
        <ele>1184.4816894531</ele>
        <time>2020-08-14T11:13:24Z</time>
      </trkpt>
      <trkpt lat="44.82617" lon="6.16105">
        <ele>1188.8076171875</ele>
        <time>2020-08-14T11:13:47Z</time>
      </trkpt>
      <trkpt lat="44.82615" lon="6.16093">
        <ele>1191.2106933594</ele>
        <time>2020-08-14T11:14:05Z</time>
      </trkpt>
      <trkpt lat="44.82614" lon="6.1609">
        <ele>1191.69140625</ele>
        <time>2020-08-14T11:15:02Z</time>
      </trkpt>
      <trkpt lat="44.82614" lon="6.16082">
        <ele>1191.69140625</ele>
        <time>2020-08-14T11:15:07Z</time>
      </trkpt>
      <trkpt lat="44.82617" lon="6.16075">
        <ele>1191.69140625</ele>
        <time>2020-08-14T11:15:11Z</time>
      </trkpt>
      <trkpt lat="44.82624" lon="6.16058">
        <ele>1191.2106933594</ele>
        <time>2020-08-14T11:15:24Z</time>
      </trkpt>
      <trkpt lat="44.82617" lon="6.16051">
        <ele>1191.2106933594</ele>
        <time>2020-08-14T11:15:43Z</time>
      </trkpt>
      <trkpt lat="44.82608" lon="6.16051">
        <ele>1190.7299804688</ele>
        <time>2020-08-14T11:16:05Z</time>
      </trkpt>
      <trkpt lat="44.8261" lon="6.16037">
        <ele>1190.7299804688</ele>
        <time>2020-08-14T11:16:51Z</time>
      </trkpt>
      <trkpt lat="44.82621" lon="6.16016">
        <ele>1187.3654785156</ele>
        <time>2020-08-14T11:17:17Z</time>
      </trkpt>
      <trkpt lat="44.82632" lon="6.15988">
        <ele>1184.9624023438</ele>
        <time>2020-08-14T11:17:43Z</time>
      </trkpt>
      <trkpt lat="44.8264" lon="6.15973">
        <ele>1182.5590820312</ele>
        <time>2020-08-14T11:17:59Z</time>
      </trkpt>
      <trkpt lat="44.82647" lon="6.15955">
        <ele>1184.0009765625</ele>
        <time>2020-08-14T11:18:17Z</time>
      </trkpt>
      <trkpt lat="44.8266" lon="6.1594">
        <ele>1184.9624023438</ele>
        <time>2020-08-14T11:18:38Z</time>
      </trkpt>
      <trkpt lat="44.82658" lon="6.15924">
        <ele>1184.9624023438</ele>
        <time>2020-08-14T11:18:59Z</time>
      </trkpt>
      <trkpt lat="44.82658" lon="6.15913">
        <ele>1184.9624023438</ele>
        <time>2020-08-14T11:19:10Z</time>
      </trkpt>
      <trkpt lat="44.82655" lon="6.15899">
        <ele>1184.0009765625</ele>
        <time>2020-08-14T11:19:25Z</time>
      </trkpt>
      <trkpt lat="44.82653" lon="6.15894">
        <ele>1182.5590820312</ele>
        <time>2020-08-14T11:19:30Z</time>
      </trkpt>
      <trkpt lat="44.82656" lon="6.15891">
        <ele>1183.0395507812</ele>
        <time>2020-08-14T11:19:33Z</time>
      </trkpt>
      <trkpt lat="44.82654" lon="6.15875">
        <ele>1183.5202636719</ele>
        <time>2020-08-14T11:19:44Z</time>
      </trkpt>
      <trkpt lat="44.82654" lon="6.15873">
        <ele>1184.0009765625</ele>
        <time>2020-08-14T11:19:46Z</time>
      </trkpt>
      <trkpt lat="44.82656" lon="6.1585">
        <ele>1184.4816894531</ele>
        <time>2020-08-14T11:20:03Z</time>
      </trkpt>
      <trkpt lat="44.82658" lon="6.15827">
        <ele>1184.0009765625</ele>
        <time>2020-08-14T11:20:20Z</time>
      </trkpt>
      <trkpt lat="44.82658" lon="6.15816">
        <ele>1184.9624023438</ele>
        <time>2020-08-14T11:20:31Z</time>
      </trkpt>
      <trkpt lat="44.82655" lon="6.15797">
        <ele>1183.5202636719</ele>
        <time>2020-08-14T11:20:47Z</time>
      </trkpt>
      <trkpt lat="44.82654" lon="6.15784">
        <ele>1184.0009765625</ele>
        <time>2020-08-14T11:21:05Z</time>
      </trkpt>
      <trkpt lat="44.82656" lon="6.15762">
        <ele>1181.59765625</ele>
        <time>2020-08-14T11:21:24Z</time>
      </trkpt>
      <trkpt lat="44.82655" lon="6.1574">
        <ele>1179.6748046875</ele>
        <time>2020-08-14T11:21:40Z</time>
      </trkpt>
      <trkpt lat="44.82665" lon="6.15723">
        <ele>1178.2329101562</ele>
        <time>2020-08-14T11:22:02Z</time>
      </trkpt>
      <trkpt lat="44.82672" lon="6.15712">
        <ele>1178.7136230469</ele>
        <time>2020-08-14T11:22:19Z</time>
      </trkpt>
      <trkpt lat="44.82677" lon="6.15692">
        <ele>1178.2329101562</ele>
        <time>2020-08-14T11:22:37Z</time>
      </trkpt>
      <trkpt lat="44.82678" lon="6.15675">
        <ele>1178.7136230469</ele>
        <time>2020-08-14T11:22:59Z</time>
      </trkpt>
      <trkpt lat="44.82669" lon="6.15651">
        <ele>1179.1940917969</ele>
        <time>2020-08-14T11:23:36Z</time>
      </trkpt>
      <trkpt lat="44.82665" lon="6.15627">
        <ele>1178.2329101562</ele>
        <time>2020-08-14T11:23:58Z</time>
      </trkpt>
      <trkpt lat="44.82664" lon="6.15622">
        <ele>1178.2329101562</ele>
        <time>2020-08-14T11:24:01Z</time>
      </trkpt>
      <trkpt lat="44.82655" lon="6.15599">
        <ele>1178.2329101562</ele>
        <time>2020-08-14T11:24:21Z</time>
      </trkpt>
      <trkpt lat="44.82646" lon="6.15577">
        <ele>1178.7136230469</ele>
        <time>2020-08-14T11:24:40Z</time>
      </trkpt>
      <trkpt lat="44.82644" lon="6.15563">
        <ele>1179.1940917969</ele>
        <time>2020-08-14T11:24:51Z</time>
      </trkpt>
      <trkpt lat="44.82645" lon="6.1556">
        <ele>1179.1940917969</ele>
        <time>2020-08-14T11:24:53Z</time>
      </trkpt>
      <trkpt lat="44.82654" lon="6.1554">
        <ele>1178.7136230469</ele>
        <time>2020-08-14T11:25:08Z</time>
      </trkpt>
      <trkpt lat="44.82651" lon="6.15512">
        <ele>1177.7521972656</ele>
        <time>2020-08-14T11:25:26Z</time>
      </trkpt>
      <trkpt lat="44.82651" lon="6.15506">
        <ele>1177.7521972656</ele>
        <time>2020-08-14T11:25:29Z</time>
      </trkpt>
      <trkpt lat="44.82651" lon="6.15502">
        <ele>1177.2717285156</ele>
        <time>2020-08-14T11:25:32Z</time>
      </trkpt>
      <trkpt lat="44.82655" lon="6.15482">
        <ele>1174.3876953125</ele>
        <time>2020-08-14T11:25:50Z</time>
      </trkpt>
      <trkpt lat="44.82654" lon="6.1546">
        <ele>1173.9069824219</ele>
        <time>2020-08-14T11:26:09Z</time>
      </trkpt>
      <trkpt lat="44.82645" lon="6.15435">
        <ele>1173.9069824219</ele>
        <time>2020-08-14T11:26:29Z</time>
      </trkpt>
      <trkpt lat="44.82638" lon="6.15413">
        <ele>1172.9458007812</ele>
        <time>2020-08-14T11:26:48Z</time>
      </trkpt>
      <trkpt lat="44.82637" lon="6.15402">
        <ele>1172.4650878906</ele>
        <time>2020-08-14T11:26:58Z</time>
      </trkpt>
      <trkpt lat="44.82636" lon="6.15397">
        <ele>1172.4650878906</ele>
        <time>2020-08-14T11:27:02Z</time>
      </trkpt>
      <trkpt lat="44.82635" lon="6.15386">
        <ele>1171.0231933594</ele>
        <time>2020-08-14T11:27:10Z</time>
      </trkpt>
      <trkpt lat="44.82636" lon="6.15368">
        <ele>1166.2165527344</ele>
        <time>2020-08-14T11:27:24Z</time>
      </trkpt>
      <trkpt lat="44.82636" lon="6.15348">
        <ele>1162.37109375</ele>
        <time>2020-08-14T11:27:39Z</time>
      </trkpt>
      <trkpt lat="44.82635" lon="6.15343">
        <ele>1161.4099121094</ele>
        <time>2020-08-14T11:27:43Z</time>
      </trkpt>
      <trkpt lat="44.82632" lon="6.15324">
        <ele>1159.0065917969</ele>
        <time>2020-08-14T11:27:56Z</time>
      </trkpt>
      <trkpt lat="44.82628" lon="6.15304">
        <ele>1155.1613769531</ele>
        <time>2020-08-14T11:28:09Z</time>
      </trkpt>
      <trkpt lat="44.82626" lon="6.15292">
        <ele>1151.3161621094</ele>
        <time>2020-08-14T11:28:24Z</time>
      </trkpt>
      <trkpt lat="44.82624" lon="6.15276">
        <ele>1149.8742675781</ele>
        <time>2020-08-14T11:28:44Z</time>
      </trkpt>
      <trkpt lat="44.8262" lon="6.15273">
        <ele>1149.3935546875</ele>
        <time>2020-08-14T11:28:50Z</time>
      </trkpt>
      <trkpt lat="44.82618" lon="6.15262">
        <ele>1148.9128417969</ele>
        <time>2020-08-14T11:29:05Z</time>
      </trkpt>
      <trkpt lat="44.82615" lon="6.15249">
        <ele>1147.9514160156</ele>
        <time>2020-08-14T11:29:24Z</time>
      </trkpt>
      <trkpt lat="44.82612" lon="6.15232">
        <ele>1145.5480957031</ele>
        <time>2020-08-14T11:29:39Z</time>
      </trkpt>
      <trkpt lat="44.82618" lon="6.15216">
        <ele>1148.4321289062</ele>
        <time>2020-08-14T11:29:56Z</time>
      </trkpt>
      <trkpt lat="44.82616" lon="6.15206">
        <ele>1146.0288085938</ele>
        <time>2020-08-14T11:30:08Z</time>
      </trkpt>
      <trkpt lat="44.82612" lon="6.15196">
        <ele>1144.5866699219</ele>
        <time>2020-08-14T11:30:18Z</time>
      </trkpt>
      <trkpt lat="44.82617" lon="6.15186">
        <ele>1142.6643066406</ele>
        <time>2020-08-14T11:30:31Z</time>
      </trkpt>
      <trkpt lat="44.82616" lon="6.1518">
        <ele>1142.18359375</ele>
        <time>2020-08-14T11:30:37Z</time>
      </trkpt>
      <trkpt lat="44.82619" lon="6.15158">
        <ele>1143.1447753906</ele>
        <time>2020-08-14T11:30:54Z</time>
      </trkpt>
      <trkpt lat="44.82617" lon="6.15156">
        <ele>1143.6254882812</ele>
        <time>2020-08-14T11:30:55Z</time>
      </trkpt>
      <trkpt lat="44.82618" lon="6.15153">
        <ele>1144.1062011719</ele>
        <time>2020-08-14T11:30:57Z</time>
      </trkpt>
      <trkpt lat="44.8262" lon="6.15144">
        <ele>1146.0288085938</ele>
        <time>2020-08-14T11:31:05Z</time>
      </trkpt>
      <trkpt lat="44.82627" lon="6.15128">
        <ele>1152.27734375</ele>
        <time>2020-08-14T11:31:20Z</time>
      </trkpt>
      <trkpt lat="44.82627" lon="6.15125">
        <ele>1152.7580566406</ele>
        <time>2020-08-14T11:31:22Z</time>
      </trkpt>
      <trkpt lat="44.82632" lon="6.15105">
        <ele>1157.5646972656</ele>
        <time>2020-08-14T11:31:40Z</time>
      </trkpt>
      <trkpt lat="44.82635" lon="6.15093">
        <ele>1159.9677734375</ele>
        <time>2020-08-14T11:31:51Z</time>
      </trkpt>
      <trkpt lat="44.82633" lon="6.15068">
        <ele>1163.3325195312</ele>
        <time>2020-08-14T11:32:07Z</time>
      </trkpt>
      <trkpt lat="44.8263" lon="6.15061">
        <ele>1163.8129882812</ele>
        <time>2020-08-14T11:32:12Z</time>
      </trkpt>
      <trkpt lat="44.8262" lon="6.15044">
        <ele>1163.8129882812</ele>
        <time>2020-08-14T11:32:25Z</time>
      </trkpt>
      <trkpt lat="44.82614" lon="6.15034">
        <ele>1163.8129882812</ele>
        <time>2020-08-14T11:32:34Z</time>
      </trkpt>
      <trkpt lat="44.82616" lon="6.15029">
        <ele>1160.4484863281</ele>
        <time>2020-08-14T11:32:39Z</time>
      </trkpt>
      <trkpt lat="44.82613" lon="6.15025">
        <ele>1159.4873046875</ele>
        <time>2020-08-14T11:32:42Z</time>
      </trkpt>
      <trkpt lat="44.82612" lon="6.15016">
        <ele>1156.1225585938</ele>
        <time>2020-08-14T11:32:51Z</time>
      </trkpt>
      <trkpt lat="44.82619" lon="6.14996">
        <ele>1155.1613769531</ele>
        <time>2020-08-14T11:33:07Z</time>
      </trkpt>
      <trkpt lat="44.8262" lon="6.14993">
        <ele>1155.1613769531</ele>
        <time>2020-08-14T11:33:09Z</time>
      </trkpt>
      <trkpt lat="44.82622" lon="6.14979">
        <ele>1153.7194824219</ele>
        <time>2020-08-14T11:33:20Z</time>
      </trkpt>
      <trkpt lat="44.82618" lon="6.14964">
        <ele>1151.796875</ele>
        <time>2020-08-14T11:33:34Z</time>
      </trkpt>
      <trkpt lat="44.82619" lon="6.14957">
        <ele>1151.3161621094</ele>
        <time>2020-08-14T11:33:42Z</time>
      </trkpt>
      <trkpt lat="44.8262" lon="6.14954">
        <ele>1151.796875</ele>
        <time>2020-08-14T11:33:45Z</time>
      </trkpt>
      <trkpt lat="44.82627" lon="6.14929">
        <ele>1142.6643066406</ele>
        <time>2020-08-14T11:34:06Z</time>
      </trkpt>
      <trkpt lat="44.8264" lon="6.14906">
        <ele>1141.2221679688</ele>
        <time>2020-08-14T11:34:26Z</time>
      </trkpt>
      <trkpt lat="44.82655" lon="6.14889">
        <ele>1139.2995605469</ele>
        <time>2020-08-14T11:34:42Z</time>
      </trkpt>
      <trkpt lat="44.82663" lon="6.14871">
        <ele>1136.4157714844</ele>
        <time>2020-08-14T11:34:58Z</time>
      </trkpt>
      <trkpt lat="44.82664" lon="6.14871">
        <ele>1135.9350585938</ele>
        <time>2020-08-14T11:34:59Z</time>
      </trkpt>
      <trkpt lat="44.82667" lon="6.14859">
        <ele>1135.4543457031</ele>
        <time>2020-08-14T11:35:08Z</time>
      </trkpt>
      <trkpt lat="44.82669" lon="6.14853">
        <ele>1134.4931640625</ele>
        <time>2020-08-14T11:35:13Z</time>
      </trkpt>
      <trkpt lat="44.82674" lon="6.14839">
        <ele>1133.0510253906</ele>
        <time>2020-08-14T11:35:26Z</time>
      </trkpt>
      <trkpt lat="44.82677" lon="6.14815">
        <ele>1132.08984375</ele>
        <time>2020-08-14T11:35:43Z</time>
      </trkpt>
      <trkpt lat="44.82676" lon="6.14794">
        <ele>1128.2443847656</ele>
        <time>2020-08-14T11:36:06Z</time>
      </trkpt>
      <trkpt lat="44.82672" lon="6.14783">
        <ele>1125.8410644531</ele>
        <time>2020-08-14T11:36:21Z</time>
      </trkpt>
      <trkpt lat="44.82675" lon="6.14779">
        <ele>1125.8410644531</ele>
        <time>2020-08-14T11:36:25Z</time>
      </trkpt>
      <trkpt lat="44.82678" lon="6.14771">
        <ele>1122.4765625</ele>
        <time>2020-08-14T11:36:35Z</time>
      </trkpt>
      <trkpt lat="44.82679" lon="6.14765">
        <ele>1122.4765625</ele>
        <time>2020-08-14T11:36:39Z</time>
      </trkpt>
      <trkpt lat="44.82689" lon="6.14747">
        <ele>1123.9184570312</ele>
        <time>2020-08-14T11:36:56Z</time>
      </trkpt>
      <trkpt lat="44.82691" lon="6.14742">
        <ele>1123.4379882812</ele>
        <time>2020-08-14T11:37:00Z</time>
      </trkpt>
      <trkpt lat="44.82694" lon="6.14739">
        <ele>1121.5151367188</ele>
        <time>2020-08-14T11:37:17Z</time>
      </trkpt>
      <trkpt lat="44.82693" lon="6.14733">
        <ele>1120.5539550781</ele>
        <time>2020-08-14T11:37:39Z</time>
      </trkpt>
      <trkpt lat="44.82697" lon="6.14725">
        <ele>1119.5927734375</ele>
        <time>2020-08-14T11:37:45Z</time>
      </trkpt>
      <trkpt lat="44.82693" lon="6.14708">
        <ele>1116.2280273438</ele>
        <time>2020-08-14T11:37:59Z</time>
      </trkpt>
      <trkpt lat="44.82689" lon="6.14691">
        <ele>1112.3825683594</ele>
        <time>2020-08-14T11:38:17Z</time>
      </trkpt>
      <trkpt lat="44.8269" lon="6.14683">
        <ele>1110.9406738281</ele>
        <time>2020-08-14T11:38:24Z</time>
      </trkpt>
      <trkpt lat="44.82696" lon="6.1467">
        <ele>1106.1340332031</ele>
        <time>2020-08-14T11:38:38Z</time>
      </trkpt>
      <trkpt lat="44.82703" lon="6.14652">
        <ele>1104.6921386719</ele>
        <time>2020-08-14T11:38:54Z</time>
      </trkpt>
      <trkpt lat="44.82704" lon="6.14639">
        <ele>1102.76953125</ele>
        <time>2020-08-14T11:39:07Z</time>
      </trkpt>
      <trkpt lat="44.82704" lon="6.14636">
        <ele>1098.443359375</ele>
        <time>2020-08-14T11:39:23Z</time>
      </trkpt>
      <trkpt lat="44.82704" lon="6.1463">
        <ele>1097.4821777344</ele>
        <time>2020-08-14T11:39:57Z</time>
      </trkpt>
      <trkpt lat="44.8271" lon="6.14623">
        <ele>1096.5209960938</ele>
        <time>2020-08-14T11:40:49Z</time>
      </trkpt>
      <trkpt lat="44.82714" lon="6.14618">
        <ele>1095.5595703125</ele>
        <time>2020-08-14T11:41:16Z</time>
      </trkpt>
      <trkpt lat="44.82728" lon="6.14606">
        <ele>1096.5209960938</ele>
        <time>2020-08-14T11:41:49Z</time>
      </trkpt>
      <trkpt lat="44.82731" lon="6.14603">
        <ele>1096.0402832031</ele>
        <time>2020-08-14T11:42:10Z</time>
      </trkpt>
      <trkpt lat="44.82728" lon="6.14599">
        <ele>1096.5209960938</ele>
        <time>2020-08-14T11:59:48Z</time>
      </trkpt>
      <trkpt lat="44.82726" lon="6.14606">
        <ele>1097.0014648438</ele>
        <time>2020-08-14T12:01:53Z</time>
      </trkpt>
      <trkpt lat="44.8272" lon="6.14604">
        <ele>1097.0014648438</ele>
        <time>2020-08-14T12:03:50Z</time>
      </trkpt>
      <trkpt lat="44.82726" lon="6.14601">
        <ele>1099.8854980469</ele>
        <time>2020-08-14T12:28:52Z</time>
      </trkpt>
      <trkpt lat="44.82728" lon="6.146">
        <ele>1099.4047851562</ele>
        <time>2020-08-14T12:31:20Z</time>
      </trkpt>
      <trkpt lat="44.82731" lon="6.14604">
        <ele>1101.8083496094</ele>
        <time>2020-08-14T12:31:35Z</time>
      </trkpt>
      <trkpt lat="44.82731" lon="6.14605">
        <ele>1101.8083496094</ele>
        <time>2020-08-14T12:31:37Z</time>
      </trkpt>
      <trkpt lat="44.82735" lon="6.14624">
        <ele>1104.2116699219</ele>
        <time>2020-08-14T12:31:54Z</time>
      </trkpt>
      <trkpt lat="44.82737" lon="6.14637">
        <ele>1105.1728515625</ele>
        <time>2020-08-14T12:32:09Z</time>
      </trkpt>
      <trkpt lat="44.82739" lon="6.14658">
        <ele>1104.6921386719</ele>
        <time>2020-08-14T12:32:29Z</time>
      </trkpt>
      <trkpt lat="44.82736" lon="6.14684">
        <ele>1106.6147460938</ele>
        <time>2020-08-14T12:32:54Z</time>
      </trkpt>
      <trkpt lat="44.82736" lon="6.14705">
        <ele>1110.9406738281</ele>
        <time>2020-08-14T12:33:16Z</time>
      </trkpt>
      <trkpt lat="44.82742" lon="6.14697">
        <ele>1113.3439941406</ele>
        <time>2020-08-14T12:33:35Z</time>
      </trkpt>
      <trkpt lat="44.82748" lon="6.14694">
        <ele>1114.7858886719</ele>
        <time>2020-08-14T12:33:58Z</time>
      </trkpt>
      <trkpt lat="44.82754" lon="6.14681">
        <ele>1117.669921875</ele>
        <time>2020-08-14T12:34:18Z</time>
      </trkpt>
      <trkpt lat="44.82759" lon="6.14665">
        <ele>1118.1506347656</ele>
        <time>2020-08-14T12:34:38Z</time>
      </trkpt>
      <trkpt lat="44.82766" lon="6.14655">
        <ele>1118.1506347656</ele>
        <time>2020-08-14T12:34:52Z</time>
      </trkpt>
      <trkpt lat="44.8277" lon="6.14645">
        <ele>1119.5927734375</ele>
        <time>2020-08-14T12:35:07Z</time>
      </trkpt>
      <trkpt lat="44.82779" lon="6.14628">
        <ele>1121.9958496094</ele>
        <time>2020-08-14T12:35:28Z</time>
      </trkpt>
      <trkpt lat="44.82785" lon="6.14613">
        <ele>1123.4379882812</ele>
        <time>2020-08-14T12:35:45Z</time>
      </trkpt>
      <trkpt lat="44.82799" lon="6.14591">
        <ele>1123.9184570312</ele>
        <time>2020-08-14T12:36:10Z</time>
      </trkpt>
      <trkpt lat="44.82809" lon="6.14576">
        <ele>1124.8798828125</ele>
        <time>2020-08-14T12:36:31Z</time>
      </trkpt>
      <trkpt lat="44.8282" lon="6.14567">
        <ele>1122.9572753906</ele>
        <time>2020-08-14T12:36:51Z</time>
      </trkpt>
      <trkpt lat="44.82827" lon="6.1456">
        <ele>1121.5151367188</ele>
        <time>2020-08-14T12:37:07Z</time>
      </trkpt>
      <trkpt lat="44.82838" lon="6.14541">
        <ele>1120.5539550781</ele>
        <time>2020-08-14T12:37:31Z</time>
      </trkpt>
      <trkpt lat="44.82848" lon="6.14525">
        <ele>1121.5151367188</ele>
        <time>2020-08-14T12:37:52Z</time>
      </trkpt>
      <trkpt lat="44.82845" lon="6.14525">
        <ele>1125.8410644531</ele>
        <time>2020-08-14T12:38:10Z</time>
      </trkpt>
      <trkpt lat="44.82853" lon="6.14512">
        <ele>1126.8024902344</ele>
        <time>2020-08-14T12:39:00Z</time>
      </trkpt>
      <trkpt lat="44.82864" lon="6.14498">
        <ele>1128.2443847656</ele>
        <time>2020-08-14T12:39:18Z</time>
      </trkpt>
      <trkpt lat="44.82873" lon="6.14482">
        <ele>1128.2443847656</ele>
        <time>2020-08-14T12:39:41Z</time>
      </trkpt>
      <trkpt lat="44.82879" lon="6.14462">
        <ele>1130.6477050781</ele>
        <time>2020-08-14T12:40:03Z</time>
      </trkpt>
      <trkpt lat="44.82891" lon="6.14448">
        <ele>1134.0124511719</ele>
        <time>2020-08-14T12:40:24Z</time>
      </trkpt>
      <trkpt lat="44.82907" lon="6.14425">
        <ele>1135.9350585938</ele>
        <time>2020-08-14T12:40:52Z</time>
      </trkpt>
      <trkpt lat="44.82917" lon="6.14411">
        <ele>1140.7414550781</ele>
        <time>2020-08-14T12:41:13Z</time>
      </trkpt>
      <trkpt lat="44.82924" lon="6.14393">
        <ele>1146.9899902344</ele>
        <time>2020-08-14T12:41:34Z</time>
      </trkpt>
      <trkpt lat="44.82923" lon="6.14374">
        <ele>1151.796875</ele>
        <time>2020-08-14T12:41:51Z</time>
      </trkpt>
      <trkpt lat="44.82929" lon="6.14356">
        <ele>1156.6032714844</ele>
        <time>2020-08-14T12:42:10Z</time>
      </trkpt>
      <trkpt lat="44.82939" lon="6.14352">
        <ele>1160.4484863281</ele>
        <time>2020-08-14T12:42:26Z</time>
      </trkpt>
      <trkpt lat="44.82946" lon="6.1436">
        <ele>1166.697265625</ele>
        <time>2020-08-14T12:42:43Z</time>
      </trkpt>
      <trkpt lat="44.82968" lon="6.14355">
        <ele>1175.3488769531</ele>
        <time>2020-08-14T12:43:10Z</time>
      </trkpt>
      <trkpt lat="44.82983" lon="6.14348">
        <ele>1183.5202636719</ele>
        <time>2020-08-14T12:43:33Z</time>
      </trkpt>
      <trkpt lat="44.82998" lon="6.1434">
        <ele>1190.2495117188</ele>
        <time>2020-08-14T12:43:53Z</time>
      </trkpt>
      <trkpt lat="44.83011" lon="6.1435">
        <ele>1196.4982910156</ele>
        <time>2020-08-14T12:44:16Z</time>
      </trkpt>
      <trkpt lat="44.83016" lon="6.14347">
        <ele>1199.8627929688</ele>
        <time>2020-08-14T12:44:41Z</time>
      </trkpt>
      <trkpt lat="44.83014" lon="6.14344">
        <ele>1200.8239746094</ele>
        <time>2020-08-14T12:45:07Z</time>
      </trkpt>
      <trkpt lat="44.83022" lon="6.14339">
        <ele>1201.3046875</ele>
        <time>2020-08-14T12:45:55Z</time>
      </trkpt>
      <trkpt lat="44.83036" lon="6.1434">
        <ele>1202.2658691406</ele>
        <time>2020-08-14T12:47:10Z</time>
      </trkpt>
      <trkpt lat="44.83045" lon="6.14338">
        <ele>1203.7080078125</ele>
        <time>2020-08-14T12:47:25Z</time>
      </trkpt>
      <trkpt lat="44.83052" lon="6.14339">
        <ele>1204.1887207031</ele>
        <time>2020-08-14T12:47:31Z</time>
      </trkpt>
      <trkpt lat="44.83064" lon="6.14334">
        <ele>1205.6306152344</ele>
        <time>2020-08-14T12:47:46Z</time>
      </trkpt>
      <trkpt lat="44.8307" lon="6.14327">
        <ele>1207.5532226562</ele>
        <time>2020-08-14T12:48:02Z</time>
      </trkpt>
      <trkpt lat="44.83095" lon="6.1432">
        <ele>1209.9562988281</ele>
        <time>2020-08-14T12:48:35Z</time>
      </trkpt>
      <trkpt lat="44.83097" lon="6.14315">
        <ele>1209.9562988281</ele>
        <time>2020-08-14T12:48:39Z</time>
      </trkpt>
      <trkpt lat="44.83113" lon="6.14309">
        <ele>1211.8791503906</ele>
        <time>2020-08-14T12:49:02Z</time>
      </trkpt>
      <trkpt lat="44.83122" lon="6.14291">
        <ele>1212.8405761719</ele>
        <time>2020-08-14T12:49:21Z</time>
      </trkpt>
      <trkpt lat="44.83133" lon="6.1429">
        <ele>1217.1665039062</ele>
        <time>2020-08-14T12:49:44Z</time>
      </trkpt>
      <trkpt lat="44.83146" lon="6.14279">
        <ele>1220.0502929688</ele>
        <time>2020-08-14T12:50:09Z</time>
      </trkpt>
      <trkpt lat="44.83154" lon="6.14261">
        <ele>1225.3374023438</ele>
        <time>2020-08-14T12:50:38Z</time>
      </trkpt>
      <trkpt lat="44.83163" lon="6.14252">
        <ele>1226.7795410156</ele>
        <time>2020-08-14T12:50:48Z</time>
      </trkpt>
      <trkpt lat="44.83172" lon="6.14251">
        <ele>1228.2216796875</ele>
        <time>2020-08-14T12:51:10Z</time>
      </trkpt>
      <trkpt lat="44.83181" lon="6.1424">
        <ele>1230.625</ele>
        <time>2020-08-14T12:51:45Z</time>
      </trkpt>
      <trkpt lat="44.83177" lon="6.14247">
        <ele>1232.0668945312</ele>
        <time>2020-08-14T12:52:04Z</time>
      </trkpt>
      <trkpt lat="44.83183" lon="6.14252">
        <ele>1234.4702148438</ele>
        <time>2020-08-14T12:52:40Z</time>
      </trkpt>
      <trkpt lat="44.83194" lon="6.14247">
        <ele>1234.9509277344</ele>
        <time>2020-08-14T12:53:06Z</time>
      </trkpt>
      <trkpt lat="44.83196" lon="6.14248">
        <ele>1235.4313964844</ele>
        <time>2020-08-14T12:53:29Z</time>
      </trkpt>
      <trkpt lat="44.83193" lon="6.14259">
        <ele>1236.8732910156</ele>
        <time>2020-08-14T12:53:52Z</time>
      </trkpt>
      <trkpt lat="44.83196" lon="6.14259">
        <ele>1236.8732910156</ele>
        <time>2020-08-14T12:54:07Z</time>
      </trkpt>
      <trkpt lat="44.83207" lon="6.14261">
        <ele>1236.3928222656</ele>
        <time>2020-08-14T12:54:31Z</time>
      </trkpt>
      <trkpt lat="44.83206" lon="6.1427">
        <ele>1237.8347167969</ele>
        <time>2020-08-14T12:54:50Z</time>
      </trkpt>
      <trkpt lat="44.83207" lon="6.14274">
        <ele>1236.8732910156</ele>
        <time>2020-08-14T12:55:06Z</time>
      </trkpt>
      <trkpt lat="44.83209" lon="6.14273">
        <ele>1236.3928222656</ele>
        <time>2020-08-14T12:55:11Z</time>
      </trkpt>
      <trkpt lat="44.83217" lon="6.14266">
        <ele>1235.912109375</ele>
        <time>2020-08-14T12:55:28Z</time>
      </trkpt>
      <trkpt lat="44.83216" lon="6.14281">
        <ele>1227.2602539062</ele>
        <time>2020-08-14T12:57:06Z</time>
      </trkpt>
      <trkpt lat="44.83223" lon="6.14276">
        <ele>1227.7407226562</ele>
        <time>2020-08-14T12:57:31Z</time>
      </trkpt>
      <trkpt lat="44.83234" lon="6.14273">
        <ele>1228.2216796875</ele>
        <time>2020-08-14T12:57:56Z</time>
      </trkpt>
      <trkpt lat="44.83234" lon="6.14276">
        <ele>1228.2216796875</ele>
        <time>2020-08-14T12:57:59Z</time>
      </trkpt>
      <trkpt lat="44.83233" lon="6.1429">
        <ele>1226.7795410156</ele>
        <time>2020-08-14T12:58:16Z</time>
      </trkpt>
      <trkpt lat="44.83231" lon="6.14297">
        <ele>1225.3374023438</ele>
        <time>2020-08-14T12:58:35Z</time>
      </trkpt>
      <trkpt lat="44.83231" lon="6.14317">
        <ele>1222.4536132812</ele>
        <time>2020-08-14T12:59:09Z</time>
      </trkpt>
      <trkpt lat="44.83239" lon="6.14305">
        <ele>1221.4921875</ele>
        <time>2020-08-14T12:59:43Z</time>
      </trkpt>
      <trkpt lat="44.83246" lon="6.14301">
        <ele>1221.9729003906</ele>
        <time>2020-08-14T12:59:52Z</time>
      </trkpt>
      <trkpt lat="44.83251" lon="6.14298">
        <ele>1222.9343261719</ele>
        <time>2020-08-14T13:00:09Z</time>
      </trkpt>
      <trkpt lat="44.83249" lon="6.14319">
        <ele>1224.8569335938</ele>
        <time>2020-08-14T13:00:30Z</time>
      </trkpt>
      <trkpt lat="44.83249" lon="6.1432">
        <ele>1226.7795410156</ele>
        <time>2020-08-14T13:01:05Z</time>
      </trkpt>
      <trkpt lat="44.83252" lon="6.14325">
        <ele>1227.7407226562</ele>
        <time>2020-08-14T13:03:37Z</time>
      </trkpt>
      <trkpt lat="44.83261" lon="6.14316">
        <ele>1226.7795410156</ele>
        <time>2020-08-14T13:03:51Z</time>
      </trkpt>
      <trkpt lat="44.83265" lon="6.14312">
        <ele>1220.0502929688</ele>
        <time>2020-08-14T13:04:46Z</time>
      </trkpt>
      <trkpt lat="44.83264" lon="6.14311">
        <ele>1216.6857910156</ele>
        <time>2020-08-14T13:05:26Z</time>
      </trkpt>
      <trkpt lat="44.83264" lon="6.14321">
        <ele>1216.205078125</ele>
        <time>2020-08-14T13:05:52Z</time>
      </trkpt>
      <trkpt lat="44.8327" lon="6.14331">
        <ele>1216.6857910156</ele>
        <time>2020-08-14T13:06:06Z</time>
      </trkpt>
      <trkpt lat="44.83278" lon="6.14327">
        <ele>1216.6857910156</ele>
        <time>2020-08-14T13:06:24Z</time>
      </trkpt>
      <trkpt lat="44.83277" lon="6.14336">
        <ele>1215.2438964844</ele>
        <time>2020-08-14T13:06:42Z</time>
      </trkpt>
      <trkpt lat="44.8328" lon="6.14326">
        <ele>1222.4536132812</ele>
        <time>2020-08-14T13:07:15Z</time>
      </trkpt>
      <trkpt lat="44.8328" lon="6.14334">
        <ele>1225.8181152344</ele>
        <time>2020-08-14T13:07:30Z</time>
      </trkpt>
      <trkpt lat="44.83289" lon="6.14343">
        <ele>1228.2216796875</ele>
        <time>2020-08-14T13:07:46Z</time>
      </trkpt>
      <trkpt lat="44.83292" lon="6.1434">
        <ele>1227.2602539062</ele>
        <time>2020-08-14T13:08:07Z</time>
      </trkpt>
      <trkpt lat="44.83286" lon="6.1434">
        <ele>1227.7407226562</ele>
        <time>2020-08-14T13:08:43Z</time>
      </trkpt>
      <trkpt lat="44.83288" lon="6.14343">
        <ele>1229.1828613281</ele>
        <time>2020-08-14T13:08:59Z</time>
      </trkpt>
      <trkpt lat="44.83302" lon="6.14338">
        <ele>1229.6635742188</ele>
        <time>2020-08-14T13:09:24Z</time>
      </trkpt>
      <trkpt lat="44.83309" lon="6.14332">
        <ele>1226.298828125</ele>
        <time>2020-08-14T13:09:57Z</time>
      </trkpt>
      <trkpt lat="44.83305" lon="6.14338">
        <ele>1222.9343261719</ele>
        <time>2020-08-14T13:10:29Z</time>
      </trkpt>
      <trkpt lat="44.83309" lon="6.14342">
        <ele>1223.8955078125</ele>
        <time>2020-08-14T13:10:34Z</time>
      </trkpt>
      <trkpt lat="44.83324" lon="6.14342">
        <ele>1227.2602539062</ele>
        <time>2020-08-14T13:10:51Z</time>
      </trkpt>
      <trkpt lat="44.83333" lon="6.14334">
        <ele>1231.5861816406</ele>
        <time>2020-08-14T13:11:09Z</time>
      </trkpt>
      <trkpt lat="44.83341" lon="6.14326">
        <ele>1235.4313964844</ele>
        <time>2020-08-14T13:11:22Z</time>
      </trkpt>
      <trkpt lat="44.83345" lon="6.14328">
        <ele>1235.912109375</ele>
        <time>2020-08-14T13:11:25Z</time>
      </trkpt>
      <trkpt lat="44.83346" lon="6.14316">
        <ele>1242.6413574219</ele>
        <time>2020-08-14T13:11:40Z</time>
      </trkpt>
      <trkpt lat="44.83346" lon="6.1429">
        <ele>1256.5803222656</ele>
        <time>2020-08-14T13:12:07Z</time>
      </trkpt>
      <trkpt lat="44.8335" lon="6.14282">
        <ele>1264.2709960938</ele>
        <time>2020-08-14T13:12:30Z</time>
      </trkpt>
      <trkpt lat="44.83351" lon="6.14285">
        <ele>1271.4807128906</ele>
        <time>2020-08-14T13:12:54Z</time>
      </trkpt>
      <trkpt lat="44.83346" lon="6.1428">
        <ele>1277.2490234375</ele>
        <time>2020-08-14T13:13:29Z</time>
      </trkpt>
      <trkpt lat="44.83349" lon="6.14273">
        <ele>1283.4973144531</ele>
        <time>2020-08-14T13:13:59Z</time>
      </trkpt>
      <trkpt lat="44.83344" lon="6.14249">
        <ele>1290.70703125</ele>
        <time>2020-08-14T13:14:42Z</time>
      </trkpt>
      <trkpt lat="44.83337" lon="6.14231">
        <ele>1296.4753417969</ele>
        <time>2020-08-14T13:15:03Z</time>
      </trkpt>
      <trkpt lat="44.83343" lon="6.14219">
        <ele>1315.2209472656</ele>
        <time>2020-08-14T13:17:31Z</time>
      </trkpt>
      <trkpt lat="44.83343" lon="6.14209">
        <ele>1318.1047363281</ele>
        <time>2020-08-14T13:18:08Z</time>
      </trkpt>
      <trkpt lat="44.83344" lon="6.14218">
        <ele>1325.3146972656</ele>
        <time>2020-08-14T13:20:08Z</time>
      </trkpt>
      <trkpt lat="44.83348" lon="6.14219">
        <ele>1328.1987304688</ele>
        <time>2020-08-14T13:20:24Z</time>
      </trkpt>
      <trkpt lat="44.8335" lon="6.1422">
        <ele>1329.640625</ele>
        <time>2020-08-14T13:20:31Z</time>
      </trkpt>
      <trkpt lat="44.83355" lon="6.1422">
        <ele>1332.0439453125</ele>
        <time>2020-08-14T13:20:44Z</time>
      </trkpt>
      <trkpt lat="44.83365" lon="6.1421">
        <ele>1336.3698730469</ele>
        <time>2020-08-14T13:21:11Z</time>
      </trkpt>
      <trkpt lat="44.8337" lon="6.14193">
        <ele>1337.3310546875</ele>
        <time>2020-08-14T13:21:25Z</time>
      </trkpt>
      <trkpt lat="44.83379" lon="6.14185">
        <ele>1338.7731933594</ele>
        <time>2020-08-14T13:21:44Z</time>
      </trkpt>
      <trkpt lat="44.83389" lon="6.14153">
        <ele>1340.6958007812</ele>
        <time>2020-08-14T13:22:07Z</time>
      </trkpt>
      <trkpt lat="44.83391" lon="6.14151">
        <ele>1340.6958007812</ele>
        <time>2020-08-14T13:22:10Z</time>
      </trkpt>
      <trkpt lat="44.83405" lon="6.14138">
        <ele>1344.060546875</ele>
        <time>2020-08-14T13:22:30Z</time>
      </trkpt>
      <trkpt lat="44.83405" lon="6.14138">
        <ele>1345.5024414062</ele>
        <time>2020-08-14T13:22:48Z</time>
      </trkpt>
      <trkpt lat="44.83406" lon="6.1414">
        <ele>1345.5024414062</ele>
        <time>2020-08-14T13:23:45Z</time>
      </trkpt>
      <trkpt lat="44.83413" lon="6.14142">
        <ele>1343.0991210938</ele>
        <time>2020-08-14T13:24:00Z</time>
      </trkpt>
      <trkpt lat="44.83419" lon="6.14139">
        <ele>1340.2153320312</ele>
        <time>2020-08-14T13:24:24Z</time>
      </trkpt>
      <trkpt lat="44.83428" lon="6.14127">
        <ele>1337.3310546875</ele>
        <time>2020-08-14T13:24:39Z</time>
      </trkpt>
      <trkpt lat="44.83432" lon="6.14123">
        <ele>1335.8891601562</ele>
        <time>2020-08-14T13:24:45Z</time>
      </trkpt>
      <trkpt lat="44.83438" lon="6.14115">
        <ele>1333.0051269531</ele>
        <time>2020-08-14T13:25:01Z</time>
      </trkpt>
      <trkpt lat="44.83453" lon="6.14117">
        <ele>1330.6020507812</ele>
        <time>2020-08-14T13:25:17Z</time>
      </trkpt>
      <trkpt lat="44.8346" lon="6.14108">
        <ele>1330.1213378906</ele>
        <time>2020-08-14T13:25:33Z</time>
      </trkpt>
      <trkpt lat="44.83472" lon="6.14103">
        <ele>1330.1213378906</ele>
        <time>2020-08-14T13:25:43Z</time>
      </trkpt>
      <trkpt lat="44.83474" lon="6.14094">
        <ele>1330.1213378906</ele>
        <time>2020-08-14T13:25:49Z</time>
      </trkpt>
      <trkpt lat="44.83478" lon="6.14075">
        <ele>1329.1599121094</ele>
        <time>2020-08-14T13:26:05Z</time>
      </trkpt>
      <trkpt lat="44.83481" lon="6.14076">
        <ele>1328.6794433594</ele>
        <time>2020-08-14T13:26:14Z</time>
      </trkpt>
      <trkpt lat="44.83488" lon="6.14068">
        <ele>1329.640625</ele>
        <time>2020-08-14T13:26:27Z</time>
      </trkpt>
      <trkpt lat="44.83493" lon="6.1406">
        <ele>1330.6020507812</ele>
        <time>2020-08-14T13:26:44Z</time>
      </trkpt>
      <trkpt lat="44.83492" lon="6.14065">
        <ele>1333.0051269531</ele>
        <time>2020-08-14T13:27:19Z</time>
      </trkpt>
      <trkpt lat="44.8349" lon="6.14071">
        <ele>1334.447265625</ele>
        <time>2020-08-14T13:27:46Z</time>
      </trkpt>
      <trkpt lat="44.83491" lon="6.14084">
        <ele>1337.8117675781</ele>
        <time>2020-08-14T13:28:12Z</time>
      </trkpt>
      <trkpt lat="44.83496" lon="6.14083">
        <ele>1340.2153320312</ele>
        <time>2020-08-14T13:28:33Z</time>
      </trkpt>
      <trkpt lat="44.83505" lon="6.1407">
        <ele>1340.6958007812</ele>
        <time>2020-08-14T13:29:04Z</time>
      </trkpt>
      <trkpt lat="44.83515" lon="6.14066">
        <ele>1345.9831542969</ele>
        <time>2020-08-14T13:29:26Z</time>
      </trkpt>
      <trkpt lat="44.83518" lon="6.1405">
        <ele>1349.8283691406</ele>
        <time>2020-08-14T13:29:51Z</time>
      </trkpt>
      <trkpt lat="44.83516" lon="6.14047">
        <ele>1351.7509765625</ele>
        <time>2020-08-14T13:30:17Z</time>
      </trkpt>
      <trkpt lat="44.83515" lon="6.14044">
        <ele>1352.2314453125</ele>
        <time>2020-08-14T13:30:36Z</time>
      </trkpt>
      <trkpt lat="44.83518" lon="6.14045">
        <ele>1353.1928710938</ele>
        <time>2020-08-14T13:30:58Z</time>
      </trkpt>
      <trkpt lat="44.83522" lon="6.14064">
        <ele>1355.5961914062</ele>
        <time>2020-08-14T13:31:17Z</time>
      </trkpt>
      <trkpt lat="44.83525" lon="6.14069">
        <ele>1357.0383300781</ele>
        <time>2020-08-14T13:31:31Z</time>
      </trkpt>
      <trkpt lat="44.83534" lon="6.14041">
        <ele>1360.4028320312</ele>
        <time>2020-08-14T13:31:56Z</time>
      </trkpt>
      <trkpt lat="44.83542" lon="6.14034">
        <ele>1363.2868652344</ele>
        <time>2020-08-14T13:32:15Z</time>
      </trkpt>
      <trkpt lat="44.83556" lon="6.14021">
        <ele>1367.6125488281</ele>
        <time>2020-08-14T13:32:37Z</time>
      </trkpt>
      <trkpt lat="44.83568" lon="6.14005">
        <ele>1371.4577636719</ele>
        <time>2020-08-14T13:32:59Z</time>
      </trkpt>
      <trkpt lat="44.83573" lon="6.13998">
        <ele>1375.7839355469</ele>
        <time>2020-08-14T13:33:12Z</time>
      </trkpt>
      <trkpt lat="44.83586" lon="6.13996">
        <ele>1381.5517578125</ele>
        <time>2020-08-14T13:33:34Z</time>
      </trkpt>
      <trkpt lat="44.83594" lon="6.13995">
        <ele>1384.9165039062</ele>
        <time>2020-08-14T13:33:56Z</time>
      </trkpt>
      <trkpt lat="44.8359" lon="6.14001">
        <ele>1386.3583984375</ele>
        <time>2020-08-14T13:34:09Z</time>
      </trkpt>
      <trkpt lat="44.83583" lon="6.14015">
        <ele>1391.6457519531</ele>
        <time>2020-08-14T13:34:29Z</time>
      </trkpt>
      <trkpt lat="44.83581" lon="6.14015">
        <ele>1394.5295410156</ele>
        <time>2020-08-14T13:35:08Z</time>
      </trkpt>
      <trkpt lat="44.83584" lon="6.14013">
        <ele>1393.0876464844</ele>
        <time>2020-08-14T13:35:30Z</time>
      </trkpt>
      <trkpt lat="44.83585" lon="6.14027">
        <ele>1389.2424316406</ele>
        <time>2020-08-14T13:35:43Z</time>
      </trkpt>
      <trkpt lat="44.83584" lon="6.14026">
        <ele>1386.8388671875</ele>
        <time>2020-08-14T13:36:03Z</time>
      </trkpt>
      <trkpt lat="44.8358" lon="6.14039">
        <ele>1385.3969726562</ele>
        <time>2020-08-14T13:36:16Z</time>
      </trkpt>
      <trkpt lat="44.8358" lon="6.14041">
        <ele>1383.955078125</ele>
        <time>2020-08-14T13:36:41Z</time>
      </trkpt>
      <trkpt lat="44.8358" lon="6.14052">
        <ele>1375.7839355469</ele>
        <time>2020-08-14T13:38:39Z</time>
      </trkpt>
      <trkpt lat="44.83572" lon="6.14073">
        <ele>1376.7453613281</ele>
        <time>2020-08-14T13:38:58Z</time>
      </trkpt>
      <trkpt lat="44.83573" lon="6.14076">
        <ele>1376.7453613281</ele>
        <time>2020-08-14T13:39:02Z</time>
      </trkpt>
      <trkpt lat="44.83569" lon="6.14088">
        <ele>1379.1484375</ele>
        <time>2020-08-14T13:39:16Z</time>
      </trkpt>
      <trkpt lat="44.83558" lon="6.14109">
        <ele>1383.955078125</ele>
        <time>2020-08-14T13:39:36Z</time>
      </trkpt>
      <trkpt lat="44.83557" lon="6.14112">
        <ele>1384.9165039062</ele>
        <time>2020-08-14T13:39:41Z</time>
      </trkpt>
      <trkpt lat="44.8355" lon="6.14126">
        <ele>1391.6457519531</ele>
        <time>2020-08-14T13:39:59Z</time>
      </trkpt>
      <trkpt lat="44.83546" lon="6.14145">
        <ele>1397.8942871094</ele>
        <time>2020-08-14T13:40:19Z</time>
      </trkpt>
      <trkpt lat="44.83536" lon="6.1417">
        <ele>1401.2587890625</ele>
        <time>2020-08-14T13:40:38Z</time>
      </trkpt>
      <trkpt lat="44.83529" lon="6.14176">
        <ele>1404.6235351562</ele>
        <time>2020-08-14T13:40:52Z</time>
      </trkpt>
      <trkpt lat="44.83516" lon="6.14186">
        <ele>1405.1042480469</ele>
        <time>2020-08-14T13:41:15Z</time>
      </trkpt>
      <trkpt lat="44.83513" lon="6.14178">
        <ele>1407.5075683594</ele>
        <time>2020-08-14T13:42:08Z</time>
      </trkpt>
      <trkpt lat="44.83512" lon="6.14176">
        <ele>1409.4301757812</ele>
        <time>2020-08-14T13:43:54Z</time>
      </trkpt>
      <trkpt lat="44.83513" lon="6.14179">
        <ele>1409.4301757812</ele>
        <time>2020-08-14T13:49:08Z</time>
      </trkpt>
      <trkpt lat="44.83511" lon="6.14184">
        <ele>1404.6235351562</ele>
        <time>2020-08-14T13:51:45Z</time>
      </trkpt>
      <trkpt lat="44.83512" lon="6.14184">
        <ele>1404.6235351562</ele>
        <time>2020-08-14T13:54:42Z</time>
      </trkpt>
      <trkpt lat="44.83513" lon="6.14187">
        <ele>1406.0654296875</ele>
        <time>2020-08-14T13:55:02Z</time>
      </trkpt>
      <trkpt lat="44.83513" lon="6.14186">
        <ele>1405.5849609375</ele>
        <time>2020-08-14T13:55:28Z</time>
      </trkpt>
      <trkpt lat="44.83514" lon="6.14186">
        <ele>1405.5849609375</ele>
        <time>2020-08-14T13:56:14Z</time>
      </trkpt>
      <trkpt lat="44.83513" lon="6.14184">
        <ele>1406.0654296875</ele>
        <time>2020-08-14T13:56:36Z</time>
      </trkpt>
      <trkpt lat="44.83503" lon="6.14193">
        <ele>1404.6235351562</ele>
        <time>2020-08-14T13:57:30Z</time>
      </trkpt>
      <trkpt lat="44.83497" lon="6.14201">
        <ele>1405.1042480469</ele>
        <time>2020-08-14T13:57:39Z</time>
      </trkpt>
      <trkpt lat="44.8349" lon="6.1421">
        <ele>1403.1813964844</ele>
        <time>2020-08-14T13:57:53Z</time>
      </trkpt>
      <trkpt lat="44.83487" lon="6.14235">
        <ele>1402.2199707031</ele>
        <time>2020-08-14T13:58:10Z</time>
      </trkpt>
      <trkpt lat="44.83484" lon="6.14253">
        <ele>1401.2587890625</ele>
        <time>2020-08-14T13:58:26Z</time>
      </trkpt>
      <trkpt lat="44.83478" lon="6.14261">
        <ele>1401.2587890625</ele>
        <time>2020-08-14T13:58:39Z</time>
      </trkpt>
      <trkpt lat="44.83475" lon="6.14278">
        <ele>1400.2976074219</ele>
        <time>2020-08-14T13:58:54Z</time>
      </trkpt>
      <trkpt lat="44.83477" lon="6.14288">
        <ele>1399.3361816406</ele>
        <time>2020-08-14T13:59:09Z</time>
      </trkpt>
      <trkpt lat="44.83485" lon="6.14287">
        <ele>1397.4135742188</ele>
        <time>2020-08-14T13:59:27Z</time>
      </trkpt>
      <trkpt lat="44.83495" lon="6.14289">
        <ele>1397.8942871094</ele>
        <time>2020-08-14T13:59:44Z</time>
      </trkpt>
      <trkpt lat="44.83502" lon="6.14285">
        <ele>1398.85546875</ele>
        <time>2020-08-14T14:00:00Z</time>
      </trkpt>
      <trkpt lat="44.83509" lon="6.14275">
        <ele>1400.7780761719</ele>
        <time>2020-08-14T14:00:18Z</time>
      </trkpt>
      <trkpt lat="44.83517" lon="6.1427">
        <ele>1403.662109375</ele>
        <time>2020-08-14T14:00:32Z</time>
      </trkpt>
      <trkpt lat="44.83523" lon="6.14262">
        <ele>1407.5075683594</ele>
        <time>2020-08-14T14:00:51Z</time>
      </trkpt>
      <trkpt lat="44.8353" lon="6.14256">
        <ele>1409.4301757812</ele>
        <time>2020-08-14T14:01:10Z</time>
      </trkpt>
      <trkpt lat="44.83531" lon="6.14254">
        <ele>1409.4301757812</ele>
        <time>2020-08-14T14:01:40Z</time>
      </trkpt>
      <trkpt lat="44.83539" lon="6.1426">
        <ele>1410.8720703125</ele>
        <time>2020-08-14T14:02:15Z</time>
      </trkpt>
      <trkpt lat="44.83549" lon="6.1425">
        <ele>1413.275390625</ele>
        <time>2020-08-14T14:02:36Z</time>
      </trkpt>
      <trkpt lat="44.83546" lon="6.14251">
        <ele>1416.1591796875</ele>
        <time>2020-08-14T14:02:58Z</time>
      </trkpt>
      <trkpt lat="44.83534" lon="6.14266">
        <ele>1425.7724609375</ele>
        <time>2020-08-14T14:03:23Z</time>
      </trkpt>
      <trkpt lat="44.83528" lon="6.1427">
        <ele>1431.0598144531</ele>
        <time>2020-08-14T14:03:38Z</time>
      </trkpt>
      <trkpt lat="44.83526" lon="6.14275">
        <ele>1436.3471679688</ele>
        <time>2020-08-14T14:04:11Z</time>
      </trkpt>
      <trkpt lat="44.83528" lon="6.14278">
        <ele>1440.6728515625</ele>
        <time>2020-08-14T14:05:13Z</time>
      </trkpt>
      <trkpt lat="44.83523" lon="6.14282">
        <ele>1443.5568847656</ele>
        <time>2020-08-14T14:05:31Z</time>
      </trkpt>
      <trkpt lat="44.83531" lon="6.14278">
        <ele>1444.9987792969</ele>
        <time>2020-08-14T14:05:45Z</time>
      </trkpt>
      <trkpt lat="44.83543" lon="6.14276">
        <ele>1445.4794921875</ele>
        <time>2020-08-14T14:06:07Z</time>
      </trkpt>
      <trkpt lat="44.83552" lon="6.14273">
        <ele>1446.9213867188</ele>
        <time>2020-08-14T14:06:29Z</time>
      </trkpt>
      <trkpt lat="44.83559" lon="6.14268">
        <ele>1447.8828125</ele>
        <time>2020-08-14T14:06:43Z</time>
      </trkpt>
      <trkpt lat="44.83571" lon="6.14267">
        <ele>1450.2861328125</ele>
        <time>2020-08-14T14:07:05Z</time>
      </trkpt>
      <trkpt lat="44.83566" lon="6.14276">
        <ele>1449.8054199219</ele>
        <time>2020-08-14T14:07:26Z</time>
      </trkpt>
      <trkpt lat="44.83552" lon="6.14288">
        <ele>1455.0927734375</ele>
        <time>2020-08-14T14:07:48Z</time>
      </trkpt>
      <trkpt lat="44.83553" lon="6.14292">
        <ele>1458.9379882812</ele>
        <time>2020-08-14T14:08:05Z</time>
      </trkpt>
      <trkpt lat="44.83561" lon="6.14289">
        <ele>1461.8220214844</ele>
        <time>2020-08-14T14:08:20Z</time>
      </trkpt>
      <trkpt lat="44.83569" lon="6.14288">
        <ele>1463.2639160156</ele>
        <time>2020-08-14T14:08:40Z</time>
      </trkpt>
      <trkpt lat="44.8357" lon="6.14291">
        <ele>1462.783203125</ele>
        <time>2020-08-14T14:09:26Z</time>
      </trkpt>
      <trkpt lat="44.83573" lon="6.1429">
        <ele>1462.3024902344</ele>
        <time>2020-08-14T14:10:10Z</time>
      </trkpt>
      <trkpt lat="44.83585" lon="6.14287">
        <ele>1462.3024902344</ele>
        <time>2020-08-14T14:10:30Z</time>
      </trkpt>
      <trkpt lat="44.83601" lon="6.14279">
        <ele>1461.8220214844</ele>
        <time>2020-08-14T14:10:52Z</time>
      </trkpt>
      <trkpt lat="44.83602" lon="6.14272">
        <ele>1461.8220214844</ele>
        <time>2020-08-14T14:11:01Z</time>
      </trkpt>
      <trkpt lat="44.83603" lon="6.14269">
        <ele>1462.3024902344</ele>
        <time>2020-08-14T14:11:03Z</time>
      </trkpt>
      <trkpt lat="44.83616" lon="6.14261">
        <ele>1461.8220214844</ele>
        <time>2020-08-14T14:11:21Z</time>
      </trkpt>
      <trkpt lat="44.83624" lon="6.14258">
        <ele>1462.783203125</ele>
        <time>2020-08-14T14:11:31Z</time>
      </trkpt>
      <trkpt lat="44.83632" lon="6.1426">
        <ele>1461.8220214844</ele>
        <time>2020-08-14T14:11:48Z</time>
      </trkpt>
      <trkpt lat="44.83639" lon="6.14261">
        <ele>1462.783203125</ele>
        <time>2020-08-14T14:12:05Z</time>
      </trkpt>
      <trkpt lat="44.83652" lon="6.14251">
        <ele>1464.7058105469</ele>
        <time>2020-08-14T14:12:22Z</time>
      </trkpt>
      <trkpt lat="44.83658" lon="6.14243">
        <ele>1471.4350585938</ele>
        <time>2020-08-14T14:12:38Z</time>
      </trkpt>
      <trkpt lat="44.83661" lon="6.14246">
        <ele>1475.7609863281</ele>
        <time>2020-08-14T14:12:56Z</time>
      </trkpt>
      <trkpt lat="44.8366" lon="6.14245">
        <ele>1476.2416992188</ele>
        <time>2020-08-14T14:14:21Z</time>
      </trkpt>
      <trkpt lat="44.83668" lon="6.14238">
        <ele>1478.6450195312</ele>
        <time>2020-08-14T14:15:11Z</time>
      </trkpt>
      <trkpt lat="44.83672" lon="6.14237">
        <ele>1481.5288085938</ele>
        <time>2020-08-14T14:15:31Z</time>
      </trkpt>
      <trkpt lat="44.83685" lon="6.1423">
        <ele>1484.4130859375</ele>
        <time>2020-08-14T14:15:52Z</time>
      </trkpt>
      <trkpt lat="44.83697" lon="6.14222">
        <ele>1486.3356933594</ele>
        <time>2020-08-14T14:16:13Z</time>
      </trkpt>
      <trkpt lat="44.83709" lon="6.14224">
        <ele>1490.1809082031</ele>
        <time>2020-08-14T14:16:38Z</time>
      </trkpt>
      <trkpt lat="44.83696" lon="6.14235">
        <ele>1494.9873046875</ele>
        <time>2020-08-14T14:16:58Z</time>
      </trkpt>
      <trkpt lat="44.83686" lon="6.1424">
        <ele>1499.3132324219</ele>
        <time>2020-08-14T14:17:16Z</time>
      </trkpt>
      <trkpt lat="44.83678" lon="6.14249">
        <ele>1503.1586914062</ele>
        <time>2020-08-14T14:17:32Z</time>
      </trkpt>
      <trkpt lat="44.83674" lon="6.14262">
        <ele>1510.3684082031</ele>
        <time>2020-08-14T14:17:58Z</time>
      </trkpt>
      <trkpt lat="44.83677" lon="6.14261">
        <ele>1511.3298339844</ele>
        <time>2020-08-14T14:18:18Z</time>
      </trkpt>
      <trkpt lat="44.83691" lon="6.14253">
        <ele>1513.2524414062</ele>
        <time>2020-08-14T14:18:39Z</time>
      </trkpt>
      <trkpt lat="44.83694" lon="6.14255">
        <ele>1516.1364746094</ele>
        <time>2020-08-14T14:19:20Z</time>
      </trkpt>
      <trkpt lat="44.83705" lon="6.14246">
        <ele>1517.5783691406</ele>
        <time>2020-08-14T14:19:49Z</time>
      </trkpt>
      <trkpt lat="44.83713" lon="6.14238">
        <ele>1519.9816894531</ele>
        <time>2020-08-14T14:20:15Z</time>
      </trkpt>
      <trkpt lat="44.83728" lon="6.14237">
        <ele>1521.4235839844</ele>
        <time>2020-08-14T14:20:38Z</time>
      </trkpt>
      <trkpt lat="44.83739" lon="6.14229">
        <ele>1525.7495117188</ele>
        <time>2020-08-14T14:21:04Z</time>
      </trkpt>
      <trkpt lat="44.83749" lon="6.14214">
        <ele>1531.998046875</ele>
        <time>2020-08-14T14:21:27Z</time>
      </trkpt>
      <trkpt lat="44.83757" lon="6.14202">
        <ele>1537.7661132812</ele>
        <time>2020-08-14T14:21:43Z</time>
      </trkpt>
      <trkpt lat="44.83767" lon="6.14198">
        <ele>1540.6499023438</ele>
        <time>2020-08-14T14:22:05Z</time>
      </trkpt>
      <trkpt lat="44.83778" lon="6.1419">
        <ele>1542.0920410156</ele>
        <time>2020-08-14T14:22:27Z</time>
      </trkpt>
      <trkpt lat="44.83785" lon="6.14188">
        <ele>1543.5339355469</ele>
        <time>2020-08-14T14:22:44Z</time>
      </trkpt>
      <trkpt lat="44.83795" lon="6.14182">
        <ele>1543.0532226562</ele>
        <time>2020-08-14T14:23:10Z</time>
      </trkpt>
      <trkpt lat="44.83796" lon="6.14186">
        <ele>1542.5727539062</ele>
        <time>2020-08-14T14:23:29Z</time>
      </trkpt>
      <trkpt lat="44.83796" lon="6.1419">
        <ele>1542.0920410156</ele>
        <time>2020-08-14T14:24:56Z</time>
      </trkpt>
      <trkpt lat="44.83794" lon="6.142">
        <ele>1542.0920410156</ele>
        <time>2020-08-14T14:25:07Z</time>
      </trkpt>
      <trkpt lat="44.83788" lon="6.14218">
        <ele>1547.3791503906</ele>
        <time>2020-08-14T14:25:29Z</time>
      </trkpt>
      <trkpt lat="44.83781" lon="6.14237">
        <ele>1553.6279296875</ele>
        <time>2020-08-14T14:25:54Z</time>
      </trkpt>
      <trkpt lat="44.83769" lon="6.14249">
        <ele>1561.318359375</ele>
        <time>2020-08-14T14:26:16Z</time>
      </trkpt>
      <trkpt lat="44.83754" lon="6.1426">
        <ele>1567.0864257812</ele>
        <time>2020-08-14T14:26:42Z</time>
      </trkpt>
      <trkpt lat="44.83762" lon="6.14267">
        <ele>1569.4897460938</ele>
        <time>2020-08-14T14:27:04Z</time>
      </trkpt>
      <trkpt lat="44.83769" lon="6.14257">
        <ele>1572.8542480469</ele>
        <time>2020-08-14T14:27:21Z</time>
      </trkpt>
      <trkpt lat="44.83772" lon="6.14256">
        <ele>1573.3349609375</ele>
        <time>2020-08-14T14:27:42Z</time>
      </trkpt>
      <trkpt lat="44.83781" lon="6.14253">
        <ele>1573.3349609375</ele>
        <time>2020-08-14T14:28:03Z</time>
      </trkpt>
      <trkpt lat="44.83791" lon="6.14239">
        <ele>1577.1801757812</ele>
        <time>2020-08-14T14:28:28Z</time>
      </trkpt>
      <trkpt lat="44.83787" lon="6.14234">
        <ele>1579.5832519531</ele>
        <time>2020-08-14T14:28:57Z</time>
      </trkpt>
      <trkpt lat="44.83791" lon="6.14237">
        <ele>1577.1801757812</ele>
        <time>2020-08-14T14:31:46Z</time>
      </trkpt>
      <trkpt lat="44.8379" lon="6.14237">
        <ele>1577.1801757812</ele>
        <time>2020-08-14T14:33:02Z</time>
      </trkpt>
      <trkpt lat="44.83788" lon="6.14237">
        <ele>1574.7768554688</ele>
        <time>2020-08-14T14:34:34Z</time>
      </trkpt>
      <trkpt lat="44.83793" lon="6.14238">
        <ele>1565.1638183594</ele>
        <time>2020-08-14T14:43:45Z</time>
      </trkpt>
      <trkpt lat="44.83791" lon="6.14239">
        <ele>1566.125</ele>
        <time>2020-08-14T14:44:07Z</time>
      </trkpt>
      <trkpt lat="44.83805" lon="6.14235">
        <ele>1566.6057128906</ele>
        <time>2020-08-14T14:45:14Z</time>
      </trkpt>
      <trkpt lat="44.83817" lon="6.1423">
        <ele>1568.0476074219</ele>
        <time>2020-08-14T14:45:36Z</time>
      </trkpt>
      <trkpt lat="44.83829" lon="6.14228">
        <ele>1568.5283203125</ele>
        <time>2020-08-14T14:46:03Z</time>
      </trkpt>
      <trkpt lat="44.83836" lon="6.14224">
        <ele>1569.0090332031</ele>
        <time>2020-08-14T14:46:27Z</time>
      </trkpt>
      <trkpt lat="44.83847" lon="6.14215">
        <ele>1575.2573242188</ele>
        <time>2020-08-14T14:46:57Z</time>
      </trkpt>
      <trkpt lat="44.83859" lon="6.14218">
        <ele>1581.0256347656</ele>
        <time>2020-08-14T14:47:23Z</time>
      </trkpt>
      <trkpt lat="44.83865" lon="6.14211">
        <ele>1582.4675292969</ele>
        <time>2020-08-14T14:47:38Z</time>
      </trkpt>
      <trkpt lat="44.83883" lon="6.14201">
        <ele>1585.3513183594</ele>
        <time>2020-08-14T14:48:02Z</time>
      </trkpt>
      <trkpt lat="44.83901" lon="6.14196">
        <ele>1586.7932128906</ele>
        <time>2020-08-14T14:48:26Z</time>
      </trkpt>
      <trkpt lat="44.83916" lon="6.14194">
        <ele>1586.7932128906</ele>
        <time>2020-08-14T14:48:49Z</time>
      </trkpt>
      <trkpt lat="44.83931" lon="6.1419">
        <ele>1590.6384277344</ele>
        <time>2020-08-14T14:49:14Z</time>
      </trkpt>
      <trkpt lat="44.83945" lon="6.14187">
        <ele>1592.5612792969</ele>
        <time>2020-08-14T14:49:37Z</time>
      </trkpt>
      <trkpt lat="44.83958" lon="6.14181">
        <ele>1594.4836425781</ele>
        <time>2020-08-14T14:49:56Z</time>
      </trkpt>
      <trkpt lat="44.8397" lon="6.14172">
        <ele>1599.2905273438</ele>
        <time>2020-08-14T14:50:20Z</time>
      </trkpt>
      <trkpt lat="44.83986" lon="6.14171">
        <ele>1601.6938476562</ele>
        <time>2020-08-14T14:50:44Z</time>
      </trkpt>
      <trkpt lat="44.83985" lon="6.14167">
        <ele>1603.1357421875</ele>
        <time>2020-08-14T14:51:11Z</time>
      </trkpt>
      <trkpt lat="44.83977" lon="6.14175">
        <ele>1607.9423828125</ele>
        <time>2020-08-14T14:51:57Z</time>
      </trkpt>
      <trkpt lat="44.83973" lon="6.1418">
        <ele>1610.826171875</ele>
        <time>2020-08-14T14:52:17Z</time>
      </trkpt>
      <trkpt lat="44.83969" lon="6.14189">
        <ele>1611.7875976562</ele>
        <time>2020-08-14T14:52:46Z</time>
      </trkpt>
      <trkpt lat="44.83957" lon="6.14209">
        <ele>1615.15234375</ele>
        <time>2020-08-14T14:53:09Z</time>
      </trkpt>
      <trkpt lat="44.83947" lon="6.14226">
        <ele>1618.0361328125</ele>
        <time>2020-08-14T14:53:30Z</time>
      </trkpt>
      <trkpt lat="44.83935" lon="6.14242">
        <ele>1623.3234863281</ele>
        <time>2020-08-14T14:53:54Z</time>
      </trkpt>
      <trkpt lat="44.83921" lon="6.14256">
        <ele>1626.2072753906</ele>
        <time>2020-08-14T14:54:16Z</time>
      </trkpt>
      <trkpt lat="44.83915" lon="6.14262">
        <ele>1627.6491699219</ele>
        <time>2020-08-14T14:54:33Z</time>
      </trkpt>
      <trkpt lat="44.83913" lon="6.14265">
        <ele>1627.1687011719</ele>
        <time>2020-08-14T14:55:03Z</time>
      </trkpt>
      <trkpt lat="44.83903" lon="6.14272">
        <ele>1628.6108398438</ele>
        <time>2020-08-14T14:58:32Z</time>
      </trkpt>
      <trkpt lat="44.83903" lon="6.14277">
        <ele>1632.9365234375</ele>
        <time>2020-08-14T14:58:50Z</time>
      </trkpt>
      <trkpt lat="44.83913" lon="6.14276">
        <ele>1635.8205566406</ele>
        <time>2020-08-14T14:59:13Z</time>
      </trkpt>
      <trkpt lat="44.83924" lon="6.14275">
        <ele>1636.3012695312</ele>
        <time>2020-08-14T14:59:37Z</time>
      </trkpt>
      <trkpt lat="44.83933" lon="6.14275">
        <ele>1637.2624511719</ele>
        <time>2020-08-14T14:59:59Z</time>
      </trkpt>
      <trkpt lat="44.83944" lon="6.14272">
        <ele>1639.1850585938</ele>
        <time>2020-08-14T15:00:22Z</time>
      </trkpt>
      <trkpt lat="44.8396" lon="6.14268">
        <ele>1640.626953125</ele>
        <time>2020-08-14T15:00:45Z</time>
      </trkpt>
      <trkpt lat="44.83968" lon="6.14262">
        <ele>1641.1076660156</ele>
        <time>2020-08-14T15:01:01Z</time>
      </trkpt>
      <trkpt lat="44.83973" lon="6.14256">
        <ele>1645.9145507812</ele>
        <time>2020-08-14T15:01:26Z</time>
      </trkpt>
      <trkpt lat="44.83974" lon="6.14261">
        <ele>1648.3176269531</ele>
        <time>2020-08-14T15:02:39Z</time>
      </trkpt>
      <trkpt lat="44.83966" lon="6.14278">
        <ele>1652.6435546875</ele>
        <time>2020-08-14T15:03:02Z</time>
      </trkpt>
      <trkpt lat="44.83968" lon="6.14287">
        <ele>1655.5275878906</ele>
        <time>2020-08-14T15:03:19Z</time>
      </trkpt>
      <trkpt lat="44.83982" lon="6.1428">
        <ele>1658.4113769531</ele>
        <time>2020-08-14T15:03:46Z</time>
      </trkpt>
      <trkpt lat="44.83984" lon="6.14283">
        <ele>1661.2956542969</ele>
        <time>2020-08-14T15:04:40Z</time>
      </trkpt>
      <trkpt lat="44.83977" lon="6.14296">
        <ele>1667.0634765625</ele>
        <time>2020-08-14T15:05:23Z</time>
      </trkpt>
      <trkpt lat="44.83986" lon="6.14293">
        <ele>1670.4279785156</ele>
        <time>2020-08-14T15:05:49Z</time>
      </trkpt>
      <trkpt lat="44.83999" lon="6.14297">
        <ele>1671.3891601562</ele>
        <time>2020-08-14T15:06:19Z</time>
      </trkpt>
      <trkpt lat="44.84001" lon="6.14296">
        <ele>1673.7924804688</ele>
        <time>2020-08-14T15:07:33Z</time>
      </trkpt>
      <trkpt lat="44.84005" lon="6.14296">
        <ele>1674.2731933594</ele>
        <time>2020-08-14T15:08:50Z</time>
      </trkpt>
      <trkpt lat="44.84005" lon="6.14295">
        <ele>1674.2731933594</ele>
        <time>2020-08-14T15:09:41Z</time>
      </trkpt>
      <trkpt lat="44.84014" lon="6.14291">
        <ele>1676.1960449219</ele>
        <time>2020-08-14T15:12:38Z</time>
      </trkpt>
      <trkpt lat="44.84023" lon="6.14288">
        <ele>1677.1574707031</ele>
        <time>2020-08-14T15:12:53Z</time>
      </trkpt>
      <trkpt lat="44.84034" lon="6.14286">
        <ele>1679.560546875</ele>
        <time>2020-08-14T15:13:11Z</time>
      </trkpt>
      <trkpt lat="44.84044" lon="6.14282">
        <ele>1685.3283691406</ele>
        <time>2020-08-14T15:13:31Z</time>
      </trkpt>
      <trkpt lat="44.84055" lon="6.14273">
        <ele>1688.2124023438</ele>
        <time>2020-08-14T15:13:52Z</time>
      </trkpt>
      <trkpt lat="44.84066" lon="6.14272">
        <ele>1686.2897949219</ele>
        <time>2020-08-14T15:14:12Z</time>
      </trkpt>
      <trkpt lat="44.84075" lon="6.1427">
        <ele>1690.1350097656</ele>
        <time>2020-08-14T15:14:38Z</time>
      </trkpt>
      <trkpt lat="44.84065" lon="6.1428">
        <ele>1693.4997558594</ele>
        <time>2020-08-14T15:14:58Z</time>
      </trkpt>
      <trkpt lat="44.84065" lon="6.14287">
        <ele>1696.8642578125</ele>
        <time>2020-08-14T15:15:20Z</time>
      </trkpt>
      <trkpt lat="44.84084" lon="6.14287">
        <ele>1700.7094726562</ele>
        <time>2020-08-14T15:15:53Z</time>
      </trkpt>
      <trkpt lat="44.84088" lon="6.14286">
        <ele>1701.6708984375</ele>
        <time>2020-08-14T15:16:06Z</time>
      </trkpt>
      <trkpt lat="44.8408" lon="6.14294">
        <ele>1703.1127929688</ele>
        <time>2020-08-14T15:16:28Z</time>
      </trkpt>
      <trkpt lat="44.84083" lon="6.14306">
        <ele>1708.4001464844</ele>
        <time>2020-08-14T15:17:11Z</time>
      </trkpt>
      <trkpt lat="44.84091" lon="6.14303">
        <ele>1718.0131835938</ele>
        <time>2020-08-14T15:17:33Z</time>
      </trkpt>
      <trkpt lat="44.84081" lon="6.14319">
        <ele>1720.4165039062</ele>
        <time>2020-08-14T15:18:02Z</time>
      </trkpt>
      <trkpt lat="44.84073" lon="6.14335">
        <ele>1724.7426757812</ele>
        <time>2020-08-14T15:18:25Z</time>
      </trkpt>
      <trkpt lat="44.84076" lon="6.14338">
        <ele>1729.068359375</ele>
        <time>2020-08-14T15:18:43Z</time>
      </trkpt>
      <trkpt lat="44.84084" lon="6.14332">
        <ele>1733.875</ele>
        <time>2020-08-14T15:19:00Z</time>
      </trkpt>
      <trkpt lat="44.84099" lon="6.14327">
        <ele>1741.5656738281</ele>
        <time>2020-08-14T15:19:32Z</time>
      </trkpt>
      <trkpt lat="44.84112" lon="6.14333">
        <ele>1746.3723144531</ele>
        <time>2020-08-14T15:20:00Z</time>
      </trkpt>
      <trkpt lat="44.84129" lon="6.14343">
        <ele>1754.5432128906</ele>
        <time>2020-08-14T15:20:44Z</time>
      </trkpt>
      <trkpt lat="44.84142" lon="6.1434">
        <ele>1769.4438476562</ele>
        <time>2020-08-14T15:23:37Z</time>
      </trkpt>
      <trkpt lat="44.84136" lon="6.14349">
        <ele>1771.8469238281</ele>
        <time>2020-08-14T15:24:54Z</time>
      </trkpt>
      <trkpt lat="44.84129" lon="6.1434">
        <ele>1773.2893066406</ele>
        <time>2020-08-14T15:25:27Z</time>
      </trkpt>
      <trkpt lat="44.84131" lon="6.1433">
        <ele>1774.2504882812</ele>
        <time>2020-08-14T15:26:08Z</time>
      </trkpt>
      <trkpt lat="44.84143" lon="6.14333">
        <ele>1774.2504882812</ele>
        <time>2020-08-14T15:26:34Z</time>
      </trkpt>
      <trkpt lat="44.84133" lon="6.14344">
        <ele>1776.6538085938</ele>
        <time>2020-08-14T15:27:22Z</time>
      </trkpt>
      <trkpt lat="44.84133" lon="6.14344">
        <ele>1778.5764160156</ele>
        <time>2020-08-14T15:27:49Z</time>
      </trkpt>
      <trkpt lat="44.84135" lon="6.14358">
        <ele>1780.4990234375</ele>
        <time>2020-08-14T15:28:22Z</time>
      </trkpt>
      <trkpt lat="44.84146" lon="6.14373">
        <ele>1774.2504882812</ele>
        <time>2020-08-14T15:28:44Z</time>
      </trkpt>
      <trkpt lat="44.84155" lon="6.14368">
        <ele>1771.3662109375</ele>
        <time>2020-08-14T15:29:01Z</time>
      </trkpt>
      <trkpt lat="44.84159" lon="6.14364">
        <ele>1771.3662109375</ele>
        <time>2020-08-14T15:29:04Z</time>
      </trkpt>
      <trkpt lat="44.84168" lon="6.14356">
        <ele>1767.5209960938</ele>
        <time>2020-08-14T15:29:19Z</time>
      </trkpt>
      <trkpt lat="44.84173" lon="6.14347">
        <ele>1762.7145996094</ele>
        <time>2020-08-14T15:29:38Z</time>
      </trkpt>
      <trkpt lat="44.84182" lon="6.14339">
        <ele>1762.2338867188</ele>
        <time>2020-08-14T15:29:53Z</time>
      </trkpt>
      <trkpt lat="44.8419" lon="6.14328">
        <ele>1759.8305664062</ele>
        <time>2020-08-14T15:30:08Z</time>
      </trkpt>
      <trkpt lat="44.84195" lon="6.14321">
        <ele>1758.8693847656</ele>
        <time>2020-08-14T15:30:20Z</time>
      </trkpt>
      <trkpt lat="44.84202" lon="6.14313">
        <ele>1758.8693847656</ele>
        <time>2020-08-14T15:30:37Z</time>
      </trkpt>
      <trkpt lat="44.84208" lon="6.14298">
        <ele>1760.7919921875</ele>
        <time>2020-08-14T15:30:56Z</time>
      </trkpt>
      <trkpt lat="44.84217" lon="6.14285">
        <ele>1761.2727050781</ele>
        <time>2020-08-14T15:31:13Z</time>
      </trkpt>
      <trkpt lat="44.84216" lon="6.1429">
        <ele>1761.2727050781</ele>
        <time>2020-08-14T15:31:28Z</time>
      </trkpt>
      <trkpt lat="44.84217" lon="6.14294">
        <ele>1765.1179199219</ele>
        <time>2020-08-14T15:31:44Z</time>
      </trkpt>
      <trkpt lat="44.84223" lon="6.14292">
        <ele>1769.4438476562</ele>
        <time>2020-08-14T15:32:01Z</time>
      </trkpt>
      <trkpt lat="44.84231" lon="6.14297">
        <ele>1774.2504882812</ele>
        <time>2020-08-14T15:32:20Z</time>
      </trkpt>
      <trkpt lat="44.84239" lon="6.14301">
        <ele>1779.0568847656</ele>
        <time>2020-08-14T15:32:42Z</time>
      </trkpt>
      <trkpt lat="44.84245" lon="6.14303">
        <ele>1783.8635253906</ele>
        <time>2020-08-14T15:33:03Z</time>
      </trkpt>
      <trkpt lat="44.8423" lon="6.14307">
        <ele>1792.99609375</ele>
        <time>2020-08-14T15:33:26Z</time>
      </trkpt>
      <trkpt lat="44.84219" lon="6.14321">
        <ele>1798.7639160156</ele>
        <time>2020-08-14T15:33:51Z</time>
      </trkpt>
      <trkpt lat="44.84223" lon="6.14331">
        <ele>1803.08984375</ele>
        <time>2020-08-14T15:34:09Z</time>
      </trkpt>
      <trkpt lat="44.84228" lon="6.14331">
        <ele>1805.0126953125</ele>
        <time>2020-08-14T15:34:22Z</time>
      </trkpt>
      <trkpt lat="44.84235" lon="6.14329">
        <ele>1808.3771972656</ele>
        <time>2020-08-14T15:34:47Z</time>
      </trkpt>
      <trkpt lat="44.84237" lon="6.14335">
        <ele>1811.7419433594</ele>
        <time>2020-08-14T15:35:06Z</time>
      </trkpt>
      <trkpt lat="44.84248" lon="6.14338">
        <ele>1816.0676269531</ele>
        <time>2020-08-14T15:35:26Z</time>
      </trkpt>
      <trkpt lat="44.8425" lon="6.14341">
        <ele>1817.0290527344</ele>
        <time>2020-08-14T15:35:54Z</time>
      </trkpt>
      <trkpt lat="44.84239" lon="6.14353">
        <ele>1817.990234375</ele>
        <time>2020-08-14T15:36:20Z</time>
      </trkpt>
      <trkpt lat="44.84235" lon="6.14366">
        <ele>1818.9516601562</ele>
        <time>2020-08-14T15:36:39Z</time>
      </trkpt>
      <trkpt lat="44.84243" lon="6.14367">
        <ele>1819.4323730469</ele>
        <time>2020-08-14T15:36:55Z</time>
      </trkpt>
      <trkpt lat="44.84251" lon="6.14361">
        <ele>1821.3549804688</ele>
        <time>2020-08-14T15:37:11Z</time>
      </trkpt>
      <trkpt lat="44.84261" lon="6.14362">
        <ele>1824.2390136719</ele>
        <time>2020-08-14T15:37:27Z</time>
      </trkpt>
      <trkpt lat="44.84274" lon="6.1436">
        <ele>1830.0068359375</ele>
        <time>2020-08-14T15:37:47Z</time>
      </trkpt>
      <trkpt lat="44.84287" lon="6.14362">
        <ele>1831.9294433594</ele>
        <time>2020-08-14T15:38:12Z</time>
      </trkpt>
      <trkpt lat="44.84296" lon="6.14356">
        <ele>1837.216796875</ele>
        <time>2020-08-14T15:38:32Z</time>
      </trkpt>
      <trkpt lat="44.84302" lon="6.14354">
        <ele>1839.1394042969</ele>
        <time>2020-08-14T15:38:53Z</time>
      </trkpt>
      <trkpt lat="44.84299" lon="6.14359">
        <ele>1839.6201171875</ele>
        <time>2020-08-14T15:39:12Z</time>
      </trkpt>
      <trkpt lat="44.84287" lon="6.1437">
        <ele>1843.4653320312</ele>
        <time>2020-08-14T15:39:40Z</time>
      </trkpt>
      <trkpt lat="44.84276" lon="6.14377">
        <ele>1846.8298339844</ele>
        <time>2020-08-14T15:40:01Z</time>
      </trkpt>
      <trkpt lat="44.84263" lon="6.14392">
        <ele>1848.7524414062</ele>
        <time>2020-08-14T15:40:29Z</time>
      </trkpt>
      <trkpt lat="44.84253" lon="6.14409">
        <ele>1847.7912597656</ele>
        <time>2020-08-14T15:40:51Z</time>
      </trkpt>
      <trkpt lat="44.84242" lon="6.14425">
        <ele>1844.9072265625</ele>
        <time>2020-08-14T15:41:13Z</time>
      </trkpt>
      <trkpt lat="44.84234" lon="6.1444">
        <ele>1845.8686523438</ele>
        <time>2020-08-14T15:41:34Z</time>
      </trkpt>
      <trkpt lat="44.84224" lon="6.14452">
        <ele>1843.9460449219</ele>
        <time>2020-08-14T15:41:52Z</time>
      </trkpt>
      <trkpt lat="44.84214" lon="6.14465">
        <ele>1846.3493652344</ele>
        <time>2020-08-14T15:42:17Z</time>
      </trkpt>
      <trkpt lat="44.84222" lon="6.14466">
        <ele>1854.5205078125</ele>
        <time>2020-08-14T15:42:45Z</time>
      </trkpt>
      <trkpt lat="44.84224" lon="6.14468">
        <ele>1855.4819335938</ele>
        <time>2020-08-14T15:44:34Z</time>
      </trkpt>
      <trkpt lat="44.84239" lon="6.14468">
        <ele>1857.4045410156</ele>
        <time>2020-08-14T15:44:55Z</time>
      </trkpt>
      <trkpt lat="44.84246" lon="6.14471">
        <ele>1857.8852539062</ele>
        <time>2020-08-14T15:45:11Z</time>
      </trkpt>
      <trkpt lat="44.84259" lon="6.14468">
        <ele>1863.6528320312</ele>
        <time>2020-08-14T15:45:29Z</time>
      </trkpt>
      <trkpt lat="44.84277" lon="6.14469">
        <ele>1865.5756835938</ele>
        <time>2020-08-14T15:45:53Z</time>
      </trkpt>
      <trkpt lat="44.84291" lon="6.14464">
        <ele>1871.82421875</ele>
        <time>2020-08-14T15:46:15Z</time>
      </trkpt>
      <trkpt lat="44.84303" lon="6.14455">
        <ele>1872.7856445312</ele>
        <time>2020-08-14T15:46:33Z</time>
      </trkpt>
      <trkpt lat="44.84313" lon="6.14447">
        <ele>1874.7082519531</ele>
        <time>2020-08-14T15:46:49Z</time>
      </trkpt>
      <trkpt lat="44.84323" lon="6.1444">
        <ele>1876.1501464844</ele>
        <time>2020-08-14T15:47:10Z</time>
      </trkpt>
      <trkpt lat="44.84337" lon="6.1443">
        <ele>1879.5146484375</ele>
        <time>2020-08-14T15:47:33Z</time>
      </trkpt>
      <trkpt lat="44.84346" lon="6.14421">
        <ele>1881.4372558594</ele>
        <time>2020-08-14T15:47:55Z</time>
      </trkpt>
      <trkpt lat="44.84357" lon="6.14421">
        <ele>1882.3986816406</ele>
        <time>2020-08-14T15:48:11Z</time>
      </trkpt>
      <trkpt lat="44.84365" lon="6.14425">
        <ele>1883.8405761719</ele>
        <time>2020-08-14T15:48:28Z</time>
      </trkpt>
      <trkpt lat="44.84354" lon="6.14423">
        <ele>1884.8022460938</ele>
        <time>2020-08-14T15:48:46Z</time>
      </trkpt>
      <trkpt lat="44.84353" lon="6.14428">
        <ele>1886.244140625</ele>
        <time>2020-08-14T15:49:05Z</time>
      </trkpt>
      <trkpt lat="44.84355" lon="6.14427">
        <ele>1886.724609375</ele>
        <time>2020-08-14T15:49:26Z</time>
      </trkpt>
      <trkpt lat="44.84352" lon="6.1443">
        <ele>1888.1667480469</ele>
        <time>2020-08-14T15:49:40Z</time>
      </trkpt>
      <trkpt lat="44.84353" lon="6.14429">
        <ele>1886.724609375</ele>
        <time>2020-08-14T15:50:08Z</time>
      </trkpt>
      <trkpt lat="44.84353" lon="6.14428">
        <ele>1885.2827148438</ele>
        <time>2020-08-14T15:50:25Z</time>
      </trkpt>
      <trkpt lat="44.84358" lon="6.14432">
        <ele>1884.8022460938</ele>
        <time>2020-08-14T15:51:48Z</time>
      </trkpt>
      <trkpt lat="44.84353" lon="6.14421">
        <ele>1884.8022460938</ele>
        <time>2020-08-14T15:53:42Z</time>
      </trkpt>
      <trkpt lat="44.84359" lon="6.14432">
        <ele>1886.724609375</ele>
        <time>2020-08-14T15:57:45Z</time>
      </trkpt>
      <trkpt lat="44.84363" lon="6.14433">
        <ele>1880.9567871094</ele>
        <time>2020-08-14T15:58:24Z</time>
      </trkpt>
      <trkpt lat="44.84351" lon="6.14432">
        <ele>1885.2827148438</ele>
        <time>2020-08-14T15:59:19Z</time>
      </trkpt>
      <trkpt lat="44.84349" lon="6.14428">
        <ele>1881.91796875</ele>
        <time>2020-08-14T16:00:06Z</time>
      </trkpt>
      <trkpt lat="44.84347" lon="6.14438">
        <ele>1883.3598632812</ele>
        <time>2020-08-14T16:01:19Z</time>
      </trkpt>
      <trkpt lat="44.84362" lon="6.14435">
        <ele>1885.7634277344</ele>
        <time>2020-08-14T16:01:40Z</time>
      </trkpt>
      <trkpt lat="44.84377" lon="6.14434">
        <ele>1887.2053222656</ele>
        <time>2020-08-14T16:01:58Z</time>
      </trkpt>
      <trkpt lat="44.84391" lon="6.14432">
        <ele>1891.53125</ele>
        <time>2020-08-14T16:02:16Z</time>
      </trkpt>
      <trkpt lat="44.84399" lon="6.14434">
        <ele>1892.0119628906</ele>
        <time>2020-08-14T16:02:36Z</time>
      </trkpt>
      <trkpt lat="44.84411" lon="6.1444">
        <ele>1894.4150390625</ele>
        <time>2020-08-14T16:02:54Z</time>
      </trkpt>
      <trkpt lat="44.84423" lon="6.14444">
        <ele>1895.8571777344</ele>
        <time>2020-08-14T16:03:11Z</time>
      </trkpt>
      <trkpt lat="44.84433" lon="6.14451">
        <ele>1895.3764648438</ele>
        <time>2020-08-14T16:03:26Z</time>
      </trkpt>
      <trkpt lat="44.84438" lon="6.1446">
        <ele>1896.818359375</ele>
        <time>2020-08-14T16:03:42Z</time>
      </trkpt>
      <trkpt lat="44.84456" lon="6.14469">
        <ele>1897.7797851562</ele>
        <time>2020-08-14T16:04:02Z</time>
      </trkpt>
      <trkpt lat="44.84465" lon="6.14473">
        <ele>1898.7409667969</ele>
        <time>2020-08-14T16:04:16Z</time>
      </trkpt>
      <trkpt lat="44.84474" lon="6.14484">
        <ele>1901.6252441406</ele>
        <time>2020-08-14T16:04:32Z</time>
      </trkpt>
      <trkpt lat="44.84472" lon="6.14489">
        <ele>1904.0285644531</ele>
        <time>2020-08-14T16:04:53Z</time>
      </trkpt>
      <trkpt lat="44.84478" lon="6.14499">
        <ele>1904.5090332031</ele>
        <time>2020-08-14T16:05:13Z</time>
      </trkpt>
      <trkpt lat="44.84491" lon="6.145">
        <ele>1904.9897460938</ele>
        <time>2020-08-14T16:05:29Z</time>
      </trkpt>
      <trkpt lat="44.84501" lon="6.1451">
        <ele>1905.4704589844</ele>
        <time>2020-08-14T16:05:45Z</time>
      </trkpt>
      <trkpt lat="44.84501" lon="6.14516">
        <ele>1904.5090332031</ele>
        <time>2020-08-14T16:05:55Z</time>
      </trkpt>
      <trkpt lat="44.84514" lon="6.14522">
        <ele>1910.2768554688</ele>
        <time>2020-08-14T16:06:14Z</time>
      </trkpt>
      <trkpt lat="44.84502" lon="6.14518">
        <ele>1912.6801757812</ele>
        <time>2020-08-14T16:06:33Z</time>
      </trkpt>
      <trkpt lat="44.84494" lon="6.14519">
        <ele>1917.9675292969</ele>
        <time>2020-08-14T16:06:51Z</time>
      </trkpt>
      <trkpt lat="44.84501" lon="6.14525">
        <ele>1921.8127441406</ele>
        <time>2020-08-14T16:07:06Z</time>
      </trkpt>
      <trkpt lat="44.84508" lon="6.14525">
        <ele>1920.8515625</ele>
        <time>2020-08-14T16:07:32Z</time>
      </trkpt>
      <trkpt lat="44.84518" lon="6.14532">
        <ele>1920.3708496094</ele>
        <time>2020-08-14T16:07:46Z</time>
      </trkpt>
      <trkpt lat="44.84517" lon="6.14536">
        <ele>1923.2548828125</ele>
        <time>2020-08-14T16:07:59Z</time>
      </trkpt>
      <trkpt lat="44.84496" lon="6.14532">
        <ele>1924.6967773438</ele>
        <time>2020-08-14T16:08:15Z</time>
      </trkpt>
      <trkpt lat="44.84488" lon="6.14528">
        <ele>1929.5031738281</ele>
        <time>2020-08-14T16:08:33Z</time>
      </trkpt>
      <trkpt lat="44.8449" lon="6.14528">
        <ele>1929.9838867188</ele>
        <time>2020-08-14T16:09:03Z</time>
      </trkpt>
      <trkpt lat="44.84488" lon="6.14534">
        <ele>1930.4645996094</ele>
        <time>2020-08-14T16:09:10Z</time>
      </trkpt>
      <trkpt lat="44.84487" lon="6.14551">
        <ele>1933.3486328125</ele>
        <time>2020-08-14T16:09:25Z</time>
      </trkpt>
      <trkpt lat="44.84489" lon="6.14557">
        <ele>1935.2712402344</ele>
        <time>2020-08-14T16:09:41Z</time>
      </trkpt>
      <trkpt lat="44.84487" lon="6.14562">
        <ele>1936.7131347656</ele>
        <time>2020-08-14T16:10:40Z</time>
      </trkpt>
      <trkpt lat="44.84479" lon="6.14578">
        <ele>1938.6359863281</ele>
        <time>2020-08-14T16:11:00Z</time>
      </trkpt>
      <trkpt lat="44.84467" lon="6.14588">
        <ele>1940.5583496094</ele>
        <time>2020-08-14T16:11:20Z</time>
      </trkpt>
      <trkpt lat="44.84462" lon="6.14595">
        <ele>1943.9230957031</ele>
        <time>2020-08-14T16:11:40Z</time>
      </trkpt>
      <trkpt lat="44.84466" lon="6.14606">
        <ele>1945.3649902344</ele>
        <time>2020-08-14T16:11:59Z</time>
      </trkpt>
      <trkpt lat="44.8447" lon="6.14608">
        <ele>1946.8068847656</ele>
        <time>2020-08-14T16:12:09Z</time>
      </trkpt>
      <trkpt lat="44.84479" lon="6.14606">
        <ele>1944.8842773438</ele>
        <time>2020-08-14T16:12:21Z</time>
      </trkpt>
      <trkpt lat="44.84481" lon="6.14609">
        <ele>1944.4035644531</ele>
        <time>2020-08-14T16:12:35Z</time>
      </trkpt>
      <trkpt lat="44.84494" lon="6.14612">
        <ele>1944.8842773438</ele>
        <time>2020-08-14T16:13:01Z</time>
      </trkpt>
      <trkpt lat="44.84488" lon="6.14615">
        <ele>1945.845703125</ele>
        <time>2020-08-14T16:13:17Z</time>
      </trkpt>
      <trkpt lat="44.84482" lon="6.14617">
        <ele>1946.8068847656</ele>
        <time>2020-08-14T16:13:25Z</time>
      </trkpt>
      <trkpt lat="44.84478" lon="6.14625">
        <ele>1949.2104492188</ele>
        <time>2020-08-14T16:13:41Z</time>
      </trkpt>
      <trkpt lat="44.84489" lon="6.14624">
        <ele>1950.65234375</ele>
        <time>2020-08-14T16:13:53Z</time>
      </trkpt>
      <trkpt lat="44.84488" lon="6.14627">
        <ele>1951.6137695312</ele>
        <time>2020-08-14T16:13:59Z</time>
      </trkpt>
      <trkpt lat="44.8449" lon="6.14631">
        <ele>1951.6137695312</ele>
        <time>2020-08-14T16:14:03Z</time>
      </trkpt>
      <trkpt lat="44.84496" lon="6.1464">
        <ele>1954.9782714844</ele>
        <time>2020-08-14T16:14:23Z</time>
      </trkpt>
      <trkpt lat="44.84495" lon="6.14647">
        <ele>1957.8623046875</ele>
        <time>2020-08-14T16:14:39Z</time>
      </trkpt>
      <trkpt lat="44.84485" lon="6.1465">
        <ele>1958.8234863281</ele>
        <time>2020-08-14T16:14:59Z</time>
      </trkpt>
      <trkpt lat="44.84483" lon="6.1465">
        <ele>1958.8234863281</ele>
        <time>2020-08-14T16:15:25Z</time>
      </trkpt>
      <trkpt lat="44.84472" lon="6.14648">
        <ele>1960.74609375</ele>
        <time>2020-08-14T16:15:49Z</time>
      </trkpt>
      <trkpt lat="44.84473" lon="6.14647">
        <ele>1961.2268066406</ele>
        <time>2020-08-14T16:16:09Z</time>
      </trkpt>
      <trkpt lat="44.8447" lon="6.14649">
        <ele>1961.2268066406</ele>
        <time>2020-08-14T16:16:26Z</time>
      </trkpt>
      <trkpt lat="44.84469" lon="6.14642">
        <ele>1961.2268066406</ele>
        <time>2020-08-14T16:16:49Z</time>
      </trkpt>
      <trkpt lat="44.84468" lon="6.14646">
        <ele>1961.7075195312</ele>
        <time>2020-08-14T16:17:06Z</time>
      </trkpt>
      <trkpt lat="44.8447" lon="6.14647">
        <ele>1962.6687011719</ele>
        <time>2020-08-14T16:17:24Z</time>
      </trkpt>
    </trkseg>
  </trk>
  <trk>
    <name><![CDATA[Jour 2]]></name>
    <trkseg>
      <trkpt lat="44.84471" lon="6.14654">
        <ele>1951.1330566406</ele>
        <time>2020-08-15T06:48:51Z</time>
      </trkpt>
      <trkpt lat="44.84475" lon="6.14646">
        <ele>1969.8786621094</ele>
        <time>2020-08-15T06:49:32Z</time>
      </trkpt>
      <trkpt lat="44.84471" lon="6.14651">
        <ele>1969.8786621094</ele>
        <time>2020-08-15T06:50:40Z</time>
      </trkpt>
      <trkpt lat="44.84474" lon="6.14653">
        <ele>1969.8786621094</ele>
        <time>2020-08-15T06:51:06Z</time>
      </trkpt>
      <trkpt lat="44.84474" lon="6.1466">
        <ele>1970.8400878906</ele>
        <time>2020-08-15T06:51:19Z</time>
      </trkpt>
      <trkpt lat="44.84476" lon="6.14666">
        <ele>1975.1657714844</ele>
        <time>2020-08-15T06:51:35Z</time>
      </trkpt>
      <trkpt lat="44.84485" lon="6.1468">
        <ele>1979.4916992188</ele>
        <time>2020-08-15T06:52:01Z</time>
      </trkpt>
      <trkpt lat="44.8449" lon="6.14694">
        <ele>1981.8952636719</ele>
        <time>2020-08-15T06:52:20Z</time>
      </trkpt>
      <trkpt lat="44.84494" lon="6.14703">
        <ele>1984.779296875</ele>
        <time>2020-08-15T06:52:38Z</time>
      </trkpt>
      <trkpt lat="44.84493" lon="6.14716">
        <ele>1987.1823730469</ele>
        <time>2020-08-15T06:52:57Z</time>
      </trkpt>
      <trkpt lat="44.84491" lon="6.14724">
        <ele>1991.5083007812</ele>
        <time>2020-08-15T06:53:14Z</time>
      </trkpt>
      <trkpt lat="44.84489" lon="6.14734">
        <ele>1992.9501953125</ele>
        <time>2020-08-15T06:53:31Z</time>
      </trkpt>
      <trkpt lat="44.84488" lon="6.14744">
        <ele>1995.8342285156</ele>
        <time>2020-08-15T06:53:49Z</time>
      </trkpt>
      <trkpt lat="44.84486" lon="6.14755">
        <ele>1994.8728027344</ele>
        <time>2020-08-15T06:54:09Z</time>
      </trkpt>
      <trkpt lat="44.84482" lon="6.14771">
        <ele>1995.353515625</ele>
        <time>2020-08-15T06:54:29Z</time>
      </trkpt>
      <trkpt lat="44.8448" lon="6.1478">
        <ele>1997.7570800781</ele>
        <time>2020-08-15T06:54:47Z</time>
      </trkpt>
      <trkpt lat="44.84479" lon="6.14792">
        <ele>1999.1989746094</ele>
        <time>2020-08-15T06:55:08Z</time>
      </trkpt>
      <trkpt lat="44.84479" lon="6.14802">
        <ele>1999.6796875</ele>
        <time>2020-08-15T06:55:25Z</time>
      </trkpt>
      <trkpt lat="44.84477" lon="6.14817">
        <ele>2001.1215820312</ele>
        <time>2020-08-15T06:55:52Z</time>
      </trkpt>
      <trkpt lat="44.84477" lon="6.14829">
        <ele>2004.966796875</ele>
        <time>2020-08-15T06:56:09Z</time>
      </trkpt>
      <trkpt lat="44.84472" lon="6.1484">
        <ele>2007.8508300781</ele>
        <time>2020-08-15T06:56:31Z</time>
      </trkpt>
      <trkpt lat="44.84465" lon="6.14844">
        <ele>2005.4475097656</ele>
        <time>2020-08-15T06:56:51Z</time>
      </trkpt>
      <trkpt lat="44.84455" lon="6.14843">
        <ele>2004.966796875</ele>
        <time>2020-08-15T06:57:12Z</time>
      </trkpt>
      <trkpt lat="44.84455" lon="6.14849">
        <ele>2007.8508300781</ele>
        <time>2020-08-15T06:57:32Z</time>
      </trkpt>
      <trkpt lat="44.84458" lon="6.14866">
        <ele>2010.25390625</ele>
        <time>2020-08-15T06:57:57Z</time>
      </trkpt>
      <trkpt lat="44.84464" lon="6.14885">
        <ele>2014.0993652344</ele>
        <time>2020-08-15T06:58:25Z</time>
      </trkpt>
      <trkpt lat="44.84474" lon="6.14888">
        <ele>2016.9833984375</ele>
        <time>2020-08-15T06:58:40Z</time>
      </trkpt>
      <trkpt lat="44.84484" lon="6.14898">
        <ele>2020.8286132812</ele>
        <time>2020-08-15T06:59:05Z</time>
      </trkpt>
      <trkpt lat="44.84489" lon="6.14903">
        <ele>2023.7124023438</ele>
        <time>2020-08-15T06:59:25Z</time>
      </trkpt>
      <trkpt lat="44.84503" lon="6.14911">
        <ele>2026.5964355469</ele>
        <time>2020-08-15T06:59:44Z</time>
      </trkpt>
      <trkpt lat="44.84511" lon="6.14931">
        <ele>2030.4418945312</ele>
        <time>2020-08-15T07:00:13Z</time>
      </trkpt>
      <trkpt lat="44.84526" lon="6.14941">
        <ele>2034.287109375</ele>
        <time>2020-08-15T07:00:39Z</time>
      </trkpt>
      <trkpt lat="44.84534" lon="6.14952">
        <ele>2041.0161132812</ele>
        <time>2020-08-15T07:01:18Z</time>
      </trkpt>
      <trkpt lat="44.84549" lon="6.14964">
        <ele>2045.8229980469</ele>
        <time>2020-08-15T07:01:45Z</time>
      </trkpt>
      <trkpt lat="44.84558" lon="6.14968">
        <ele>2049.6682128906</ele>
        <time>2020-08-15T07:02:06Z</time>
      </trkpt>
      <trkpt lat="44.84565" lon="6.14972">
        <ele>2052.5520019531</ele>
        <time>2020-08-15T07:02:22Z</time>
      </trkpt>
      <trkpt lat="44.84572" lon="6.14977">
        <ele>2054.474609375</ele>
        <time>2020-08-15T07:02:40Z</time>
      </trkpt>
      <trkpt lat="44.8457" lon="6.14981">
        <ele>2050.1489257812</ele>
        <time>2020-08-15T07:03:02Z</time>
      </trkpt>
      <trkpt lat="44.84561" lon="6.14988">
        <ele>2049.6682128906</ele>
        <time>2020-08-15T07:03:23Z</time>
      </trkpt>
      <trkpt lat="44.84549" lon="6.14986">
        <ele>2052.5520019531</ele>
        <time>2020-08-15T07:03:46Z</time>
      </trkpt>
      <trkpt lat="44.84535" lon="6.14993">
        <ele>2057.3586425781</ele>
        <time>2020-08-15T07:04:08Z</time>
      </trkpt>
      <trkpt lat="44.84527" lon="6.15002">
        <ele>2059.76171875</ele>
        <time>2020-08-15T07:04:25Z</time>
      </trkpt>
      <trkpt lat="44.84523" lon="6.15015">
        <ele>2061.2041015625</ele>
        <time>2020-08-15T07:04:45Z</time>
      </trkpt>
      <trkpt lat="44.84515" lon="6.15022">
        <ele>2062.1652832031</ele>
        <time>2020-08-15T07:05:01Z</time>
      </trkpt>
      <trkpt lat="44.84509" lon="6.15021">
        <ele>2062.1652832031</ele>
        <time>2020-08-15T07:05:26Z</time>
      </trkpt>
      <trkpt lat="44.84501" lon="6.15032">
        <ele>2063.1267089844</ele>
        <time>2020-08-15T07:05:44Z</time>
      </trkpt>
      <trkpt lat="44.84495" lon="6.15043">
        <ele>2064.5686035156</ele>
        <time>2020-08-15T07:05:58Z</time>
      </trkpt>
      <trkpt lat="44.84487" lon="6.15056">
        <ele>2065.0493164062</ele>
        <time>2020-08-15T07:06:17Z</time>
      </trkpt>
      <trkpt lat="44.84478" lon="6.15075">
        <ele>2065.5300292969</ele>
        <time>2020-08-15T07:06:37Z</time>
      </trkpt>
      <trkpt lat="44.84471" lon="6.15091">
        <ele>2066.4912109375</ele>
        <time>2020-08-15T07:06:56Z</time>
      </trkpt>
      <trkpt lat="44.84488" lon="6.15095">
        <ele>2067.9331054688</ele>
        <time>2020-08-15T07:07:22Z</time>
      </trkpt>
      <trkpt lat="44.84497" lon="6.15091">
        <ele>2071.2976074219</ele>
        <time>2020-08-15T07:07:45Z</time>
      </trkpt>
      <trkpt lat="44.84511" lon="6.15096">
        <ele>2073.7009277344</ele>
        <time>2020-08-15T07:08:06Z</time>
      </trkpt>
      <trkpt lat="44.84525" lon="6.15097">
        <ele>2075.1428222656</ele>
        <time>2020-08-15T07:08:31Z</time>
      </trkpt>
      <trkpt lat="44.84543" lon="6.15093">
        <ele>2078.0270996094</ele>
        <time>2020-08-15T07:08:57Z</time>
      </trkpt>
      <trkpt lat="44.84555" lon="6.15091">
        <ele>2077.5463867188</ele>
        <time>2020-08-15T07:09:24Z</time>
      </trkpt>
      <trkpt lat="44.84555" lon="6.1509">
        <ele>2078.98828125</ele>
        <time>2020-08-15T07:10:17Z</time>
      </trkpt>
      <trkpt lat="44.84556" lon="6.15092">
        <ele>2078.5078125</ele>
        <time>2020-08-15T07:10:35Z</time>
      </trkpt>
      <trkpt lat="44.84568" lon="6.15092">
        <ele>2079.9497070312</ele>
        <time>2020-08-15T07:10:55Z</time>
      </trkpt>
      <trkpt lat="44.84583" lon="6.15071">
        <ele>2096.7727050781</ele>
        <time>2020-08-15T07:11:18Z</time>
      </trkpt>
      <trkpt lat="44.84585" lon="6.15072">
        <ele>2102.5405273438</ele>
        <time>2020-08-15T07:11:36Z</time>
      </trkpt>
      <trkpt lat="44.84583" lon="6.15086">
        <ele>2105.4245605469</ele>
        <time>2020-08-15T07:11:55Z</time>
      </trkpt>
      <trkpt lat="44.8458" lon="6.15107">
        <ele>2107.3471679688</ele>
        <time>2020-08-15T07:12:23Z</time>
      </trkpt>
      <trkpt lat="44.84574" lon="6.1511">
        <ele>2108.30859375</ele>
        <time>2020-08-15T07:12:45Z</time>
      </trkpt>
      <trkpt lat="44.84569" lon="6.15123">
        <ele>2111.6733398438</ele>
        <time>2020-08-15T07:14:39Z</time>
      </trkpt>
      <trkpt lat="44.84558" lon="6.15135">
        <ele>2112.1538085938</ele>
        <time>2020-08-15T07:15:01Z</time>
      </trkpt>
      <trkpt lat="44.84554" lon="6.15145">
        <ele>2112.1538085938</ele>
        <time>2020-08-15T07:15:19Z</time>
      </trkpt>
      <trkpt lat="44.84565" lon="6.1515">
        <ele>2112.1538085938</ele>
        <time>2020-08-15T07:15:41Z</time>
      </trkpt>
      <trkpt lat="44.84576" lon="6.15149">
        <ele>2112.6345214844</ele>
        <time>2020-08-15T07:16:03Z</time>
      </trkpt>
      <trkpt lat="44.84588" lon="6.1515">
        <ele>2115.9990234375</ele>
        <time>2020-08-15T07:16:28Z</time>
      </trkpt>
      <trkpt lat="44.84595" lon="6.15151">
        <ele>2118.8830566406</ele>
        <time>2020-08-15T07:16:53Z</time>
      </trkpt>
      <trkpt lat="44.84593" lon="6.15158">
        <ele>2120.3249511719</ele>
        <time>2020-08-15T07:17:10Z</time>
      </trkpt>
      <trkpt lat="44.84582" lon="6.15171">
        <ele>2121.7668457031</ele>
        <time>2020-08-15T07:17:36Z</time>
      </trkpt>
      <trkpt lat="44.84578" lon="6.15181">
        <ele>2122.2475585938</ele>
        <time>2020-08-15T07:17:51Z</time>
      </trkpt>
      <trkpt lat="44.84572" lon="6.15196">
        <ele>2124.6511230469</ele>
        <time>2020-08-15T07:18:11Z</time>
      </trkpt>
      <trkpt lat="44.84565" lon="6.15213">
        <ele>2126.5737304688</ele>
        <time>2020-08-15T07:18:38Z</time>
      </trkpt>
      <trkpt lat="44.84557" lon="6.15233">
        <ele>2130.4189453125</ele>
        <time>2020-08-15T07:19:06Z</time>
      </trkpt>
      <trkpt lat="44.84555" lon="6.15241">
        <ele>2134.7448730469</ele>
        <time>2020-08-15T07:19:44Z</time>
      </trkpt>
      <trkpt lat="44.84565" lon="6.15237">
        <ele>2139.5512695312</ele>
        <time>2020-08-15T07:20:04Z</time>
      </trkpt>
      <trkpt lat="44.84589" lon="6.15227">
        <ele>2153.9711914062</ele>
        <time>2020-08-15T07:20:48Z</time>
      </trkpt>
      <trkpt lat="44.84589" lon="6.15229">
        <ele>2153.009765625</ele>
        <time>2020-08-15T07:21:08Z</time>
      </trkpt>
      <trkpt lat="44.84581" lon="6.15245">
        <ele>2152.5290527344</ele>
        <time>2020-08-15T07:21:35Z</time>
      </trkpt>
      <trkpt lat="44.84572" lon="6.15259">
        <ele>2152.5290527344</ele>
        <time>2020-08-15T07:21:57Z</time>
      </trkpt>
      <trkpt lat="44.84562" lon="6.15273">
        <ele>2156.8552246094</ele>
        <time>2020-08-15T07:22:21Z</time>
      </trkpt>
      <trkpt lat="44.84553" lon="6.15291">
        <ele>2160.7004394531</ele>
        <time>2020-08-15T07:22:44Z</time>
      </trkpt>
      <trkpt lat="44.84548" lon="6.15304">
        <ele>2164.5456542969</ele>
        <time>2020-08-15T07:23:07Z</time>
      </trkpt>
      <trkpt lat="44.84545" lon="6.15314">
        <ele>2168.8715820312</ele>
        <time>2020-08-15T07:23:30Z</time>
      </trkpt>
      <trkpt lat="44.84537" lon="6.15329">
        <ele>2170.7941894531</ele>
        <time>2020-08-15T07:23:56Z</time>
      </trkpt>
      <trkpt lat="44.84528" lon="6.15343">
        <ele>2172.7170410156</ele>
        <time>2020-08-15T07:24:18Z</time>
      </trkpt>
      <trkpt lat="44.84516" lon="6.15354">
        <ele>2175.6008300781</ele>
        <time>2020-08-15T07:24:40Z</time>
      </trkpt>
      <trkpt lat="44.84507" lon="6.15359">
        <ele>2179.4460449219</ele>
        <time>2020-08-15T07:25:03Z</time>
      </trkpt>
      <trkpt lat="44.84498" lon="6.15367">
        <ele>2182.810546875</ele>
        <time>2020-08-15T07:25:23Z</time>
      </trkpt>
      <trkpt lat="44.84493" lon="6.15372">
        <ele>2181.3686523438</ele>
        <time>2020-08-15T07:25:31Z</time>
      </trkpt>
      <trkpt lat="44.84486" lon="6.15374">
        <ele>2178.4848632812</ele>
        <time>2020-08-15T07:25:47Z</time>
      </trkpt>
      <trkpt lat="44.84478" lon="6.15377">
        <ele>2181.8493652344</ele>
        <time>2020-08-15T07:26:08Z</time>
      </trkpt>
      <trkpt lat="44.84476" lon="6.15373">
        <ele>2183.2912597656</ele>
        <time>2020-08-15T07:26:35Z</time>
      </trkpt>
      <trkpt lat="44.84478" lon="6.15374">
        <ele>2182.330078125</ele>
        <time>2020-08-15T07:27:07Z</time>
      </trkpt>
      <trkpt lat="44.84479" lon="6.15376">
        <ele>2182.330078125</ele>
        <time>2020-08-15T07:27:54Z</time>
      </trkpt>
      <trkpt lat="44.84478" lon="6.15377">
        <ele>2182.810546875</ele>
        <time>2020-08-15T07:28:03Z</time>
      </trkpt>
      <trkpt lat="44.8448" lon="6.1538">
        <ele>2181.3686523438</ele>
        <time>2020-08-15T07:28:31Z</time>
      </trkpt>
      <trkpt lat="44.84478" lon="6.15372">
        <ele>2180.8881835938</ele>
        <time>2020-08-15T07:28:50Z</time>
      </trkpt>
      <trkpt lat="44.8448" lon="6.15375">
        <ele>2180.8881835938</ele>
        <time>2020-08-15T07:29:12Z</time>
      </trkpt>
      <trkpt lat="44.84481" lon="6.15374">
        <ele>2180.8881835938</ele>
        <time>2020-08-15T07:30:55Z</time>
      </trkpt>
      <trkpt lat="44.84481" lon="6.15373">
        <ele>2181.3686523438</ele>
        <time>2020-08-15T07:32:07Z</time>
      </trkpt>
      <trkpt lat="44.84482" lon="6.15373">
        <ele>2182.330078125</ele>
        <time>2020-08-15T07:32:26Z</time>
      </trkpt>
      <trkpt lat="44.8448" lon="6.15374">
        <ele>2182.330078125</ele>
        <time>2020-08-15T07:33:01Z</time>
      </trkpt>
      <trkpt lat="44.8448" lon="6.15374">
        <ele>2183.2912597656</ele>
        <time>2020-08-15T07:33:22Z</time>
      </trkpt>
      <trkpt lat="44.84482" lon="6.15373">
        <ele>2183.2912597656</ele>
        <time>2020-08-15T07:33:47Z</time>
      </trkpt>
      <trkpt lat="44.84482" lon="6.15374">
        <ele>2185.2138671875</ele>
        <time>2020-08-15T07:34:06Z</time>
      </trkpt>
      <trkpt lat="44.84482" lon="6.15373">
        <ele>2186.1752929688</ele>
        <time>2020-08-15T07:34:32Z</time>
      </trkpt>
      <trkpt lat="44.84481" lon="6.1537">
        <ele>2185.6945800781</ele>
        <time>2020-08-15T07:34:49Z</time>
      </trkpt>
      <trkpt lat="44.84481" lon="6.15373">
        <ele>2186.1752929688</ele>
        <time>2020-08-15T07:35:07Z</time>
      </trkpt>
      <trkpt lat="44.84478" lon="6.15372">
        <ele>2189.0593261719</ele>
        <time>2020-08-15T07:36:27Z</time>
      </trkpt>
      <trkpt lat="44.84477" lon="6.15373">
        <ele>2190.0207519531</ele>
        <time>2020-08-15T07:38:03Z</time>
      </trkpt>
      <trkpt lat="44.84475" lon="6.15374">
        <ele>2190.0207519531</ele>
        <time>2020-08-15T07:39:11Z</time>
      </trkpt>
      <trkpt lat="44.84474" lon="6.15374">
        <ele>2190.9819335938</ele>
        <time>2020-08-15T07:40:04Z</time>
      </trkpt>
      <trkpt lat="44.84477" lon="6.15385">
        <ele>2190.9819335938</ele>
        <time>2020-08-15T07:41:34Z</time>
      </trkpt>
      <trkpt lat="44.84479" lon="6.1539">
        <ele>2188.5788574219</ele>
        <time>2020-08-15T07:41:55Z</time>
      </trkpt>
      <trkpt lat="44.84476" lon="6.15392">
        <ele>2187.6171875</ele>
        <time>2020-08-15T07:42:16Z</time>
      </trkpt>
      <trkpt lat="44.84468" lon="6.15387">
        <ele>2184.2526855469</ele>
        <time>2020-08-15T07:42:32Z</time>
      </trkpt>
      <trkpt lat="44.84463" lon="6.15384">
        <ele>2181.8493652344</ele>
        <time>2020-08-15T07:43:04Z</time>
      </trkpt>
      <trkpt lat="44.84451" lon="6.15382">
        <ele>2178.0041503906</ele>
        <time>2020-08-15T07:43:27Z</time>
      </trkpt>
      <trkpt lat="44.84443" lon="6.15381">
        <ele>2173.6782226562</ele>
        <time>2020-08-15T07:43:41Z</time>
      </trkpt>
      <trkpt lat="44.84438" lon="6.1538">
        <ele>2170.3134765625</ele>
        <time>2020-08-15T07:43:57Z</time>
      </trkpt>
      <trkpt lat="44.84448" lon="6.15392">
        <ele>2168.8715820312</ele>
        <time>2020-08-15T07:44:21Z</time>
      </trkpt>
      <trkpt lat="44.84452" lon="6.15392">
        <ele>2162.1423339844</ele>
        <time>2020-08-15T07:45:22Z</time>
      </trkpt>
      <trkpt lat="44.84459" lon="6.15402">
        <ele>2162.623046875</ele>
        <time>2020-08-15T07:45:50Z</time>
      </trkpt>
      <trkpt lat="44.84467" lon="6.15424">
        <ele>2163.5842285156</ele>
        <time>2020-08-15T07:46:16Z</time>
      </trkpt>
      <trkpt lat="44.84474" lon="6.15439">
        <ele>2161.1811523438</ele>
        <time>2020-08-15T07:46:40Z</time>
      </trkpt>
      <trkpt lat="44.84477" lon="6.15459">
        <ele>2158.7778320312</ele>
        <time>2020-08-15T07:47:01Z</time>
      </trkpt>
      <trkpt lat="44.84484" lon="6.15475">
        <ele>2154.4516601562</ele>
        <time>2020-08-15T07:47:22Z</time>
      </trkpt>
      <trkpt lat="44.84493" lon="6.15483">
        <ele>2149.1645507812</ele>
        <time>2020-08-15T07:47:45Z</time>
      </trkpt>
      <trkpt lat="44.84496" lon="6.15488">
        <ele>2146.7612304688</ele>
        <time>2020-08-15T07:48:11Z</time>
      </trkpt>
      <trkpt lat="44.845" lon="6.15496">
        <ele>2146.2807617188</ele>
        <time>2020-08-15T07:48:28Z</time>
      </trkpt>
      <trkpt lat="44.84504" lon="6.15523">
        <ele>2145.8000488281</ele>
        <time>2020-08-15T07:48:53Z</time>
      </trkpt>
      <trkpt lat="44.84501" lon="6.1555">
        <ele>2152.0483398438</ele>
        <time>2020-08-15T07:49:20Z</time>
      </trkpt>
      <trkpt lat="44.84497" lon="6.15574">
        <ele>2153.4904785156</ele>
        <time>2020-08-15T07:49:43Z</time>
      </trkpt>
      <trkpt lat="44.84501" lon="6.15593">
        <ele>2151.5678710938</ele>
        <time>2020-08-15T07:50:06Z</time>
      </trkpt>
      <trkpt lat="44.84503" lon="6.156">
        <ele>2152.0483398438</ele>
        <time>2020-08-15T07:50:24Z</time>
      </trkpt>
      <trkpt lat="44.84495" lon="6.15614">
        <ele>2157.3359375</ele>
        <time>2020-08-15T07:51:18Z</time>
      </trkpt>
      <trkpt lat="44.84495" lon="6.15621">
        <ele>2155.4130859375</ele>
        <time>2020-08-15T07:51:49Z</time>
      </trkpt>
      <trkpt lat="44.84504" lon="6.1564">
        <ele>2159.2585449219</ele>
        <time>2020-08-15T07:52:20Z</time>
      </trkpt>
      <trkpt lat="44.84503" lon="6.15654">
        <ele>2163.1037597656</ele>
        <time>2020-08-15T07:52:40Z</time>
      </trkpt>
      <trkpt lat="44.84499" lon="6.1568">
        <ele>2167.4294433594</ele>
        <time>2020-08-15T07:53:21Z</time>
      </trkpt>
      <trkpt lat="44.84499" lon="6.15699">
        <ele>2172.7170410156</ele>
        <time>2020-08-15T07:53:48Z</time>
      </trkpt>
      <trkpt lat="44.84505" lon="6.15728">
        <ele>2175.1201171875</ele>
        <time>2020-08-15T07:54:27Z</time>
      </trkpt>
      <trkpt lat="44.84518" lon="6.15751">
        <ele>2178.4848632812</ele>
        <time>2020-08-15T07:55:05Z</time>
      </trkpt>
      <trkpt lat="44.84529" lon="6.15768">
        <ele>2184.2526855469</ele>
        <time>2020-08-15T07:55:42Z</time>
      </trkpt>
      <trkpt lat="44.84537" lon="6.15783">
        <ele>2187.1364746094</ele>
        <time>2020-08-15T07:56:12Z</time>
      </trkpt>
      <trkpt lat="44.84545" lon="6.15797">
        <ele>2190.9819335938</ele>
        <time>2020-08-15T07:56:35Z</time>
      </trkpt>
      <trkpt lat="44.84551" lon="6.15819">
        <ele>2193.3852539062</ele>
        <time>2020-08-15T07:57:07Z</time>
      </trkpt>
      <trkpt lat="44.84551" lon="6.15831">
        <ele>2196.2692871094</ele>
        <time>2020-08-15T07:57:33Z</time>
      </trkpt>
      <trkpt lat="44.8455" lon="6.1584">
        <ele>2200.5949707031</ele>
        <time>2020-08-15T07:58:01Z</time>
      </trkpt>
      <trkpt lat="44.84549" lon="6.15846">
        <ele>2200.5949707031</ele>
        <time>2020-08-15T07:58:34Z</time>
      </trkpt>
      <trkpt lat="44.84548" lon="6.15851">
        <ele>2199.1530761719</ele>
        <time>2020-08-15T07:59:31Z</time>
      </trkpt>
      <trkpt lat="44.84541" lon="6.15854">
        <ele>2202.517578125</ele>
        <time>2020-08-15T07:59:49Z</time>
      </trkpt>
      <trkpt lat="44.84539" lon="6.15857">
        <ele>2206.84375</ele>
        <time>2020-08-15T08:00:36Z</time>
      </trkpt>
      <trkpt lat="44.84534" lon="6.15862">
        <ele>2205.8823242188</ele>
        <time>2020-08-15T08:01:08Z</time>
      </trkpt>
      <trkpt lat="44.84531" lon="6.15868">
        <ele>2207.3244628906</ele>
        <time>2020-08-15T08:01:37Z</time>
      </trkpt>
      <trkpt lat="44.84532" lon="6.15886">
        <ele>2210.2082519531</ele>
        <time>2020-08-15T08:02:01Z</time>
      </trkpt>
      <trkpt lat="44.84528" lon="6.15903">
        <ele>2214.5341796875</ele>
        <time>2020-08-15T08:02:29Z</time>
      </trkpt>
      <trkpt lat="44.84528" lon="6.15925">
        <ele>2219.3408203125</ele>
        <time>2020-08-15T08:03:00Z</time>
      </trkpt>
      <trkpt lat="44.84534" lon="6.15929">
        <ele>2222.2248535156</ele>
        <time>2020-08-15T08:03:23Z</time>
      </trkpt>
      <trkpt lat="44.84538" lon="6.15924">
        <ele>2223.1862792969</ele>
        <time>2020-08-15T08:03:51Z</time>
      </trkpt>
      <trkpt lat="44.84549" lon="6.15904">
        <ele>2222.2248535156</ele>
        <time>2020-08-15T08:04:16Z</time>
      </trkpt>
      <trkpt lat="44.84553" lon="6.15904">
        <ele>2222.2248535156</ele>
        <time>2020-08-15T08:04:43Z</time>
      </trkpt>
      <trkpt lat="44.84548" lon="6.15914">
        <ele>2228.4733886719</ele>
        <time>2020-08-15T08:05:41Z</time>
      </trkpt>
      <trkpt lat="44.84546" lon="6.15926">
        <ele>2231.3571777344</ele>
        <time>2020-08-15T08:06:01Z</time>
      </trkpt>
      <trkpt lat="44.8455" lon="6.15943">
        <ele>2235.2023925781</ele>
        <time>2020-08-15T08:06:27Z</time>
      </trkpt>
      <trkpt lat="44.84557" lon="6.1593">
        <ele>2236.64453125</ele>
        <time>2020-08-15T08:06:50Z</time>
      </trkpt>
      <trkpt lat="44.84561" lon="6.15927">
        <ele>2238.0866699219</ele>
        <time>2020-08-15T08:07:15Z</time>
      </trkpt>
      <trkpt lat="44.84558" lon="6.15953">
        <ele>2248.1801757812</ele>
        <time>2020-08-15T08:07:53Z</time>
      </trkpt>
      <trkpt lat="44.84562" lon="6.15976">
        <ele>2251.0642089844</ele>
        <time>2020-08-15T08:08:23Z</time>
      </trkpt>
      <trkpt lat="44.84568" lon="6.15971">
        <ele>2253.4677734375</ele>
        <time>2020-08-15T08:08:45Z</time>
      </trkpt>
      <trkpt lat="44.84573" lon="6.15959">
        <ele>2256.3515625</ele>
        <time>2020-08-15T08:09:10Z</time>
      </trkpt>
      <trkpt lat="44.8458" lon="6.15942">
        <ele>2259.7160644531</ele>
        <time>2020-08-15T08:09:35Z</time>
      </trkpt>
      <trkpt lat="44.8459" lon="6.15935">
        <ele>2259.7160644531</ele>
        <time>2020-08-15T08:10:03Z</time>
      </trkpt>
      <trkpt lat="44.84586" lon="6.1594">
        <ele>2264.5227050781</ele>
        <time>2020-08-15T08:10:27Z</time>
      </trkpt>
      <trkpt lat="44.84582" lon="6.1596">
        <ele>2267.4064941406</ele>
        <time>2020-08-15T08:11:03Z</time>
      </trkpt>
      <trkpt lat="44.84585" lon="6.15982">
        <ele>2268.8488769531</ele>
        <time>2020-08-15T08:11:29Z</time>
      </trkpt>
      <trkpt lat="44.84584" lon="6.15995">
        <ele>2269.8100585938</ele>
        <time>2020-08-15T08:11:53Z</time>
      </trkpt>
      <trkpt lat="44.84585" lon="6.16009">
        <ele>2270.771484375</ele>
        <time>2020-08-15T08:12:39Z</time>
      </trkpt>
      <trkpt lat="44.84574" lon="6.16017">
        <ele>2274.6166992188</ele>
        <time>2020-08-15T08:14:53Z</time>
      </trkpt>
      <trkpt lat="44.8456" lon="6.16026">
        <ele>2278.9423828125</ele>
        <time>2020-08-15T08:15:22Z</time>
      </trkpt>
      <trkpt lat="44.84546" lon="6.1604">
        <ele>2280.865234375</ele>
        <time>2020-08-15T08:15:49Z</time>
      </trkpt>
      <trkpt lat="44.84536" lon="6.16053">
        <ele>2284.7106933594</ele>
        <time>2020-08-15T08:16:17Z</time>
      </trkpt>
      <trkpt lat="44.84524" lon="6.16064">
        <ele>2288.0751953125</ele>
        <time>2020-08-15T08:16:43Z</time>
      </trkpt>
      <trkpt lat="44.84509" lon="6.16076">
        <ele>2288.0751953125</ele>
        <time>2020-08-15T08:17:14Z</time>
      </trkpt>
      <trkpt lat="44.84494" lon="6.16083">
        <ele>2290.958984375</ele>
        <time>2020-08-15T08:17:40Z</time>
      </trkpt>
      <trkpt lat="44.84475" lon="6.16096">
        <ele>2293.8430175781</ele>
        <time>2020-08-15T08:18:08Z</time>
      </trkpt>
      <trkpt lat="44.84468" lon="6.16103">
        <ele>2295.765625</ele>
        <time>2020-08-15T08:18:30Z</time>
      </trkpt>
      <trkpt lat="44.84459" lon="6.16117">
        <ele>2298.1687011719</ele>
        <time>2020-08-15T08:18:51Z</time>
      </trkpt>
      <trkpt lat="44.84454" lon="6.16125">
        <ele>2296.2463378906</ele>
        <time>2020-08-15T08:19:10Z</time>
      </trkpt>
      <trkpt lat="44.84446" lon="6.16143">
        <ele>2296.2463378906</ele>
        <time>2020-08-15T08:19:34Z</time>
      </trkpt>
      <trkpt lat="44.84429" lon="6.16153">
        <ele>2297.6882324219</ele>
        <time>2020-08-15T08:20:06Z</time>
      </trkpt>
      <trkpt lat="44.84421" lon="6.16164">
        <ele>2300.091796875</ele>
        <time>2020-08-15T08:20:37Z</time>
      </trkpt>
      <trkpt lat="44.84414" lon="6.16173">
        <ele>2300.572265625</ele>
        <time>2020-08-15T08:21:01Z</time>
      </trkpt>
      <trkpt lat="44.84397" lon="6.16176">
        <ele>2302.0141601562</ele>
        <time>2020-08-15T08:21:30Z</time>
      </trkpt>
      <trkpt lat="44.84385" lon="6.16178">
        <ele>2308.2626953125</ele>
        <time>2020-08-15T08:21:53Z</time>
      </trkpt>
      <trkpt lat="44.84377" lon="6.16183">
        <ele>2311.6274414062</ele>
        <time>2020-08-15T08:22:15Z</time>
      </trkpt>
      <trkpt lat="44.84364" lon="6.16184">
        <ele>2314.9919433594</ele>
        <time>2020-08-15T08:22:43Z</time>
      </trkpt>
      <trkpt lat="44.8435" lon="6.1618">
        <ele>2323.1633300781</ele>
        <time>2020-08-15T08:23:13Z</time>
      </trkpt>
      <trkpt lat="44.84339" lon="6.16186">
        <ele>2323.6437988281</ele>
        <time>2020-08-15T08:23:45Z</time>
      </trkpt>
      <trkpt lat="44.84327" lon="6.16182">
        <ele>2323.6437988281</ele>
        <time>2020-08-15T08:24:34Z</time>
      </trkpt>
      <trkpt lat="44.84322" lon="6.16182">
        <ele>2325.56640625</ele>
        <time>2020-08-15T08:24:54Z</time>
      </trkpt>
      <trkpt lat="44.84317" lon="6.16176">
        <ele>2325.56640625</ele>
        <time>2020-08-15T08:25:16Z</time>
      </trkpt>
      <trkpt lat="44.84321" lon="6.16184">
        <ele>2326.5278320312</ele>
        <time>2020-08-15T08:25:35Z</time>
      </trkpt>
      <trkpt lat="44.84325" lon="6.16188">
        <ele>2327.4890136719</ele>
        <time>2020-08-15T08:25:58Z</time>
      </trkpt>
      <trkpt lat="44.84325" lon="6.16191">
        <ele>2327.4890136719</ele>
        <time>2020-08-15T08:27:06Z</time>
      </trkpt>
      <trkpt lat="44.84328" lon="6.16198">
        <ele>2327.4890136719</ele>
        <time>2020-08-15T08:27:43Z</time>
      </trkpt>
      <trkpt lat="44.8433" lon="6.16203">
        <ele>2327.9697265625</ele>
        <time>2020-08-15T08:28:08Z</time>
      </trkpt>
      <trkpt lat="44.84333" lon="6.16206">
        <ele>2329.4116210938</ele>
        <time>2020-08-15T08:28:39Z</time>
      </trkpt>
      <trkpt lat="44.8434" lon="6.16217">
        <ele>2331.8149414062</ele>
        <time>2020-08-15T08:28:59Z</time>
      </trkpt>
      <trkpt lat="44.84341" lon="6.16216">
        <ele>2333.2570800781</ele>
        <time>2020-08-15T08:29:25Z</time>
      </trkpt>
      <trkpt lat="44.84335" lon="6.16217">
        <ele>2334.69921875</ele>
        <time>2020-08-15T08:30:04Z</time>
      </trkpt>
      <trkpt lat="44.84334" lon="6.16217">
        <ele>2335.1796875</ele>
        <time>2020-08-15T08:30:05Z</time>
      </trkpt>
      <trkpt lat="44.84338" lon="6.16225">
        <ele>2335.1796875</ele>
        <time>2020-08-15T08:30:23Z</time>
      </trkpt>
      <trkpt lat="44.8435" lon="6.16239">
        <ele>2339.0249023438</ele>
        <time>2020-08-15T08:30:55Z</time>
      </trkpt>
      <trkpt lat="44.84354" lon="6.16242">
        <ele>2342.3896484375</ele>
        <time>2020-08-15T08:31:13Z</time>
      </trkpt>
      <trkpt lat="44.8436" lon="6.16243">
        <ele>2344.3120117188</ele>
        <time>2020-08-15T08:31:37Z</time>
      </trkpt>
      <trkpt lat="44.84361" lon="6.16242">
        <ele>2345.7541503906</ele>
        <time>2020-08-15T08:31:55Z</time>
      </trkpt>
      <trkpt lat="44.84359" lon="6.16243">
        <ele>2346.2348632812</ele>
        <time>2020-08-15T08:32:23Z</time>
      </trkpt>
      <trkpt lat="44.84356" lon="6.16243">
        <ele>2345.2734375</ele>
        <time>2020-08-15T08:32:44Z</time>
      </trkpt>
      <trkpt lat="44.84354" lon="6.16246">
        <ele>2345.2734375</ele>
        <time>2020-08-15T08:32:58Z</time>
      </trkpt>
      <trkpt lat="44.84347" lon="6.16242">
        <ele>2347.6767578125</ele>
        <time>2020-08-15T08:35:00Z</time>
      </trkpt>
      <trkpt lat="44.84334" lon="6.16242">
        <ele>2351.0415039062</ele>
        <time>2020-08-15T08:35:24Z</time>
      </trkpt>
      <trkpt lat="44.84332" lon="6.16242">
        <ele>2351.5222167969</ele>
        <time>2020-08-15T08:35:53Z</time>
      </trkpt>
      <trkpt lat="44.84331" lon="6.16242">
        <ele>2351.5222167969</ele>
        <time>2020-08-15T08:36:11Z</time>
      </trkpt>
      <trkpt lat="44.84332" lon="6.16248">
        <ele>2352.4833984375</ele>
        <time>2020-08-15T08:36:35Z</time>
      </trkpt>
      <trkpt lat="44.84337" lon="6.16255">
        <ele>2352.9641113281</ele>
        <time>2020-08-15T08:37:13Z</time>
      </trkpt>
      <trkpt lat="44.84345" lon="6.16258">
        <ele>2353.9255371094</ele>
        <time>2020-08-15T08:37:30Z</time>
      </trkpt>
      <trkpt lat="44.8435" lon="6.1626">
        <ele>2355.3674316406</ele>
        <time>2020-08-15T08:37:49Z</time>
      </trkpt>
      <trkpt lat="44.84344" lon="6.1626">
        <ele>2358.2512207031</ele>
        <time>2020-08-15T08:38:03Z</time>
      </trkpt>
      <trkpt lat="44.84339" lon="6.1626">
        <ele>2358.2512207031</ele>
        <time>2020-08-15T08:38:26Z</time>
      </trkpt>
      <trkpt lat="44.84338" lon="6.16259">
        <ele>2358.7319335938</ele>
        <time>2020-08-15T08:39:19Z</time>
      </trkpt>
      <trkpt lat="44.84335" lon="6.16261">
        <ele>2359.6931152344</ele>
        <time>2020-08-15T08:39:51Z</time>
      </trkpt>
      <trkpt lat="44.84333" lon="6.16263">
        <ele>2361.1352539062</ele>
        <time>2020-08-15T08:40:07Z</time>
      </trkpt>
      <trkpt lat="44.8433" lon="6.16263">
        <ele>2361.1352539062</ele>
        <time>2020-08-15T08:40:28Z</time>
      </trkpt>
      <trkpt lat="44.84329" lon="6.16263">
        <ele>2361.6159667969</ele>
        <time>2020-08-15T08:40:49Z</time>
      </trkpt>
      <trkpt lat="44.84326" lon="6.16264">
        <ele>2361.6159667969</ele>
        <time>2020-08-15T08:41:14Z</time>
      </trkpt>
      <trkpt lat="44.84324" lon="6.16263">
        <ele>2362.5771484375</ele>
        <time>2020-08-15T08:41:28Z</time>
      </trkpt>
      <trkpt lat="44.84325" lon="6.16263">
        <ele>2363.0578613281</ele>
        <time>2020-08-15T08:42:10Z</time>
      </trkpt>
      <trkpt lat="44.84322" lon="6.16265">
        <ele>2363.0578613281</ele>
        <time>2020-08-15T08:45:11Z</time>
      </trkpt>
      <trkpt lat="44.84329" lon="6.16272">
        <ele>2361.1352539062</ele>
        <time>2020-08-15T08:45:26Z</time>
      </trkpt>
      <trkpt lat="44.8433" lon="6.16274">
        <ele>2361.1352539062</ele>
        <time>2020-08-15T08:45:28Z</time>
      </trkpt>
      <trkpt lat="44.84336" lon="6.16294">
        <ele>2364.9807128906</ele>
        <time>2020-08-15T08:45:48Z</time>
      </trkpt>
      <trkpt lat="44.84341" lon="6.16299">
        <ele>2364.5</ele>
        <time>2020-08-15T08:46:04Z</time>
      </trkpt>
      <trkpt lat="44.84345" lon="6.16306">
        <ele>2361.6159667969</ele>
        <time>2020-08-15T08:46:20Z</time>
      </trkpt>
      <trkpt lat="44.84354" lon="6.16322">
        <ele>2355.3674316406</ele>
        <time>2020-08-15T08:46:39Z</time>
      </trkpt>
      <trkpt lat="44.84357" lon="6.16326">
        <ele>2353.4448242188</ele>
        <time>2020-08-15T08:47:01Z</time>
      </trkpt>
      <trkpt lat="44.8436" lon="6.16333">
        <ele>2352.0026855469</ele>
        <time>2020-08-15T08:47:21Z</time>
      </trkpt>
      <trkpt lat="44.84365" lon="6.16343">
        <ele>2350.0803222656</ele>
        <time>2020-08-15T08:47:39Z</time>
      </trkpt>
      <trkpt lat="44.8437" lon="6.1636">
        <ele>2351.5222167969</ele>
        <time>2020-08-15T08:48:00Z</time>
      </trkpt>
      <trkpt lat="44.84368" lon="6.16367">
        <ele>2354.4060058594</ele>
        <time>2020-08-15T08:48:08Z</time>
      </trkpt>
      <trkpt lat="44.84363" lon="6.16379">
        <ele>2360.6545410156</ele>
        <time>2020-08-15T08:48:23Z</time>
      </trkpt>
      <trkpt lat="44.84358" lon="6.16382">
        <ele>2363.0578613281</ele>
        <time>2020-08-15T08:48:47Z</time>
      </trkpt>
      <trkpt lat="44.84347" lon="6.16385">
        <ele>2364.9807128906</ele>
        <time>2020-08-15T08:48:59Z</time>
      </trkpt>
      <trkpt lat="44.84331" lon="6.1639">
        <ele>2366.4226074219</ele>
        <time>2020-08-15T08:49:19Z</time>
      </trkpt>
      <trkpt lat="44.84319" lon="6.16398">
        <ele>2367.8645019531</ele>
        <time>2020-08-15T08:49:42Z</time>
      </trkpt>
      <trkpt lat="44.84317" lon="6.16401">
        <ele>2367.8645019531</ele>
        <time>2020-08-15T08:50:08Z</time>
      </trkpt>
      <trkpt lat="44.84312" lon="6.16413">
        <ele>2366.4226074219</ele>
        <time>2020-08-15T08:50:19Z</time>
      </trkpt>
      <trkpt lat="44.84305" lon="6.16421">
        <ele>2367.3837890625</ele>
        <time>2020-08-15T08:50:31Z</time>
      </trkpt>
      <trkpt lat="44.84304" lon="6.16425">
        <ele>2367.3837890625</ele>
        <time>2020-08-15T08:50:46Z</time>
      </trkpt>
      <trkpt lat="44.84304" lon="6.16433">
        <ele>2368.3452148438</ele>
        <time>2020-08-15T08:51:06Z</time>
      </trkpt>
      <trkpt lat="44.84301" lon="6.1645">
        <ele>2367.3837890625</ele>
        <time>2020-08-15T08:51:19Z</time>
      </trkpt>
      <trkpt lat="44.84299" lon="6.16461">
        <ele>2368.3452148438</ele>
        <time>2020-08-15T08:51:33Z</time>
      </trkpt>
      <trkpt lat="44.84299" lon="6.1647">
        <ele>2367.8645019531</ele>
        <time>2020-08-15T08:51:43Z</time>
      </trkpt>
      <trkpt lat="44.8429" lon="6.16473">
        <ele>2370.7485351562</ele>
        <time>2020-08-15T08:52:08Z</time>
      </trkpt>
      <trkpt lat="44.84287" lon="6.16472">
        <ele>2371.2290039062</ele>
        <time>2020-08-15T08:52:27Z</time>
      </trkpt>
      <trkpt lat="44.84276" lon="6.16471">
        <ele>2378.4389648438</ele>
        <time>2020-08-15T09:17:04Z</time>
      </trkpt>
      <trkpt lat="44.84279" lon="6.16496">
        <ele>2376.0356445312</ele>
        <time>2020-08-15T09:17:40Z</time>
      </trkpt>
      <trkpt lat="44.84276" lon="6.16504">
        <ele>2374.59375</ele>
        <time>2020-08-15T09:18:01Z</time>
      </trkpt>
      <trkpt lat="44.84268" lon="6.16507">
        <ele>2374.59375</ele>
        <time>2020-08-15T09:18:16Z</time>
      </trkpt>
      <trkpt lat="44.84268" lon="6.1652">
        <ele>2375.5549316406</ele>
        <time>2020-08-15T09:18:37Z</time>
      </trkpt>
      <trkpt lat="44.84272" lon="6.16531">
        <ele>2375.5549316406</ele>
        <time>2020-08-15T09:19:10Z</time>
      </trkpt>
      <trkpt lat="44.84272" lon="6.1654">
        <ele>2376.5163574219</ele>
        <time>2020-08-15T09:19:29Z</time>
      </trkpt>
      <trkpt lat="44.84272" lon="6.16554">
        <ele>2378.4389648438</ele>
        <time>2020-08-15T09:19:40Z</time>
      </trkpt>
      <trkpt lat="44.84268" lon="6.16569">
        <ele>2380.3618164062</ele>
        <time>2020-08-15T09:19:56Z</time>
      </trkpt>
      <trkpt lat="44.84259" lon="6.16578">
        <ele>2380.3618164062</ele>
        <time>2020-08-15T09:20:12Z</time>
      </trkpt>
      <trkpt lat="44.84248" lon="6.16592">
        <ele>2381.8037109375</ele>
        <time>2020-08-15T09:20:33Z</time>
      </trkpt>
      <trkpt lat="44.84247" lon="6.16593">
        <ele>2382.2844238281</ele>
        <time>2020-08-15T09:20:34Z</time>
      </trkpt>
      <trkpt lat="44.84246" lon="6.16595">
        <ele>2382.7648925781</ele>
        <time>2020-08-15T09:20:36Z</time>
      </trkpt>
      <trkpt lat="44.84249" lon="6.16615">
        <ele>2381.8037109375</ele>
        <time>2020-08-15T09:20:53Z</time>
      </trkpt>
      <trkpt lat="44.84254" lon="6.16629">
        <ele>2381.3229980469</ele>
        <time>2020-08-15T09:21:10Z</time>
      </trkpt>
      <trkpt lat="44.84252" lon="6.16645">
        <ele>2382.7648925781</ele>
        <time>2020-08-15T09:21:31Z</time>
      </trkpt>
      <trkpt lat="44.84254" lon="6.1666">
        <ele>2384.20703125</ele>
        <time>2020-08-15T09:21:48Z</time>
      </trkpt>
      <trkpt lat="44.84249" lon="6.16665">
        <ele>2385.6489257812</ele>
        <time>2020-08-15T09:22:07Z</time>
      </trkpt>
      <trkpt lat="44.84239" lon="6.16672">
        <ele>2385.1682128906</ele>
        <time>2020-08-15T09:22:25Z</time>
      </trkpt>
      <trkpt lat="44.84226" lon="6.16678">
        <ele>2388.5329589844</ele>
        <time>2020-08-15T09:22:43Z</time>
      </trkpt>
      <trkpt lat="44.84219" lon="6.16686">
        <ele>2395.7426757812</ele>
        <time>2020-08-15T09:23:05Z</time>
      </trkpt>
      <trkpt lat="44.84217" lon="6.16695">
        <ele>2398.1459960938</ele>
        <time>2020-08-15T09:23:38Z</time>
      </trkpt>
      <trkpt lat="44.84218" lon="6.16712">
        <ele>2399.5881347656</ele>
        <time>2020-08-15T09:23:59Z</time>
      </trkpt>
      <trkpt lat="44.8422" lon="6.16722">
        <ele>2400.5493164062</ele>
        <time>2020-08-15T09:24:15Z</time>
      </trkpt>
      <trkpt lat="44.84217" lon="6.16733">
        <ele>2401.9912109375</ele>
        <time>2020-08-15T09:24:38Z</time>
      </trkpt>
      <trkpt lat="44.84216" lon="6.16749">
        <ele>2403.9140625</ele>
        <time>2020-08-15T09:24:57Z</time>
      </trkpt>
      <trkpt lat="44.84217" lon="6.1676">
        <ele>2403.9140625</ele>
        <time>2020-08-15T09:25:19Z</time>
      </trkpt>
      <trkpt lat="44.84216" lon="6.16764">
        <ele>2401.5107421875</ele>
        <time>2020-08-15T09:25:46Z</time>
      </trkpt>
      <trkpt lat="44.84219" lon="6.16765">
        <ele>2401.0300292969</ele>
        <time>2020-08-15T09:27:53Z</time>
      </trkpt>
      <trkpt lat="44.84223" lon="6.16778">
        <ele>2403.9140625</ele>
        <time>2020-08-15T09:28:22Z</time>
      </trkpt>
      <trkpt lat="44.84229" lon="6.16791">
        <ele>2405.8364257812</ele>
        <time>2020-08-15T09:28:44Z</time>
      </trkpt>
      <trkpt lat="44.84236" lon="6.16796">
        <ele>2409.201171875</ele>
        <time>2020-08-15T09:29:13Z</time>
      </trkpt>
      <trkpt lat="44.84236" lon="6.16802">
        <ele>2410.6430664062</ele>
        <time>2020-08-15T09:29:43Z</time>
      </trkpt>
      <trkpt lat="44.84236" lon="6.16802">
        <ele>2410.1623535156</ele>
        <time>2020-08-15T09:29:47Z</time>
      </trkpt>
      <trkpt lat="44.84236" lon="6.16792">
        <ele>2413.0466308594</ele>
        <time>2020-08-15T09:29:59Z</time>
      </trkpt>
      <trkpt lat="44.84245" lon="6.16777">
        <ele>2414.4885253906</ele>
        <time>2020-08-15T09:30:17Z</time>
      </trkpt>
      <trkpt lat="44.84254" lon="6.16788">
        <ele>2416.4111328125</ele>
        <time>2020-08-15T09:30:43Z</time>
      </trkpt>
      <trkpt lat="44.84255" lon="6.16804">
        <ele>2421.2175292969</ele>
        <time>2020-08-15T09:31:04Z</time>
      </trkpt>
      <trkpt lat="44.84253" lon="6.16819">
        <ele>2425.0627441406</ele>
        <time>2020-08-15T09:31:22Z</time>
      </trkpt>
      <trkpt lat="44.84242" lon="6.16829">
        <ele>2427.4660644531</ele>
        <time>2020-08-15T09:31:45Z</time>
      </trkpt>
      <trkpt lat="44.84231" lon="6.16843">
        <ele>2426.9855957031</ele>
        <time>2020-08-15T09:32:06Z</time>
      </trkpt>
      <trkpt lat="44.84228" lon="6.16848">
        <ele>2430.3503417969</ele>
        <time>2020-08-15T09:32:23Z</time>
      </trkpt>
      <trkpt lat="44.84227" lon="6.16863">
        <ele>2429.8696289062</ele>
        <time>2020-08-15T09:32:41Z</time>
      </trkpt>
      <trkpt lat="44.84229" lon="6.16868">
        <ele>2426.9855957031</ele>
        <time>2020-08-15T09:32:58Z</time>
      </trkpt>
      <trkpt lat="44.84225" lon="6.16875">
        <ele>2425.0627441406</ele>
        <time>2020-08-15T09:34:00Z</time>
      </trkpt>
      <trkpt lat="44.84225" lon="6.16877">
        <ele>2423.6208496094</ele>
        <time>2020-08-15T09:34:32Z</time>
      </trkpt>
      <trkpt lat="44.84228" lon="6.16873">
        <ele>2421.6982421875</ele>
        <time>2020-08-15T09:35:29Z</time>
      </trkpt>
      <trkpt lat="44.84222" lon="6.16879">
        <ele>2422.1789550781</ele>
        <time>2020-08-15T09:36:57Z</time>
      </trkpt>
      <trkpt lat="44.84218" lon="6.16884">
        <ele>2421.2175292969</ele>
        <time>2020-08-15T09:37:12Z</time>
      </trkpt>
      <trkpt lat="44.84231" lon="6.16885">
        <ele>2421.2175292969</ele>
        <time>2020-08-15T09:37:30Z</time>
      </trkpt>
      <trkpt lat="44.84246" lon="6.16884">
        <ele>2419.7756347656</ele>
        <time>2020-08-15T09:37:57Z</time>
      </trkpt>
      <trkpt lat="44.84243" lon="6.16895">
        <ele>2418.3337402344</ele>
        <time>2020-08-15T09:38:14Z</time>
      </trkpt>
      <trkpt lat="44.84239" lon="6.16897">
        <ele>2416.8918457031</ele>
        <time>2020-08-15T09:38:27Z</time>
      </trkpt>
      <trkpt lat="44.84233" lon="6.16897">
        <ele>2415.9304199219</ele>
        <time>2020-08-15T09:38:52Z</time>
      </trkpt>
      <trkpt lat="44.8423" lon="6.16908">
        <ele>2414.4885253906</ele>
        <time>2020-08-15T09:39:10Z</time>
      </trkpt>
      <trkpt lat="44.84242" lon="6.16909">
        <ele>2411.1237792969</ele>
        <time>2020-08-15T09:39:28Z</time>
      </trkpt>
      <trkpt lat="44.84256" lon="6.16912">
        <ele>2405.3559570312</ele>
        <time>2020-08-15T09:39:48Z</time>
      </trkpt>
      <trkpt lat="44.84277" lon="6.16923">
        <ele>2397.6655273438</ele>
        <time>2020-08-15T09:40:14Z</time>
      </trkpt>
      <trkpt lat="44.84281" lon="6.16922">
        <ele>2389.0134277344</ele>
        <time>2020-08-15T09:40:47Z</time>
      </trkpt>
      <trkpt lat="44.84278" lon="6.16925">
        <ele>2388.0522460938</ele>
        <time>2020-08-15T09:41:00Z</time>
      </trkpt>
      <trkpt lat="44.84265" lon="6.16926">
        <ele>2391.4167480469</ele>
        <time>2020-08-15T09:41:18Z</time>
      </trkpt>
      <trkpt lat="44.84256" lon="6.16927">
        <ele>2392.3781738281</ele>
        <time>2020-08-15T09:41:36Z</time>
      </trkpt>
      <trkpt lat="44.84259" lon="6.16937">
        <ele>2392.8586425781</ele>
        <time>2020-08-15T09:41:39Z</time>
      </trkpt>
      <trkpt lat="44.84276" lon="6.16942">
        <ele>2388.0522460938</ele>
        <time>2020-08-15T09:41:58Z</time>
      </trkpt>
      <trkpt lat="44.84295" lon="6.16947">
        <ele>2383.7263183594</ele>
        <time>2020-08-15T09:42:25Z</time>
      </trkpt>
      <trkpt lat="44.84303" lon="6.16952">
        <ele>2380.8425292969</ele>
        <time>2020-08-15T09:42:39Z</time>
      </trkpt>
      <trkpt lat="44.84306" lon="6.16952">
        <ele>2380.3618164062</ele>
        <time>2020-08-15T09:42:41Z</time>
      </trkpt>
      <trkpt lat="44.84324" lon="6.16958">
        <ele>2376.5163574219</ele>
        <time>2020-08-15T09:43:02Z</time>
      </trkpt>
      <trkpt lat="44.84329" lon="6.16956">
        <ele>2370.2678222656</ele>
        <time>2020-08-15T09:43:36Z</time>
      </trkpt>
      <trkpt lat="44.84323" lon="6.16956">
        <ele>2369.787109375</ele>
        <time>2020-08-15T09:44:46Z</time>
      </trkpt>
      <trkpt lat="44.84307" lon="6.16959">
        <ele>2370.2678222656</ele>
        <time>2020-08-15T09:45:12Z</time>
      </trkpt>
      <trkpt lat="44.84293" lon="6.16967">
        <ele>2370.2678222656</ele>
        <time>2020-08-15T09:46:01Z</time>
      </trkpt>
      <trkpt lat="44.84285" lon="6.16974">
        <ele>2370.2678222656</ele>
        <time>2020-08-15T09:46:20Z</time>
      </trkpt>
      <trkpt lat="44.84279" lon="6.16992">
        <ele>2370.2678222656</ele>
        <time>2020-08-15T09:46:44Z</time>
      </trkpt>
      <trkpt lat="44.84281" lon="6.16993">
        <ele>2370.2678222656</ele>
        <time>2020-08-15T09:46:47Z</time>
      </trkpt>
      <trkpt lat="44.84288" lon="6.16999">
        <ele>2370.7485351562</ele>
        <time>2020-08-15T09:47:01Z</time>
      </trkpt>
      <trkpt lat="44.84303" lon="6.16991">
        <ele>2370.2678222656</ele>
        <time>2020-08-15T09:47:16Z</time>
      </trkpt>
      <trkpt lat="44.84319" lon="6.16987">
        <ele>2370.2678222656</ele>
        <time>2020-08-15T09:47:30Z</time>
      </trkpt>
      <trkpt lat="44.84322" lon="6.16984">
        <ele>2367.8645019531</ele>
        <time>2020-08-15T09:47:53Z</time>
      </trkpt>
      <trkpt lat="44.84329" lon="6.17006">
        <ele>2365.4614257812</ele>
        <time>2020-08-15T09:48:19Z</time>
      </trkpt>
      <trkpt lat="44.84328" lon="6.17023">
        <ele>2363.0578613281</ele>
        <time>2020-08-15T09:48:43Z</time>
      </trkpt>
      <trkpt lat="44.84332" lon="6.17027">
        <ele>2362.0964355469</ele>
        <time>2020-08-15T09:48:57Z</time>
      </trkpt>
      <trkpt lat="44.8434" lon="6.17034">
        <ele>2361.1352539062</ele>
        <time>2020-08-15T09:49:18Z</time>
      </trkpt>
      <trkpt lat="44.84347" lon="6.17045">
        <ele>2360.173828125</ele>
        <time>2020-08-15T09:49:38Z</time>
      </trkpt>
      <trkpt lat="44.84348" lon="6.17061">
        <ele>2358.7319335938</ele>
        <time>2020-08-15T09:50:02Z</time>
      </trkpt>
      <trkpt lat="44.84347" lon="6.17064">
        <ele>2354.88671875</ele>
        <time>2020-08-15T09:50:22Z</time>
      </trkpt>
      <trkpt lat="44.84345" lon="6.17065">
        <ele>2353.4448242188</ele>
        <time>2020-08-15T09:50:34Z</time>
      </trkpt>
      <trkpt lat="44.84339" lon="6.17059">
        <ele>2354.88671875</ele>
        <time>2020-08-15T09:50:47Z</time>
      </trkpt>
      <trkpt lat="44.84333" lon="6.17054">
        <ele>2355.8479003906</ele>
        <time>2020-08-15T09:51:18Z</time>
      </trkpt>
      <trkpt lat="44.84321" lon="6.17051">
        <ele>2353.9255371094</ele>
        <time>2020-08-15T09:52:24Z</time>
      </trkpt>
      <trkpt lat="44.84311" lon="6.17041">
        <ele>2352.4833984375</ele>
        <time>2020-08-15T09:52:39Z</time>
      </trkpt>
      <trkpt lat="44.84308" lon="6.17037">
        <ele>2351.5222167969</ele>
        <time>2020-08-15T09:52:46Z</time>
      </trkpt>
      <trkpt lat="44.84297" lon="6.17034">
        <ele>2348.6381835938</ele>
        <time>2020-08-15T09:52:58Z</time>
      </trkpt>
      <trkpt lat="44.84301" lon="6.17041">
        <ele>2345.7541503906</ele>
        <time>2020-08-15T09:53:15Z</time>
      </trkpt>
      <trkpt lat="44.84302" lon="6.17038">
        <ele>2342.8701171875</ele>
        <time>2020-08-15T09:53:32Z</time>
      </trkpt>
      <trkpt lat="44.84303" lon="6.17042">
        <ele>2338.5444335938</ele>
        <time>2020-08-15T09:54:49Z</time>
      </trkpt>
      <trkpt lat="44.84308" lon="6.17043">
        <ele>2338.0637207031</ele>
        <time>2020-08-15T09:55:00Z</time>
      </trkpt>
      <trkpt lat="44.84312" lon="6.17051">
        <ele>2337.1022949219</ele>
        <time>2020-08-15T09:55:16Z</time>
      </trkpt>
      <trkpt lat="44.8431" lon="6.17066">
        <ele>2336.1411132812</ele>
        <time>2020-08-15T09:55:32Z</time>
      </trkpt>
      <trkpt lat="44.84316" lon="6.17075">
        <ele>2335.6604003906</ele>
        <time>2020-08-15T09:55:46Z</time>
      </trkpt>
      <trkpt lat="44.84323" lon="6.17089">
        <ele>2334.2185058594</ele>
        <time>2020-08-15T09:56:02Z</time>
      </trkpt>
      <trkpt lat="44.84333" lon="6.17103">
        <ele>2331.8149414062</ele>
        <time>2020-08-15T09:56:21Z</time>
      </trkpt>
      <trkpt lat="44.84341" lon="6.17119">
        <ele>2326.0471191406</ele>
        <time>2020-08-15T09:56:38Z</time>
      </trkpt>
      <trkpt lat="44.84348" lon="6.17128">
        <ele>2321.7211914062</ele>
        <time>2020-08-15T09:56:50Z</time>
      </trkpt>
      <trkpt lat="44.84355" lon="6.17143">
        <ele>2315.953125</ele>
        <time>2020-08-15T09:57:07Z</time>
      </trkpt>
      <trkpt lat="44.84356" lon="6.17158">
        <ele>2311.6274414062</ele>
        <time>2020-08-15T09:57:22Z</time>
      </trkpt>
      <trkpt lat="44.8436" lon="6.17163">
        <ele>2308.7434082031</ele>
        <time>2020-08-15T09:57:37Z</time>
      </trkpt>
      <trkpt lat="44.84361" lon="6.17171">
        <ele>2305.859375</ele>
        <time>2020-08-15T09:58:04Z</time>
      </trkpt>
      <trkpt lat="44.84363" lon="6.17177">
        <ele>2303.4562988281</ele>
        <time>2020-08-15T09:58:32Z</time>
      </trkpt>
      <trkpt lat="44.84367" lon="6.17186">
        <ele>2301.5336914062</ele>
        <time>2020-08-15T09:58:47Z</time>
      </trkpt>
      <trkpt lat="44.84371" lon="6.17195">
        <ele>2300.091796875</ele>
        <time>2020-08-15T09:59:15Z</time>
      </trkpt>
      <trkpt lat="44.84381" lon="6.1721">
        <ele>2296.7268066406</ele>
        <time>2020-08-15T09:59:35Z</time>
      </trkpt>
      <trkpt lat="44.84394" lon="6.17223">
        <ele>2292.4011230469</ele>
        <time>2020-08-15T09:59:59Z</time>
      </trkpt>
      <trkpt lat="44.844" lon="6.17235">
        <ele>2291.4396972656</ele>
        <time>2020-08-15T10:00:20Z</time>
      </trkpt>
      <trkpt lat="44.84401" lon="6.17236">
        <ele>2290.958984375</ele>
        <time>2020-08-15T10:01:12Z</time>
      </trkpt>
      <trkpt lat="44.844" lon="6.17235">
        <ele>2291.4396972656</ele>
        <time>2020-08-15T10:02:02Z</time>
      </trkpt>
      <trkpt lat="44.84404" lon="6.1724">
        <ele>2291.9204101562</ele>
        <time>2020-08-15T10:04:43Z</time>
      </trkpt>
      <trkpt lat="44.84404" lon="6.17256">
        <ele>2293.3623046875</ele>
        <time>2020-08-15T10:06:19Z</time>
      </trkpt>
      <trkpt lat="44.84408" lon="6.17266">
        <ele>2292.8815917969</ele>
        <time>2020-08-15T10:06:41Z</time>
      </trkpt>
      <trkpt lat="44.8441" lon="6.17269">
        <ele>2293.8430175781</ele>
        <time>2020-08-15T10:07:26Z</time>
      </trkpt>
      <trkpt lat="44.84412" lon="6.17276">
        <ele>2293.3623046875</ele>
        <time>2020-08-15T10:07:45Z</time>
      </trkpt>
      <trkpt lat="44.84412" lon="6.17283">
        <ele>2292.8815917969</ele>
        <time>2020-08-15T10:08:08Z</time>
      </trkpt>
      <trkpt lat="44.84413" lon="6.17292">
        <ele>2294.3234863281</ele>
        <time>2020-08-15T10:08:30Z</time>
      </trkpt>
      <trkpt lat="44.84421" lon="6.17316">
        <ele>2295.2849121094</ele>
        <time>2020-08-15T10:08:51Z</time>
      </trkpt>
      <trkpt lat="44.84426" lon="6.17327">
        <ele>2290.958984375</ele>
        <time>2020-08-15T10:09:09Z</time>
      </trkpt>
      <trkpt lat="44.84429" lon="6.17337">
        <ele>2290.4782714844</ele>
        <time>2020-08-15T10:09:26Z</time>
      </trkpt>
      <trkpt lat="44.84436" lon="6.17342">
        <ele>2282.7875976562</ele>
        <time>2020-08-15T10:09:47Z</time>
      </trkpt>
      <trkpt lat="44.84442" lon="6.17347">
        <ele>2280.3845214844</ele>
        <time>2020-08-15T10:10:06Z</time>
      </trkpt>
      <trkpt lat="44.84445" lon="6.17354">
        <ele>2281.345703125</ele>
        <time>2020-08-15T10:10:26Z</time>
      </trkpt>
      <trkpt lat="44.84448" lon="6.17361">
        <ele>2277.5004882812</ele>
        <time>2020-08-15T10:10:45Z</time>
      </trkpt>
      <trkpt lat="44.8445" lon="6.17365">
        <ele>2276.05859375</ele>
        <time>2020-08-15T10:11:03Z</time>
      </trkpt>
      <trkpt lat="44.84457" lon="6.17371">
        <ele>2273.1748046875</ele>
        <time>2020-08-15T10:11:23Z</time>
      </trkpt>
      <trkpt lat="44.84461" lon="6.17382">
        <ele>2272.6940917969</ele>
        <time>2020-08-15T10:11:41Z</time>
      </trkpt>
      <trkpt lat="44.84466" lon="6.17388">
        <ele>2270.771484375</ele>
        <time>2020-08-15T10:11:58Z</time>
      </trkpt>
      <trkpt lat="44.8447" lon="6.17388">
        <ele>2268.3681640625</ele>
        <time>2020-08-15T10:12:25Z</time>
      </trkpt>
      <trkpt lat="44.84474" lon="6.17396">
        <ele>2267.8872070312</ele>
        <time>2020-08-15T10:12:44Z</time>
      </trkpt>
      <trkpt lat="44.84485" lon="6.17402">
        <ele>2265.9645996094</ele>
        <time>2020-08-15T10:13:08Z</time>
      </trkpt>
      <trkpt lat="44.8449" lon="6.17413">
        <ele>2260.6774902344</ele>
        <time>2020-08-15T10:13:29Z</time>
      </trkpt>
      <trkpt lat="44.84495" lon="6.17423">
        <ele>2258.2741699219</ele>
        <time>2020-08-15T10:13:47Z</time>
      </trkpt>
      <trkpt lat="44.84497" lon="6.17422">
        <ele>2255.8708496094</ele>
        <time>2020-08-15T10:14:06Z</time>
      </trkpt>
      <trkpt lat="44.845" lon="6.17428">
        <ele>2256.3515625</ele>
        <time>2020-08-15T10:14:26Z</time>
      </trkpt>
      <trkpt lat="44.84503" lon="6.17433">
        <ele>2255.8708496094</ele>
        <time>2020-08-15T10:15:01Z</time>
      </trkpt>
      <trkpt lat="44.84505" lon="6.17436">
        <ele>2255.8708496094</ele>
        <time>2020-08-15T10:15:21Z</time>
      </trkpt>
      <trkpt lat="44.84503" lon="6.17441">
        <ele>2256.8322753906</ele>
        <time>2020-08-15T10:16:05Z</time>
      </trkpt>
      <trkpt lat="44.845" lon="6.17456">
        <ele>2261.6389160156</ele>
        <time>2020-08-15T10:19:53Z</time>
      </trkpt>
      <trkpt lat="44.84497" lon="6.1747">
        <ele>2266.4453125</ele>
        <time>2020-08-15T10:20:25Z</time>
      </trkpt>
      <trkpt lat="44.84498" lon="6.17488">
        <ele>2272.6940917969</ele>
        <time>2020-08-15T10:21:07Z</time>
      </trkpt>
      <trkpt lat="44.84495" lon="6.17501">
        <ele>2277.5004882812</ele>
        <time>2020-08-15T10:21:39Z</time>
      </trkpt>
      <trkpt lat="44.84496" lon="6.17518">
        <ele>2279.4230957031</ele>
        <time>2020-08-15T10:22:11Z</time>
      </trkpt>
      <trkpt lat="44.84499" lon="6.17519">
        <ele>2282.3071289062</ele>
        <time>2020-08-15T10:22:52Z</time>
      </trkpt>
      <trkpt lat="44.84497" lon="6.17544">
        <ele>2284.7106933594</ele>
        <time>2020-08-15T10:23:26Z</time>
      </trkpt>
      <trkpt lat="44.845" lon="6.1755">
        <ele>2288.0751953125</ele>
        <time>2020-08-15T10:23:49Z</time>
      </trkpt>
      <trkpt lat="44.845" lon="6.17563">
        <ele>2289.0363769531</ele>
        <time>2020-08-15T10:24:25Z</time>
      </trkpt>
      <trkpt lat="44.84503" lon="6.17574">
        <ele>2291.4396972656</ele>
        <time>2020-08-15T10:25:06Z</time>
      </trkpt>
      <trkpt lat="44.84502" lon="6.17583">
        <ele>2289.9978027344</ele>
        <time>2020-08-15T10:25:31Z</time>
      </trkpt>
      <trkpt lat="44.8451" lon="6.17595">
        <ele>2287.5944824219</ele>
        <time>2020-08-15T10:25:55Z</time>
      </trkpt>
      <trkpt lat="44.84518" lon="6.17616">
        <ele>2287.5944824219</ele>
        <time>2020-08-15T10:26:21Z</time>
      </trkpt>
      <trkpt lat="44.84525" lon="6.17634">
        <ele>2283.2683105469</ele>
        <time>2020-08-15T10:26:46Z</time>
      </trkpt>
      <trkpt lat="44.84527" lon="6.17643">
        <ele>2282.7875976562</ele>
        <time>2020-08-15T10:27:04Z</time>
      </trkpt>
      <trkpt lat="44.84528" lon="6.1767">
        <ele>2281.8264160156</ele>
        <time>2020-08-15T10:27:27Z</time>
      </trkpt>
      <trkpt lat="44.84527" lon="6.17691">
        <ele>2280.3845214844</ele>
        <time>2020-08-15T10:27:46Z</time>
      </trkpt>
      <trkpt lat="44.84532" lon="6.17712">
        <ele>2280.865234375</ele>
        <time>2020-08-15T10:28:12Z</time>
      </trkpt>
      <trkpt lat="44.84532" lon="6.1771">
        <ele>2281.8264160156</ele>
        <time>2020-08-15T10:28:23Z</time>
      </trkpt>
      <trkpt lat="44.8454" lon="6.17735">
        <ele>2282.3071289062</ele>
        <time>2020-08-15T10:28:47Z</time>
      </trkpt>
      <trkpt lat="44.84552" lon="6.17752">
        <ele>2283.7490234375</ele>
        <time>2020-08-15T10:29:12Z</time>
      </trkpt>
      <trkpt lat="44.84559" lon="6.17769">
        <ele>2284.2299804688</ele>
        <time>2020-08-15T10:29:37Z</time>
      </trkpt>
      <trkpt lat="44.84565" lon="6.17788">
        <ele>2284.7106933594</ele>
        <time>2020-08-15T10:30:01Z</time>
      </trkpt>
      <trkpt lat="44.84577" lon="6.17799">
        <ele>2282.3071289062</ele>
        <time>2020-08-15T10:30:27Z</time>
      </trkpt>
      <trkpt lat="44.84584" lon="6.17809">
        <ele>2282.3071289062</ele>
        <time>2020-08-15T10:30:47Z</time>
      </trkpt>
      <trkpt lat="44.8459" lon="6.1782">
        <ele>2281.8264160156</ele>
        <time>2020-08-15T10:31:08Z</time>
      </trkpt>
      <trkpt lat="44.8459" lon="6.17833">
        <ele>2282.7875976562</ele>
        <time>2020-08-15T10:31:34Z</time>
      </trkpt>
      <trkpt lat="44.84589" lon="6.17837">
        <ele>2282.7875976562</ele>
        <time>2020-08-15T10:31:38Z</time>
      </trkpt>
      <trkpt lat="44.84584" lon="6.17864">
        <ele>2281.345703125</ele>
        <time>2020-08-15T10:32:01Z</time>
      </trkpt>
      <trkpt lat="44.84583" lon="6.17871">
        <ele>2279.4230957031</ele>
        <time>2020-08-15T10:32:34Z</time>
      </trkpt>
      <trkpt lat="44.84586" lon="6.17892">
        <ele>2278.9423828125</ele>
        <time>2020-08-15T10:33:09Z</time>
      </trkpt>
      <trkpt lat="44.84588" lon="6.17903">
        <ele>2278.4619140625</ele>
        <time>2020-08-15T10:33:36Z</time>
      </trkpt>
      <trkpt lat="44.8459" lon="6.17915">
        <ele>2276.05859375</ele>
        <time>2020-08-15T10:34:11Z</time>
      </trkpt>
      <trkpt lat="44.8459" lon="6.17924">
        <ele>2275.0971679688</ele>
        <time>2020-08-15T10:34:56Z</time>
      </trkpt>
      <trkpt lat="44.84594" lon="6.17931">
        <ele>2275.0971679688</ele>
        <time>2020-08-15T10:35:24Z</time>
      </trkpt>
      <trkpt lat="44.84604" lon="6.17945">
        <ele>2275.5778808594</ele>
        <time>2020-08-15T10:35:49Z</time>
      </trkpt>
      <trkpt lat="44.84606" lon="6.17959">
        <ele>2275.5778808594</ele>
        <time>2020-08-15T10:36:11Z</time>
      </trkpt>
      <trkpt lat="44.84609" lon="6.1797">
        <ele>2276.5393066406</ele>
        <time>2020-08-15T10:36:37Z</time>
      </trkpt>
      <trkpt lat="44.84617" lon="6.17986">
        <ele>2277.9812011719</ele>
        <time>2020-08-15T10:36:55Z</time>
      </trkpt>
      <trkpt lat="44.84632" lon="6.1801">
        <ele>2278.9423828125</ele>
        <time>2020-08-15T10:37:21Z</time>
      </trkpt>
      <trkpt lat="44.84644" lon="6.18025">
        <ele>2281.345703125</ele>
        <time>2020-08-15T10:37:45Z</time>
      </trkpt>
      <trkpt lat="44.84652" lon="6.1804">
        <ele>2281.345703125</ele>
        <time>2020-08-15T10:38:04Z</time>
      </trkpt>
      <trkpt lat="44.84654" lon="6.18041">
        <ele>2279.9038085938</ele>
        <time>2020-08-15T10:38:46Z</time>
      </trkpt>
      <trkpt lat="44.84652" lon="6.18042">
        <ele>2278.4619140625</ele>
        <time>2020-08-15T11:25:10Z</time>
      </trkpt>
      <trkpt lat="44.84652" lon="6.18058">
        <ele>2278.4619140625</ele>
        <time>2020-08-15T11:26:24Z</time>
      </trkpt>
      <trkpt lat="44.84646" lon="6.18087">
        <ele>2288.5559082031</ele>
        <time>2020-08-15T11:26:45Z</time>
      </trkpt>
      <trkpt lat="44.84638" lon="6.1811">
        <ele>2296.2463378906</ele>
        <time>2020-08-15T11:27:04Z</time>
      </trkpt>
      <trkpt lat="44.84638" lon="6.18132">
        <ele>2298.1687011719</ele>
        <time>2020-08-15T11:27:23Z</time>
      </trkpt>
      <trkpt lat="44.84641" lon="6.18146">
        <ele>2296.7268066406</ele>
        <time>2020-08-15T11:27:41Z</time>
      </trkpt>
      <trkpt lat="44.84642" lon="6.18169">
        <ele>2298.1687011719</ele>
        <time>2020-08-15T11:28:03Z</time>
      </trkpt>
      <trkpt lat="44.84646" lon="6.18182">
        <ele>2297.2075195312</ele>
        <time>2020-08-15T11:28:24Z</time>
      </trkpt>
      <trkpt lat="44.84643" lon="6.18199">
        <ele>2301.0529785156</ele>
        <time>2020-08-15T11:31:17Z</time>
      </trkpt>
      <trkpt lat="44.8465" lon="6.18231">
        <ele>2298.6494140625</ele>
        <time>2020-08-15T11:31:42Z</time>
      </trkpt>
      <trkpt lat="44.84664" lon="6.18237">
        <ele>2295.765625</ele>
        <time>2020-08-15T11:31:59Z</time>
      </trkpt>
      <trkpt lat="44.84675" lon="6.18247">
        <ele>2296.2463378906</ele>
        <time>2020-08-15T11:32:16Z</time>
      </trkpt>
      <trkpt lat="44.84665" lon="6.18267">
        <ele>2298.6494140625</ele>
        <time>2020-08-15T11:32:33Z</time>
      </trkpt>
      <trkpt lat="44.84658" lon="6.18282">
        <ele>2301.0529785156</ele>
        <time>2020-08-15T11:32:53Z</time>
      </trkpt>
      <trkpt lat="44.84661" lon="6.18294">
        <ele>2299.1301269531</ele>
        <time>2020-08-15T11:33:13Z</time>
      </trkpt>
      <trkpt lat="44.84664" lon="6.18325">
        <ele>2297.6882324219</ele>
        <time>2020-08-15T11:33:39Z</time>
      </trkpt>
      <trkpt lat="44.84657" lon="6.18335">
        <ele>2296.7268066406</ele>
        <time>2020-08-15T11:33:49Z</time>
      </trkpt>
      <trkpt lat="44.84644" lon="6.1836">
        <ele>2299.1301269531</ele>
        <time>2020-08-15T11:34:12Z</time>
      </trkpt>
      <trkpt lat="44.84643" lon="6.18392">
        <ele>2298.1687011719</ele>
        <time>2020-08-15T11:34:35Z</time>
      </trkpt>
      <trkpt lat="44.84642" lon="6.18413">
        <ele>2294.8041992188</ele>
        <time>2020-08-15T11:34:52Z</time>
      </trkpt>
      <trkpt lat="44.84642" lon="6.18427">
        <ele>2295.2849121094</ele>
        <time>2020-08-15T11:35:06Z</time>
      </trkpt>
      <trkpt lat="44.84634" lon="6.18452">
        <ele>2295.2849121094</ele>
        <time>2020-08-15T11:35:27Z</time>
      </trkpt>
      <trkpt lat="44.84635" lon="6.18471">
        <ele>2297.2075195312</ele>
        <time>2020-08-15T11:35:48Z</time>
      </trkpt>
      <trkpt lat="44.84622" lon="6.1848">
        <ele>2297.6882324219</ele>
        <time>2020-08-15T11:36:05Z</time>
      </trkpt>
      <trkpt lat="44.84613" lon="6.18496">
        <ele>2298.1687011719</ele>
        <time>2020-08-15T11:36:23Z</time>
      </trkpt>
      <trkpt lat="44.84608" lon="6.18518">
        <ele>2294.8041992188</ele>
        <time>2020-08-15T11:36:41Z</time>
      </trkpt>
      <trkpt lat="44.84599" lon="6.18534">
        <ele>2296.2463378906</ele>
        <time>2020-08-15T11:36:59Z</time>
      </trkpt>
      <trkpt lat="44.84591" lon="6.18546">
        <ele>2294.3234863281</ele>
        <time>2020-08-15T11:37:20Z</time>
      </trkpt>
      <trkpt lat="44.84586" lon="6.18561">
        <ele>2292.8815917969</ele>
        <time>2020-08-15T11:37:39Z</time>
      </trkpt>
      <trkpt lat="44.84578" lon="6.18584">
        <ele>2290.958984375</ele>
        <time>2020-08-15T11:38:00Z</time>
      </trkpt>
      <trkpt lat="44.84571" lon="6.186">
        <ele>2291.4396972656</ele>
        <time>2020-08-15T11:38:19Z</time>
      </trkpt>
      <trkpt lat="44.84561" lon="6.18619">
        <ele>2292.4011230469</ele>
        <time>2020-08-15T11:38:37Z</time>
      </trkpt>
      <trkpt lat="44.84559" lon="6.18637">
        <ele>2290.958984375</ele>
        <time>2020-08-15T11:38:54Z</time>
      </trkpt>
      <trkpt lat="44.84558" lon="6.18652">
        <ele>2291.9204101562</ele>
        <time>2020-08-15T11:39:12Z</time>
      </trkpt>
      <trkpt lat="44.84553" lon="6.18667">
        <ele>2292.8815917969</ele>
        <time>2020-08-15T11:39:35Z</time>
      </trkpt>
      <trkpt lat="44.84548" lon="6.18684">
        <ele>2293.8430175781</ele>
        <time>2020-08-15T11:39:57Z</time>
      </trkpt>
      <trkpt lat="44.84542" lon="6.18702">
        <ele>2295.2849121094</ele>
        <time>2020-08-15T11:40:21Z</time>
      </trkpt>
      <trkpt lat="44.84536" lon="6.18706">
        <ele>2295.765625</ele>
        <time>2020-08-15T11:40:41Z</time>
      </trkpt>
      <trkpt lat="44.84534" lon="6.18708">
        <ele>2291.9204101562</ele>
        <time>2020-08-15T11:41:01Z</time>
      </trkpt>
      <trkpt lat="44.84529" lon="6.1872">
        <ele>2290.958984375</ele>
        <time>2020-08-15T11:41:22Z</time>
      </trkpt>
      <trkpt lat="44.84519" lon="6.1873">
        <ele>2287.5944824219</ele>
        <time>2020-08-15T11:41:40Z</time>
      </trkpt>
      <trkpt lat="44.84514" lon="6.1874">
        <ele>2284.7106933594</ele>
        <time>2020-08-15T11:41:55Z</time>
      </trkpt>
      <trkpt lat="44.84504" lon="6.18755">
        <ele>2280.3845214844</ele>
        <time>2020-08-15T11:42:15Z</time>
      </trkpt>
      <trkpt lat="44.84496" lon="6.18769">
        <ele>2280.3845214844</ele>
        <time>2020-08-15T11:42:34Z</time>
      </trkpt>
      <trkpt lat="44.84485" lon="6.18776">
        <ele>2277.0200195312</ele>
        <time>2020-08-15T11:42:53Z</time>
      </trkpt>
      <trkpt lat="44.8447" lon="6.18783">
        <ele>2277.9812011719</ele>
        <time>2020-08-15T11:43:16Z</time>
      </trkpt>
      <trkpt lat="44.84466" lon="6.18789">
        <ele>2271.7326660156</ele>
        <time>2020-08-15T11:43:40Z</time>
      </trkpt>
      <trkpt lat="44.84454" lon="6.18793">
        <ele>2268.8488769531</ele>
        <time>2020-08-15T11:44:25Z</time>
      </trkpt>
      <trkpt lat="44.84447" lon="6.18795">
        <ele>2269.3295898438</ele>
        <time>2020-08-15T11:44:42Z</time>
      </trkpt>
      <trkpt lat="44.84438" lon="6.18791">
        <ele>2269.3295898438</ele>
        <time>2020-08-15T11:45:03Z</time>
      </trkpt>
      <trkpt lat="44.84438" lon="6.18794">
        <ele>2265.4841308594</ele>
        <time>2020-08-15T11:45:38Z</time>
      </trkpt>
      <trkpt lat="44.84435" lon="6.18807">
        <ele>2263.5612792969</ele>
        <time>2020-08-15T11:47:30Z</time>
      </trkpt>
      <trkpt lat="44.84429" lon="6.1882">
        <ele>2263.0808105469</ele>
        <time>2020-08-15T11:47:51Z</time>
      </trkpt>
      <trkpt lat="44.84426" lon="6.18828">
        <ele>2259.7160644531</ele>
        <time>2020-08-15T11:48:30Z</time>
      </trkpt>
      <trkpt lat="44.84418" lon="6.18842">
        <ele>2258.7548828125</ele>
        <time>2020-08-15T11:48:50Z</time>
      </trkpt>
      <trkpt lat="44.84407" lon="6.18856">
        <ele>2259.7160644531</ele>
        <time>2020-08-15T11:49:13Z</time>
      </trkpt>
      <trkpt lat="44.84404" lon="6.18873">
        <ele>2253.4677734375</ele>
        <time>2020-08-15T11:49:37Z</time>
      </trkpt>
      <trkpt lat="44.84403" lon="6.18874">
        <ele>2252.0256347656</ele>
        <time>2020-08-15T11:50:20Z</time>
      </trkpt>
      <trkpt lat="44.84398" lon="6.1887">
        <ele>2251.544921875</ele>
        <time>2020-08-15T11:52:08Z</time>
      </trkpt>
      <trkpt lat="44.8439" lon="6.18856">
        <ele>2246.2578125</ele>
        <time>2020-08-15T11:52:40Z</time>
      </trkpt>
      <trkpt lat="44.84386" lon="6.18854">
        <ele>2240.9704589844</ele>
        <time>2020-08-15T11:52:58Z</time>
      </trkpt>
      <trkpt lat="44.84378" lon="6.18846">
        <ele>2235.6831054688</ele>
        <time>2020-08-15T11:53:19Z</time>
      </trkpt>
      <trkpt lat="44.84371" lon="6.18829">
        <ele>2230.3959960938</ele>
        <time>2020-08-15T11:53:43Z</time>
      </trkpt>
      <trkpt lat="44.84372" lon="6.18828">
        <ele>2225.5893554688</ele>
        <time>2020-08-15T11:53:58Z</time>
      </trkpt>
      <trkpt lat="44.84367" lon="6.1882">
        <ele>2222.7055664062</ele>
        <time>2020-08-15T11:54:20Z</time>
      </trkpt>
      <trkpt lat="44.84363" lon="6.18824">
        <ele>2225.1086425781</ele>
        <time>2020-08-15T11:57:25Z</time>
      </trkpt>
      <trkpt lat="44.84361" lon="6.18835">
        <ele>2224.6281738281</ele>
        <time>2020-08-15T11:57:43Z</time>
      </trkpt>
      <trkpt lat="44.84357" lon="6.18842">
        <ele>2226.0700683594</ele>
        <time>2020-08-15T11:57:59Z</time>
      </trkpt>
      <trkpt lat="44.84348" lon="6.18855">
        <ele>2226.0700683594</ele>
        <time>2020-08-15T11:58:18Z</time>
      </trkpt>
      <trkpt lat="44.84347" lon="6.18861">
        <ele>2225.1086425781</ele>
        <time>2020-08-15T11:58:36Z</time>
      </trkpt>
      <trkpt lat="44.8435" lon="6.18869">
        <ele>2224.6281738281</ele>
        <time>2020-08-15T11:58:58Z</time>
      </trkpt>
      <trkpt lat="44.84356" lon="6.18877">
        <ele>2227.5119628906</ele>
        <time>2020-08-15T11:59:31Z</time>
      </trkpt>
      <trkpt lat="44.84357" lon="6.18893">
        <ele>2233.2797851562</ele>
        <time>2020-08-15T12:00:04Z</time>
      </trkpt>
      <trkpt lat="44.84364" lon="6.18894">
        <ele>2233.7604980469</ele>
        <time>2020-08-15T12:00:27Z</time>
      </trkpt>
      <trkpt lat="44.84365" lon="6.18905">
        <ele>2238.5673828125</ele>
        <time>2020-08-15T12:00:53Z</time>
      </trkpt>
      <trkpt lat="44.84357" lon="6.18918">
        <ele>2244.3349609375</ele>
        <time>2020-08-15T12:01:20Z</time>
      </trkpt>
      <trkpt lat="44.84353" lon="6.18931">
        <ele>2246.73828125</ele>
        <time>2020-08-15T12:01:44Z</time>
      </trkpt>
      <trkpt lat="44.84348" lon="6.18937">
        <ele>2250.1030273438</ele>
        <time>2020-08-15T12:02:03Z</time>
      </trkpt>
      <trkpt lat="44.84342" lon="6.18945">
        <ele>2252.5063476562</ele>
        <time>2020-08-15T12:02:27Z</time>
      </trkpt>
      <trkpt lat="44.84336" lon="6.18956">
        <ele>2253.9484863281</ele>
        <time>2020-08-15T12:02:58Z</time>
      </trkpt>
      <trkpt lat="44.84333" lon="6.18964">
        <ele>2253.4677734375</ele>
        <time>2020-08-15T12:03:18Z</time>
      </trkpt>
      <trkpt lat="44.84328" lon="6.1897">
        <ele>2254.9096679688</ele>
        <time>2020-08-15T12:03:39Z</time>
      </trkpt>
      <trkpt lat="44.84326" lon="6.1898">
        <ele>2259.7160644531</ele>
        <time>2020-08-15T12:04:08Z</time>
      </trkpt>
      <trkpt lat="44.8432" lon="6.18995">
        <ele>2262.1193847656</ele>
        <time>2020-08-15T12:04:36Z</time>
      </trkpt>
      <trkpt lat="44.8431" lon="6.19006">
        <ele>2265.9645996094</ele>
        <time>2020-08-15T12:05:04Z</time>
      </trkpt>
      <trkpt lat="44.84303" lon="6.19017">
        <ele>2268.8488769531</ele>
        <time>2020-08-15T12:05:33Z</time>
      </trkpt>
      <trkpt lat="44.84294" lon="6.19027">
        <ele>2272.6940917969</ele>
        <time>2020-08-15T12:05:58Z</time>
      </trkpt>
      <trkpt lat="44.84285" lon="6.19031">
        <ele>2275.0971679688</ele>
        <time>2020-08-15T12:06:22Z</time>
      </trkpt>
      <trkpt lat="44.84277" lon="6.1904">
        <ele>2281.345703125</ele>
        <time>2020-08-15T12:06:48Z</time>
      </trkpt>
      <trkpt lat="44.84268" lon="6.19051">
        <ele>2282.7875976562</ele>
        <time>2020-08-15T12:07:16Z</time>
      </trkpt>
      <trkpt lat="44.84256" lon="6.19057">
        <ele>2287.1137695312</ele>
        <time>2020-08-15T12:07:53Z</time>
      </trkpt>
      <trkpt lat="44.84246" lon="6.19064">
        <ele>2290.4782714844</ele>
        <time>2020-08-15T12:08:22Z</time>
      </trkpt>
      <trkpt lat="44.84233" lon="6.19063">
        <ele>2296.7268066406</ele>
        <time>2020-08-15T12:08:58Z</time>
      </trkpt>
      <trkpt lat="44.84235" lon="6.19068">
        <ele>2298.1687011719</ele>
        <time>2020-08-15T12:09:20Z</time>
      </trkpt>
      <trkpt lat="44.84246" lon="6.19086">
        <ele>2298.6494140625</ele>
        <time>2020-08-15T12:10:41Z</time>
      </trkpt>
      <trkpt lat="44.84257" lon="6.19097">
        <ele>2305.37890625</ele>
        <time>2020-08-15T12:11:20Z</time>
      </trkpt>
      <trkpt lat="44.84263" lon="6.19105">
        <ele>2313.0693359375</ele>
        <time>2020-08-15T12:11:47Z</time>
      </trkpt>
      <trkpt lat="44.84273" lon="6.19115">
        <ele>2322.2019042969</ele>
        <time>2020-08-15T12:12:18Z</time>
      </trkpt>
      <trkpt lat="44.84276" lon="6.19114">
        <ele>2327.4890136719</ele>
        <time>2020-08-15T12:12:51Z</time>
      </trkpt>
      <trkpt lat="44.84279" lon="6.19112">
        <ele>2332.7763671875</ele>
        <time>2020-08-15T12:13:59Z</time>
      </trkpt>
      <trkpt lat="44.84292" lon="6.19131">
        <ele>2332.7763671875</ele>
        <time>2020-08-15T12:14:54Z</time>
      </trkpt>
      <trkpt lat="44.84304" lon="6.19155">
        <ele>2327.0085449219</ele>
        <time>2020-08-15T12:15:33Z</time>
      </trkpt>
      <trkpt lat="44.84318" lon="6.19171">
        <ele>2324.6052246094</ele>
        <time>2020-08-15T12:16:15Z</time>
      </trkpt>
      <trkpt lat="44.84326" lon="6.19174">
        <ele>2327.4890136719</ele>
        <time>2020-08-15T12:16:54Z</time>
      </trkpt>
      <trkpt lat="44.84348" lon="6.19181">
        <ele>2330.8537597656</ele>
        <time>2020-08-15T12:17:40Z</time>
      </trkpt>
      <trkpt lat="44.84357" lon="6.19182">
        <ele>2336.6215820312</ele>
        <time>2020-08-15T12:18:07Z</time>
      </trkpt>
      <trkpt lat="44.84345" lon="6.19185">
        <ele>2347.6767578125</ele>
        <time>2020-08-15T12:20:19Z</time>
      </trkpt>
      <trkpt lat="44.8435" lon="6.19193">
        <ele>2350.0803222656</ele>
        <time>2020-08-15T12:20:38Z</time>
      </trkpt>
      <trkpt lat="44.84369" lon="6.19196">
        <ele>2349.599609375</ele>
        <time>2020-08-15T12:21:15Z</time>
      </trkpt>
      <trkpt lat="44.8438" lon="6.19194">
        <ele>2348.6381835938</ele>
        <time>2020-08-15T12:21:53Z</time>
      </trkpt>
      <trkpt lat="44.84393" lon="6.19194">
        <ele>2357.2900390625</ele>
        <time>2020-08-15T12:22:36Z</time>
      </trkpt>
      <trkpt lat="44.8439" lon="6.19193">
        <ele>2367.3837890625</ele>
        <time>2020-08-15T12:23:35Z</time>
      </trkpt>
      <trkpt lat="44.8439" lon="6.19197">
        <ele>2368.3452148438</ele>
        <time>2020-08-15T12:24:43Z</time>
      </trkpt>
      <trkpt lat="44.84383" lon="6.19214">
        <ele>2374.59375</ele>
        <time>2020-08-15T12:25:12Z</time>
      </trkpt>
      <trkpt lat="44.84372" lon="6.19228">
        <ele>2377.9582519531</ele>
        <time>2020-08-15T12:25:45Z</time>
      </trkpt>
      <trkpt lat="44.84364" lon="6.19242">
        <ele>2384.20703125</ele>
        <time>2020-08-15T12:26:25Z</time>
      </trkpt>
      <trkpt lat="44.84358" lon="6.19257">
        <ele>2387.0908203125</ele>
        <time>2020-08-15T12:26:56Z</time>
      </trkpt>
      <trkpt lat="44.84367" lon="6.19272">
        <ele>2386.6101074219</ele>
        <time>2020-08-15T12:27:34Z</time>
      </trkpt>
      <trkpt lat="44.84373" lon="6.19269">
        <ele>2383.7263183594</ele>
        <time>2020-08-15T12:28:13Z</time>
      </trkpt>
      <trkpt lat="44.84381" lon="6.19269">
        <ele>2381.8037109375</ele>
        <time>2020-08-15T12:28:49Z</time>
      </trkpt>
      <trkpt lat="44.84405" lon="6.19281">
        <ele>2381.8037109375</ele>
        <time>2020-08-15T12:31:04Z</time>
      </trkpt>
      <trkpt lat="44.84419" lon="6.19283">
        <ele>2385.1682128906</ele>
        <time>2020-08-15T12:31:42Z</time>
      </trkpt>
      <trkpt lat="44.84436" lon="6.19287">
        <ele>2391.4167480469</ele>
        <time>2020-08-15T12:32:32Z</time>
      </trkpt>
      <trkpt lat="44.84446" lon="6.19289">
        <ele>2403.4333496094</ele>
        <time>2020-08-15T12:33:10Z</time>
      </trkpt>
      <trkpt lat="44.8444" lon="6.19296">
        <ele>2414.9692382812</ele>
        <time>2020-08-15T12:33:39Z</time>
      </trkpt>
      <trkpt lat="44.84431" lon="6.19306">
        <ele>2426.0241699219</ele>
        <time>2020-08-15T12:34:04Z</time>
      </trkpt>
      <trkpt lat="44.84423" lon="6.19316">
        <ele>2434.1955566406</ele>
        <time>2020-08-15T12:34:30Z</time>
      </trkpt>
      <trkpt lat="44.84424" lon="6.19329">
        <ele>2438.0407714844</ele>
        <time>2020-08-15T12:35:07Z</time>
      </trkpt>
      <trkpt lat="44.84425" lon="6.19321">
        <ele>2444.7700195312</ele>
        <time>2020-08-15T12:36:15Z</time>
      </trkpt>
      <trkpt lat="44.84429" lon="6.19313">
        <ele>2448.615234375</ele>
        <time>2020-08-15T12:37:11Z</time>
      </trkpt>
      <trkpt lat="44.84442" lon="6.1933">
        <ele>2446.2121582031</ele>
        <time>2020-08-15T12:38:38Z</time>
      </trkpt>
      <trkpt lat="44.84445" lon="6.19342">
        <ele>2448.615234375</ele>
        <time>2020-08-15T12:40:23Z</time>
      </trkpt>
      <trkpt lat="44.84453" lon="6.19338">
        <ele>2451.9797363281</ele>
        <time>2020-08-15T12:40:51Z</time>
      </trkpt>
      <trkpt lat="44.8447" lon="6.19337">
        <ele>2456.7863769531</ele>
        <time>2020-08-15T12:41:30Z</time>
      </trkpt>
      <trkpt lat="44.84479" lon="6.19328">
        <ele>2458.708984375</ele>
        <time>2020-08-15T12:42:00Z</time>
      </trkpt>
      <trkpt lat="44.8449" lon="6.19329">
        <ele>2463.9963378906</ele>
        <time>2020-08-15T12:42:46Z</time>
      </trkpt>
      <trkpt lat="44.84506" lon="6.19327">
        <ele>2468.322265625</ele>
        <time>2020-08-15T12:43:22Z</time>
      </trkpt>
      <trkpt lat="44.84513" lon="6.19318">
        <ele>2470.7255859375</ele>
        <time>2020-08-15T12:43:51Z</time>
      </trkpt>
      <trkpt lat="44.84517" lon="6.193">
        <ele>2474.5708007812</ele>
        <time>2020-08-15T12:44:30Z</time>
      </trkpt>
      <trkpt lat="44.84534" lon="6.19293">
        <ele>2474.0900878906</ele>
        <time>2020-08-15T12:52:05Z</time>
      </trkpt>
      <trkpt lat="44.84537" lon="6.19306">
        <ele>2480.3388671875</ele>
        <time>2020-08-15T12:52:33Z</time>
      </trkpt>
      <trkpt lat="44.84538" lon="6.19328">
        <ele>2485.1452636719</ele>
        <time>2020-08-15T12:53:15Z</time>
      </trkpt>
      <trkpt lat="44.84537" lon="6.19352">
        <ele>2489.4711914062</ele>
        <time>2020-08-15T12:53:50Z</time>
      </trkpt>
      <trkpt lat="44.84535" lon="6.19362">
        <ele>2494.2778320312</ele>
        <time>2020-08-15T12:54:17Z</time>
      </trkpt>
      <trkpt lat="44.8454" lon="6.19364">
        <ele>2493.7973632812</ele>
        <time>2020-08-15T12:54:56Z</time>
      </trkpt>
      <trkpt lat="44.84541" lon="6.19357">
        <ele>2492.35546875</ele>
        <time>2020-08-15T12:55:48Z</time>
      </trkpt>
      <trkpt lat="44.84549" lon="6.19352">
        <ele>2492.35546875</ele>
        <time>2020-08-15T12:56:44Z</time>
      </trkpt>
      <trkpt lat="44.84553" lon="6.19348">
        <ele>2495.7199707031</ele>
        <time>2020-08-15T12:57:14Z</time>
      </trkpt>
      <trkpt lat="44.84566" lon="6.19346">
        <ele>2497.642578125</ele>
        <time>2020-08-15T12:57:49Z</time>
      </trkpt>
      <trkpt lat="44.84571" lon="6.19339">
        <ele>2498.6037597656</ele>
        <time>2020-08-15T12:58:20Z</time>
      </trkpt>
      <trkpt lat="44.84581" lon="6.1934">
        <ele>2499.5651855469</ele>
        <time>2020-08-15T12:58:45Z</time>
      </trkpt>
      <trkpt lat="44.84595" lon="6.19331">
        <ele>2501.4877929688</ele>
        <time>2020-08-15T12:59:14Z</time>
      </trkpt>
      <trkpt lat="44.84602" lon="6.19325">
        <ele>2506.7749023438</ele>
        <time>2020-08-15T12:59:40Z</time>
      </trkpt>
      <trkpt lat="44.84607" lon="6.19308">
        <ele>2514.9462890625</ele>
        <time>2020-08-15T13:00:27Z</time>
      </trkpt>
      <trkpt lat="44.84609" lon="6.19304">
        <ele>2516.8688964844</ele>
        <time>2020-08-15T13:00:53Z</time>
      </trkpt>
      <trkpt lat="44.84616" lon="6.19295">
        <ele>2518.7915039062</ele>
        <time>2020-08-15T13:01:17Z</time>
      </trkpt>
      <trkpt lat="44.84621" lon="6.19291">
        <ele>2521.6752929688</ele>
        <time>2020-08-15T13:01:40Z</time>
      </trkpt>
      <trkpt lat="44.84631" lon="6.19287">
        <ele>2522.63671875</ele>
        <time>2020-08-15T13:02:09Z</time>
      </trkpt>
      <trkpt lat="44.84653" lon="6.19287">
        <ele>2525.0400390625</ele>
        <time>2020-08-15T13:04:06Z</time>
      </trkpt>
      <trkpt lat="44.84665" lon="6.19297">
        <ele>2523.1174316406</ele>
        <time>2020-08-15T13:04:39Z</time>
      </trkpt>
      <trkpt lat="44.84673" lon="6.19293">
        <ele>2526.0014648438</ele>
        <time>2020-08-15T13:05:17Z</time>
      </trkpt>
      <trkpt lat="44.84661" lon="6.19297">
        <ele>2532.25</ele>
        <time>2020-08-15T13:08:06Z</time>
      </trkpt>
      <trkpt lat="44.84664" lon="6.19298">
        <ele>2531.2885742188</ele>
        <time>2020-08-15T13:12:22Z</time>
      </trkpt>
      <trkpt lat="44.84664" lon="6.19298">
        <ele>2531.2885742188</ele>
        <time>2020-08-15T13:13:23Z</time>
      </trkpt>
      <trkpt lat="44.84661" lon="6.19295">
        <ele>2533.2111816406</ele>
        <time>2020-08-15T13:23:26Z</time>
      </trkpt>
      <trkpt lat="44.8466" lon="6.19294">
        <ele>2534.6533203125</ele>
        <time>2020-08-15T13:23:45Z</time>
      </trkpt>
      <trkpt lat="44.84658" lon="6.19293">
        <ele>2535.6145019531</ele>
        <time>2020-08-15T13:24:17Z</time>
      </trkpt>
      <trkpt lat="44.84659" lon="6.19295">
        <ele>2536.0952148438</ele>
        <time>2020-08-15T13:26:06Z</time>
      </trkpt>
      <trkpt lat="44.84661" lon="6.19294">
        <ele>2536.5756835938</ele>
        <time>2020-08-15T13:26:27Z</time>
      </trkpt>
      <trkpt lat="44.84675" lon="6.19299">
        <ele>2540.9018554688</ele>
        <time>2020-08-15T13:26:50Z</time>
      </trkpt>
      <trkpt lat="44.84684" lon="6.19293">
        <ele>2544.2663574219</ele>
        <time>2020-08-15T13:27:08Z</time>
      </trkpt>
      <trkpt lat="44.84693" lon="6.19288">
        <ele>2547.150390625</ele>
        <time>2020-08-15T13:27:30Z</time>
      </trkpt>
      <trkpt lat="44.84702" lon="6.1928">
        <ele>2549.0729980469</ele>
        <time>2020-08-15T13:27:57Z</time>
      </trkpt>
      <trkpt lat="44.84709" lon="6.19275">
        <ele>2550.0344238281</ele>
        <time>2020-08-15T13:28:12Z</time>
      </trkpt>
      <trkpt lat="44.84718" lon="6.19275">
        <ele>2551.9567871094</ele>
        <time>2020-08-15T13:28:28Z</time>
      </trkpt>
      <trkpt lat="44.8472" lon="6.19286">
        <ele>2551.4763183594</ele>
        <time>2020-08-15T13:28:48Z</time>
      </trkpt>
      <trkpt lat="44.84721" lon="6.19304">
        <ele>2552.4375</ele>
        <time>2020-08-15T13:29:12Z</time>
      </trkpt>
      <trkpt lat="44.8472" lon="6.19313">
        <ele>2554.8408203125</ele>
        <time>2020-08-15T13:29:34Z</time>
      </trkpt>
      <trkpt lat="44.8472" lon="6.19324">
        <ele>2557.2443847656</ele>
        <time>2020-08-15T13:29:53Z</time>
      </trkpt>
      <trkpt lat="44.84723" lon="6.19319">
        <ele>2559.6474609375</ele>
        <time>2020-08-15T13:30:12Z</time>
      </trkpt>
      <trkpt lat="44.8473" lon="6.1931">
        <ele>2563.0122070312</ele>
        <time>2020-08-15T13:30:35Z</time>
      </trkpt>
      <trkpt lat="44.84733" lon="6.19311">
        <ele>2568.2993164062</ele>
        <time>2020-08-15T13:30:57Z</time>
      </trkpt>
      <trkpt lat="44.84737" lon="6.19316">
        <ele>2570.2219238281</ele>
        <time>2020-08-15T13:31:17Z</time>
      </trkpt>
      <trkpt lat="44.8474" lon="6.19331">
        <ele>2574.5480957031</ele>
        <time>2020-08-15T13:31:40Z</time>
      </trkpt>
      <trkpt lat="44.8474" lon="6.19349">
        <ele>2575.5092773438</ele>
        <time>2020-08-15T13:32:03Z</time>
      </trkpt>
      <trkpt lat="44.8474" lon="6.19351">
        <ele>2574.0673828125</ele>
        <time>2020-08-15T13:32:23Z</time>
      </trkpt>
      <trkpt lat="44.84743" lon="6.19348">
        <ele>2573.5866699219</ele>
        <time>2020-08-15T13:32:34Z</time>
      </trkpt>
      <trkpt lat="44.84749" lon="6.19341">
        <ele>2572.6254882812</ele>
        <time>2020-08-15T13:32:48Z</time>
      </trkpt>
      <trkpt lat="44.84758" lon="6.19331">
        <ele>2574.0673828125</ele>
        <time>2020-08-15T13:33:09Z</time>
      </trkpt>
      <trkpt lat="44.84761" lon="6.19334">
        <ele>2578.3933105469</ele>
        <time>2020-08-15T13:33:27Z</time>
      </trkpt>
      <trkpt lat="44.84761" lon="6.19348">
        <ele>2582.2385253906</ele>
        <time>2020-08-15T13:33:47Z</time>
      </trkpt>
      <trkpt lat="44.84758" lon="6.19357">
        <ele>2588.0065917969</ele>
        <time>2020-08-15T13:34:14Z</time>
      </trkpt>
      <trkpt lat="44.84759" lon="6.19358">
        <ele>2587.5256347656</ele>
        <time>2020-08-15T13:34:36Z</time>
      </trkpt>
      <trkpt lat="44.84756" lon="6.19359">
        <ele>2588.0065917969</ele>
        <time>2020-08-15T13:39:11Z</time>
      </trkpt>
      <trkpt lat="44.84755" lon="6.19361">
        <ele>2586.5642089844</ele>
        <time>2020-08-15T13:39:37Z</time>
      </trkpt>
      <trkpt lat="44.84754" lon="6.19365">
        <ele>2584.6418457031</ele>
        <time>2020-08-15T13:40:04Z</time>
      </trkpt>
      <trkpt lat="44.84752" lon="6.19368">
        <ele>2584.6418457031</ele>
        <time>2020-08-15T13:40:27Z</time>
      </trkpt>
      <trkpt lat="44.84749" lon="6.19368">
        <ele>2586.0837402344</ele>
        <time>2020-08-15T13:40:43Z</time>
      </trkpt>
      <trkpt lat="44.84746" lon="6.19371">
        <ele>2586.5642089844</ele>
        <time>2020-08-15T13:41:04Z</time>
      </trkpt>
      <trkpt lat="44.8474" lon="6.19376">
        <ele>2590.4096679688</ele>
        <time>2020-08-15T13:41:27Z</time>
      </trkpt>
      <trkpt lat="44.84737" lon="6.19388">
        <ele>2591.37109375</ele>
        <time>2020-08-15T13:41:48Z</time>
      </trkpt>
      <trkpt lat="44.84731" lon="6.19388">
        <ele>2594.7355957031</ele>
        <time>2020-08-15T13:42:01Z</time>
      </trkpt>
      <trkpt lat="44.84728" lon="6.19396">
        <ele>2596.177734375</ele>
        <time>2020-08-15T13:42:31Z</time>
      </trkpt>
      <trkpt lat="44.84722" lon="6.19404">
        <ele>2596.658203125</ele>
        <time>2020-08-15T13:42:48Z</time>
      </trkpt>
      <trkpt lat="44.84714" lon="6.19411">
        <ele>2601.9453125</ele>
        <time>2020-08-15T13:43:03Z</time>
      </trkpt>
      <trkpt lat="44.84707" lon="6.19421">
        <ele>2606.271484375</ele>
        <time>2020-08-15T13:43:25Z</time>
      </trkpt>
      <trkpt lat="44.84702" lon="6.19437">
        <ele>2613.0009765625</ele>
        <time>2020-08-15T13:43:48Z</time>
      </trkpt>
      <trkpt lat="44.84701" lon="6.19441">
        <ele>2613.9624023438</ele>
        <time>2020-08-15T13:44:22Z</time>
      </trkpt>
      <trkpt lat="44.84704" lon="6.19453">
        <ele>2614.4428710938</ele>
        <time>2020-08-15T13:44:38Z</time>
      </trkpt>
      <trkpt lat="44.84706" lon="6.19471">
        <ele>2618.2880859375</ele>
        <time>2020-08-15T13:45:04Z</time>
      </trkpt>
      <trkpt lat="44.84714" lon="6.19478">
        <ele>2620.2104492188</ele>
        <time>2020-08-15T13:45:26Z</time>
      </trkpt>
      <trkpt lat="44.84722" lon="6.19468">
        <ele>2621.171875</ele>
        <time>2020-08-15T13:45:46Z</time>
      </trkpt>
      <trkpt lat="44.84732" lon="6.19465">
        <ele>2620.2104492188</ele>
        <time>2020-08-15T13:46:06Z</time>
      </trkpt>
      <trkpt lat="44.84739" lon="6.19464">
        <ele>2619.7299804688</ele>
        <time>2020-08-15T13:46:26Z</time>
      </trkpt>
      <trkpt lat="44.84743" lon="6.19459">
        <ele>2621.171875</ele>
        <time>2020-08-15T13:46:42Z</time>
      </trkpt>
      <trkpt lat="44.84749" lon="6.19458">
        <ele>2621.6528320312</ele>
        <time>2020-08-15T13:46:59Z</time>
      </trkpt>
      <trkpt lat="44.84749" lon="6.19469">
        <ele>2628.8623046875</ele>
        <time>2020-08-15T13:47:22Z</time>
      </trkpt>
      <trkpt lat="44.84747" lon="6.19481">
        <ele>2632.2270507812</ele>
        <time>2020-08-15T13:47:44Z</time>
      </trkpt>
      <trkpt lat="44.84748" lon="6.19492">
        <ele>2637.9946289062</ele>
        <time>2020-08-15T13:48:06Z</time>
      </trkpt>
      <trkpt lat="44.8475" lon="6.195">
        <ele>2643.2817382812</ele>
        <time>2020-08-15T13:48:33Z</time>
      </trkpt>
      <trkpt lat="44.84754" lon="6.19506">
        <ele>2644.724609375</ele>
        <time>2020-08-15T13:48:51Z</time>
      </trkpt>
      <trkpt lat="44.8476" lon="6.19524">
        <ele>2646.1665039062</ele>
        <time>2020-08-15T13:49:17Z</time>
      </trkpt>
      <trkpt lat="44.84764" lon="6.19535">
        <ele>2651.4536132812</ele>
        <time>2020-08-15T13:49:42Z</time>
      </trkpt>
      <trkpt lat="44.84767" lon="6.19544">
        <ele>2652.8955078125</ele>
        <time>2020-08-15T13:50:05Z</time>
      </trkpt>
      <trkpt lat="44.8477" lon="6.1956">
        <ele>2650.01171875</ele>
        <time>2020-08-15T13:50:32Z</time>
      </trkpt>
      <trkpt lat="44.84773" lon="6.19572">
        <ele>2649.5307617188</ele>
        <time>2020-08-15T13:50:50Z</time>
      </trkpt>
      <trkpt lat="44.84776" lon="6.19564">
        <ele>2645.685546875</ele>
        <time>2020-08-15T13:51:05Z</time>
      </trkpt>
      <trkpt lat="44.84781" lon="6.19567">
        <ele>2643.2817382812</ele>
        <time>2020-08-15T13:51:23Z</time>
      </trkpt>
      <trkpt lat="44.84791" lon="6.19562">
        <ele>2640.3979492188</ele>
        <time>2020-08-15T13:51:48Z</time>
      </trkpt>
      <trkpt lat="44.84795" lon="6.19555">
        <ele>2644.2436523438</ele>
        <time>2020-08-15T13:52:05Z</time>
      </trkpt>
      <trkpt lat="44.84799" lon="6.19543">
        <ele>2647.1279296875</ele>
        <time>2020-08-15T13:52:23Z</time>
      </trkpt>
      <trkpt lat="44.84804" lon="6.19535">
        <ele>2650.4921875</ele>
        <time>2020-08-15T13:52:42Z</time>
      </trkpt>
      <trkpt lat="44.84805" lon="6.19544">
        <ele>2656.2602539062</ele>
        <time>2020-08-15T13:53:06Z</time>
      </trkpt>
      <trkpt lat="44.84804" lon="6.19549">
        <ele>2662.0278320312</ele>
        <time>2020-08-15T13:53:22Z</time>
      </trkpt>
      <trkpt lat="44.84804" lon="6.19555">
        <ele>2667.3149414062</ele>
        <time>2020-08-15T13:53:37Z</time>
      </trkpt>
      <trkpt lat="44.84802" lon="6.19569">
        <ele>2674.5249023438</ele>
        <time>2020-08-15T13:54:05Z</time>
      </trkpt>
      <trkpt lat="44.84804" lon="6.19585">
        <ele>2679.8125</ele>
        <time>2020-08-15T13:54:30Z</time>
      </trkpt>
      <trkpt lat="44.848" lon="6.19605">
        <ele>2682.6962890625</ele>
        <time>2020-08-15T13:55:04Z</time>
      </trkpt>
      <trkpt lat="44.84796" lon="6.19623">
        <ele>2683.6577148438</ele>
        <time>2020-08-15T13:55:31Z</time>
      </trkpt>
      <trkpt lat="44.84796" lon="6.19633">
        <ele>2685.099609375</ele>
        <time>2020-08-15T13:55:52Z</time>
      </trkpt>
      <trkpt lat="44.84794" lon="6.19635">
        <ele>2686.0610351562</ele>
        <time>2020-08-15T13:56:14Z</time>
      </trkpt>
      <trkpt lat="44.8479" lon="6.19639">
        <ele>2688.4643554688</ele>
        <time>2020-08-15T13:57:31Z</time>
      </trkpt>
      <trkpt lat="44.84789" lon="6.19644">
        <ele>2687.5029296875</ele>
        <time>2020-08-15T13:57:52Z</time>
      </trkpt>
      <trkpt lat="44.84785" lon="6.19645">
        <ele>2688.4643554688</ele>
        <time>2020-08-15T13:58:26Z</time>
      </trkpt>
      <trkpt lat="44.84781" lon="6.19647">
        <ele>2688.9448242188</ele>
        <time>2020-08-15T13:59:21Z</time>
      </trkpt>
      <trkpt lat="44.84779" lon="6.19647">
        <ele>2690.38671875</ele>
        <time>2020-08-15T13:59:42Z</time>
      </trkpt>
      <trkpt lat="44.84777" lon="6.1965">
        <ele>2690.8676757812</ele>
        <time>2020-08-15T14:00:00Z</time>
      </trkpt>
      <trkpt lat="44.84778" lon="6.19656">
        <ele>2689.90625</ele>
        <time>2020-08-15T14:02:14Z</time>
      </trkpt>
      <trkpt lat="44.84777" lon="6.19658">
        <ele>2690.38671875</ele>
        <time>2020-08-15T14:03:23Z</time>
      </trkpt>
      <trkpt lat="44.84775" lon="6.19671">
        <ele>2689.4252929688</ele>
        <time>2020-08-15T14:03:42Z</time>
      </trkpt>
      <trkpt lat="44.84776" lon="6.19674">
        <ele>2692.3095703125</ele>
        <time>2020-08-15T14:04:09Z</time>
      </trkpt>
      <trkpt lat="44.84772" lon="6.19674">
        <ele>2698.0771484375</ele>
        <time>2020-08-15T14:05:45Z</time>
      </trkpt>
      <trkpt lat="44.84773" lon="6.19675">
        <ele>2697.5966796875</ele>
        <time>2020-08-15T14:06:21Z</time>
      </trkpt>
      <trkpt lat="44.84776" lon="6.19684">
        <ele>2694.2319335938</ele>
        <time>2020-08-15T14:06:52Z</time>
      </trkpt>
      <trkpt lat="44.84775" lon="6.19689">
        <ele>2691.3481445312</ele>
        <time>2020-08-15T14:07:16Z</time>
      </trkpt>
      <trkpt lat="44.84771" lon="6.1968">
        <ele>2689.4252929688</ele>
        <time>2020-08-15T14:07:38Z</time>
      </trkpt>
      <trkpt lat="44.84763" lon="6.19669">
        <ele>2686.0610351562</ele>
        <time>2020-08-15T14:07:56Z</time>
      </trkpt>
      <trkpt lat="44.84762" lon="6.19676">
        <ele>2685.099609375</ele>
        <time>2020-08-15T14:08:11Z</time>
      </trkpt>
      <trkpt lat="44.84764" lon="6.19685">
        <ele>2685.099609375</ele>
        <time>2020-08-15T14:08:27Z</time>
      </trkpt>
      <trkpt lat="44.84764" lon="6.19701">
        <ele>2679.8125</ele>
        <time>2020-08-15T14:08:49Z</time>
      </trkpt>
      <trkpt lat="44.84764" lon="6.19697">
        <ele>2681.7348632812</ele>
        <time>2020-08-15T14:09:17Z</time>
      </trkpt>
      <trkpt lat="44.84767" lon="6.19685">
        <ele>2679.8125</ele>
        <time>2020-08-15T14:09:34Z</time>
      </trkpt>
      <trkpt lat="44.84755" lon="6.19683">
        <ele>2680.7739257812</ele>
        <time>2020-08-15T14:09:49Z</time>
      </trkpt>
      <trkpt lat="44.84739" lon="6.19682">
        <ele>2679.33203125</ele>
        <time>2020-08-15T14:10:08Z</time>
      </trkpt>
      <trkpt lat="44.84736" lon="6.19682">
        <ele>2675.0053710938</ele>
        <time>2020-08-15T14:10:33Z</time>
      </trkpt>
      <trkpt lat="44.84734" lon="6.19682">
        <ele>2671.16015625</ele>
        <time>2020-08-15T14:11:37Z</time>
      </trkpt>
      <trkpt lat="44.84734" lon="6.19685">
        <ele>2671.16015625</ele>
        <time>2020-08-15T14:13:58Z</time>
      </trkpt>
      <trkpt lat="44.84739" lon="6.19699">
        <ele>2668.2763671875</ele>
        <time>2020-08-15T14:14:19Z</time>
      </trkpt>
      <trkpt lat="44.84738" lon="6.19705">
        <ele>2667.7958984375</ele>
        <time>2020-08-15T14:14:26Z</time>
      </trkpt>
      <trkpt lat="44.84741" lon="6.19718">
        <ele>2668.7568359375</ele>
        <time>2020-08-15T14:14:43Z</time>
      </trkpt>
      <trkpt lat="44.84742" lon="6.1973">
        <ele>2666.8344726562</ele>
        <time>2020-08-15T14:15:08Z</time>
      </trkpt>
      <trkpt lat="44.84735" lon="6.19721">
        <ele>2663.4697265625</ele>
        <time>2020-08-15T14:15:43Z</time>
      </trkpt>
      <trkpt lat="44.84726" lon="6.19722">
        <ele>2662.0278320312</ele>
        <time>2020-08-15T14:15:59Z</time>
      </trkpt>
      <trkpt lat="44.84728" lon="6.19729">
        <ele>2661.06640625</ele>
        <time>2020-08-15T14:16:07Z</time>
      </trkpt>
      <trkpt lat="44.84734" lon="6.19742">
        <ele>2659.1440429688</ele>
        <time>2020-08-15T14:16:22Z</time>
      </trkpt>
      <trkpt lat="44.84744" lon="6.19758">
        <ele>2655.298828125</ele>
        <time>2020-08-15T14:16:44Z</time>
      </trkpt>
      <trkpt lat="44.8475" lon="6.19778">
        <ele>2651.9340820312</ele>
        <time>2020-08-15T14:17:07Z</time>
      </trkpt>
      <trkpt lat="44.84759" lon="6.19797">
        <ele>2652.4150390625</ele>
        <time>2020-08-15T14:17:29Z</time>
      </trkpt>
      <trkpt lat="44.84763" lon="6.19808">
        <ele>2653.3759765625</ele>
        <time>2020-08-15T14:17:48Z</time>
      </trkpt>
      <trkpt lat="44.84769" lon="6.19814">
        <ele>2649.5307617188</ele>
        <time>2020-08-15T14:18:03Z</time>
      </trkpt>
      <trkpt lat="44.84776" lon="6.19821">
        <ele>2647.1279296875</ele>
        <time>2020-08-15T14:18:25Z</time>
      </trkpt>
      <trkpt lat="44.8478" lon="6.19826">
        <ele>2642.8012695312</ele>
        <time>2020-08-15T14:18:46Z</time>
      </trkpt>
      <trkpt lat="44.84781" lon="6.1983">
        <ele>2640.87890625</ele>
        <time>2020-08-15T14:19:26Z</time>
      </trkpt>
      <trkpt lat="44.84782" lon="6.19825">
        <ele>2639.9174804688</ele>
        <time>2020-08-15T14:19:50Z</time>
      </trkpt>
      <trkpt lat="44.84783" lon="6.19817">
        <ele>2638.4755859375</ele>
        <time>2020-08-15T14:20:54Z</time>
      </trkpt>
      <trkpt lat="44.84785" lon="6.19827">
        <ele>2638.9560546875</ele>
        <time>2020-08-15T14:21:37Z</time>
      </trkpt>
      <trkpt lat="44.8479" lon="6.19831">
        <ele>2636.072265625</ele>
        <time>2020-08-15T14:21:58Z</time>
      </trkpt>
      <trkpt lat="44.84792" lon="6.19846">
        <ele>2634.6303710938</ele>
        <time>2020-08-15T14:22:18Z</time>
      </trkpt>
      <trkpt lat="44.84793" lon="6.19851">
        <ele>2635.5913085938</ele>
        <time>2020-08-15T14:22:45Z</time>
      </trkpt>
      <trkpt lat="44.84794" lon="6.19866">
        <ele>2635.1108398438</ele>
        <time>2020-08-15T14:23:05Z</time>
      </trkpt>
      <trkpt lat="44.84789" lon="6.1988">
        <ele>2639.4370117188</ele>
        <time>2020-08-15T14:23:25Z</time>
      </trkpt>
      <trkpt lat="44.84784" lon="6.19893">
        <ele>2641.83984375</ele>
        <time>2020-08-15T14:23:41Z</time>
      </trkpt>
      <trkpt lat="44.84778" lon="6.199">
        <ele>2644.2436523438</ele>
        <time>2020-08-15T14:24:09Z</time>
      </trkpt>
      <trkpt lat="44.84778" lon="6.19906">
        <ele>2644.2436523438</ele>
        <time>2020-08-15T14:24:33Z</time>
      </trkpt>
      <trkpt lat="44.84778" lon="6.19914">
        <ele>2642.8012695312</ele>
        <time>2020-08-15T14:26:12Z</time>
      </trkpt>
      <trkpt lat="44.84775" lon="6.1992">
        <ele>2644.724609375</ele>
        <time>2020-08-15T14:26:27Z</time>
      </trkpt>
      <trkpt lat="44.84772" lon="6.19933">
        <ele>2641.359375</ele>
        <time>2020-08-15T14:26:49Z</time>
      </trkpt>
      <trkpt lat="44.84769" lon="6.19949">
        <ele>2638.9560546875</ele>
        <time>2020-08-15T14:27:08Z</time>
      </trkpt>
      <trkpt lat="44.84765" lon="6.19957">
        <ele>2637.9946289062</ele>
        <time>2020-08-15T14:27:26Z</time>
      </trkpt>
      <trkpt lat="44.8477" lon="6.19967">
        <ele>2632.7075195312</ele>
        <time>2020-08-15T14:27:45Z</time>
      </trkpt>
      <trkpt lat="44.84763" lon="6.19968">
        <ele>2632.7075195312</ele>
        <time>2020-08-15T14:28:08Z</time>
      </trkpt>
      <trkpt lat="44.84763" lon="6.19971">
        <ele>2630.78515625</ele>
        <time>2020-08-15T14:28:31Z</time>
      </trkpt>
      <trkpt lat="44.84759" lon="6.19976">
        <ele>2629.3432617188</ele>
        <time>2020-08-15T14:28:54Z</time>
      </trkpt>
      <trkpt lat="44.84758" lon="6.19985">
        <ele>2626.9399414062</ele>
        <time>2020-08-15T14:29:16Z</time>
      </trkpt>
      <trkpt lat="44.84759" lon="6.19995">
        <ele>2624.0561523438</ele>
        <time>2020-08-15T14:29:35Z</time>
      </trkpt>
      <trkpt lat="44.84762" lon="6.20004">
        <ele>2622.6137695312</ele>
        <time>2020-08-15T14:29:57Z</time>
      </trkpt>
      <trkpt lat="44.84759" lon="6.20012">
        <ele>2622.1333007812</ele>
        <time>2020-08-15T14:30:17Z</time>
      </trkpt>
      <trkpt lat="44.84754" lon="6.20025">
        <ele>2619.2495117188</ele>
        <time>2020-08-15T14:30:37Z</time>
      </trkpt>
      <trkpt lat="44.84753" lon="6.20029">
        <ele>2618.7685546875</ele>
        <time>2020-08-15T14:30:40Z</time>
      </trkpt>
      <trkpt lat="44.84746" lon="6.20044">
        <ele>2615.884765625</ele>
        <time>2020-08-15T14:30:56Z</time>
      </trkpt>
      <trkpt lat="44.84743" lon="6.20051">
        <ele>2615.884765625</ele>
        <time>2020-08-15T14:31:12Z</time>
      </trkpt>
      <trkpt lat="44.84738" lon="6.2006">
        <ele>2615.404296875</ele>
        <time>2020-08-15T14:31:34Z</time>
      </trkpt>
      <trkpt lat="44.84734" lon="6.20074">
        <ele>2612.0395507812</ele>
        <time>2020-08-15T14:31:53Z</time>
      </trkpt>
      <trkpt lat="44.8473" lon="6.20087">
        <ele>2610.5971679688</ele>
        <time>2020-08-15T14:32:10Z</time>
      </trkpt>
      <trkpt lat="44.84732" lon="6.20099">
        <ele>2607.7133789062</ele>
        <time>2020-08-15T14:32:29Z</time>
      </trkpt>
      <trkpt lat="44.84728" lon="6.20105">
        <ele>2604.3486328125</ele>
        <time>2020-08-15T14:32:49Z</time>
      </trkpt>
      <trkpt lat="44.84724" lon="6.20111">
        <ele>2600.5034179688</ele>
        <time>2020-08-15T14:33:27Z</time>
      </trkpt>
      <trkpt lat="44.84724" lon="6.20122">
        <ele>2597.6196289062</ele>
        <time>2020-08-15T14:33:44Z</time>
      </trkpt>
      <trkpt lat="44.84719" lon="6.20129">
        <ele>2594.7355957031</ele>
        <time>2020-08-15T14:34:04Z</time>
      </trkpt>
      <trkpt lat="44.84718" lon="6.20127">
        <ele>2590.4096679688</ele>
        <time>2020-08-15T14:34:26Z</time>
      </trkpt>
      <trkpt lat="44.84718" lon="6.20135">
        <ele>2584.6418457031</ele>
        <time>2020-08-15T14:35:42Z</time>
      </trkpt>
      <trkpt lat="44.84715" lon="6.20145">
        <ele>2583.6804199219</ele>
        <time>2020-08-15T14:36:02Z</time>
      </trkpt>
      <trkpt lat="44.84707" lon="6.20136">
        <ele>2579.8352050781</ele>
        <time>2020-08-15T14:36:20Z</time>
      </trkpt>
      <trkpt lat="44.84705" lon="6.20127">
        <ele>2575.0285644531</ele>
        <time>2020-08-15T14:36:41Z</time>
      </trkpt>
      <trkpt lat="44.84702" lon="6.2011">
        <ele>2570.7026367188</ele>
        <time>2020-08-15T14:37:03Z</time>
      </trkpt>
      <trkpt lat="44.84699" lon="6.20098">
        <ele>2568.7800292969</ele>
        <time>2020-08-15T14:37:20Z</time>
      </trkpt>
      <trkpt lat="44.84698" lon="6.2009">
        <ele>2566.857421875</ele>
        <time>2020-08-15T14:37:31Z</time>
      </trkpt>
      <trkpt lat="44.84691" lon="6.20074">
        <ele>2566.3767089844</ele>
        <time>2020-08-15T14:37:48Z</time>
      </trkpt>
      <trkpt lat="44.84682" lon="6.20073">
        <ele>2566.3767089844</ele>
        <time>2020-08-15T14:38:03Z</time>
      </trkpt>
      <trkpt lat="44.84678" lon="6.20094">
        <ele>2565.8959960938</ele>
        <time>2020-08-15T14:38:24Z</time>
      </trkpt>
      <trkpt lat="44.84672" lon="6.20094">
        <ele>2563.9733886719</ele>
        <time>2020-08-15T14:38:39Z</time>
      </trkpt>
      <trkpt lat="44.84663" lon="6.20096">
        <ele>2562.5314941406</ele>
        <time>2020-08-15T14:38:58Z</time>
      </trkpt>
      <trkpt lat="44.84655" lon="6.201">
        <ele>2562.05078125</ele>
        <time>2020-08-15T14:39:13Z</time>
      </trkpt>
      <trkpt lat="44.84651" lon="6.20093">
        <ele>2558.2055664062</ele>
        <time>2020-08-15T14:39:33Z</time>
      </trkpt>
      <trkpt lat="44.84651" lon="6.20094">
        <ele>2557.7250976562</ele>
        <time>2020-08-15T14:40:24Z</time>
      </trkpt>
      <trkpt lat="44.84646" lon="6.20085">
        <ele>2555.8020019531</ele>
        <time>2020-08-15T14:41:24Z</time>
      </trkpt>
      <trkpt lat="44.84635" lon="6.20071">
        <ele>2554.3601074219</ele>
        <time>2020-08-15T14:41:49Z</time>
      </trkpt>
      <trkpt lat="44.84625" lon="6.20061">
        <ele>2554.8408203125</ele>
        <time>2020-08-15T14:42:08Z</time>
      </trkpt>
      <trkpt lat="44.8462" lon="6.2006">
        <ele>2553.8796386719</ele>
        <time>2020-08-15T14:42:23Z</time>
      </trkpt>
      <trkpt lat="44.8462" lon="6.20072">
        <ele>2550.0344238281</ele>
        <time>2020-08-15T14:42:37Z</time>
      </trkpt>
      <trkpt lat="44.8462" lon="6.2009">
        <ele>2544.2663574219</ele>
        <time>2020-08-15T14:42:58Z</time>
      </trkpt>
      <trkpt lat="44.84621" lon="6.20107">
        <ele>2540.4211425781</ele>
        <time>2020-08-15T14:43:21Z</time>
      </trkpt>
      <trkpt lat="44.84619" lon="6.20111">
        <ele>2538.4985351562</ele>
        <time>2020-08-15T14:43:37Z</time>
      </trkpt>
      <trkpt lat="44.84616" lon="6.20101">
        <ele>2535.1337890625</ele>
        <time>2020-08-15T14:43:52Z</time>
      </trkpt>
      <trkpt lat="44.8461" lon="6.20092">
        <ele>2531.7692871094</ele>
        <time>2020-08-15T14:44:11Z</time>
      </trkpt>
      <trkpt lat="44.84609" lon="6.20088">
        <ele>2530.8081054688</ele>
        <time>2020-08-15T14:44:15Z</time>
      </trkpt>
      <trkpt lat="44.84604" lon="6.20086">
        <ele>2528.8852539062</ele>
        <time>2020-08-15T14:44:33Z</time>
      </trkpt>
      <trkpt lat="44.84602" lon="6.20101">
        <ele>2527.443359375</ele>
        <time>2020-08-15T14:44:51Z</time>
      </trkpt>
      <trkpt lat="44.84601" lon="6.20101">
        <ele>2528.4047851562</ele>
        <time>2020-08-15T14:45:33Z</time>
      </trkpt>
      <trkpt lat="44.84593" lon="6.20091">
        <ele>2526.4821777344</ele>
        <time>2020-08-15T14:48:25Z</time>
      </trkpt>
      <trkpt lat="44.84586" lon="6.20086">
        <ele>2522.1560058594</ele>
        <time>2020-08-15T14:48:51Z</time>
      </trkpt>
      <trkpt lat="44.84579" lon="6.20085">
        <ele>2518.3107910156</ele>
        <time>2020-08-15T14:49:11Z</time>
      </trkpt>
      <trkpt lat="44.84575" lon="6.20074">
        <ele>2515.4270019531</ele>
        <time>2020-08-15T14:49:31Z</time>
      </trkpt>
      <trkpt lat="44.84569" lon="6.20063">
        <ele>2510.1396484375</ele>
        <time>2020-08-15T14:49:52Z</time>
      </trkpt>
      <trkpt lat="44.84565" lon="6.20054">
        <ele>2506.7749023438</ele>
        <time>2020-08-15T14:50:08Z</time>
      </trkpt>
      <trkpt lat="44.8456" lon="6.20043">
        <ele>2503.4104003906</ele>
        <time>2020-08-15T14:50:23Z</time>
      </trkpt>
      <trkpt lat="44.84553" lon="6.20029">
        <ele>2500.5263671875</ele>
        <time>2020-08-15T14:50:41Z</time>
      </trkpt>
      <trkpt lat="44.84552" lon="6.20033">
        <ele>2500.0458984375</ele>
        <time>2020-08-15T14:50:57Z</time>
      </trkpt>
      <trkpt lat="44.8455" lon="6.20051">
        <ele>2498.123046875</ele>
        <time>2020-08-15T14:51:17Z</time>
      </trkpt>
      <trkpt lat="44.84549" lon="6.20066">
        <ele>2496.6811523438</ele>
        <time>2020-08-15T14:51:36Z</time>
      </trkpt>
      <trkpt lat="44.84547" lon="6.20072">
        <ele>2496.2006835938</ele>
        <time>2020-08-15T14:51:52Z</time>
      </trkpt>
      <trkpt lat="44.84541" lon="6.20083">
        <ele>2494.2778320312</ele>
        <time>2020-08-15T14:52:13Z</time>
      </trkpt>
      <trkpt lat="44.84538" lon="6.20097">
        <ele>2492.8359375</ele>
        <time>2020-08-15T14:52:31Z</time>
      </trkpt>
      <trkpt lat="44.84535" lon="6.20108">
        <ele>2488.9904785156</ele>
        <time>2020-08-15T14:52:52Z</time>
      </trkpt>
      <trkpt lat="44.84533" lon="6.20116">
        <ele>2488.029296875</ele>
        <time>2020-08-15T14:53:10Z</time>
      </trkpt>
      <trkpt lat="44.84531" lon="6.20124">
        <ele>2484.1840820312</ele>
        <time>2020-08-15T14:53:25Z</time>
      </trkpt>
      <trkpt lat="44.84529" lon="6.20133">
        <ele>2481.3000488281</ele>
        <time>2020-08-15T14:53:39Z</time>
      </trkpt>
      <trkpt lat="44.84526" lon="6.2014">
        <ele>2480.3388671875</ele>
        <time>2020-08-15T14:53:59Z</time>
      </trkpt>
      <trkpt lat="44.84526" lon="6.2014">
        <ele>2479.3774414062</ele>
        <time>2020-08-15T14:54:50Z</time>
      </trkpt>
      <trkpt lat="44.84528" lon="6.20142">
        <ele>2477.4548339844</ele>
        <time>2020-08-15T14:57:54Z</time>
      </trkpt>
      <trkpt lat="44.84526" lon="6.20147">
        <ele>2475.5319824219</ele>
        <time>2020-08-15T15:00:12Z</time>
      </trkpt>
      <trkpt lat="44.84525" lon="6.20155">
        <ele>2476.4936523438</ele>
        <time>2020-08-15T15:00:31Z</time>
      </trkpt>
      <trkpt lat="44.84523" lon="6.20169">
        <ele>2476.0129394531</ele>
        <time>2020-08-15T15:00:50Z</time>
      </trkpt>
      <trkpt lat="44.84519" lon="6.20188">
        <ele>2473.609375</ele>
        <time>2020-08-15T15:01:12Z</time>
      </trkpt>
      <trkpt lat="44.84518" lon="6.20188">
        <ele>2471.6867675781</ele>
        <time>2020-08-15T15:01:32Z</time>
      </trkpt>
      <trkpt lat="44.84512" lon="6.20178">
        <ele>2470.2448730469</ele>
        <time>2020-08-15T15:01:55Z</time>
      </trkpt>
      <trkpt lat="44.84509" lon="6.20171">
        <ele>2471.6867675781</ele>
        <time>2020-08-15T15:02:11Z</time>
      </trkpt>
      <trkpt lat="44.84503" lon="6.20161">
        <ele>2473.609375</ele>
        <time>2020-08-15T15:02:30Z</time>
      </trkpt>
      <trkpt lat="44.84499" lon="6.20147">
        <ele>2476.0129394531</ele>
        <time>2020-08-15T15:02:49Z</time>
      </trkpt>
      <trkpt lat="44.84496" lon="6.20141">
        <ele>2474.5708007812</ele>
        <time>2020-08-15T15:03:03Z</time>
      </trkpt>
      <trkpt lat="44.84494" lon="6.20136">
        <ele>2473.12890625</ele>
        <time>2020-08-15T15:03:26Z</time>
      </trkpt>
      <trkpt lat="44.84488" lon="6.20134">
        <ele>2469.7641601562</ele>
        <time>2020-08-15T15:03:46Z</time>
      </trkpt>
      <trkpt lat="44.84484" lon="6.20129">
        <ele>2466.8803710938</ele>
        <time>2020-08-15T15:04:05Z</time>
      </trkpt>
      <trkpt lat="44.84482" lon="6.20128">
        <ele>2464.9577636719</ele>
        <time>2020-08-15T15:04:26Z</time>
      </trkpt>
      <trkpt lat="44.84482" lon="6.20132">
        <ele>2461.5932617188</ele>
        <time>2020-08-15T15:04:55Z</time>
      </trkpt>
      <trkpt lat="44.84484" lon="6.20139">
        <ele>2456.7863769531</ele>
        <time>2020-08-15T15:05:15Z</time>
      </trkpt>
      <trkpt lat="44.84483" lon="6.20138">
        <ele>2455.8249511719</ele>
        <time>2020-08-15T15:05:37Z</time>
      </trkpt>
      <trkpt lat="44.84478" lon="6.20139">
        <ele>2452.9411621094</ele>
        <time>2020-08-15T15:06:51Z</time>
      </trkpt>
      <trkpt lat="44.84473" lon="6.20131">
        <ele>2450.0573730469</ele>
        <time>2020-08-15T15:07:13Z</time>
      </trkpt>
      <trkpt lat="44.84469" lon="6.20142">
        <ele>2448.615234375</ele>
        <time>2020-08-15T15:07:34Z</time>
      </trkpt>
      <trkpt lat="44.8447" lon="6.20147">
        <ele>2445.7314453125</ele>
        <time>2020-08-15T15:07:50Z</time>
      </trkpt>
      <trkpt lat="44.84467" lon="6.20146">
        <ele>2442.8471679688</ele>
        <time>2020-08-15T15:08:07Z</time>
      </trkpt>
      <trkpt lat="44.8446" lon="6.20136">
        <ele>2438.521484375</ele>
        <time>2020-08-15T15:08:34Z</time>
      </trkpt>
      <trkpt lat="44.84456" lon="6.20136">
        <ele>2436.5986328125</ele>
        <time>2020-08-15T15:08:48Z</time>
      </trkpt>
      <trkpt lat="44.84454" lon="6.20146">
        <ele>2433.2341308594</ele>
        <time>2020-08-15T15:09:09Z</time>
      </trkpt>
      <trkpt lat="44.84453" lon="6.20155">
        <ele>2432.7534179688</ele>
        <time>2020-08-15T15:09:24Z</time>
      </trkpt>
      <trkpt lat="44.84455" lon="6.20164">
        <ele>2431.3115234375</ele>
        <time>2020-08-15T15:09:43Z</time>
      </trkpt>
      <trkpt lat="44.84454" lon="6.20171">
        <ele>2429.8696289062</ele>
        <time>2020-08-15T15:09:59Z</time>
      </trkpt>
      <trkpt lat="44.84454" lon="6.20174">
        <ele>2428.427734375</ele>
        <time>2020-08-15T15:10:20Z</time>
      </trkpt>
      <trkpt lat="44.84454" lon="6.20179">
        <ele>2427.9467773438</ele>
        <time>2020-08-15T15:11:22Z</time>
      </trkpt>
      <trkpt lat="44.8445" lon="6.20189">
        <ele>2425.0627441406</ele>
        <time>2020-08-15T15:11:39Z</time>
      </trkpt>
      <trkpt lat="44.84448" lon="6.20204">
        <ele>2420.2563476562</ele>
        <time>2020-08-15T15:12:04Z</time>
      </trkpt>
      <trkpt lat="44.84445" lon="6.20219">
        <ele>2417.3723144531</ele>
        <time>2020-08-15T15:12:26Z</time>
      </trkpt>
      <trkpt lat="44.84445" lon="6.20226">
        <ele>2417.8530273438</ele>
        <time>2020-08-15T15:12:46Z</time>
      </trkpt>
      <trkpt lat="44.84446" lon="6.20231">
        <ele>2414.4885253906</ele>
        <time>2020-08-15T15:13:15Z</time>
      </trkpt>
      <trkpt lat="44.84445" lon="6.2023">
        <ele>2414.0078125</ele>
        <time>2020-08-15T15:15:08Z</time>
      </trkpt>
      <trkpt lat="44.8444" lon="6.20225">
        <ele>2414.4885253906</ele>
        <time>2020-08-15T15:16:01Z</time>
      </trkpt>
      <trkpt lat="44.84436" lon="6.20221">
        <ele>2413.5270996094</ele>
        <time>2020-08-15T15:16:20Z</time>
      </trkpt>
      <trkpt lat="44.84432" lon="6.20216">
        <ele>2412.0852050781</ele>
        <time>2020-08-15T15:16:47Z</time>
      </trkpt>
      <trkpt lat="44.84428" lon="6.20212">
        <ele>2411.6044921875</ele>
        <time>2020-08-15T15:17:07Z</time>
      </trkpt>
      <trkpt lat="44.84424" lon="6.20207">
        <ele>2409.681640625</ele>
        <time>2020-08-15T15:17:32Z</time>
      </trkpt>
      <trkpt lat="44.84421" lon="6.2021">
        <ele>2407.2785644531</ele>
        <time>2020-08-15T15:18:03Z</time>
      </trkpt>
      <trkpt lat="44.84421" lon="6.20215">
        <ele>2404.8752441406</ele>
        <time>2020-08-15T15:18:23Z</time>
      </trkpt>
      <trkpt lat="44.84422" lon="6.20222">
        <ele>2402.9526367188</ele>
        <time>2020-08-15T15:18:40Z</time>
      </trkpt>
      <trkpt lat="44.84423" lon="6.20229">
        <ele>2399.5881347656</ele>
        <time>2020-08-15T15:19:05Z</time>
      </trkpt>
      <trkpt lat="44.84421" lon="6.2023">
        <ele>2396.2236328125</ele>
        <time>2020-08-15T15:20:45Z</time>
      </trkpt>
      <trkpt lat="44.84413" lon="6.20224">
        <ele>2393.8200683594</ele>
        <time>2020-08-15T15:21:07Z</time>
      </trkpt>
      <trkpt lat="44.84403" lon="6.20213">
        <ele>2390.4553222656</ele>
        <time>2020-08-15T15:21:29Z</time>
      </trkpt>
      <trkpt lat="44.84398" lon="6.20206">
        <ele>2388.5329589844</ele>
        <time>2020-08-15T15:21:47Z</time>
      </trkpt>
      <trkpt lat="44.84393" lon="6.20203">
        <ele>2387.5715332031</ele>
        <time>2020-08-15T15:22:03Z</time>
      </trkpt>
      <trkpt lat="44.8439" lon="6.20197">
        <ele>2386.6101074219</ele>
        <time>2020-08-15T15:22:22Z</time>
      </trkpt>
      <trkpt lat="44.84385" lon="6.20188">
        <ele>2385.6489257812</ele>
        <time>2020-08-15T15:22:41Z</time>
      </trkpt>
      <trkpt lat="44.84382" lon="6.20194">
        <ele>2384.6877441406</ele>
        <time>2020-08-15T15:23:01Z</time>
      </trkpt>
      <trkpt lat="44.84383" lon="6.20205">
        <ele>2383.2456054688</ele>
        <time>2020-08-15T15:23:23Z</time>
      </trkpt>
      <trkpt lat="44.84385" lon="6.20223">
        <ele>2380.3618164062</ele>
        <time>2020-08-15T15:23:50Z</time>
      </trkpt>
      <trkpt lat="44.84386" lon="6.20228">
        <ele>2379.4001464844</ele>
        <time>2020-08-15T15:23:53Z</time>
      </trkpt>
      <trkpt lat="44.84389" lon="6.20252">
        <ele>2378.4389648438</ele>
        <time>2020-08-15T15:24:16Z</time>
      </trkpt>
      <trkpt lat="44.84391" lon="6.20264">
        <ele>2377.9582519531</ele>
        <time>2020-08-15T15:24:33Z</time>
      </trkpt>
      <trkpt lat="44.84391" lon="6.20288">
        <ele>2376.0356445312</ele>
        <time>2020-08-15T15:24:59Z</time>
      </trkpt>
      <trkpt lat="44.8439" lon="6.20295">
        <ele>2376.0356445312</ele>
        <time>2020-08-15T15:25:15Z</time>
      </trkpt>
      <trkpt lat="44.84394" lon="6.20313">
        <ele>2375.07421875</ele>
        <time>2020-08-15T15:25:32Z</time>
      </trkpt>
      <trkpt lat="44.84396" lon="6.2032">
        <ele>2374.59375</ele>
        <time>2020-08-15T15:25:49Z</time>
      </trkpt>
      <trkpt lat="44.84396" lon="6.20331">
        <ele>2372.6711425781</ele>
        <time>2020-08-15T15:26:07Z</time>
      </trkpt>
      <trkpt lat="44.84396" lon="6.20347">
        <ele>2370.7485351562</ele>
        <time>2020-08-15T15:26:27Z</time>
      </trkpt>
      <trkpt lat="44.84396" lon="6.20361">
        <ele>2370.2678222656</ele>
        <time>2020-08-15T15:26:50Z</time>
      </trkpt>
      <trkpt lat="44.84399" lon="6.20377">
        <ele>2367.8645019531</ele>
        <time>2020-08-15T15:27:13Z</time>
      </trkpt>
      <trkpt lat="44.84402" lon="6.20391">
        <ele>2366.9033203125</ele>
        <time>2020-08-15T15:27:32Z</time>
      </trkpt>
      <trkpt lat="44.84403" lon="6.20401">
        <ele>2369.787109375</ele>
        <time>2020-08-15T15:27:51Z</time>
      </trkpt>
      <trkpt lat="44.84402" lon="6.20401">
        <ele>2368.8259277344</ele>
        <time>2020-08-15T15:28:11Z</time>
      </trkpt>
      <trkpt lat="44.84398" lon="6.20395">
        <ele>2369.306640625</ele>
        <time>2020-08-15T15:28:24Z</time>
      </trkpt>
      <trkpt lat="44.84391" lon="6.20392">
        <ele>2370.7485351562</ele>
        <time>2020-08-15T15:28:46Z</time>
      </trkpt>
      <trkpt lat="44.84377" lon="6.20401">
        <ele>2367.3837890625</ele>
        <time>2020-08-15T15:29:08Z</time>
      </trkpt>
      <trkpt lat="44.84368" lon="6.20408">
        <ele>2364.0192871094</ele>
        <time>2020-08-15T15:29:33Z</time>
      </trkpt>
      <trkpt lat="44.84364" lon="6.20412">
        <ele>2364.0192871094</ele>
        <time>2020-08-15T15:29:51Z</time>
      </trkpt>
      <trkpt lat="44.84355" lon="6.20411">
        <ele>2361.1352539062</ele>
        <time>2020-08-15T15:30:14Z</time>
      </trkpt>
      <trkpt lat="44.8435" lon="6.20408">
        <ele>2360.173828125</ele>
        <time>2020-08-15T15:30:35Z</time>
      </trkpt>
      <trkpt lat="44.84339" lon="6.20405">
        <ele>2360.173828125</ele>
        <time>2020-08-15T15:30:55Z</time>
      </trkpt>
      <trkpt lat="44.84339" lon="6.20406">
        <ele>2360.173828125</ele>
        <time>2020-08-15T15:31:18Z</time>
      </trkpt>
      <trkpt lat="44.84337" lon="6.20411">
        <ele>2360.6545410156</ele>
        <time>2020-08-15T15:31:35Z</time>
      </trkpt>
      <trkpt lat="44.84336" lon="6.20414">
        <ele>2361.1352539062</ele>
        <time>2020-08-15T15:31:51Z</time>
      </trkpt>
      <trkpt lat="44.84329" lon="6.2042">
        <ele>2359.6931152344</ele>
        <time>2020-08-15T15:32:08Z</time>
      </trkpt>
      <trkpt lat="44.84324" lon="6.20423">
        <ele>2359.6931152344</ele>
        <time>2020-08-15T15:32:26Z</time>
      </trkpt>
      <trkpt lat="44.8432" lon="6.20423">
        <ele>2359.6931152344</ele>
        <time>2020-08-15T15:32:52Z</time>
      </trkpt>
      <trkpt lat="44.84319" lon="6.20418">
        <ele>2360.173828125</ele>
        <time>2020-08-15T15:33:10Z</time>
      </trkpt>
      <trkpt lat="44.84308" lon="6.20416">
        <ele>2359.6931152344</ele>
        <time>2020-08-15T15:33:29Z</time>
      </trkpt>
      <trkpt lat="44.84293" lon="6.20414">
        <ele>2358.2512207031</ele>
        <time>2020-08-15T15:33:51Z</time>
      </trkpt>
      <trkpt lat="44.84285" lon="6.20417">
        <ele>2356.3286132812</ele>
        <time>2020-08-15T15:34:07Z</time>
      </trkpt>
      <trkpt lat="44.84278" lon="6.20422">
        <ele>2358.2512207031</ele>
        <time>2020-08-15T15:34:25Z</time>
      </trkpt>
      <trkpt lat="44.84267" lon="6.20423">
        <ele>2356.3286132812</ele>
        <time>2020-08-15T15:34:40Z</time>
      </trkpt>
      <trkpt lat="44.84259" lon="6.20427">
        <ele>2353.9255371094</ele>
        <time>2020-08-15T15:34:53Z</time>
      </trkpt>
      <trkpt lat="44.84248" lon="6.20427">
        <ele>2352.0026855469</ele>
        <time>2020-08-15T15:35:09Z</time>
      </trkpt>
      <trkpt lat="44.84232" lon="6.20426">
        <ele>2348.6381835938</ele>
        <time>2020-08-15T15:35:28Z</time>
      </trkpt>
      <trkpt lat="44.84221" lon="6.20424">
        <ele>2347.1960449219</ele>
        <time>2020-08-15T15:35:46Z</time>
      </trkpt>
      <trkpt lat="44.84211" lon="6.20423">
        <ele>2347.6767578125</ele>
        <time>2020-08-15T15:36:05Z</time>
      </trkpt>
      <trkpt lat="44.84211" lon="6.20428">
        <ele>2350.5607910156</ele>
        <time>2020-08-15T15:36:21Z</time>
      </trkpt>
      <trkpt lat="44.8421" lon="6.2043">
        <ele>2350.5607910156</ele>
        <time>2020-08-15T15:37:26Z</time>
      </trkpt>
      <trkpt lat="44.84212" lon="6.20435">
        <ele>2351.0415039062</ele>
        <time>2020-08-15T15:37:39Z</time>
      </trkpt>
      <trkpt lat="44.84222" lon="6.20444">
        <ele>2353.4448242188</ele>
        <time>2020-08-15T15:37:57Z</time>
      </trkpt>
      <trkpt lat="44.84211" lon="6.20449">
        <ele>2353.4448242188</ele>
        <time>2020-08-15T15:38:17Z</time>
      </trkpt>
      <trkpt lat="44.84199" lon="6.20443">
        <ele>2353.4448242188</ele>
        <time>2020-08-15T15:38:35Z</time>
      </trkpt>
      <trkpt lat="44.84183" lon="6.20439">
        <ele>2352.9641113281</ele>
        <time>2020-08-15T15:38:59Z</time>
      </trkpt>
      <trkpt lat="44.84168" lon="6.20437">
        <ele>2354.4060058594</ele>
        <time>2020-08-15T15:39:24Z</time>
      </trkpt>
      <trkpt lat="44.84158" lon="6.20436">
        <ele>2354.88671875</ele>
        <time>2020-08-15T15:39:47Z</time>
      </trkpt>
      <trkpt lat="44.84155" lon="6.20431">
        <ele>2355.3674316406</ele>
        <time>2020-08-15T15:40:06Z</time>
      </trkpt>
      <trkpt lat="44.8415" lon="6.20428">
        <ele>2352.0026855469</ele>
        <time>2020-08-15T15:40:27Z</time>
      </trkpt>
      <trkpt lat="44.84147" lon="6.20435">
        <ele>2347.6767578125</ele>
        <time>2020-08-15T15:40:42Z</time>
      </trkpt>
      <trkpt lat="44.84146" lon="6.20443">
        <ele>2347.1960449219</ele>
        <time>2020-08-15T15:40:59Z</time>
      </trkpt>
      <trkpt lat="44.84146" lon="6.20444">
        <ele>2348.1574707031</ele>
        <time>2020-08-15T15:41:32Z</time>
      </trkpt>
      <trkpt lat="44.84147" lon="6.20443">
        <ele>2345.2734375</ele>
        <time>2020-08-15T15:56:44Z</time>
      </trkpt>
      <trkpt lat="44.84139" lon="6.20454">
        <ele>2345.2734375</ele>
        <time>2020-08-15T15:56:48Z</time>
      </trkpt>
    </trkseg>
  </trk>
  <trk>
    <name><![CDATA[Jour 3]]></name>
    <trkseg>
      <trkpt lat="44.8411" lon="6.20358">
        <ele>2257.7937011719</ele>
        <time>2020-08-16T07:13:30Z</time>
      </trkpt>
      <trkpt lat="44.84143" lon="6.2043">
        <ele>2351.0415039062</ele>
        <time>2020-08-16T07:14:42Z</time>
      </trkpt>
      <trkpt lat="44.84148" lon="6.20429">
        <ele>2349.599609375</ele>
        <time>2020-08-16T07:16:39Z</time>
      </trkpt>
      <trkpt lat="44.84157" lon="6.20437">
        <ele>2348.1574707031</ele>
        <time>2020-08-16T07:16:50Z</time>
      </trkpt>
      <trkpt lat="44.8416" lon="6.20435">
        <ele>2350.5607910156</ele>
        <time>2020-08-16T07:17:07Z</time>
      </trkpt>
      <trkpt lat="44.8416" lon="6.20435">
        <ele>2353.4448242188</ele>
        <time>2020-08-16T07:17:15Z</time>
      </trkpt>
      <trkpt lat="44.84176" lon="6.2044">
        <ele>2362.0964355469</ele>
        <time>2020-08-16T07:17:38Z</time>
      </trkpt>
      <trkpt lat="44.84176" lon="6.2044">
        <ele>2362.0964355469</ele>
        <time>2020-08-16T07:17:47Z</time>
      </trkpt>
      <trkpt lat="44.84197" lon="6.20445">
        <ele>2363.5383300781</ele>
        <time>2020-08-16T07:18:09Z</time>
      </trkpt>
      <trkpt lat="44.84204" lon="6.2044">
        <ele>2362.5771484375</ele>
        <time>2020-08-16T07:18:25Z</time>
      </trkpt>
      <trkpt lat="44.84205" lon="6.2044">
        <ele>2361.6159667969</ele>
        <time>2020-08-16T07:18:51Z</time>
      </trkpt>
      <trkpt lat="44.84207" lon="6.20447">
        <ele>2359.6931152344</ele>
        <time>2020-08-16T07:20:35Z</time>
      </trkpt>
      <trkpt lat="44.84217" lon="6.20447">
        <ele>2360.173828125</ele>
        <time>2020-08-16T07:20:53Z</time>
      </trkpt>
      <trkpt lat="44.84216" lon="6.20441">
        <ele>2360.6545410156</ele>
        <time>2020-08-16T07:21:00Z</time>
      </trkpt>
      <trkpt lat="44.84209" lon="6.2043">
        <ele>2359.2126464844</ele>
        <time>2020-08-16T07:21:16Z</time>
      </trkpt>
      <trkpt lat="44.84203" lon="6.20421">
        <ele>2357.2900390625</ele>
        <time>2020-08-16T07:21:31Z</time>
      </trkpt>
      <trkpt lat="44.84205" lon="6.20412">
        <ele>2358.2512207031</ele>
        <time>2020-08-16T07:21:44Z</time>
      </trkpt>
      <trkpt lat="44.84194" lon="6.20408">
        <ele>2353.4448242188</ele>
        <time>2020-08-16T07:22:05Z</time>
      </trkpt>
      <trkpt lat="44.84188" lon="6.20407">
        <ele>2350.0803222656</ele>
        <time>2020-08-16T07:22:21Z</time>
      </trkpt>
      <trkpt lat="44.84184" lon="6.20409">
        <ele>2345.2734375</ele>
        <time>2020-08-16T07:22:30Z</time>
      </trkpt>
      <trkpt lat="44.84174" lon="6.20406">
        <ele>2342.3896484375</ele>
        <time>2020-08-16T07:22:51Z</time>
      </trkpt>
      <trkpt lat="44.84176" lon="6.20397">
        <ele>2343.8315429688</ele>
        <time>2020-08-16T07:23:00Z</time>
      </trkpt>
      <trkpt lat="44.8417" lon="6.20376">
        <ele>2347.1960449219</ele>
        <time>2020-08-16T07:23:16Z</time>
      </trkpt>
      <trkpt lat="44.84168" lon="6.2037">
        <ele>2347.1960449219</ele>
        <time>2020-08-16T07:23:23Z</time>
      </trkpt>
      <trkpt lat="44.84159" lon="6.20366">
        <ele>2339.986328125</ele>
        <time>2020-08-16T07:23:44Z</time>
      </trkpt>
      <trkpt lat="44.84154" lon="6.20377">
        <ele>2332.7763671875</ele>
        <time>2020-08-16T07:24:01Z</time>
      </trkpt>
      <trkpt lat="44.84148" lon="6.20376">
        <ele>2332.2958984375</ele>
        <time>2020-08-16T07:24:18Z</time>
      </trkpt>
      <trkpt lat="44.84146" lon="6.20372">
        <ele>2331.3342285156</ele>
        <time>2020-08-16T07:24:23Z</time>
      </trkpt>
      <trkpt lat="44.8414" lon="6.20367">
        <ele>2329.4116210938</ele>
        <time>2020-08-16T07:24:38Z</time>
      </trkpt>
      <trkpt lat="44.84137" lon="6.20371">
        <ele>2327.4890136719</ele>
        <time>2020-08-16T07:24:54Z</time>
      </trkpt>
      <trkpt lat="44.84132" lon="6.20381">
        <ele>2325.56640625</ele>
        <time>2020-08-16T07:25:11Z</time>
      </trkpt>
      <trkpt lat="44.84128" lon="6.20374">
        <ele>2324.6052246094</ele>
        <time>2020-08-16T07:25:24Z</time>
      </trkpt>
      <trkpt lat="44.84124" lon="6.20377">
        <ele>2319.3181152344</ele>
        <time>2020-08-16T07:25:41Z</time>
      </trkpt>
      <trkpt lat="44.84117" lon="6.20385">
        <ele>2314.0305175781</ele>
        <time>2020-08-16T07:26:00Z</time>
      </trkpt>
      <trkpt lat="44.84107" lon="6.2039">
        <ele>2311.1467285156</ele>
        <time>2020-08-16T07:26:20Z</time>
      </trkpt>
      <trkpt lat="44.84097" lon="6.20395">
        <ele>2310.1853027344</ele>
        <time>2020-08-16T07:26:37Z</time>
      </trkpt>
      <trkpt lat="44.84088" lon="6.204">
        <ele>2306.8208007812</ele>
        <time>2020-08-16T07:26:57Z</time>
      </trkpt>
      <trkpt lat="44.8408" lon="6.20415">
        <ele>2301.5336914062</ele>
        <time>2020-08-16T07:27:18Z</time>
      </trkpt>
      <trkpt lat="44.8407" lon="6.2042">
        <ele>2299.1301269531</ele>
        <time>2020-08-16T07:27:40Z</time>
      </trkpt>
      <trkpt lat="44.84068" lon="6.20421">
        <ele>2297.2075195312</ele>
        <time>2020-08-16T07:27:55Z</time>
      </trkpt>
      <trkpt lat="44.84062" lon="6.20431">
        <ele>2294.3234863281</ele>
        <time>2020-08-16T07:28:16Z</time>
      </trkpt>
      <trkpt lat="44.84059" lon="6.2043">
        <ele>2293.8430175781</ele>
        <time>2020-08-16T07:28:41Z</time>
      </trkpt>
      <trkpt lat="44.84056" lon="6.20426">
        <ele>2294.8041992188</ele>
        <time>2020-08-16T07:29:01Z</time>
      </trkpt>
      <trkpt lat="44.84051" lon="6.20419">
        <ele>2295.765625</ele>
        <time>2020-08-16T07:29:17Z</time>
      </trkpt>
      <trkpt lat="44.84048" lon="6.20413">
        <ele>2294.8041992188</ele>
        <time>2020-08-16T07:29:40Z</time>
      </trkpt>
      <trkpt lat="44.84041" lon="6.20421">
        <ele>2290.4782714844</ele>
        <time>2020-08-16T07:29:59Z</time>
      </trkpt>
      <trkpt lat="44.84033" lon="6.20435">
        <ele>2284.7106933594</ele>
        <time>2020-08-16T07:30:20Z</time>
      </trkpt>
      <trkpt lat="44.84028" lon="6.20435">
        <ele>2282.7875976562</ele>
        <time>2020-08-16T07:30:35Z</time>
      </trkpt>
      <trkpt lat="44.84026" lon="6.20421">
        <ele>2281.345703125</ele>
        <time>2020-08-16T07:30:51Z</time>
      </trkpt>
      <trkpt lat="44.8403" lon="6.20404">
        <ele>2279.9038085938</ele>
        <time>2020-08-16T07:31:08Z</time>
      </trkpt>
      <trkpt lat="44.8403" lon="6.20393">
        <ele>2278.9423828125</ele>
        <time>2020-08-16T07:31:24Z</time>
      </trkpt>
      <trkpt lat="44.8403" lon="6.20385">
        <ele>2276.5393066406</ele>
        <time>2020-08-16T07:31:38Z</time>
      </trkpt>
      <trkpt lat="44.84026" lon="6.20374">
        <ele>2276.05859375</ele>
        <time>2020-08-16T07:31:53Z</time>
      </trkpt>
      <trkpt lat="44.84021" lon="6.20361">
        <ele>2276.05859375</ele>
        <time>2020-08-16T07:32:07Z</time>
      </trkpt>
      <trkpt lat="44.84019" lon="6.20351">
        <ele>2273.6552734375</ele>
        <time>2020-08-16T07:32:27Z</time>
      </trkpt>
      <trkpt lat="44.84017" lon="6.20349">
        <ele>2273.1748046875</ele>
        <time>2020-08-16T07:32:43Z</time>
      </trkpt>
      <trkpt lat="44.84008" lon="6.20351">
        <ele>2267.8872070312</ele>
        <time>2020-08-16T07:32:59Z</time>
      </trkpt>
      <trkpt lat="44.83999" lon="6.20355">
        <ele>2263.0808105469</ele>
        <time>2020-08-16T07:33:14Z</time>
      </trkpt>
      <trkpt lat="44.83993" lon="6.20361">
        <ele>2258.7548828125</ele>
        <time>2020-08-16T07:33:29Z</time>
      </trkpt>
      <trkpt lat="44.83991" lon="6.20372">
        <ele>2255.8708496094</ele>
        <time>2020-08-16T07:33:44Z</time>
      </trkpt>
      <trkpt lat="44.83989" lon="6.20382">
        <ele>2253.9484863281</ele>
        <time>2020-08-16T07:34:12Z</time>
      </trkpt>
      <trkpt lat="44.8398" lon="6.20395">
        <ele>2254.9096679688</ele>
        <time>2020-08-16T07:34:26Z</time>
      </trkpt>
      <trkpt lat="44.83973" lon="6.204">
        <ele>2253.9484863281</ele>
        <time>2020-08-16T07:34:39Z</time>
      </trkpt>
      <trkpt lat="44.83961" lon="6.20405">
        <ele>2253.4677734375</ele>
        <time>2020-08-16T07:34:59Z</time>
      </trkpt>
      <trkpt lat="44.83951" lon="6.20407">
        <ele>2251.544921875</ele>
        <time>2020-08-16T07:35:19Z</time>
      </trkpt>
      <trkpt lat="44.83953" lon="6.20417">
        <ele>2249.6223144531</ele>
        <time>2020-08-16T07:35:35Z</time>
      </trkpt>
      <trkpt lat="44.83948" lon="6.2042">
        <ele>2244.8156738281</ele>
        <time>2020-08-16T07:35:55Z</time>
      </trkpt>
      <trkpt lat="44.83938" lon="6.20418">
        <ele>2242.4125976562</ele>
        <time>2020-08-16T07:36:11Z</time>
      </trkpt>
      <trkpt lat="44.83933" lon="6.20417">
        <ele>2243.3737792969</ele>
        <time>2020-08-16T07:36:30Z</time>
      </trkpt>
      <trkpt lat="44.83925" lon="6.2041">
        <ele>2238.0866699219</ele>
        <time>2020-08-16T07:36:50Z</time>
      </trkpt>
      <trkpt lat="44.83923" lon="6.20391">
        <ele>2237.6059570312</ele>
        <time>2020-08-16T07:37:17Z</time>
      </trkpt>
      <trkpt lat="44.83926" lon="6.20381">
        <ele>2236.1640625</ele>
        <time>2020-08-16T07:37:34Z</time>
      </trkpt>
      <trkpt lat="44.83929" lon="6.20377">
        <ele>2234.7219238281</ele>
        <time>2020-08-16T07:37:41Z</time>
      </trkpt>
      <trkpt lat="44.8393" lon="6.20367">
        <ele>2229.4345703125</ele>
        <time>2020-08-16T07:37:58Z</time>
      </trkpt>
      <trkpt lat="44.83926" lon="6.2036">
        <ele>2227.9926757812</ele>
        <time>2020-08-16T07:38:07Z</time>
      </trkpt>
      <trkpt lat="44.83919" lon="6.20351">
        <ele>2227.5119628906</ele>
        <time>2020-08-16T07:38:25Z</time>
      </trkpt>
      <trkpt lat="44.83915" lon="6.20337">
        <ele>2223.1862792969</ele>
        <time>2020-08-16T07:38:47Z</time>
      </trkpt>
      <trkpt lat="44.83913" lon="6.20324">
        <ele>2218.8601074219</ele>
        <time>2020-08-16T07:39:03Z</time>
      </trkpt>
      <trkpt lat="44.83912" lon="6.20315">
        <ele>2215.4956054688</ele>
        <time>2020-08-16T07:39:21Z</time>
      </trkpt>
      <trkpt lat="44.83916" lon="6.20308">
        <ele>2215.9760742188</ele>
        <time>2020-08-16T07:39:34Z</time>
      </trkpt>
      <trkpt lat="44.83917" lon="6.20299">
        <ele>2215.9760742188</ele>
        <time>2020-08-16T07:39:42Z</time>
      </trkpt>
      <trkpt lat="44.83922" lon="6.20278">
        <ele>2213.5727539062</ele>
        <time>2020-08-16T07:40:00Z</time>
      </trkpt>
      <trkpt lat="44.83918" lon="6.20261">
        <ele>2210.6889648438</ele>
        <time>2020-08-16T07:40:15Z</time>
      </trkpt>
      <trkpt lat="44.83915" lon="6.20254">
        <ele>2208.7663574219</ele>
        <time>2020-08-16T07:40:28Z</time>
      </trkpt>
      <trkpt lat="44.83911" lon="6.20244">
        <ele>2205.8823242188</ele>
        <time>2020-08-16T07:40:43Z</time>
      </trkpt>
      <trkpt lat="44.83905" lon="6.20238">
        <ele>2205.4018554688</ele>
        <time>2020-08-16T07:41:00Z</time>
      </trkpt>
      <trkpt lat="44.83895" lon="6.20233">
        <ele>2203.4790039062</ele>
        <time>2020-08-16T07:41:22Z</time>
      </trkpt>
      <trkpt lat="44.8389" lon="6.20235">
        <ele>2202.9982910156</ele>
        <time>2020-08-16T07:41:36Z</time>
      </trkpt>
      <trkpt lat="44.83892" lon="6.2023">
        <ele>2202.0368652344</ele>
        <time>2020-08-16T07:42:00Z</time>
      </trkpt>
      <trkpt lat="44.83897" lon="6.20217">
        <ele>2200.5949707031</ele>
        <time>2020-08-16T07:42:14Z</time>
      </trkpt>
      <trkpt lat="44.839" lon="6.20207">
        <ele>2198.6723632812</ele>
        <time>2020-08-16T07:42:31Z</time>
      </trkpt>
      <trkpt lat="44.83901" lon="6.20197">
        <ele>2196.7497558594</ele>
        <time>2020-08-16T07:42:46Z</time>
      </trkpt>
      <trkpt lat="44.83904" lon="6.20184">
        <ele>2198.1916503906</ele>
        <time>2020-08-16T07:43:01Z</time>
      </trkpt>
      <trkpt lat="44.83903" lon="6.20174">
        <ele>2198.6723632812</ele>
        <time>2020-08-16T07:43:15Z</time>
      </trkpt>
      <trkpt lat="44.83904" lon="6.20163">
        <ele>2198.1916503906</ele>
        <time>2020-08-16T07:43:29Z</time>
      </trkpt>
      <trkpt lat="44.83908" lon="6.20149">
        <ele>2196.2692871094</ele>
        <time>2020-08-16T07:43:47Z</time>
      </trkpt>
      <trkpt lat="44.83912" lon="6.20142">
        <ele>2189.0593261719</ele>
        <time>2020-08-16T07:44:02Z</time>
      </trkpt>
      <trkpt lat="44.83915" lon="6.20135">
        <ele>2185.6945800781</ele>
        <time>2020-08-16T07:44:26Z</time>
      </trkpt>
      <trkpt lat="44.83924" lon="6.20127">
        <ele>2180.8881835938</ele>
        <time>2020-08-16T07:44:45Z</time>
      </trkpt>
      <trkpt lat="44.83938" lon="6.20119">
        <ele>2175.6008300781</ele>
        <time>2020-08-16T07:45:06Z</time>
      </trkpt>
      <trkpt lat="44.83941" lon="6.20115">
        <ele>2173.6782226562</ele>
        <time>2020-08-16T07:45:25Z</time>
      </trkpt>
      <trkpt lat="44.83943" lon="6.20113">
        <ele>2171.7553710938</ele>
        <time>2020-08-16T07:45:55Z</time>
      </trkpt>
      <trkpt lat="44.83937" lon="6.20112">
        <ele>2170.3134765625</ele>
        <time>2020-08-16T07:47:33Z</time>
      </trkpt>
      <trkpt lat="44.83929" lon="6.2011">
        <ele>2166.4682617188</ele>
        <time>2020-08-16T07:47:54Z</time>
      </trkpt>
      <trkpt lat="44.83922" lon="6.20109">
        <ele>2167.4294433594</ele>
        <time>2020-08-16T07:48:14Z</time>
      </trkpt>
      <trkpt lat="44.83912" lon="6.20105">
        <ele>2165.9875488281</ele>
        <time>2020-08-16T07:48:37Z</time>
      </trkpt>
      <trkpt lat="44.83908" lon="6.20106">
        <ele>2162.623046875</ele>
        <time>2020-08-16T07:48:52Z</time>
      </trkpt>
      <trkpt lat="44.83903" lon="6.20105">
        <ele>2161.6618652344</ele>
        <time>2020-08-16T07:49:07Z</time>
      </trkpt>
      <trkpt lat="44.83897" lon="6.20108">
        <ele>2158.7778320312</ele>
        <time>2020-08-16T07:49:24Z</time>
      </trkpt>
      <trkpt lat="44.83884" lon="6.20115">
        <ele>2155.8935546875</ele>
        <time>2020-08-16T07:49:50Z</time>
      </trkpt>
      <trkpt lat="44.83876" lon="6.20122">
        <ele>2152.5290527344</ele>
        <time>2020-08-16T07:50:12Z</time>
      </trkpt>
      <trkpt lat="44.83868" lon="6.20134">
        <ele>2151.0871582031</ele>
        <time>2020-08-16T07:50:30Z</time>
      </trkpt>
      <trkpt lat="44.83861" lon="6.20142">
        <ele>2147.72265625</ele>
        <time>2020-08-16T07:50:52Z</time>
      </trkpt>
      <trkpt lat="44.83849" lon="6.20158">
        <ele>2166.4682617188</ele>
        <time>2020-08-16T07:51:24Z</time>
      </trkpt>
      <trkpt lat="44.83845" lon="6.20165">
        <ele>2140.0322265625</ele>
        <time>2020-08-16T07:51:41Z</time>
      </trkpt>
      <trkpt lat="44.83831" lon="6.20176">
        <ele>2138.109375</ele>
        <time>2020-08-16T07:52:14Z</time>
      </trkpt>
      <trkpt lat="44.83825" lon="6.20183">
        <ele>2137.1479492188</ele>
        <time>2020-08-16T07:52:32Z</time>
      </trkpt>
      <trkpt lat="44.83824" lon="6.20185">
        <ele>2136.6672363281</ele>
        <time>2020-08-16T07:54:57Z</time>
      </trkpt>
      <trkpt lat="44.83827" lon="6.20175">
        <ele>2138.109375</ele>
        <time>2020-08-16T07:55:13Z</time>
      </trkpt>
      <trkpt lat="44.83827" lon="6.20165">
        <ele>2139.5512695312</ele>
        <time>2020-08-16T07:55:32Z</time>
      </trkpt>
      <trkpt lat="44.83828" lon="6.20152">
        <ele>2139.5512695312</ele>
        <time>2020-08-16T07:55:47Z</time>
      </trkpt>
      <trkpt lat="44.83828" lon="6.20139">
        <ele>2138.5900878906</ele>
        <time>2020-08-16T07:56:02Z</time>
      </trkpt>
      <trkpt lat="44.83827" lon="6.20137">
        <ele>2137.1479492188</ele>
        <time>2020-08-16T07:56:18Z</time>
      </trkpt>
      <trkpt lat="44.83818" lon="6.20145">
        <ele>2133.302734375</ele>
        <time>2020-08-16T07:56:37Z</time>
      </trkpt>
      <trkpt lat="44.83814" lon="6.20146">
        <ele>2131.3801269531</ele>
        <time>2020-08-16T07:56:53Z</time>
      </trkpt>
      <trkpt lat="44.83812" lon="6.20136">
        <ele>2128.4963378906</ele>
        <time>2020-08-16T07:57:11Z</time>
      </trkpt>
      <trkpt lat="44.83804" lon="6.20151">
        <ele>2125.1315917969</ele>
        <time>2020-08-16T07:57:30Z</time>
      </trkpt>
      <trkpt lat="44.83793" lon="6.20166">
        <ele>2123.208984375</ele>
        <time>2020-08-16T07:57:52Z</time>
      </trkpt>
      <trkpt lat="44.83786" lon="6.20179">
        <ele>2119.8442382812</ele>
        <time>2020-08-16T07:58:12Z</time>
      </trkpt>
      <trkpt lat="44.83783" lon="6.20173">
        <ele>2117.4409179688</ele>
        <time>2020-08-16T07:58:28Z</time>
      </trkpt>
      <trkpt lat="44.8378" lon="6.20164">
        <ele>2114.5571289062</ele>
        <time>2020-08-16T07:58:46Z</time>
      </trkpt>
      <trkpt lat="44.83778" lon="6.20157">
        <ele>2112.1538085938</ele>
        <time>2020-08-16T07:59:06Z</time>
      </trkpt>
      <trkpt lat="44.83767" lon="6.20164">
        <ele>2109.7504882812</ele>
        <time>2020-08-16T07:59:27Z</time>
      </trkpt>
      <trkpt lat="44.83763" lon="6.20173">
        <ele>2107.3471679688</ele>
        <time>2020-08-16T07:59:39Z</time>
      </trkpt>
      <trkpt lat="44.83755" lon="6.20199">
        <ele>2104.4631347656</ele>
        <time>2020-08-16T08:00:01Z</time>
      </trkpt>
      <trkpt lat="44.83742" lon="6.20209">
        <ele>2103.0212402344</ele>
        <time>2020-08-16T08:00:18Z</time>
      </trkpt>
      <trkpt lat="44.83729" lon="6.20219">
        <ele>2102.0598144531</ele>
        <time>2020-08-16T08:00:37Z</time>
      </trkpt>
      <trkpt lat="44.83726" lon="6.20227">
        <ele>2101.0986328125</ele>
        <time>2020-08-16T08:00:55Z</time>
      </trkpt>
      <trkpt lat="44.83719" lon="6.20232">
        <ele>2097.7341308594</ele>
        <time>2020-08-16T08:01:18Z</time>
      </trkpt>
      <trkpt lat="44.83717" lon="6.20226">
        <ele>2094.3693847656</ele>
        <time>2020-08-16T08:01:36Z</time>
      </trkpt>
      <trkpt lat="44.83714" lon="6.20217">
        <ele>2093.8889160156</ele>
        <time>2020-08-16T08:02:32Z</time>
      </trkpt>
      <trkpt lat="44.83711" lon="6.20202">
        <ele>2092.4470214844</ele>
        <time>2020-08-16T08:02:45Z</time>
      </trkpt>
      <trkpt lat="44.83712" lon="6.20188">
        <ele>2090.5239257812</ele>
        <time>2020-08-16T08:02:58Z</time>
      </trkpt>
      <trkpt lat="44.83717" lon="6.20176">
        <ele>2089.5627441406</ele>
        <time>2020-08-16T08:03:17Z</time>
      </trkpt>
      <trkpt lat="44.83719" lon="6.20165">
        <ele>2089.08203125</ele>
        <time>2020-08-16T08:03:37Z</time>
      </trkpt>
      <trkpt lat="44.8372" lon="6.20163">
        <ele>2088.1208496094</ele>
        <time>2020-08-16T08:03:40Z</time>
      </trkpt>
      <trkpt lat="44.83726" lon="6.20155">
        <ele>2089.5627441406</ele>
        <time>2020-08-16T08:03:54Z</time>
      </trkpt>
      <trkpt lat="44.83726" lon="6.20146">
        <ele>2089.08203125</ele>
        <time>2020-08-16T08:04:12Z</time>
      </trkpt>
      <trkpt lat="44.83728" lon="6.20136">
        <ele>2088.1208496094</ele>
        <time>2020-08-16T08:04:26Z</time>
      </trkpt>
      <trkpt lat="44.83729" lon="6.20127">
        <ele>2086.6787109375</ele>
        <time>2020-08-16T08:04:43Z</time>
      </trkpt>
      <trkpt lat="44.8373" lon="6.20123">
        <ele>2084.7563476562</ele>
        <time>2020-08-16T08:05:03Z</time>
      </trkpt>
      <trkpt lat="44.83732" lon="6.20115">
        <ele>2084.2756347656</ele>
        <time>2020-08-16T08:05:17Z</time>
      </trkpt>
      <trkpt lat="44.83732" lon="6.20113">
        <ele>2084.7563476562</ele>
        <time>2020-08-16T08:05:19Z</time>
      </trkpt>
      <trkpt lat="44.83732" lon="6.20092">
        <ele>2082.3530273438</ele>
        <time>2020-08-16T08:05:38Z</time>
      </trkpt>
      <trkpt lat="44.83733" lon="6.20083">
        <ele>2078.0270996094</ele>
        <time>2020-08-16T08:05:57Z</time>
      </trkpt>
      <trkpt lat="44.83737" lon="6.2007">
        <ele>2076.5852050781</ele>
        <time>2020-08-16T08:06:17Z</time>
      </trkpt>
      <trkpt lat="44.83744" lon="6.20066">
        <ele>2073.2204589844</ele>
        <time>2020-08-16T08:06:36Z</time>
      </trkpt>
      <trkpt lat="44.83748" lon="6.20059">
        <ele>2070.3364257812</ele>
        <time>2020-08-16T08:06:52Z</time>
      </trkpt>
      <trkpt lat="44.83749" lon="6.20054">
        <ele>2067.9331054688</ele>
        <time>2020-08-16T08:07:10Z</time>
      </trkpt>
      <trkpt lat="44.8375" lon="6.20051">
        <ele>2067.9331054688</ele>
        <time>2020-08-16T08:07:12Z</time>
      </trkpt>
      <trkpt lat="44.83743" lon="6.2005">
        <ele>2068.89453125</ele>
        <time>2020-08-16T08:07:27Z</time>
      </trkpt>
      <trkpt lat="44.83736" lon="6.20047">
        <ele>2068.89453125</ele>
        <time>2020-08-16T08:07:47Z</time>
      </trkpt>
      <trkpt lat="44.83731" lon="6.20039">
        <ele>2067.4523925781</ele>
        <time>2020-08-16T08:08:05Z</time>
      </trkpt>
      <trkpt lat="44.83726" lon="6.20043">
        <ele>2067.4523925781</ele>
        <time>2020-08-16T08:08:24Z</time>
      </trkpt>
      <trkpt lat="44.83718" lon="6.20051">
        <ele>2066.9719238281</ele>
        <time>2020-08-16T08:08:43Z</time>
      </trkpt>
      <trkpt lat="44.83711" lon="6.20057">
        <ele>2066.4912109375</ele>
        <time>2020-08-16T08:09:00Z</time>
      </trkpt>
      <trkpt lat="44.83706" lon="6.20059">
        <ele>2064.087890625</ele>
        <time>2020-08-16T08:09:16Z</time>
      </trkpt>
      <trkpt lat="44.83697" lon="6.20067">
        <ele>2060.7233886719</ele>
        <time>2020-08-16T08:09:36Z</time>
      </trkpt>
      <trkpt lat="44.83679" lon="6.20077">
        <ele>2058.3198242188</ele>
        <time>2020-08-16T08:10:00Z</time>
      </trkpt>
      <trkpt lat="44.8367" lon="6.20084">
        <ele>2058.8005371094</ele>
        <time>2020-08-16T08:10:17Z</time>
      </trkpt>
      <trkpt lat="44.83659" lon="6.20091">
        <ele>2056.8779296875</ele>
        <time>2020-08-16T08:10:37Z</time>
      </trkpt>
      <trkpt lat="44.83653" lon="6.20105">
        <ele>2053.994140625</ele>
        <time>2020-08-16T08:10:54Z</time>
      </trkpt>
      <trkpt lat="44.8365" lon="6.2011">
        <ele>2049.6682128906</ele>
        <time>2020-08-16T08:11:10Z</time>
      </trkpt>
      <trkpt lat="44.8365" lon="6.2011">
        <ele>2049.1875</ele>
        <time>2020-08-16T08:13:13Z</time>
      </trkpt>
      <trkpt lat="44.83657" lon="6.20122">
        <ele>2044.380859375</ele>
        <time>2020-08-16T08:16:30Z</time>
      </trkpt>
      <trkpt lat="44.83652" lon="6.20116">
        <ele>2042.4582519531</ele>
        <time>2020-08-16T08:21:27Z</time>
      </trkpt>
      <trkpt lat="44.83643" lon="6.20113">
        <ele>2041.0161132812</ele>
        <time>2020-08-16T08:21:50Z</time>
      </trkpt>
      <trkpt lat="44.83636" lon="6.20111">
        <ele>2040.5354003906</ele>
        <time>2020-08-16T08:22:05Z</time>
      </trkpt>
      <trkpt lat="44.83634" lon="6.20113">
        <ele>2039.0935058594</ele>
        <time>2020-08-16T08:22:43Z</time>
      </trkpt>
      <trkpt lat="44.83631" lon="6.20128">
        <ele>2041.0161132812</ele>
        <time>2020-08-16T08:22:59Z</time>
      </trkpt>
      <trkpt lat="44.83627" lon="6.20133">
        <ele>2041.0161132812</ele>
        <time>2020-08-16T08:23:15Z</time>
      </trkpt>
      <trkpt lat="44.83625" lon="6.2014">
        <ele>2042.4582519531</ele>
        <time>2020-08-16T08:23:32Z</time>
      </trkpt>
      <trkpt lat="44.83618" lon="6.20155">
        <ele>2039.0935058594</ele>
        <time>2020-08-16T08:23:56Z</time>
      </trkpt>
      <trkpt lat="44.83608" lon="6.20156">
        <ele>2034.287109375</ele>
        <time>2020-08-16T08:24:14Z</time>
      </trkpt>
      <trkpt lat="44.83596" lon="6.20153">
        <ele>2029.48046875</ele>
        <time>2020-08-16T08:24:32Z</time>
      </trkpt>
      <trkpt lat="44.836" lon="6.20142">
        <ele>2026.1157226562</ele>
        <time>2020-08-16T08:24:51Z</time>
      </trkpt>
      <trkpt lat="44.83605" lon="6.20134">
        <ele>2024.1931152344</ele>
        <time>2020-08-16T08:25:05Z</time>
      </trkpt>
      <trkpt lat="44.83603" lon="6.20125">
        <ele>2020.8286132812</ele>
        <time>2020-08-16T08:25:23Z</time>
      </trkpt>
      <trkpt lat="44.83601" lon="6.20112">
        <ele>2017.4638671875</ele>
        <time>2020-08-16T08:25:42Z</time>
      </trkpt>
      <trkpt lat="44.83596" lon="6.20104">
        <ele>2015.0607910156</ele>
        <time>2020-08-16T08:26:14Z</time>
      </trkpt>
      <trkpt lat="44.8359" lon="6.20108">
        <ele>2012.6574707031</ele>
        <time>2020-08-16T08:26:33Z</time>
      </trkpt>
      <trkpt lat="44.83584" lon="6.20105">
        <ele>2007.8508300781</ele>
        <time>2020-08-16T08:27:03Z</time>
      </trkpt>
      <trkpt lat="44.83587" lon="6.20095">
        <ele>2005.4475097656</ele>
        <time>2020-08-16T08:27:19Z</time>
      </trkpt>
      <trkpt lat="44.83578" lon="6.20098">
        <ele>2005.4475097656</ele>
        <time>2020-08-16T08:27:36Z</time>
      </trkpt>
      <trkpt lat="44.83577" lon="6.20099">
        <ele>2003.5249023438</ele>
        <time>2020-08-16T08:27:52Z</time>
      </trkpt>
      <trkpt lat="44.83578" lon="6.20097">
        <ele>2003.0441894531</ele>
        <time>2020-08-16T08:27:53Z</time>
      </trkpt>
      <trkpt lat="44.83584" lon="6.20075">
        <ele>1997.2763671875</ele>
        <time>2020-08-16T08:28:11Z</time>
      </trkpt>
      <trkpt lat="44.83582" lon="6.20068">
        <ele>1995.353515625</ele>
        <time>2020-08-16T08:28:25Z</time>
      </trkpt>
      <trkpt lat="44.83573" lon="6.20073">
        <ele>1994.8728027344</ele>
        <time>2020-08-16T08:28:48Z</time>
      </trkpt>
      <trkpt lat="44.83561" lon="6.20076">
        <ele>1990.06640625</ele>
        <time>2020-08-16T08:29:17Z</time>
      </trkpt>
      <trkpt lat="44.83559" lon="6.20075">
        <ele>1989.1049804688</ele>
        <time>2020-08-16T08:29:31Z</time>
      </trkpt>
      <trkpt lat="44.83552" lon="6.20074">
        <ele>1988.1437988281</ele>
        <time>2020-08-16T08:29:47Z</time>
      </trkpt>
      <trkpt lat="44.8355" lon="6.2008">
        <ele>1985.7404785156</ele>
        <time>2020-08-16T08:30:08Z</time>
      </trkpt>
      <trkpt lat="44.83539" lon="6.20081">
        <ele>1982.8564453125</ele>
        <time>2020-08-16T08:30:26Z</time>
      </trkpt>
      <trkpt lat="44.83532" lon="6.20089">
        <ele>1980.4533691406</ele>
        <time>2020-08-16T08:30:46Z</time>
      </trkpt>
      <trkpt lat="44.83528" lon="6.20085">
        <ele>1979.0109863281</ele>
        <time>2020-08-16T08:31:04Z</time>
      </trkpt>
      <trkpt lat="44.8353" lon="6.2008">
        <ele>1978.5305175781</ele>
        <time>2020-08-16T08:31:35Z</time>
      </trkpt>
      <trkpt lat="44.83532" lon="6.20067">
        <ele>1976.1271972656</ele>
        <time>2020-08-16T08:31:51Z</time>
      </trkpt>
      <trkpt lat="44.83531" lon="6.20058">
        <ele>1974.2045898438</ele>
        <time>2020-08-16T08:32:07Z</time>
      </trkpt>
      <trkpt lat="44.83529" lon="6.20055">
        <ele>1974.2045898438</ele>
        <time>2020-08-16T08:32:30Z</time>
      </trkpt>
      <trkpt lat="44.83531" lon="6.20047">
        <ele>1974.2045898438</ele>
        <time>2020-08-16T08:32:48Z</time>
      </trkpt>
      <trkpt lat="44.83529" lon="6.20041">
        <ele>1974.2045898438</ele>
        <time>2020-08-16T08:33:06Z</time>
      </trkpt>
      <trkpt lat="44.83523" lon="6.20041">
        <ele>1974.6853027344</ele>
        <time>2020-08-16T08:33:24Z</time>
      </trkpt>
      <trkpt lat="44.83522" lon="6.20044">
        <ele>1974.6853027344</ele>
        <time>2020-08-16T08:33:48Z</time>
      </trkpt>
      <trkpt lat="44.83512" lon="6.2005">
        <ele>1970.8400878906</ele>
        <time>2020-08-16T08:34:18Z</time>
      </trkpt>
      <trkpt lat="44.83506" lon="6.20054">
        <ele>1969.3981933594</ele>
        <time>2020-08-16T08:34:41Z</time>
      </trkpt>
      <trkpt lat="44.835" lon="6.20064">
        <ele>1967.4753417969</ele>
        <time>2020-08-16T08:35:44Z</time>
      </trkpt>
      <trkpt lat="44.83491" lon="6.20071">
        <ele>1966.0334472656</ele>
        <time>2020-08-16T08:36:05Z</time>
      </trkpt>
      <trkpt lat="44.83486" lon="6.20067">
        <ele>1965.5529785156</ele>
        <time>2020-08-16T08:36:25Z</time>
      </trkpt>
      <trkpt lat="44.83486" lon="6.20065">
        <ele>1964.5915527344</ele>
        <time>2020-08-16T08:36:53Z</time>
      </trkpt>
      <trkpt lat="44.83489" lon="6.20061">
        <ele>1962.1879882812</ele>
        <time>2020-08-16T08:37:15Z</time>
      </trkpt>
      <trkpt lat="44.83488" lon="6.20055">
        <ele>1958.3427734375</ele>
        <time>2020-08-16T08:37:31Z</time>
      </trkpt>
      <trkpt lat="44.83485" lon="6.20041">
        <ele>1956.4201660156</ele>
        <time>2020-08-16T08:37:52Z</time>
      </trkpt>
      <trkpt lat="44.83483" lon="6.20035">
        <ele>1955.458984375</ele>
        <time>2020-08-16T08:38:06Z</time>
      </trkpt>
      <trkpt lat="44.83478" lon="6.2003">
        <ele>1953.0556640625</ele>
        <time>2020-08-16T08:38:24Z</time>
      </trkpt>
      <trkpt lat="44.83472" lon="6.20025">
        <ele>1951.1330566406</ele>
        <time>2020-08-16T08:38:54Z</time>
      </trkpt>
      <trkpt lat="44.83464" lon="6.20018">
        <ele>1949.6911621094</ele>
        <time>2020-08-16T08:39:16Z</time>
      </trkpt>
      <trkpt lat="44.83461" lon="6.20009">
        <ele>1946.3264160156</ele>
        <time>2020-08-16T08:39:40Z</time>
      </trkpt>
      <trkpt lat="44.83461" lon="6.19993">
        <ele>1941.0390625</ele>
        <time>2020-08-16T08:42:00Z</time>
      </trkpt>
      <trkpt lat="44.83466" lon="6.19976">
        <ele>1936.2326660156</ele>
        <time>2020-08-16T08:42:52Z</time>
      </trkpt>
      <trkpt lat="44.83469" lon="6.19963">
        <ele>1932.3874511719</ele>
        <time>2020-08-16T08:43:15Z</time>
      </trkpt>
      <trkpt lat="44.83461" lon="6.19966">
        <ele>1930.9453125</ele>
        <time>2020-08-16T08:43:36Z</time>
      </trkpt>
      <trkpt lat="44.83458" lon="6.19968">
        <ele>1929.9838867188</ele>
        <time>2020-08-16T08:44:00Z</time>
      </trkpt>
      <trkpt lat="44.83462" lon="6.19952">
        <ele>1928.5419921875</ele>
        <time>2020-08-16T08:44:19Z</time>
      </trkpt>
      <trkpt lat="44.83465" lon="6.1995">
        <ele>1927.1000976562</ele>
        <time>2020-08-16T08:44:33Z</time>
      </trkpt>
      <trkpt lat="44.83477" lon="6.19938">
        <ele>1922.7741699219</ele>
        <time>2020-08-16T08:45:01Z</time>
      </trkpt>
      <trkpt lat="44.8348" lon="6.19917">
        <ele>1918.4482421875</ele>
        <time>2020-08-16T08:45:30Z</time>
      </trkpt>
      <trkpt lat="44.83484" lon="6.19904">
        <ele>1916.5256347656</ele>
        <time>2020-08-16T08:45:42Z</time>
      </trkpt>
      <trkpt lat="44.83483" lon="6.19897">
        <ele>1916.044921875</ele>
        <time>2020-08-16T08:45:45Z</time>
      </trkpt>
      <trkpt lat="44.83486" lon="6.19886">
        <ele>1915.5642089844</ele>
        <time>2020-08-16T08:46:01Z</time>
      </trkpt>
      <trkpt lat="44.83494" lon="6.19879">
        <ele>1911.7189941406</ele>
        <time>2020-08-16T08:46:23Z</time>
      </trkpt>
      <trkpt lat="44.83498" lon="6.1987">
        <ele>1909.3156738281</ele>
        <time>2020-08-16T08:46:41Z</time>
      </trkpt>
      <trkpt lat="44.83504" lon="6.19862">
        <ele>1906.9123535156</ele>
        <time>2020-08-16T08:46:58Z</time>
      </trkpt>
      <trkpt lat="44.83498" lon="6.19859">
        <ele>1901.14453125</ele>
        <time>2020-08-16T08:47:19Z</time>
      </trkpt>
      <trkpt lat="44.8349" lon="6.19852">
        <ele>1897.7797851562</ele>
        <time>2020-08-16T08:47:47Z</time>
      </trkpt>
      <trkpt lat="44.83479" lon="6.19852">
        <ele>1894.8957519531</ele>
        <time>2020-08-16T08:48:50Z</time>
      </trkpt>
      <trkpt lat="44.83476" lon="6.19854">
        <ele>1894.4150390625</ele>
        <time>2020-08-16T08:49:24Z</time>
      </trkpt>
      <trkpt lat="44.83477" lon="6.19844">
        <ele>1893.9345703125</ele>
        <time>2020-08-16T08:49:41Z</time>
      </trkpt>
      <trkpt lat="44.83484" lon="6.19843">
        <ele>1892.0119628906</ele>
        <time>2020-08-16T08:50:08Z</time>
      </trkpt>
      <trkpt lat="44.83498" lon="6.19835">
        <ele>1891.0505371094</ele>
        <time>2020-08-16T08:50:37Z</time>
      </trkpt>
      <trkpt lat="44.83498" lon="6.19827">
        <ele>1890.5698242188</ele>
        <time>2020-08-16T08:51:05Z</time>
      </trkpt>
      <trkpt lat="44.8349" lon="6.19815">
        <ele>1889.6086425781</ele>
        <time>2020-08-16T08:52:29Z</time>
      </trkpt>
      <trkpt lat="44.83477" lon="6.19804">
        <ele>1889.6086425781</ele>
        <time>2020-08-16T08:52:48Z</time>
      </trkpt>
      <trkpt lat="44.83475" lon="6.19804">
        <ele>1889.6086425781</ele>
        <time>2020-08-16T08:53:09Z</time>
      </trkpt>
      <trkpt lat="44.8346" lon="6.19786">
        <ele>1888.1667480469</ele>
        <time>2020-08-16T08:54:11Z</time>
      </trkpt>
      <trkpt lat="44.83447" lon="6.19768">
        <ele>1885.2827148438</ele>
        <time>2020-08-16T08:54:32Z</time>
      </trkpt>
      <trkpt lat="44.83444" lon="6.19763">
        <ele>1883.8405761719</ele>
        <time>2020-08-16T08:54:46Z</time>
      </trkpt>
      <trkpt lat="44.83443" lon="6.1976">
        <ele>1882.8791503906</ele>
        <time>2020-08-16T08:55:03Z</time>
      </trkpt>
      <trkpt lat="44.83436" lon="6.19753">
        <ele>1880.9567871094</ele>
        <time>2020-08-16T08:55:18Z</time>
      </trkpt>
      <trkpt lat="44.83436" lon="6.1975">
        <ele>1880.4760742188</ele>
        <time>2020-08-16T08:55:22Z</time>
      </trkpt>
      <trkpt lat="44.83445" lon="6.19732">
        <ele>1879.9953613281</ele>
        <time>2020-08-16T08:55:40Z</time>
      </trkpt>
      <trkpt lat="44.83447" lon="6.19718">
        <ele>1878.5534667969</ele>
        <time>2020-08-16T08:56:02Z</time>
      </trkpt>
      <trkpt lat="44.8344" lon="6.19722">
        <ele>1877.5920410156</ele>
        <time>2020-08-16T08:56:22Z</time>
      </trkpt>
      <trkpt lat="44.83431" lon="6.19727">
        <ele>1881.4372558594</ele>
        <time>2020-08-16T08:56:50Z</time>
      </trkpt>
      <trkpt lat="44.8342" lon="6.19731">
        <ele>1882.8791503906</ele>
        <time>2020-08-16T08:57:04Z</time>
      </trkpt>
      <trkpt lat="44.83409" lon="6.19723">
        <ele>1884.3215332031</ele>
        <time>2020-08-16T08:57:18Z</time>
      </trkpt>
      <trkpt lat="44.83419" lon="6.19723">
        <ele>1886.244140625</ele>
        <time>2020-08-16T08:57:37Z</time>
      </trkpt>
      <trkpt lat="44.83422" lon="6.19715">
        <ele>1887.6860351562</ele>
        <time>2020-08-16T08:57:56Z</time>
      </trkpt>
      <trkpt lat="44.8343" lon="6.19702">
        <ele>1888.1667480469</ele>
        <time>2020-08-16T08:58:11Z</time>
      </trkpt>
      <trkpt lat="44.83431" lon="6.1969">
        <ele>1888.6474609375</ele>
        <time>2020-08-16T08:58:24Z</time>
      </trkpt>
      <trkpt lat="44.83435" lon="6.19687">
        <ele>1888.6474609375</ele>
        <time>2020-08-16T08:58:26Z</time>
      </trkpt>
      <trkpt lat="44.83438" lon="6.19678">
        <ele>1888.6474609375</ele>
        <time>2020-08-16T08:58:34Z</time>
      </trkpt>
      <trkpt lat="44.83439" lon="6.19675">
        <ele>1889.1279296875</ele>
        <time>2020-08-16T08:58:38Z</time>
      </trkpt>
      <trkpt lat="44.83443" lon="6.19668">
        <ele>1888.6474609375</ele>
        <time>2020-08-16T08:58:50Z</time>
      </trkpt>
      <trkpt lat="44.83442" lon="6.19666">
        <ele>1889.6086425781</ele>
        <time>2020-08-16T08:59:17Z</time>
      </trkpt>
      <trkpt lat="44.83445" lon="6.19657">
        <ele>1891.0505371094</ele>
        <time>2020-08-16T08:59:38Z</time>
      </trkpt>
      <trkpt lat="44.83441" lon="6.1965">
        <ele>1894.4150390625</ele>
        <time>2020-08-16T09:00:05Z</time>
      </trkpt>
      <trkpt lat="44.83435" lon="6.19638">
        <ele>1897.7797851562</ele>
        <time>2020-08-16T09:00:34Z</time>
      </trkpt>
      <trkpt lat="44.83428" lon="6.19624">
        <ele>1901.14453125</ele>
        <time>2020-08-16T09:01:02Z</time>
      </trkpt>
      <trkpt lat="44.83424" lon="6.19615">
        <ele>1904.0285644531</ele>
        <time>2020-08-16T09:01:27Z</time>
      </trkpt>
      <trkpt lat="44.83425" lon="6.1961">
        <ele>1906.431640625</ele>
        <time>2020-08-16T09:01:47Z</time>
      </trkpt>
      <trkpt lat="44.83418" lon="6.19611">
        <ele>1906.9123535156</ele>
        <time>2020-08-16T09:02:05Z</time>
      </trkpt>
      <trkpt lat="44.83415" lon="6.19607">
        <ele>1906.431640625</ele>
        <time>2020-08-16T09:03:04Z</time>
      </trkpt>
      <trkpt lat="44.83418" lon="6.19593">
        <ele>1890.0893554688</ele>
        <time>2020-08-16T09:09:46Z</time>
      </trkpt>
      <trkpt lat="44.83414" lon="6.19584">
        <ele>1886.244140625</ele>
        <time>2020-08-16T09:10:39Z</time>
      </trkpt>
      <trkpt lat="44.83407" lon="6.19578">
        <ele>1869.9016113281</ele>
        <time>2020-08-16T09:11:08Z</time>
      </trkpt>
      <trkpt lat="44.83401" lon="6.19567">
        <ele>1852.5979003906</ele>
        <time>2020-08-16T09:12:01Z</time>
      </trkpt>
      <trkpt lat="44.83397" lon="6.19572">
        <ele>1834.8134765625</ele>
        <time>2020-08-16T09:12:36Z</time>
      </trkpt>
      <trkpt lat="44.834" lon="6.19582">
        <ele>1823.7583007812</ele>
        <time>2020-08-16T09:13:04Z</time>
      </trkpt>
      <trkpt lat="44.83397" lon="6.19601">
        <ele>1811.2612304688</ele>
        <time>2020-08-16T09:14:16Z</time>
      </trkpt>
      <trkpt lat="44.83391" lon="6.1961">
        <ele>1808.8579101562</ele>
        <time>2020-08-16T09:14:40Z</time>
      </trkpt>
      <trkpt lat="44.83386" lon="6.19623">
        <ele>1807.8967285156</ele>
        <time>2020-08-16T09:15:01Z</time>
      </trkpt>
      <trkpt lat="44.83384" lon="6.19636">
        <ele>1808.3771972656</ele>
        <time>2020-08-16T09:15:27Z</time>
      </trkpt>
      <trkpt lat="44.83381" lon="6.1964">
        <ele>1807.8967285156</ele>
        <time>2020-08-16T09:15:47Z</time>
      </trkpt>
      <trkpt lat="44.83369" lon="6.19649">
        <ele>1802.1284179688</ele>
        <time>2020-08-16T09:16:12Z</time>
      </trkpt>
      <trkpt lat="44.8337" lon="6.19649">
        <ele>1794.9187011719</ele>
        <time>2020-08-16T09:16:40Z</time>
      </trkpt>
      <trkpt lat="44.83373" lon="6.19637">
        <ele>1793.4768066406</ele>
        <time>2020-08-16T09:16:57Z</time>
      </trkpt>
      <trkpt lat="44.83367" lon="6.19639">
        <ele>1792.0349121094</ele>
        <time>2020-08-16T09:17:14Z</time>
      </trkpt>
      <trkpt lat="44.83363" lon="6.19633">
        <ele>1791.0734863281</ele>
        <time>2020-08-16T09:17:31Z</time>
      </trkpt>
      <trkpt lat="44.83365" lon="6.19625">
        <ele>1789.1508789062</ele>
        <time>2020-08-16T09:17:59Z</time>
      </trkpt>
      <trkpt lat="44.83357" lon="6.19628">
        <ele>1787.2280273438</ele>
        <time>2020-08-16T09:18:25Z</time>
      </trkpt>
      <trkpt lat="44.83353" lon="6.19634">
        <ele>1786.7473144531</ele>
        <time>2020-08-16T09:18:51Z</time>
      </trkpt>
      <trkpt lat="44.83347" lon="6.19635">
        <ele>1786.2668457031</ele>
        <time>2020-08-16T09:19:08Z</time>
      </trkpt>
      <trkpt lat="44.8334" lon="6.1964">
        <ele>1786.2668457031</ele>
        <time>2020-08-16T09:19:25Z</time>
      </trkpt>
      <trkpt lat="44.83342" lon="6.19629">
        <ele>1783.8635253906</ele>
        <time>2020-08-16T09:19:41Z</time>
      </trkpt>
      <trkpt lat="44.83343" lon="6.19611">
        <ele>1779.5375976562</ele>
        <time>2020-08-16T09:20:10Z</time>
      </trkpt>
      <trkpt lat="44.8335" lon="6.19607">
        <ele>1776.1730957031</ele>
        <time>2020-08-16T09:20:26Z</time>
      </trkpt>
      <trkpt lat="44.83356" lon="6.19599">
        <ele>1774.7312011719</ele>
        <time>2020-08-16T09:20:47Z</time>
      </trkpt>
      <trkpt lat="44.8336" lon="6.19588">
        <ele>1772.3278808594</ele>
        <time>2020-08-16T09:21:20Z</time>
      </trkpt>
      <trkpt lat="44.83366" lon="6.1957">
        <ele>1770.8857421875</ele>
        <time>2020-08-16T09:21:41Z</time>
      </trkpt>
      <trkpt lat="44.83365" lon="6.19553">
        <ele>1769.9243164062</ele>
        <time>2020-08-16T09:22:01Z</time>
      </trkpt>
      <trkpt lat="44.83367" lon="6.19545">
        <ele>1768.0017089844</ele>
        <time>2020-08-16T09:22:24Z</time>
      </trkpt>
      <trkpt lat="44.83366" lon="6.19534">
        <ele>1768.482421875</ele>
        <time>2020-08-16T09:22:41Z</time>
      </trkpt>
      <trkpt lat="44.83365" lon="6.19526">
        <ele>1768.9631347656</ele>
        <time>2020-08-16T09:22:58Z</time>
      </trkpt>
      <trkpt lat="44.83362" lon="6.19515">
        <ele>1769.9243164062</ele>
        <time>2020-08-16T09:23:21Z</time>
      </trkpt>
      <trkpt lat="44.83356" lon="6.19506">
        <ele>1769.9243164062</ele>
        <time>2020-08-16T09:23:35Z</time>
      </trkpt>
      <trkpt lat="44.83361" lon="6.19496">
        <ele>1768.482421875</ele>
        <time>2020-08-16T09:23:54Z</time>
      </trkpt>
      <trkpt lat="44.8336" lon="6.1948">
        <ele>1766.5598144531</ele>
        <time>2020-08-16T09:24:14Z</time>
      </trkpt>
      <trkpt lat="44.83352" lon="6.1947">
        <ele>1761.7534179688</ele>
        <time>2020-08-16T09:24:29Z</time>
      </trkpt>
      <trkpt lat="44.83344" lon="6.1946">
        <ele>1755.5046386719</ele>
        <time>2020-08-16T09:25:04Z</time>
      </trkpt>
      <trkpt lat="44.83337" lon="6.19455">
        <ele>1746.8527832031</ele>
        <time>2020-08-16T09:25:39Z</time>
      </trkpt>
      <trkpt lat="44.83339" lon="6.19461">
        <ele>1741.5656738281</ele>
        <time>2020-08-16T09:26:12Z</time>
      </trkpt>
      <trkpt lat="44.83337" lon="6.19475">
        <ele>1742.0463867188</ele>
        <time>2020-08-16T09:26:33Z</time>
      </trkpt>
      <trkpt lat="44.83336" lon="6.1948">
        <ele>1742.0463867188</ele>
        <time>2020-08-16T09:26:37Z</time>
      </trkpt>
      <trkpt lat="44.8333" lon="6.19506">
        <ele>1741.0849609375</ele>
        <time>2020-08-16T09:26:55Z</time>
      </trkpt>
      <trkpt lat="44.83323" lon="6.19523">
        <ele>1738.681640625</ele>
        <time>2020-08-16T09:27:11Z</time>
      </trkpt>
      <trkpt lat="44.83325" lon="6.19513">
        <ele>1735.3168945312</ele>
        <time>2020-08-16T09:27:34Z</time>
      </trkpt>
      <trkpt lat="44.83327" lon="6.19495">
        <ele>1730.9912109375</ele>
        <time>2020-08-16T09:28:06Z</time>
      </trkpt>
      <trkpt lat="44.83326" lon="6.19491">
        <ele>1729.068359375</ele>
        <time>2020-08-16T09:28:25Z</time>
      </trkpt>
      <trkpt lat="44.83319" lon="6.19479">
        <ele>1724.2619628906</ele>
        <time>2020-08-16T09:28:44Z</time>
      </trkpt>
      <trkpt lat="44.83316" lon="6.19472">
        <ele>1721.3776855469</ele>
        <time>2020-08-16T09:29:09Z</time>
      </trkpt>
      <trkpt lat="44.83305" lon="6.19464">
        <ele>1717.0520019531</ele>
        <time>2020-08-16T09:29:40Z</time>
      </trkpt>
      <trkpt lat="44.833" lon="6.19458">
        <ele>1714.16796875</ele>
        <time>2020-08-16T09:30:17Z</time>
      </trkpt>
      <trkpt lat="44.83293" lon="6.19449">
        <ele>1712.2453613281</ele>
        <time>2020-08-16T09:30:32Z</time>
      </trkpt>
      <trkpt lat="44.83294" lon="6.19442">
        <ele>1708.4001464844</ele>
        <time>2020-08-16T09:30:58Z</time>
      </trkpt>
      <trkpt lat="44.83285" lon="6.19448">
        <ele>1707.4387207031</ele>
        <time>2020-08-16T09:31:35Z</time>
      </trkpt>
      <trkpt lat="44.8328" lon="6.19458">
        <ele>1707.9194335938</ele>
        <time>2020-08-16T09:31:50Z</time>
      </trkpt>
      <trkpt lat="44.83276" lon="6.19462">
        <ele>1708.880859375</ele>
        <time>2020-08-16T09:32:03Z</time>
      </trkpt>
      <trkpt lat="44.8328" lon="6.19465">
        <ele>1706.9580078125</ele>
        <time>2020-08-16T09:32:18Z</time>
      </trkpt>
      <trkpt lat="44.8328" lon="6.19465">
        <ele>1706.4772949219</ele>
        <time>2020-08-16T09:32:48Z</time>
      </trkpt>
      <trkpt lat="44.83287" lon="6.1947">
        <ele>1707.9194335938</ele>
        <time>2020-08-16T09:33:03Z</time>
      </trkpt>
      <trkpt lat="44.8329" lon="6.19485">
        <ele>1705.9965820312</ele>
        <time>2020-08-16T09:33:18Z</time>
      </trkpt>
      <trkpt lat="44.83287" lon="6.19495">
        <ele>1704.07421875</ele>
        <time>2020-08-16T09:33:43Z</time>
      </trkpt>
      <trkpt lat="44.83286" lon="6.19505">
        <ele>1701.6708984375</ele>
        <time>2020-08-16T09:34:10Z</time>
      </trkpt>
      <trkpt lat="44.83279" lon="6.19514">
        <ele>1700.7094726562</ele>
        <time>2020-08-16T09:34:24Z</time>
      </trkpt>
      <trkpt lat="44.8328" lon="6.19512">
        <ele>1696.3837890625</ele>
        <time>2020-08-16T09:34:42Z</time>
      </trkpt>
      <trkpt lat="44.83283" lon="6.19506">
        <ele>1692.0578613281</ele>
        <time>2020-08-16T09:35:06Z</time>
      </trkpt>
      <trkpt lat="44.83278" lon="6.19501">
        <ele>1687.7316894531</ele>
        <time>2020-08-16T09:35:24Z</time>
      </trkpt>
      <trkpt lat="44.83274" lon="6.19498">
        <ele>1686.7702636719</ele>
        <time>2020-08-16T09:35:42Z</time>
      </trkpt>
      <trkpt lat="44.83271" lon="6.19502">
        <ele>1685.3283691406</ele>
        <time>2020-08-16T09:36:18Z</time>
      </trkpt>
      <trkpt lat="44.83265" lon="6.19505">
        <ele>1686.2897949219</ele>
        <time>2020-08-16T09:41:31Z</time>
      </trkpt>
      <trkpt lat="44.8326" lon="6.19501">
        <ele>1683.4057617188</ele>
        <time>2020-08-16T09:41:46Z</time>
      </trkpt>
      <trkpt lat="44.8326" lon="6.19499">
        <ele>1681.0026855469</ele>
        <time>2020-08-16T09:42:05Z</time>
      </trkpt>
      <trkpt lat="44.83253" lon="6.1949">
        <ele>1679.0798339844</ele>
        <time>2020-08-16T09:42:49Z</time>
      </trkpt>
      <trkpt lat="44.8325" lon="6.1949">
        <ele>1677.6379394531</ele>
        <time>2020-08-16T09:43:22Z</time>
      </trkpt>
      <trkpt lat="44.83245" lon="6.19492">
        <ele>1678.1186523438</ele>
        <time>2020-08-16T09:43:46Z</time>
      </trkpt>
      <trkpt lat="44.8324" lon="6.19492">
        <ele>1677.1574707031</ele>
        <time>2020-08-16T09:44:03Z</time>
      </trkpt>
      <trkpt lat="44.83235" lon="6.19489">
        <ele>1675.234375</ele>
        <time>2020-08-16T09:44:29Z</time>
      </trkpt>
      <trkpt lat="44.8323" lon="6.19486">
        <ele>1673.3120117188</ele>
        <time>2020-08-16T09:45:02Z</time>
      </trkpt>
      <trkpt lat="44.83225" lon="6.19487">
        <ele>1672.8312988281</ele>
        <time>2020-08-16T09:45:31Z</time>
      </trkpt>
      <trkpt lat="44.83221" lon="6.19485">
        <ele>1672.3505859375</ele>
        <time>2020-08-16T09:45:44Z</time>
      </trkpt>
      <trkpt lat="44.83219" lon="6.19484">
        <ele>1670.4279785156</ele>
        <time>2020-08-16T09:45:57Z</time>
      </trkpt>
      <trkpt lat="44.83216" lon="6.19495">
        <ele>1666.1020507812</ele>
        <time>2020-08-16T09:46:20Z</time>
      </trkpt>
      <trkpt lat="44.83215" lon="6.19506">
        <ele>1663.2182617188</ele>
        <time>2020-08-16T09:46:39Z</time>
      </trkpt>
      <trkpt lat="44.83209" lon="6.19522">
        <ele>1658.8920898438</ele>
        <time>2020-08-16T09:47:02Z</time>
      </trkpt>
      <trkpt lat="44.83205" lon="6.19537">
        <ele>1657.4501953125</ele>
        <time>2020-08-16T09:47:24Z</time>
      </trkpt>
      <trkpt lat="44.83205" lon="6.19552">
        <ele>1652.6435546875</ele>
        <time>2020-08-16T09:47:38Z</time>
      </trkpt>
      <trkpt lat="44.83211" lon="6.19561">
        <ele>1647.8371582031</ele>
        <time>2020-08-16T09:47:54Z</time>
      </trkpt>
      <trkpt lat="44.83208" lon="6.19567">
        <ele>1644.953125</ele>
        <time>2020-08-16T09:48:10Z</time>
      </trkpt>
      <trkpt lat="44.83208" lon="6.19572">
        <ele>1643.9916992188</ele>
        <time>2020-08-16T09:48:17Z</time>
      </trkpt>
      <trkpt lat="44.83208" lon="6.19582">
        <ele>1642.0690917969</ele>
        <time>2020-08-16T09:48:30Z</time>
      </trkpt>
      <trkpt lat="44.83205" lon="6.1959">
        <ele>1643.0302734375</ele>
        <time>2020-08-16T09:48:43Z</time>
      </trkpt>
      <trkpt lat="44.83199" lon="6.19609">
        <ele>1642.5498046875</ele>
        <time>2020-08-16T09:48:58Z</time>
      </trkpt>
      <trkpt lat="44.83192" lon="6.19622">
        <ele>1643.9916992188</ele>
        <time>2020-08-16T09:49:17Z</time>
      </trkpt>
      <trkpt lat="44.83187" lon="6.19635">
        <ele>1644.4724121094</ele>
        <time>2020-08-16T09:49:29Z</time>
      </trkpt>
      <trkpt lat="44.83182" lon="6.19652">
        <ele>1646.8757324219</ele>
        <time>2020-08-16T09:49:49Z</time>
      </trkpt>
      <trkpt lat="44.83177" lon="6.19656">
        <ele>1648.7983398438</ele>
        <time>2020-08-16T09:50:11Z</time>
      </trkpt>
      <trkpt lat="44.83176" lon="6.19663">
        <ele>1647.8371582031</ele>
        <time>2020-08-16T09:50:45Z</time>
      </trkpt>
      <trkpt lat="44.83174" lon="6.19663">
        <ele>1646.8757324219</ele>
        <time>2020-08-16T09:51:04Z</time>
      </trkpt>
      <trkpt lat="44.83167" lon="6.19659">
        <ele>1646.8757324219</ele>
        <time>2020-08-16T09:51:13Z</time>
      </trkpt>
      <trkpt lat="44.83164" lon="6.19655">
        <ele>1646.8757324219</ele>
        <time>2020-08-16T09:51:17Z</time>
      </trkpt>
      <trkpt lat="44.83159" lon="6.19654">
        <ele>1647.8371582031</ele>
        <time>2020-08-16T09:51:33Z</time>
      </trkpt>
      <trkpt lat="44.83154" lon="6.19671">
        <ele>1648.3176269531</ele>
        <time>2020-08-16T09:51:53Z</time>
      </trkpt>
      <trkpt lat="44.83149" lon="6.19671">
        <ele>1648.7983398438</ele>
        <time>2020-08-16T09:52:07Z</time>
      </trkpt>
      <trkpt lat="44.83143" lon="6.19677">
        <ele>1650.2404785156</ele>
        <time>2020-08-16T09:52:25Z</time>
      </trkpt>
      <trkpt lat="44.83135" lon="6.19675">
        <ele>1651.6823730469</ele>
        <time>2020-08-16T09:52:42Z</time>
      </trkpt>
      <trkpt lat="44.83131" lon="6.19685">
        <ele>1651.2016601562</ele>
        <time>2020-08-16T09:52:52Z</time>
      </trkpt>
      <trkpt lat="44.83111" lon="6.19685">
        <ele>1650.2404785156</ele>
        <time>2020-08-16T09:53:12Z</time>
      </trkpt>
      <trkpt lat="44.8311" lon="6.19686">
        <ele>1650.2404785156</ele>
        <time>2020-08-16T09:53:13Z</time>
      </trkpt>
      <trkpt lat="44.83088" lon="6.19686">
        <ele>1649.2790527344</ele>
        <time>2020-08-16T09:53:35Z</time>
      </trkpt>
      <trkpt lat="44.83094" lon="6.19692">
        <ele>1646.3952636719</ele>
        <time>2020-08-16T09:53:51Z</time>
      </trkpt>
      <trkpt lat="44.83096" lon="6.19696">
        <ele>1642.5498046875</ele>
        <time>2020-08-16T09:54:02Z</time>
      </trkpt>
      <trkpt lat="44.83091" lon="6.19707">
        <ele>1637.7431640625</ele>
        <time>2020-08-16T09:54:20Z</time>
      </trkpt>
      <trkpt lat="44.83083" lon="6.19704">
        <ele>1634.859375</ele>
        <time>2020-08-16T09:54:38Z</time>
      </trkpt>
      <trkpt lat="44.8308" lon="6.19708">
        <ele>1631.9753417969</ele>
        <time>2020-08-16T09:54:58Z</time>
      </trkpt>
      <trkpt lat="44.8308" lon="6.19716">
        <ele>1631.0141601562</ele>
        <time>2020-08-16T09:55:15Z</time>
      </trkpt>
      <trkpt lat="44.83074" lon="6.19706">
        <ele>1629.5720214844</ele>
        <time>2020-08-16T09:55:32Z</time>
      </trkpt>
      <trkpt lat="44.83069" lon="6.19699">
        <ele>1628.1301269531</ele>
        <time>2020-08-16T09:55:53Z</time>
      </trkpt>
      <trkpt lat="44.83066" lon="6.197">
        <ele>1626.6879882812</ele>
        <time>2020-08-16T09:56:07Z</time>
      </trkpt>
      <trkpt lat="44.83063" lon="6.19693">
        <ele>1626.6879882812</ele>
        <time>2020-08-16T09:56:23Z</time>
      </trkpt>
      <trkpt lat="44.83058" lon="6.197">
        <ele>1625.2458496094</ele>
        <time>2020-08-16T09:56:42Z</time>
      </trkpt>
      <trkpt lat="44.83058" lon="6.19693">
        <ele>1623.3234863281</ele>
        <time>2020-08-16T09:57:02Z</time>
      </trkpt>
      <trkpt lat="44.83058" lon="6.19682">
        <ele>1619.4782714844</ele>
        <time>2020-08-16T09:57:21Z</time>
      </trkpt>
      <trkpt lat="44.83059" lon="6.1968">
        <ele>1615.6330566406</ele>
        <time>2020-08-16T09:57:43Z</time>
      </trkpt>
      <trkpt lat="44.8305" lon="6.19696">
        <ele>1615.15234375</ele>
        <time>2020-08-16T09:58:35Z</time>
      </trkpt>
      <trkpt lat="44.83041" lon="6.19707">
        <ele>1615.6330566406</ele>
        <time>2020-08-16T09:59:00Z</time>
      </trkpt>
      <trkpt lat="44.83037" lon="6.19722">
        <ele>1614.6716308594</ele>
        <time>2020-08-16T09:59:24Z</time>
      </trkpt>
      <trkpt lat="44.83028" lon="6.19706">
        <ele>1611.7875976562</ele>
        <time>2020-08-16T09:59:43Z</time>
      </trkpt>
      <trkpt lat="44.83022" lon="6.19708">
        <ele>1607.9423828125</ele>
        <time>2020-08-16T10:00:03Z</time>
      </trkpt>
      <trkpt lat="44.83009" lon="6.19701">
        <ele>1604.0971679688</ele>
        <time>2020-08-16T10:00:31Z</time>
      </trkpt>
      <trkpt lat="44.83002" lon="6.19699">
        <ele>1601.2131347656</ele>
        <time>2020-08-16T10:00:51Z</time>
      </trkpt>
      <trkpt lat="44.82993" lon="6.19697">
        <ele>1598.3291015625</ele>
        <time>2020-08-16T10:01:11Z</time>
      </trkpt>
      <trkpt lat="44.82993" lon="6.19699">
        <ele>1595.4450683594</ele>
        <time>2020-08-16T10:01:37Z</time>
      </trkpt>
      <trkpt lat="44.82991" lon="6.19704">
        <ele>1594.4836425781</ele>
        <time>2020-08-16T10:01:53Z</time>
      </trkpt>
      <trkpt lat="44.82984" lon="6.19708">
        <ele>1592.5612792969</ele>
        <time>2020-08-16T10:02:45Z</time>
      </trkpt>
      <trkpt lat="44.82975" lon="6.19708">
        <ele>1591.119140625</ele>
        <time>2020-08-16T10:03:18Z</time>
      </trkpt>
      <trkpt lat="44.8298" lon="6.1971">
        <ele>1589.1965332031</ele>
        <time>2020-08-16T10:03:31Z</time>
      </trkpt>
      <trkpt lat="44.82986" lon="6.19712">
        <ele>1586.3127441406</ele>
        <time>2020-08-16T10:03:46Z</time>
      </trkpt>
      <trkpt lat="44.82992" lon="6.19724">
        <ele>1580.544921875</ele>
        <time>2020-08-16T10:04:15Z</time>
      </trkpt>
      <trkpt lat="44.82997" lon="6.19729">
        <ele>1576.6994628906</ele>
        <time>2020-08-16T10:04:31Z</time>
      </trkpt>
      <trkpt lat="44.83004" lon="6.19729">
        <ele>1573.8154296875</ele>
        <time>2020-08-16T10:04:44Z</time>
      </trkpt>
      <trkpt lat="44.83009" lon="6.19749">
        <ele>1568.0476074219</ele>
        <time>2020-08-16T10:05:08Z</time>
      </trkpt>
      <trkpt lat="44.83008" lon="6.19749">
        <ele>1565.64453125</ele>
        <time>2020-08-16T10:05:24Z</time>
      </trkpt>
      <trkpt lat="44.83002" lon="6.19745">
        <ele>1564.6831054688</ele>
        <time>2020-08-16T10:05:36Z</time>
      </trkpt>
      <trkpt lat="44.82996" lon="6.1974">
        <ele>1563.7214355469</ele>
        <time>2020-08-16T10:05:50Z</time>
      </trkpt>
      <trkpt lat="44.82991" lon="6.19738">
        <ele>1563.7214355469</ele>
        <time>2020-08-16T10:06:03Z</time>
      </trkpt>
      <trkpt lat="44.82993" lon="6.19751">
        <ele>1562.7602539062</ele>
        <time>2020-08-16T10:06:18Z</time>
      </trkpt>
      <trkpt lat="44.82992" lon="6.19767">
        <ele>1562.2795410156</ele>
        <time>2020-08-16T10:06:37Z</time>
      </trkpt>
      <trkpt lat="44.82993" lon="6.19773">
        <ele>1562.7602539062</ele>
        <time>2020-08-16T10:06:54Z</time>
      </trkpt>
      <trkpt lat="44.82989" lon="6.19782">
        <ele>1563.2409667969</ele>
        <time>2020-08-16T10:07:24Z</time>
      </trkpt>
      <trkpt lat="44.82983" lon="6.19783">
        <ele>1563.7214355469</ele>
        <time>2020-08-16T10:07:47Z</time>
      </trkpt>
      <trkpt lat="44.82983" lon="6.19782">
        <ele>1563.2409667969</ele>
        <time>2020-08-16T10:08:08Z</time>
      </trkpt>
      <trkpt lat="44.82975" lon="6.19772">
        <ele>1560.3569335938</ele>
        <time>2020-08-16T10:08:24Z</time>
      </trkpt>
      <trkpt lat="44.82968" lon="6.19759">
        <ele>1558.4343261719</ele>
        <time>2020-08-16T10:08:42Z</time>
      </trkpt>
      <trkpt lat="44.82959" lon="6.1975">
        <ele>1556.9924316406</ele>
        <time>2020-08-16T10:09:03Z</time>
      </trkpt>
      <trkpt lat="44.82959" lon="6.19765">
        <ele>1555.5505371094</ele>
        <time>2020-08-16T10:09:26Z</time>
      </trkpt>
      <trkpt lat="44.82959" lon="6.19778">
        <ele>1556.51171875</ele>
        <time>2020-08-16T10:09:48Z</time>
      </trkpt>
      <trkpt lat="44.82956" lon="6.19796">
        <ele>1558.4343261719</ele>
        <time>2020-08-16T10:10:01Z</time>
      </trkpt>
      <trkpt lat="44.82953" lon="6.19803">
        <ele>1558.9150390625</ele>
        <time>2020-08-16T10:10:05Z</time>
      </trkpt>
      <trkpt lat="44.82942" lon="6.19824">
        <ele>1558.4343261719</ele>
        <time>2020-08-16T10:10:22Z</time>
      </trkpt>
      <trkpt lat="44.82938" lon="6.19829">
        <ele>1558.9150390625</ele>
        <time>2020-08-16T10:10:29Z</time>
      </trkpt>
      <trkpt lat="44.82931" lon="6.19842">
        <ele>1558.4343261719</ele>
        <time>2020-08-16T10:10:46Z</time>
      </trkpt>
      <trkpt lat="44.82928" lon="6.19841">
        <ele>1556.0310058594</ele>
        <time>2020-08-16T10:11:03Z</time>
      </trkpt>
      <trkpt lat="44.82926" lon="6.19846">
        <ele>1555.0698242188</ele>
        <time>2020-08-16T10:11:28Z</time>
      </trkpt>
      <trkpt lat="44.82921" lon="6.19842">
        <ele>1554.5891113281</ele>
        <time>2020-08-16T10:11:36Z</time>
      </trkpt>
      <trkpt lat="44.82912" lon="6.19828">
        <ele>1554.1086425781</ele>
        <time>2020-08-16T10:11:50Z</time>
      </trkpt>
      <trkpt lat="44.82908" lon="6.19818">
        <ele>1554.5891113281</ele>
        <time>2020-08-16T10:12:07Z</time>
      </trkpt>
      <trkpt lat="44.82907" lon="6.1981">
        <ele>1551.7053222656</ele>
        <time>2020-08-16T10:12:30Z</time>
      </trkpt>
      <trkpt lat="44.82901" lon="6.19819">
        <ele>1548.8212890625</ele>
        <time>2020-08-16T10:12:54Z</time>
      </trkpt>
      <trkpt lat="44.82896" lon="6.19832">
        <ele>1545.9372558594</ele>
        <time>2020-08-16T10:13:17Z</time>
      </trkpt>
      <trkpt lat="44.82891" lon="6.19842">
        <ele>1542.5727539062</ele>
        <time>2020-08-16T10:13:41Z</time>
      </trkpt>
      <trkpt lat="44.82886" lon="6.1984">
        <ele>1540.6499023438</ele>
        <time>2020-08-16T10:14:00Z</time>
      </trkpt>
      <trkpt lat="44.82876" lon="6.19825">
        <ele>1540.6499023438</ele>
        <time>2020-08-16T10:14:23Z</time>
      </trkpt>
      <trkpt lat="44.82873" lon="6.19818">
        <ele>1539.6887207031</ele>
        <time>2020-08-16T10:14:36Z</time>
      </trkpt>
      <trkpt lat="44.82871" lon="6.19806">
        <ele>1538.2468261719</ele>
        <time>2020-08-16T10:14:48Z</time>
      </trkpt>
      <trkpt lat="44.82864" lon="6.19791">
        <ele>1535.8435058594</ele>
        <time>2020-08-16T10:15:07Z</time>
      </trkpt>
      <trkpt lat="44.82864" lon="6.19792">
        <ele>1533.4401855469</ele>
        <time>2020-08-16T10:15:33Z</time>
      </trkpt>
      <trkpt lat="44.82865" lon="6.19797">
        <ele>1529.5947265625</ele>
        <time>2020-08-16T10:17:09Z</time>
      </trkpt>
      <trkpt lat="44.82866" lon="6.19799">
        <ele>1529.1140136719</ele>
        <time>2020-08-16T10:17:47Z</time>
      </trkpt>
      <trkpt lat="44.82851" lon="6.19815">
        <ele>1529.5947265625</ele>
        <time>2020-08-16T10:19:31Z</time>
      </trkpt>
      <trkpt lat="44.82842" lon="6.19811">
        <ele>1530.0754394531</ele>
        <time>2020-08-16T10:19:49Z</time>
      </trkpt>
      <trkpt lat="44.82833" lon="6.19808">
        <ele>1530.5561523438</ele>
        <time>2020-08-16T10:20:00Z</time>
      </trkpt>
      <trkpt lat="44.82818" lon="6.19793">
        <ele>1530.5561523438</ele>
        <time>2020-08-16T10:20:27Z</time>
      </trkpt>
      <trkpt lat="44.82816" lon="6.19784">
        <ele>1530.5561523438</ele>
        <time>2020-08-16T10:20:44Z</time>
      </trkpt>
      <trkpt lat="44.8281" lon="6.19801">
        <ele>1530.5561523438</ele>
        <time>2020-08-16T10:21:06Z</time>
      </trkpt>
      <trkpt lat="44.82801" lon="6.19806">
        <ele>1530.0754394531</ele>
        <time>2020-08-16T10:21:28Z</time>
      </trkpt>
      <trkpt lat="44.82793" lon="6.19804">
        <ele>1529.5947265625</ele>
        <time>2020-08-16T10:21:49Z</time>
      </trkpt>
      <trkpt lat="44.82786" lon="6.19801">
        <ele>1529.1140136719</ele>
        <time>2020-08-16T10:22:06Z</time>
      </trkpt>
      <trkpt lat="44.82778" lon="6.19791">
        <ele>1527.6721191406</ele>
        <time>2020-08-16T10:22:35Z</time>
      </trkpt>
      <trkpt lat="44.82766" lon="6.19809">
        <ele>1526.7109375</ele>
        <time>2020-08-16T10:22:59Z</time>
      </trkpt>
      <trkpt lat="44.82759" lon="6.19812">
        <ele>1527.1916503906</ele>
        <time>2020-08-16T10:23:30Z</time>
      </trkpt>
      <trkpt lat="44.82747" lon="6.19813">
        <ele>1527.6721191406</ele>
        <time>2020-08-16T10:23:53Z</time>
      </trkpt>
      <trkpt lat="44.82745" lon="6.19809">
        <ele>1527.6721191406</ele>
        <time>2020-08-16T10:24:08Z</time>
      </trkpt>
      <trkpt lat="44.82735" lon="6.19819">
        <ele>1527.1916503906</ele>
        <time>2020-08-16T10:24:27Z</time>
      </trkpt>
      <trkpt lat="44.82726" lon="6.19824">
        <ele>1528.1528320312</ele>
        <time>2020-08-16T10:24:46Z</time>
      </trkpt>
      <trkpt lat="44.82715" lon="6.1983">
        <ele>1528.1528320312</ele>
        <time>2020-08-16T10:25:11Z</time>
      </trkpt>
      <trkpt lat="44.82699" lon="6.19844">
        <ele>1524.7883300781</ele>
        <time>2020-08-16T10:25:54Z</time>
      </trkpt>
      <trkpt lat="44.82687" lon="6.19843">
        <ele>1524.3076171875</ele>
        <time>2020-08-16T10:26:09Z</time>
      </trkpt>
      <trkpt lat="44.82686" lon="6.19843">
        <ele>1522.8657226562</ele>
        <time>2020-08-16T10:26:37Z</time>
      </trkpt>
      <trkpt lat="44.82685" lon="6.19836">
        <ele>1518.0590820312</ele>
        <time>2020-08-16T10:26:52Z</time>
      </trkpt>
      <trkpt lat="44.82685" lon="6.19828">
        <ele>1513.7329101562</ele>
        <time>2020-08-16T10:27:09Z</time>
      </trkpt>
      <trkpt lat="44.82693" lon="6.19831">
        <ele>1506.5231933594</ele>
        <time>2020-08-16T10:27:22Z</time>
      </trkpt>
      <trkpt lat="44.82695" lon="6.19844">
        <ele>1504.6005859375</ele>
        <time>2020-08-16T10:27:34Z</time>
      </trkpt>
      <trkpt lat="44.82687" lon="6.19863">
        <ele>1503.6394042969</ele>
        <time>2020-08-16T10:27:52Z</time>
      </trkpt>
      <trkpt lat="44.82685" lon="6.19865">
        <ele>1503.6394042969</ele>
        <time>2020-08-16T10:27:53Z</time>
      </trkpt>
      <trkpt lat="44.82676" lon="6.19873">
        <ele>1496.4294433594</ele>
        <time>2020-08-16T10:28:08Z</time>
      </trkpt>
      <trkpt lat="44.82666" lon="6.19879">
        <ele>1487.7775878906</ele>
        <time>2020-08-16T10:28:27Z</time>
      </trkpt>
      <trkpt lat="44.82656" lon="6.19891">
        <ele>1484.8937988281</ele>
        <time>2020-08-16T10:28:43Z</time>
      </trkpt>
      <trkpt lat="44.82652" lon="6.19891">
        <ele>1480.5676269531</ele>
        <time>2020-08-16T10:28:58Z</time>
      </trkpt>
      <trkpt lat="44.82636" lon="6.19903">
        <ele>1475.2802734375</ele>
        <time>2020-08-16T10:29:19Z</time>
      </trkpt>
      <trkpt lat="44.82627" lon="6.19915">
        <ele>1464.2250976562</ele>
        <time>2020-08-16T10:29:38Z</time>
      </trkpt>
      <trkpt lat="44.82619" lon="6.19917">
        <ele>1457.49609375</ele>
        <time>2020-08-16T10:29:55Z</time>
      </trkpt>
      <trkpt lat="44.82613" lon="6.19918">
        <ele>1452.689453125</ele>
        <time>2020-08-16T10:30:13Z</time>
      </trkpt>
      <trkpt lat="44.82598" lon="6.19947">
        <ele>1439.7116699219</ele>
        <time>2020-08-16T10:30:33Z</time>
      </trkpt>
      <trkpt lat="44.82597" lon="6.19955">
        <ele>1431.5402832031</ele>
        <time>2020-08-16T10:30:42Z</time>
      </trkpt>
      <trkpt lat="44.82585" lon="6.19954">
        <ele>1415.6787109375</ele>
        <time>2020-08-16T10:30:59Z</time>
      </trkpt>
      <trkpt lat="44.82582" lon="6.1996">
        <ele>1409.4301757812</ele>
        <time>2020-08-16T10:31:13Z</time>
      </trkpt>
      <trkpt lat="44.82571" lon="6.19959">
        <ele>1397.4135742188</ele>
        <time>2020-08-16T10:31:30Z</time>
      </trkpt>
      <trkpt lat="44.82569" lon="6.19961">
        <ele>1393.568359375</ele>
        <time>2020-08-16T10:31:35Z</time>
      </trkpt>
      <trkpt lat="44.82568" lon="6.19963">
        <ele>1393.0876464844</ele>
        <time>2020-08-16T10:31:37Z</time>
      </trkpt>
      <trkpt lat="44.82566" lon="6.19968">
        <ele>1389.2424316406</ele>
        <time>2020-08-16T10:31:53Z</time>
      </trkpt>
      <trkpt lat="44.82556" lon="6.19961">
        <ele>1386.8388671875</ele>
        <time>2020-08-16T10:32:20Z</time>
      </trkpt>
      <trkpt lat="44.82559" lon="6.19963">
        <ele>1385.3969726562</ele>
        <time>2020-08-16T10:32:56Z</time>
      </trkpt>
      <trkpt lat="44.82549" lon="6.19979">
        <ele>1379.1484375</ele>
        <time>2020-08-16T10:33:22Z</time>
      </trkpt>
      <trkpt lat="44.82546" lon="6.19995">
        <ele>1374.3420410156</ele>
        <time>2020-08-16T10:33:38Z</time>
      </trkpt>
      <trkpt lat="44.82537" lon="6.19999">
        <ele>1370.0158691406</ele>
        <time>2020-08-16T10:33:52Z</time>
      </trkpt>
      <trkpt lat="44.82535" lon="6.19997">
        <ele>1369.5354003906</ele>
        <time>2020-08-16T10:33:54Z</time>
      </trkpt>
      <trkpt lat="44.8253" lon="6.20004">
        <ele>1359.9221191406</ele>
        <time>2020-08-16T10:34:09Z</time>
      </trkpt>
      <trkpt lat="44.82529" lon="6.20015">
        <ele>1352.2314453125</ele>
        <time>2020-08-16T10:34:24Z</time>
      </trkpt>
      <trkpt lat="44.82522" lon="6.2002">
        <ele>1343.0991210938</ele>
        <time>2020-08-16T10:34:42Z</time>
      </trkpt>
      <trkpt lat="44.82524" lon="6.20015">
        <ele>1340.6958007812</ele>
        <time>2020-08-16T10:35:05Z</time>
      </trkpt>
      <trkpt lat="44.82516" lon="6.20026">
        <ele>1338.2924804688</ele>
        <time>2020-08-16T10:35:43Z</time>
      </trkpt>
      <trkpt lat="44.82509" lon="6.20042">
        <ele>1336.3698730469</ele>
        <time>2020-08-16T10:36:01Z</time>
      </trkpt>
      <trkpt lat="44.82507" lon="6.20049">
        <ele>1334.447265625</ele>
        <time>2020-08-16T10:36:12Z</time>
      </trkpt>
      <trkpt lat="44.82499" lon="6.20059">
        <ele>1332.5246582031</ele>
        <time>2020-08-16T10:36:30Z</time>
      </trkpt>
      <trkpt lat="44.82495" lon="6.20051">
        <ele>1332.5246582031</ele>
        <time>2020-08-16T10:36:59Z</time>
      </trkpt>
      <trkpt lat="44.82491" lon="6.20055">
        <ele>1332.5246582031</ele>
        <time>2020-08-16T10:38:08Z</time>
      </trkpt>
      <trkpt lat="44.82487" lon="6.20071">
        <ele>1331.0827636719</ele>
        <time>2020-08-16T10:38:19Z</time>
      </trkpt>
      <trkpt lat="44.82479" lon="6.20101">
        <ele>1324.353515625</ele>
        <time>2020-08-16T10:38:43Z</time>
      </trkpt>
      <trkpt lat="44.82476" lon="6.20115">
        <ele>1323.3920898438</ele>
        <time>2020-08-16T10:39:02Z</time>
      </trkpt>
      <trkpt lat="44.82471" lon="6.20123">
        <ele>1320.02734375</ele>
        <time>2020-08-16T10:39:18Z</time>
      </trkpt>
      <trkpt lat="44.82471" lon="6.20127">
        <ele>1319.0661621094</ele>
        <time>2020-08-16T10:39:21Z</time>
      </trkpt>
      <trkpt lat="44.82469" lon="6.20146">
        <ele>1315.7016601562</ele>
        <time>2020-08-16T10:39:39Z</time>
      </trkpt>
      <trkpt lat="44.82468" lon="6.20148">
        <ele>1315.7016601562</ele>
        <time>2020-08-16T10:39:57Z</time>
      </trkpt>
      <trkpt lat="44.82469" lon="6.20148">
        <ele>1315.2209472656</ele>
        <time>2020-08-16T10:40:30Z</time>
      </trkpt>
      <trkpt lat="44.82469" lon="6.20156">
        <ele>1309.453125</ele>
        <time>2020-08-16T10:41:03Z</time>
      </trkpt>
      <trkpt lat="44.8246" lon="6.20169">
        <ele>1306.5688476562</ele>
        <time>2020-08-16T10:41:24Z</time>
      </trkpt>
      <trkpt lat="44.82448" lon="6.20179">
        <ele>1302.2429199219</ele>
        <time>2020-08-16T10:41:42Z</time>
      </trkpt>
      <trkpt lat="44.82443" lon="6.20198">
        <ele>1297.4365234375</ele>
        <time>2020-08-16T10:42:00Z</time>
      </trkpt>
      <trkpt lat="44.82443" lon="6.20205">
        <ele>1295.5139160156</ele>
        <time>2020-08-16T10:42:12Z</time>
      </trkpt>
      <trkpt lat="44.82443" lon="6.20205">
        <ele>1293.5913085938</ele>
        <time>2020-08-16T10:43:52Z</time>
      </trkpt>
      <trkpt lat="44.82438" lon="6.20204">
        <ele>1293.1105957031</ele>
        <time>2020-08-16T10:44:49Z</time>
      </trkpt>
      <trkpt lat="44.82421" lon="6.20212">
        <ele>1289.2651367188</ele>
        <time>2020-08-16T10:45:13Z</time>
      </trkpt>
      <trkpt lat="44.8241" lon="6.20224">
        <ele>1285.9006347656</ele>
        <time>2020-08-16T10:45:32Z</time>
      </trkpt>
      <trkpt lat="44.82403" lon="6.20239">
        <ele>1283.0166015625</ele>
        <time>2020-08-16T10:45:50Z</time>
      </trkpt>
      <trkpt lat="44.82399" lon="6.20239">
        <ele>1281.0942382812</ele>
        <time>2020-08-16T10:46:03Z</time>
      </trkpt>
      <trkpt lat="44.82396" lon="6.20219">
        <ele>1276.7683105469</ele>
        <time>2020-08-16T10:46:22Z</time>
      </trkpt>
      <trkpt lat="44.82397" lon="6.20199">
        <ele>1273.4035644531</ele>
        <time>2020-08-16T10:46:42Z</time>
      </trkpt>
      <trkpt lat="44.82396" lon="6.20196">
        <ele>1271.9614257812</ele>
        <time>2020-08-16T10:46:58Z</time>
      </trkpt>
      <trkpt lat="44.82393" lon="6.20198">
        <ele>1268.1162109375</ele>
        <time>2020-08-16T10:47:18Z</time>
      </trkpt>
      <trkpt lat="44.82389" lon="6.20205">
        <ele>1266.1936035156</ele>
        <time>2020-08-16T10:47:38Z</time>
      </trkpt>
      <trkpt lat="44.82383" lon="6.20214">
        <ele>1263.7902832031</ele>
        <time>2020-08-16T10:48:01Z</time>
      </trkpt>
      <trkpt lat="44.82379" lon="6.20219">
        <ele>1262.3483886719</ele>
        <time>2020-08-16T10:48:19Z</time>
      </trkpt>
      <trkpt lat="44.82376" lon="6.20223">
        <ele>1257.0610351562</ele>
        <time>2020-08-16T10:48:34Z</time>
      </trkpt>
      <trkpt lat="44.82376" lon="6.20221">
        <ele>1256.5803222656</ele>
        <time>2020-08-16T10:48:36Z</time>
      </trkpt>
      <trkpt lat="44.82373" lon="6.20204">
        <ele>1255.1384277344</ele>
        <time>2020-08-16T10:48:52Z</time>
      </trkpt>
      <trkpt lat="44.82373" lon="6.20203">
        <ele>1255.1384277344</ele>
        <time>2020-08-16T10:49:21Z</time>
      </trkpt>
      <trkpt lat="44.82374" lon="6.20188">
        <ele>1250.8125</ele>
        <time>2020-08-16T10:49:39Z</time>
      </trkpt>
      <trkpt lat="44.82379" lon="6.20168">
        <ele>1248.8898925781</ele>
        <time>2020-08-16T10:50:02Z</time>
      </trkpt>
      <trkpt lat="44.82377" lon="6.20169">
        <ele>1249.8513183594</ele>
        <time>2020-08-16T10:50:19Z</time>
      </trkpt>
      <trkpt lat="44.82374" lon="6.20169">
        <ele>1250.33203125</ele>
        <time>2020-08-16T10:51:04Z</time>
      </trkpt>
      <trkpt lat="44.82367" lon="6.2018">
        <ele>1247.9287109375</ele>
        <time>2020-08-16T10:53:10Z</time>
      </trkpt>
      <trkpt lat="44.82362" lon="6.20186">
        <ele>1246.0061035156</ele>
        <time>2020-08-16T10:53:41Z</time>
      </trkpt>
      <trkpt lat="44.82362" lon="6.20187">
        <ele>1245.525390625</ele>
        <time>2020-08-16T10:54:38Z</time>
      </trkpt>
      <trkpt lat="44.82362" lon="6.20187">
        <ele>1244.5639648438</ele>
        <time>2020-08-16T10:54:59Z</time>
      </trkpt>
      <trkpt lat="44.82356" lon="6.20196">
        <ele>1243.1218261719</ele>
        <time>2020-08-16T10:55:40Z</time>
      </trkpt>
      <trkpt lat="44.82347" lon="6.20214">
        <ele>1239.7573242188</ele>
        <time>2020-08-16T10:56:06Z</time>
      </trkpt>
      <trkpt lat="44.8234" lon="6.20225">
        <ele>1238.7961425781</ele>
        <time>2020-08-16T10:56:23Z</time>
      </trkpt>
      <trkpt lat="44.82332" lon="6.20246">
        <ele>1233.5087890625</ele>
        <time>2020-08-16T10:56:46Z</time>
      </trkpt>
      <trkpt lat="44.82327" lon="6.20253">
        <ele>1232.0668945312</ele>
        <time>2020-08-16T10:57:03Z</time>
      </trkpt>
      <trkpt lat="44.82327" lon="6.20249">
        <ele>1231.5861816406</ele>
        <time>2020-08-16T10:57:05Z</time>
      </trkpt>
      <trkpt lat="44.82325" lon="6.20233">
        <ele>1225.8181152344</ele>
        <time>2020-08-16T10:57:20Z</time>
      </trkpt>
      <trkpt lat="44.82326" lon="6.20214">
        <ele>1222.4536132812</ele>
        <time>2020-08-16T10:57:37Z</time>
      </trkpt>
      <trkpt lat="44.82324" lon="6.20191">
        <ele>1215.724609375</ele>
        <time>2020-08-16T10:57:57Z</time>
      </trkpt>
      <trkpt lat="44.82323" lon="6.20173">
        <ele>1214.2824707031</ele>
        <time>2020-08-16T10:58:16Z</time>
      </trkpt>
      <trkpt lat="44.82324" lon="6.2016">
        <ele>1212.8405761719</ele>
        <time>2020-08-16T10:58:28Z</time>
      </trkpt>
      <trkpt lat="44.82326" lon="6.20145">
        <ele>1210.4370117188</ele>
        <time>2020-08-16T10:58:40Z</time>
      </trkpt>
      <trkpt lat="44.82322" lon="6.20138">
        <ele>1208.0339355469</ele>
        <time>2020-08-16T10:58:55Z</time>
      </trkpt>
      <trkpt lat="44.82313" lon="6.20153">
        <ele>1203.7080078125</ele>
        <time>2020-08-16T10:59:14Z</time>
      </trkpt>
      <trkpt lat="44.82302" lon="6.20162">
        <ele>1200.8239746094</ele>
        <time>2020-08-16T10:59:31Z</time>
      </trkpt>
      <trkpt lat="44.82294" lon="6.20174">
        <ele>1198.4206542969</ele>
        <time>2020-08-16T10:59:48Z</time>
      </trkpt>
      <trkpt lat="44.82289" lon="6.20186">
        <ele>1195.0559082031</ele>
        <time>2020-08-16T11:00:05Z</time>
      </trkpt>
      <trkpt lat="44.82283" lon="6.20186">
        <ele>1192.1721191406</ele>
        <time>2020-08-16T11:00:18Z</time>
      </trkpt>
      <trkpt lat="44.82282" lon="6.20174">
        <ele>1188.8076171875</ele>
        <time>2020-08-16T11:00:32Z</time>
      </trkpt>
      <trkpt lat="44.82281" lon="6.20161">
        <ele>1186.404296875</ele>
        <time>2020-08-16T11:00:47Z</time>
      </trkpt>
      <trkpt lat="44.82282" lon="6.20142">
        <ele>1182.0783691406</ele>
        <time>2020-08-16T11:01:05Z</time>
      </trkpt>
      <trkpt lat="44.82282" lon="6.20129">
        <ele>1180.6364746094</ele>
        <time>2020-08-16T11:01:23Z</time>
      </trkpt>
      <trkpt lat="44.82285" lon="6.20119">
        <ele>1178.2329101562</ele>
        <time>2020-08-16T11:01:37Z</time>
      </trkpt>
      <trkpt lat="44.82288" lon="6.20104">
        <ele>1176.791015625</ele>
        <time>2020-08-16T11:01:49Z</time>
      </trkpt>
      <trkpt lat="44.82288" lon="6.20098">
        <ele>1173.9069824219</ele>
        <time>2020-08-16T11:02:01Z</time>
      </trkpt>
      <trkpt lat="44.82277" lon="6.2011">
        <ele>1169.1005859375</ele>
        <time>2020-08-16T11:02:20Z</time>
      </trkpt>
      <trkpt lat="44.82268" lon="6.20123">
        <ele>1162.8518066406</ele>
        <time>2020-08-16T11:02:38Z</time>
      </trkpt>
      <trkpt lat="44.82258" lon="6.20139">
        <ele>1159.0065917969</ele>
        <time>2020-08-16T11:02:57Z</time>
      </trkpt>
      <trkpt lat="44.82249" lon="6.20153">
        <ele>1154.6806640625</ele>
        <time>2020-08-16T11:03:14Z</time>
      </trkpt>
      <trkpt lat="44.82248" lon="6.20154">
        <ele>1154.6806640625</ele>
        <time>2020-08-16T11:03:15Z</time>
      </trkpt>
      <trkpt lat="44.82235" lon="6.20174">
        <ele>1155.6420898438</ele>
        <time>2020-08-16T11:03:35Z</time>
      </trkpt>
      <trkpt lat="44.82226" lon="6.20182">
        <ele>1156.1225585938</ele>
        <time>2020-08-16T11:03:53Z</time>
      </trkpt>
      <trkpt lat="44.82226" lon="6.20177">
        <ele>1156.6032714844</ele>
        <time>2020-08-16T11:04:02Z</time>
      </trkpt>
      <trkpt lat="44.82223" lon="6.20163">
        <ele>1157.083984375</ele>
        <time>2020-08-16T11:04:18Z</time>
      </trkpt>
      <trkpt lat="44.82219" lon="6.20155">
        <ele>1157.083984375</ele>
        <time>2020-08-16T11:04:28Z</time>
      </trkpt>
      <trkpt lat="44.82219" lon="6.2014">
        <ele>1156.6032714844</ele>
        <time>2020-08-16T11:04:43Z</time>
      </trkpt>
      <trkpt lat="44.82215" lon="6.20124">
        <ele>1155.1613769531</ele>
        <time>2020-08-16T11:04:59Z</time>
      </trkpt>
      <trkpt lat="44.8222" lon="6.20103">
        <ele>1149.3935546875</ele>
        <time>2020-08-16T11:05:16Z</time>
      </trkpt>
      <trkpt lat="44.82217" lon="6.20082">
        <ele>1144.5866699219</ele>
        <time>2020-08-16T11:05:33Z</time>
      </trkpt>
      <trkpt lat="44.82209" lon="6.20085">
        <ele>1143.6254882812</ele>
        <time>2020-08-16T11:05:46Z</time>
      </trkpt>
      <trkpt lat="44.82201" lon="6.20082">
        <ele>1143.1447753906</ele>
        <time>2020-08-16T11:05:59Z</time>
      </trkpt>
      <trkpt lat="44.8219" lon="6.20079">
        <ele>1144.1062011719</ele>
        <time>2020-08-16T11:06:16Z</time>
      </trkpt>
      <trkpt lat="44.8219" lon="6.2008">
        <ele>1144.5866699219</ele>
        <time>2020-08-16T11:07:19Z</time>
      </trkpt>
      <trkpt lat="44.82191" lon="6.20083">
        <ele>1144.1062011719</ele>
        <time>2020-08-16T11:08:35Z</time>
      </trkpt>
      <trkpt lat="44.82191" lon="6.20084">
        <ele>1144.1062011719</ele>
        <time>2020-08-16T11:11:26Z</time>
      </trkpt>
      <trkpt lat="44.82199" lon="6.20086">
        <ele>1134.9738769531</ele>
        <time>2020-08-16T12:06:17Z</time>
      </trkpt>
      <trkpt lat="44.822" lon="6.20087">
        <ele>1132.08984375</ele>
        <time>2020-08-16T12:07:05Z</time>
      </trkpt>
      <trkpt lat="44.82194" lon="6.20084">
        <ele>1131.6088867188</ele>
        <time>2020-08-16T12:09:50Z</time>
      </trkpt>
      <trkpt lat="44.82187" lon="6.20084">
        <ele>1131.6088867188</ele>
        <time>2020-08-16T12:09:55Z</time>
      </trkpt>
      <trkpt lat="44.82161" lon="6.20083">
        <ele>1131.6088867188</ele>
        <time>2020-08-16T12:10:11Z</time>
      </trkpt>
      <trkpt lat="44.8215" lon="6.20085">
        <ele>1131.6088867188</ele>
        <time>2020-08-16T12:10:20Z</time>
      </trkpt>
      <trkpt lat="44.82126" lon="6.2008">
        <ele>1132.5705566406</ele>
        <time>2020-08-16T12:10:41Z</time>
      </trkpt>
      <trkpt lat="44.82099" lon="6.20076">
        <ele>1132.5705566406</ele>
        <time>2020-08-16T12:10:58Z</time>
      </trkpt>
      <trkpt lat="44.82085" lon="6.20058">
        <ele>1133.5317382812</ele>
        <time>2020-08-16T12:11:20Z</time>
      </trkpt>
      <trkpt lat="44.82071" lon="6.20046">
        <ele>1133.5317382812</ele>
        <time>2020-08-16T12:11:36Z</time>
      </trkpt>
      <trkpt lat="44.82059" lon="6.20045">
        <ele>1133.0510253906</ele>
        <time>2020-08-16T12:11:48Z</time>
      </trkpt>
      <trkpt lat="44.8204" lon="6.20041">
        <ele>1134.0124511719</ele>
        <time>2020-08-16T12:12:05Z</time>
      </trkpt>
      <trkpt lat="44.82034" lon="6.20028">
        <ele>1133.0510253906</ele>
        <time>2020-08-16T12:12:20Z</time>
      </trkpt>
      <trkpt lat="44.82033" lon="6.2002">
        <ele>1133.0510253906</ele>
        <time>2020-08-16T12:12:25Z</time>
      </trkpt>
      <trkpt lat="44.82023" lon="6.20005">
        <ele>1132.5705566406</ele>
        <time>2020-08-16T12:12:37Z</time>
      </trkpt>
      <trkpt lat="44.82019" lon="6.19983">
        <ele>1132.08984375</ele>
        <time>2020-08-16T12:12:54Z</time>
      </trkpt>
      <trkpt lat="44.82018" lon="6.19958">
        <ele>1131.6088867188</ele>
        <time>2020-08-16T12:13:09Z</time>
      </trkpt>
      <trkpt lat="44.82013" lon="6.19935">
        <ele>1133.5317382812</ele>
        <time>2020-08-16T12:13:23Z</time>
      </trkpt>
      <trkpt lat="44.82013" lon="6.19903">
        <ele>1132.5705566406</ele>
        <time>2020-08-16T12:13:44Z</time>
      </trkpt>
      <trkpt lat="44.82011" lon="6.19874">
        <ele>1131.1284179688</ele>
        <time>2020-08-16T12:14:04Z</time>
      </trkpt>
      <trkpt lat="44.81998" lon="6.19851">
        <ele>1128.2443847656</ele>
        <time>2020-08-16T12:14:21Z</time>
      </trkpt>
      <trkpt lat="44.81995" lon="6.19818">
        <ele>1129.6862792969</ele>
        <time>2020-08-16T12:14:42Z</time>
      </trkpt>
      <trkpt lat="44.82018" lon="6.19758">
        <ele>1119.5927734375</ele>
        <time>2020-08-16T12:15:06Z</time>
      </trkpt>
      <trkpt lat="44.82021" lon="6.19752">
        <ele>1118.6313476562</ele>
        <time>2020-08-16T12:15:08Z</time>
      </trkpt>
      <trkpt lat="44.82026" lon="6.19718">
        <ele>1118.1506347656</ele>
        <time>2020-08-16T12:15:26Z</time>
      </trkpt>
      <trkpt lat="44.82017" lon="6.19706">
        <ele>1112.86328125</ele>
        <time>2020-08-16T12:15:40Z</time>
      </trkpt>
      <trkpt lat="44.82019" lon="6.19679">
        <ele>1107.0954589844</ele>
        <time>2020-08-16T12:15:55Z</time>
      </trkpt>
      <trkpt lat="44.82019" lon="6.19671">
        <ele>1106.6147460938</ele>
        <time>2020-08-16T12:15:59Z</time>
      </trkpt>
      <trkpt lat="44.82022" lon="6.19666">
        <ele>1106.6147460938</ele>
        <time>2020-08-16T12:16:02Z</time>
      </trkpt>
      <trkpt lat="44.82022" lon="6.19659">
        <ele>1105.6535644531</ele>
        <time>2020-08-16T12:16:06Z</time>
      </trkpt>
      <trkpt lat="44.82016" lon="6.1965">
        <ele>1104.2116699219</ele>
        <time>2020-08-16T12:16:10Z</time>
      </trkpt>
      <trkpt lat="44.82011" lon="6.19648">
        <ele>1103.2502441406</ele>
        <time>2020-08-16T12:16:12Z</time>
      </trkpt>
      <trkpt lat="44.82008" lon="6.19644">
        <ele>1102.76953125</ele>
        <time>2020-08-16T12:16:15Z</time>
      </trkpt>
      <trkpt lat="44.81999" lon="6.19628">
        <ele>1099.8854980469</ele>
        <time>2020-08-16T12:16:29Z</time>
      </trkpt>
      <trkpt lat="44.81999" lon="6.19621">
        <ele>1096.5209960938</ele>
        <time>2020-08-16T12:16:41Z</time>
      </trkpt>
      <trkpt lat="44.82001" lon="6.19616">
        <ele>1094.5981445312</ele>
        <time>2020-08-16T12:16:54Z</time>
      </trkpt>
      <trkpt lat="44.82" lon="6.19618">
        <ele>1095.0788574219</ele>
        <time>2020-08-16T12:18:35Z</time>
      </trkpt>
      <trkpt lat="44.81999" lon="6.19618">
        <ele>1096.0402832031</ele>
        <time>2020-08-16T12:19:04Z</time>
      </trkpt>
      <trkpt lat="44.82004" lon="6.19609">
        <ele>1097.4821777344</ele>
        <time>2020-08-16T12:19:11Z</time>
      </trkpt>
      <trkpt lat="44.82008" lon="6.19567">
        <ele>1096.0402832031</ele>
        <time>2020-08-16T12:19:33Z</time>
      </trkpt>
      <trkpt lat="44.82011" lon="6.1953">
        <ele>1096.0402832031</ele>
        <time>2020-08-16T12:19:53Z</time>
      </trkpt>
      <trkpt lat="44.8201" lon="6.19515">
        <ele>1095.5595703125</ele>
        <time>2020-08-16T12:20:04Z</time>
      </trkpt>
      <trkpt lat="44.82009" lon="6.19508">
        <ele>1096.0402832031</ele>
        <time>2020-08-16T12:20:09Z</time>
      </trkpt>
      <trkpt lat="44.82009" lon="6.19496">
        <ele>1096.0402832031</ele>
        <time>2020-08-16T12:20:16Z</time>
      </trkpt>
      <trkpt lat="44.82014" lon="6.19466">
        <ele>1097.0014648438</ele>
        <time>2020-08-16T12:20:34Z</time>
      </trkpt>
      <trkpt lat="44.82015" lon="6.1946">
        <ele>1097.962890625</ele>
        <time>2020-08-16T12:20:39Z</time>
      </trkpt>
      <trkpt lat="44.82019" lon="6.19455">
        <ele>1098.443359375</ele>
        <time>2020-08-16T12:20:45Z</time>
      </trkpt>
      <trkpt lat="44.82021" lon="6.19422">
        <ele>1098.443359375</ele>
        <time>2020-08-16T12:20:59Z</time>
      </trkpt>
      <trkpt lat="44.82011" lon="6.19382">
        <ele>1095.5595703125</ele>
        <time>2020-08-16T12:21:15Z</time>
      </trkpt>
      <trkpt lat="44.82011" lon="6.1938">
        <ele>1095.5595703125</ele>
        <time>2020-08-16T12:21:17Z</time>
      </trkpt>
      <trkpt lat="44.82012" lon="6.19376">
        <ele>1095.5595703125</ele>
        <time>2020-08-16T12:21:20Z</time>
      </trkpt>
      <trkpt lat="44.8201" lon="6.19366">
        <ele>1095.0788574219</ele>
        <time>2020-08-16T12:21:24Z</time>
      </trkpt>
      <trkpt lat="44.82011" lon="6.19356">
        <ele>1093.6369628906</ele>
        <time>2020-08-16T12:21:33Z</time>
      </trkpt>
      <trkpt lat="44.82014" lon="6.19343">
        <ele>1092.67578125</ele>
        <time>2020-08-16T12:21:41Z</time>
      </trkpt>
      <trkpt lat="44.82013" lon="6.19326">
        <ele>1091.7143554688</ele>
        <time>2020-08-16T12:21:49Z</time>
      </trkpt>
      <trkpt lat="44.81998" lon="6.19297">
        <ele>1090.7529296875</ele>
        <time>2020-08-16T12:22:05Z</time>
      </trkpt>
      <trkpt lat="44.81997" lon="6.19293">
        <ele>1090.7529296875</ele>
        <time>2020-08-16T12:22:08Z</time>
      </trkpt>
      <trkpt lat="44.81993" lon="6.19281">
        <ele>1090.2724609375</ele>
        <time>2020-08-16T12:22:15Z</time>
      </trkpt>
      <trkpt lat="44.81988" lon="6.19273">
        <ele>1089.7917480469</ele>
        <time>2020-08-16T12:22:19Z</time>
      </trkpt>
      <trkpt lat="44.81987" lon="6.19259">
        <ele>1089.7917480469</ele>
        <time>2020-08-16T12:22:28Z</time>
      </trkpt>
      <trkpt lat="44.81977" lon="6.19233">
        <ele>1089.3110351562</ele>
        <time>2020-08-16T12:22:43Z</time>
      </trkpt>
      <trkpt lat="44.81976" lon="6.19209">
        <ele>1090.2724609375</ele>
        <time>2020-08-16T12:22:51Z</time>
      </trkpt>
      <trkpt lat="44.81977" lon="6.192">
        <ele>1090.7529296875</ele>
        <time>2020-08-16T12:22:57Z</time>
      </trkpt>
      <trkpt lat="44.81972" lon="6.19186">
        <ele>1090.7529296875</ele>
        <time>2020-08-16T12:23:03Z</time>
      </trkpt>
      <trkpt lat="44.81966" lon="6.19166">
        <ele>1088.8305664062</ele>
        <time>2020-08-16T12:23:15Z</time>
      </trkpt>
      <trkpt lat="44.81967" lon="6.19162">
        <ele>1088.3498535156</ele>
        <time>2020-08-16T12:23:18Z</time>
      </trkpt>
      <trkpt lat="44.81969" lon="6.1915">
        <ele>1087.3884277344</ele>
        <time>2020-08-16T12:23:25Z</time>
      </trkpt>
      <trkpt lat="44.81969" lon="6.19125">
        <ele>1085.4658203125</ele>
        <time>2020-08-16T12:23:44Z</time>
      </trkpt>
      <trkpt lat="44.81964" lon="6.19101">
        <ele>1084.9853515625</ele>
        <time>2020-08-16T12:24:03Z</time>
      </trkpt>
      <trkpt lat="44.81969" lon="6.19071">
        <ele>1084.0239257812</ele>
        <time>2020-08-16T12:24:20Z</time>
      </trkpt>
      <trkpt lat="44.81975" lon="6.19051">
        <ele>1083.0622558594</ele>
        <time>2020-08-16T12:24:39Z</time>
      </trkpt>
      <trkpt lat="44.81968" lon="6.1902">
        <ele>1082.5817871094</ele>
        <time>2020-08-16T12:24:57Z</time>
      </trkpt>
      <trkpt lat="44.81962" lon="6.18999">
        <ele>1082.1010742188</ele>
        <time>2020-08-16T12:25:11Z</time>
      </trkpt>
      <trkpt lat="44.81966" lon="6.18969">
        <ele>1082.5817871094</ele>
        <time>2020-08-16T12:25:24Z</time>
      </trkpt>
      <trkpt lat="44.81963" lon="6.18942">
        <ele>1082.1010742188</ele>
        <time>2020-08-16T12:25:36Z</time>
      </trkpt>
      <trkpt lat="44.81963" lon="6.18931">
        <ele>1083.0622558594</ele>
        <time>2020-08-16T12:25:45Z</time>
      </trkpt>
      <trkpt lat="44.81964" lon="6.18893">
        <ele>1084.5046386719</ele>
        <time>2020-08-16T12:26:07Z</time>
      </trkpt>
      <trkpt lat="44.81959" lon="6.18852">
        <ele>1084.9853515625</ele>
        <time>2020-08-16T12:26:26Z</time>
      </trkpt>
      <trkpt lat="44.81962" lon="6.18844">
        <ele>1086.4272460938</ele>
        <time>2020-08-16T12:26:31Z</time>
      </trkpt>
      <trkpt lat="44.81961" lon="6.18825">
        <ele>1086.4272460938</ele>
        <time>2020-08-16T12:26:41Z</time>
      </trkpt>
      <trkpt lat="44.81963" lon="6.18823">
        <ele>1087.3884277344</ele>
        <time>2020-08-16T12:26:45Z</time>
      </trkpt>
      <trkpt lat="44.81962" lon="6.18792">
        <ele>1089.7917480469</ele>
        <time>2020-08-16T12:27:03Z</time>
      </trkpt>
      <trkpt lat="44.81961" lon="6.18773">
        <ele>1090.7529296875</ele>
        <time>2020-08-16T12:27:14Z</time>
      </trkpt>
      <trkpt lat="44.81964" lon="6.18758">
        <ele>1091.2336425781</ele>
        <time>2020-08-16T12:27:22Z</time>
      </trkpt>
      <trkpt lat="44.81963" lon="6.1875">
        <ele>1091.2336425781</ele>
        <time>2020-08-16T12:27:26Z</time>
      </trkpt>
      <trkpt lat="44.81964" lon="6.18747">
        <ele>1091.2336425781</ele>
        <time>2020-08-16T12:27:28Z</time>
      </trkpt>
      <trkpt lat="44.81966" lon="6.18731">
        <ele>1089.3110351562</ele>
        <time>2020-08-16T12:27:36Z</time>
      </trkpt>
      <trkpt lat="44.81959" lon="6.18714">
        <ele>1085.9465332031</ele>
        <time>2020-08-16T12:27:41Z</time>
      </trkpt>
      <trkpt lat="44.81958" lon="6.18704">
        <ele>1085.4658203125</ele>
        <time>2020-08-16T12:27:45Z</time>
      </trkpt>
      <trkpt lat="44.81952" lon="6.18678">
        <ele>1088.3498535156</ele>
        <time>2020-08-16T12:27:58Z</time>
      </trkpt>
      <trkpt lat="44.8195" lon="6.18674">
        <ele>1088.8305664062</ele>
        <time>2020-08-16T12:28:00Z</time>
      </trkpt>
      <trkpt lat="44.81949" lon="6.18665">
        <ele>1091.2336425781</ele>
        <time>2020-08-16T12:28:06Z</time>
      </trkpt>
      <trkpt lat="44.8195" lon="6.18656">
        <ele>1092.67578125</ele>
        <time>2020-08-16T12:28:12Z</time>
      </trkpt>
      <trkpt lat="44.81947" lon="6.1865">
        <ele>1093.6369628906</ele>
        <time>2020-08-16T12:28:16Z</time>
      </trkpt>
      <trkpt lat="44.8194" lon="6.18637">
        <ele>1095.0788574219</ele>
        <time>2020-08-16T12:28:27Z</time>
      </trkpt>
      <trkpt lat="44.81943" lon="6.18633">
        <ele>1096.0402832031</ele>
        <time>2020-08-16T12:28:30Z</time>
      </trkpt>
      <trkpt lat="44.81939" lon="6.18623">
        <ele>1097.0014648438</ele>
        <time>2020-08-16T12:28:36Z</time>
      </trkpt>
      <trkpt lat="44.81937" lon="6.18615">
        <ele>1099.4047851562</ele>
        <time>2020-08-16T12:28:40Z</time>
      </trkpt>
      <trkpt lat="44.81935" lon="6.18589">
        <ele>1102.76953125</ele>
        <time>2020-08-16T12:28:55Z</time>
      </trkpt>
      <trkpt lat="44.81935" lon="6.18566">
        <ele>1105.1728515625</ele>
        <time>2020-08-16T12:29:09Z</time>
      </trkpt>
      <trkpt lat="44.81937" lon="6.18549">
        <ele>1106.1340332031</ele>
        <time>2020-08-16T12:29:17Z</time>
      </trkpt>
      <trkpt lat="44.81938" lon="6.18541">
        <ele>1107.0954589844</ele>
        <time>2020-08-16T12:29:21Z</time>
      </trkpt>
      <trkpt lat="44.81939" lon="6.1853">
        <ele>1108.5373535156</ele>
        <time>2020-08-16T12:29:26Z</time>
      </trkpt>
      <trkpt lat="44.81942" lon="6.18518">
        <ele>1110.4599609375</ele>
        <time>2020-08-16T12:29:31Z</time>
      </trkpt>
      <trkpt lat="44.81941" lon="6.1851">
        <ele>1110.9406738281</ele>
        <time>2020-08-16T12:29:35Z</time>
      </trkpt>
      <trkpt lat="44.81939" lon="6.18498">
        <ele>1112.86328125</ele>
        <time>2020-08-16T12:29:41Z</time>
      </trkpt>
      <trkpt lat="44.81933" lon="6.18491">
        <ele>1114.3051757812</ele>
        <time>2020-08-16T12:29:50Z</time>
      </trkpt>
      <trkpt lat="44.81933" lon="6.18478">
        <ele>1116.7087402344</ele>
        <time>2020-08-16T12:30:01Z</time>
      </trkpt>
      <trkpt lat="44.81938" lon="6.18456">
        <ele>1119.5927734375</ele>
        <time>2020-08-16T12:30:13Z</time>
      </trkpt>
      <trkpt lat="44.81938" lon="6.18447">
        <ele>1120.5539550781</ele>
        <time>2020-08-16T12:30:17Z</time>
      </trkpt>
      <trkpt lat="44.81942" lon="6.18439">
        <ele>1121.5151367188</ele>
        <time>2020-08-16T12:30:21Z</time>
      </trkpt>
      <trkpt lat="44.81948" lon="6.18427">
        <ele>1121.0346679688</ele>
        <time>2020-08-16T12:30:27Z</time>
      </trkpt>
      <trkpt lat="44.81956" lon="6.18409">
        <ele>1121.5151367188</ele>
        <time>2020-08-16T12:30:37Z</time>
      </trkpt>
      <trkpt lat="44.81964" lon="6.18382">
        <ele>1111.9020996094</ele>
        <time>2020-08-16T12:30:50Z</time>
      </trkpt>
      <trkpt lat="44.81972" lon="6.18343">
        <ele>1100.8469238281</ele>
        <time>2020-08-16T12:31:08Z</time>
      </trkpt>
      <trkpt lat="44.81979" lon="6.18333">
        <ele>1099.4047851562</ele>
        <time>2020-08-16T12:31:17Z</time>
      </trkpt>
      <trkpt lat="44.81978" lon="6.18328">
        <ele>1098.9240722656</ele>
        <time>2020-08-16T12:31:20Z</time>
      </trkpt>
      <trkpt lat="44.81991" lon="6.18299">
        <ele>1097.962890625</ele>
        <time>2020-08-16T12:31:38Z</time>
      </trkpt>
      <trkpt lat="44.8199" lon="6.18293">
        <ele>1097.962890625</ele>
        <time>2020-08-16T12:31:43Z</time>
      </trkpt>
      <trkpt lat="44.81985" lon="6.1828">
        <ele>1097.4821777344</ele>
        <time>2020-08-16T12:31:48Z</time>
      </trkpt>
      <trkpt lat="44.81983" lon="6.18269">
        <ele>1096.5209960938</ele>
        <time>2020-08-16T12:31:52Z</time>
      </trkpt>
      <trkpt lat="44.81986" lon="6.1826">
        <ele>1095.5595703125</ele>
        <time>2020-08-16T12:31:56Z</time>
      </trkpt>
      <trkpt lat="44.81985" lon="6.18256">
        <ele>1094.5981445312</ele>
        <time>2020-08-16T12:31:58Z</time>
      </trkpt>
      <trkpt lat="44.81984" lon="6.1825">
        <ele>1094.5981445312</ele>
        <time>2020-08-16T12:32:00Z</time>
      </trkpt>
      <trkpt lat="44.81985" lon="6.18241">
        <ele>1094.1176757812</ele>
        <time>2020-08-16T12:32:04Z</time>
      </trkpt>
      <trkpt lat="44.81984" lon="6.18232">
        <ele>1093.15625</ele>
        <time>2020-08-16T12:32:08Z</time>
      </trkpt>
      <trkpt lat="44.81988" lon="6.18227">
        <ele>1093.15625</ele>
        <time>2020-08-16T12:32:11Z</time>
      </trkpt>
      <trkpt lat="44.81991" lon="6.18223">
        <ele>1092.67578125</ele>
        <time>2020-08-16T12:32:14Z</time>
      </trkpt>
      <trkpt lat="44.8199" lon="6.18207">
        <ele>1091.7143554688</ele>
        <time>2020-08-16T12:32:25Z</time>
      </trkpt>
      <trkpt lat="44.81995" lon="6.18176">
        <ele>1090.7529296875</ele>
        <time>2020-08-16T12:32:42Z</time>
      </trkpt>
      <trkpt lat="44.81989" lon="6.18148">
        <ele>1089.7917480469</ele>
        <time>2020-08-16T12:32:57Z</time>
      </trkpt>
      <trkpt lat="44.81992" lon="6.18131">
        <ele>1088.8305664062</ele>
        <time>2020-08-16T12:33:06Z</time>
      </trkpt>
      <trkpt lat="44.81992" lon="6.18123">
        <ele>1088.3498535156</ele>
        <time>2020-08-16T12:33:10Z</time>
      </trkpt>
      <trkpt lat="44.81998" lon="6.18109">
        <ele>1088.8305664062</ele>
        <time>2020-08-16T12:33:22Z</time>
      </trkpt>
      <trkpt lat="44.82003" lon="6.18069">
        <ele>1089.7917480469</ele>
        <time>2020-08-16T12:33:42Z</time>
      </trkpt>
      <trkpt lat="44.82003" lon="6.18066">
        <ele>1089.7917480469</ele>
        <time>2020-08-16T12:33:44Z</time>
      </trkpt>
      <trkpt lat="44.82014" lon="6.18043">
        <ele>1090.7529296875</ele>
        <time>2020-08-16T12:34:00Z</time>
      </trkpt>
      <trkpt lat="44.82026" lon="6.18023">
        <ele>1090.7529296875</ele>
        <time>2020-08-16T12:34:10Z</time>
      </trkpt>
      <trkpt lat="44.82026" lon="6.18019">
        <ele>1091.2336425781</ele>
        <time>2020-08-16T12:34:12Z</time>
      </trkpt>
      <trkpt lat="44.82029" lon="6.18009">
        <ele>1091.2336425781</ele>
        <time>2020-08-16T12:34:17Z</time>
      </trkpt>
      <trkpt lat="44.82028" lon="6.18004">
        <ele>1090.7529296875</ele>
        <time>2020-08-16T12:34:19Z</time>
      </trkpt>
      <trkpt lat="44.82031" lon="6.17987">
        <ele>1090.2724609375</ele>
        <time>2020-08-16T12:34:32Z</time>
      </trkpt>
      <trkpt lat="44.82046" lon="6.17969">
        <ele>1089.7917480469</ele>
        <time>2020-08-16T12:34:43Z</time>
      </trkpt>
      <trkpt lat="44.82049" lon="6.17956">
        <ele>1089.7917480469</ele>
        <time>2020-08-16T12:34:50Z</time>
      </trkpt>
      <trkpt lat="44.82041" lon="6.17933">
        <ele>1089.3110351562</ele>
        <time>2020-08-16T12:35:01Z</time>
      </trkpt>
      <trkpt lat="44.82042" lon="6.17929">
        <ele>1088.8305664062</ele>
        <time>2020-08-16T12:35:03Z</time>
      </trkpt>
      <trkpt lat="44.82037" lon="6.17918">
        <ele>1087.869140625</ele>
        <time>2020-08-16T12:35:08Z</time>
      </trkpt>
      <trkpt lat="44.82042" lon="6.17906">
        <ele>1086.9077148438</ele>
        <time>2020-08-16T12:35:14Z</time>
      </trkpt>
      <trkpt lat="44.82041" lon="6.17897">
        <ele>1086.4272460938</ele>
        <time>2020-08-16T12:35:18Z</time>
      </trkpt>
      <trkpt lat="44.8204" lon="6.17891">
        <ele>1085.4658203125</ele>
        <time>2020-08-16T12:35:23Z</time>
      </trkpt>
      <trkpt lat="44.82042" lon="6.17871">
        <ele>1083.54296875</ele>
        <time>2020-08-16T12:35:34Z</time>
      </trkpt>
      <trkpt lat="44.82042" lon="6.17869">
        <ele>1083.54296875</ele>
        <time>2020-08-16T12:35:35Z</time>
      </trkpt>
      <trkpt lat="44.82038" lon="6.17851">
        <ele>1082.1010742188</ele>
        <time>2020-08-16T12:35:43Z</time>
      </trkpt>
      <trkpt lat="44.8203" lon="6.17833">
        <ele>1079.2170410156</ele>
        <time>2020-08-16T12:35:55Z</time>
      </trkpt>
      <trkpt lat="44.82037" lon="6.17818">
        <ele>1080.6591796875</ele>
        <time>2020-08-16T12:36:13Z</time>
      </trkpt>
      <trkpt lat="44.82044" lon="6.17802">
        <ele>1080.6591796875</ele>
        <time>2020-08-16T12:36:24Z</time>
      </trkpt>
      <trkpt lat="44.82049" lon="6.17787">
        <ele>1080.6591796875</ele>
        <time>2020-08-16T12:36:34Z</time>
      </trkpt>
      <trkpt lat="44.82052" lon="6.17778">
        <ele>1080.1784667969</ele>
        <time>2020-08-16T12:36:39Z</time>
      </trkpt>
      <trkpt lat="44.82058" lon="6.17757">
        <ele>1080.6591796875</ele>
        <time>2020-08-16T12:36:49Z</time>
      </trkpt>
      <trkpt lat="44.82058" lon="6.17753">
        <ele>1080.6591796875</ele>
        <time>2020-08-16T12:36:51Z</time>
      </trkpt>
      <trkpt lat="44.82054" lon="6.17749">
        <ele>1080.1784667969</ele>
        <time>2020-08-16T12:36:54Z</time>
      </trkpt>
      <trkpt lat="44.82055" lon="6.17741">
        <ele>1080.1784667969</ele>
        <time>2020-08-16T12:36:58Z</time>
      </trkpt>
      <trkpt lat="44.82061" lon="6.17728">
        <ele>1071.0461425781</ele>
        <time>2020-08-16T12:37:02Z</time>
      </trkpt>
      <trkpt lat="44.82067" lon="6.17706">
        <ele>1066.2392578125</ele>
        <time>2020-08-16T12:37:10Z</time>
      </trkpt>
      <trkpt lat="44.82069" lon="6.17703">
        <ele>1064.7973632812</ele>
        <time>2020-08-16T12:37:12Z</time>
      </trkpt>
      <trkpt lat="44.82068" lon="6.1769">
        <ele>1062.8747558594</ele>
        <time>2020-08-16T12:37:18Z</time>
      </trkpt>
      <trkpt lat="44.82071" lon="6.17682">
        <ele>1063.8359375</ele>
        <time>2020-08-16T12:37:23Z</time>
      </trkpt>
      <trkpt lat="44.82073" lon="6.17675">
        <ele>1063.35546875</ele>
        <time>2020-08-16T12:37:28Z</time>
      </trkpt>
      <trkpt lat="44.82074" lon="6.17664">
        <ele>1064.7973632812</ele>
        <time>2020-08-16T12:37:33Z</time>
      </trkpt>
      <trkpt lat="44.82074" lon="6.17661">
        <ele>1065.7587890625</ele>
        <time>2020-08-16T12:37:35Z</time>
      </trkpt>
      <trkpt lat="44.82073" lon="6.1765">
        <ele>1070.0847167969</ele>
        <time>2020-08-16T12:37:46Z</time>
      </trkpt>
      <trkpt lat="44.82072" lon="6.17633">
        <ele>1067.2006835938</ele>
        <time>2020-08-16T12:38:01Z</time>
      </trkpt>
      <trkpt lat="44.82069" lon="6.17626">
        <ele>1067.6811523438</ele>
        <time>2020-08-16T12:38:10Z</time>
      </trkpt>
      <trkpt lat="44.82079" lon="6.17599">
        <ele>1069.1235351562</ele>
        <time>2020-08-16T12:38:29Z</time>
      </trkpt>
      <trkpt lat="44.82078" lon="6.17587">
        <ele>1064.7973632812</ele>
        <time>2020-08-16T12:38:42Z</time>
      </trkpt>
      <trkpt lat="44.82073" lon="6.17565">
        <ele>1062.3940429688</ele>
        <time>2020-08-16T12:38:52Z</time>
      </trkpt>
      <trkpt lat="44.82071" lon="6.17545">
        <ele>1062.8747558594</ele>
        <time>2020-08-16T12:39:05Z</time>
      </trkpt>
      <trkpt lat="44.82072" lon="6.17527">
        <ele>1059.5102539062</ele>
        <time>2020-08-16T12:39:17Z</time>
      </trkpt>
      <trkpt lat="44.82081" lon="6.17515">
        <ele>1056.6262207031</ele>
        <time>2020-08-16T12:39:25Z</time>
      </trkpt>
      <trkpt lat="44.82082" lon="6.17489">
        <ele>1052.7810058594</ele>
        <time>2020-08-16T12:39:40Z</time>
      </trkpt>
      <trkpt lat="44.82088" lon="6.17479">
        <ele>1051.3388671875</ele>
        <time>2020-08-16T12:39:47Z</time>
      </trkpt>
      <trkpt lat="44.82085" lon="6.17457">
        <ele>1047.9743652344</ele>
        <time>2020-08-16T12:40:03Z</time>
      </trkpt>
      <trkpt lat="44.82076" lon="6.17434">
        <ele>1046.5324707031</ele>
        <time>2020-08-16T12:40:13Z</time>
      </trkpt>
      <trkpt lat="44.82076" lon="6.17428">
        <ele>1045.5710449219</ele>
        <time>2020-08-16T12:40:19Z</time>
      </trkpt>
      <trkpt lat="44.82078" lon="6.17414">
        <ele>1043.6484375</ele>
        <time>2020-08-16T12:40:30Z</time>
      </trkpt>
      <trkpt lat="44.8208" lon="6.17398">
        <ele>1041.2451171875</ele>
        <time>2020-08-16T12:40:40Z</time>
      </trkpt>
      <trkpt lat="44.82088" lon="6.17386">
        <ele>1039.8032226562</ele>
        <time>2020-08-16T12:40:54Z</time>
      </trkpt>
      <trkpt lat="44.82097" lon="6.17367">
        <ele>1041.2451171875</ele>
        <time>2020-08-16T12:41:38Z</time>
      </trkpt>
      <trkpt lat="44.82106" lon="6.17345">
        <ele>1040.7644042969</ele>
        <time>2020-08-16T12:41:49Z</time>
      </trkpt>
      <trkpt lat="44.82112" lon="6.17327">
        <ele>1041.7258300781</ele>
        <time>2020-08-16T12:42:01Z</time>
      </trkpt>
      <trkpt lat="44.82113" lon="6.17323">
        <ele>1042.6872558594</ele>
        <time>2020-08-16T12:42:04Z</time>
      </trkpt>
      <trkpt lat="44.82113" lon="6.17313">
        <ele>1044.6096191406</ele>
        <time>2020-08-16T12:42:11Z</time>
      </trkpt>
      <trkpt lat="44.82103" lon="6.17294">
        <ele>1046.5324707031</ele>
        <time>2020-08-16T12:42:27Z</time>
      </trkpt>
      <trkpt lat="44.82099" lon="6.17287">
        <ele>1047.0129394531</ele>
        <time>2020-08-16T12:42:31Z</time>
      </trkpt>
      <trkpt lat="44.82105" lon="6.17277">
        <ele>1048.4548339844</ele>
        <time>2020-08-16T12:42:38Z</time>
      </trkpt>
      <trkpt lat="44.82107" lon="6.17268">
        <ele>1049.4162597656</ele>
        <time>2020-08-16T12:42:43Z</time>
      </trkpt>
      <trkpt lat="44.82106" lon="6.17255">
        <ele>1050.8581542969</ele>
        <time>2020-08-16T12:42:52Z</time>
      </trkpt>
      <trkpt lat="44.82107" lon="6.17244">
        <ele>1050.8581542969</ele>
        <time>2020-08-16T12:42:57Z</time>
      </trkpt>
      <trkpt lat="44.82107" lon="6.1724">
        <ele>1050.8581542969</ele>
        <time>2020-08-16T12:42:59Z</time>
      </trkpt>
      <trkpt lat="44.82109" lon="6.17217">
        <ele>1053.7424316406</ele>
        <time>2020-08-16T12:43:12Z</time>
      </trkpt>
      <trkpt lat="44.8211" lon="6.17209">
        <ele>1053.26171875</ele>
        <time>2020-08-16T12:43:16Z</time>
      </trkpt>
      <trkpt lat="44.82109" lon="6.17194">
        <ele>1052.7810058594</ele>
        <time>2020-08-16T12:43:22Z</time>
      </trkpt>
      <trkpt lat="44.82107" lon="6.17186">
        <ele>1051.3388671875</ele>
        <time>2020-08-16T12:43:25Z</time>
      </trkpt>
      <trkpt lat="44.82109" lon="6.17181">
        <ele>1051.3388671875</ele>
        <time>2020-08-16T12:43:29Z</time>
      </trkpt>
      <trkpt lat="44.82108" lon="6.17174">
        <ele>1052.7810058594</ele>
        <time>2020-08-16T12:43:33Z</time>
      </trkpt>
      <trkpt lat="44.82107" lon="6.17169">
        <ele>1053.26171875</ele>
        <time>2020-08-16T12:43:36Z</time>
      </trkpt>
      <trkpt lat="44.82108" lon="6.17163">
        <ele>1054.2231445312</ele>
        <time>2020-08-16T12:43:39Z</time>
      </trkpt>
      <trkpt lat="44.8211" lon="6.17149">
        <ele>1053.26171875</ele>
        <time>2020-08-16T12:43:45Z</time>
      </trkpt>
      <trkpt lat="44.82114" lon="6.17141">
        <ele>1053.7424316406</ele>
        <time>2020-08-16T12:43:50Z</time>
      </trkpt>
      <trkpt lat="44.8212" lon="6.17117">
        <ele>1052.3002929688</ele>
        <time>2020-08-16T12:44:05Z</time>
      </trkpt>
      <trkpt lat="44.82125" lon="6.17107">
        <ele>1051.8195800781</ele>
        <time>2020-08-16T12:44:10Z</time>
      </trkpt>
      <trkpt lat="44.82136" lon="6.17096">
        <ele>1050.8581542969</ele>
        <time>2020-08-16T12:44:16Z</time>
      </trkpt>
      <trkpt lat="44.82139" lon="6.17081">
        <ele>1051.3388671875</ele>
        <time>2020-08-16T12:44:27Z</time>
      </trkpt>
      <trkpt lat="44.82143" lon="6.17063">
        <ele>1052.7810058594</ele>
        <time>2020-08-16T12:44:37Z</time>
      </trkpt>
      <trkpt lat="44.8215" lon="6.1705">
        <ele>1052.3002929688</ele>
        <time>2020-08-16T12:44:47Z</time>
      </trkpt>
      <trkpt lat="44.82151" lon="6.17046">
        <ele>1051.3388671875</ele>
        <time>2020-08-16T12:44:53Z</time>
      </trkpt>
      <trkpt lat="44.82161" lon="6.17025">
        <ele>1052.3002929688</ele>
        <time>2020-08-16T12:45:05Z</time>
      </trkpt>
      <trkpt lat="44.82168" lon="6.17012">
        <ele>1053.7424316406</ele>
        <time>2020-08-16T12:45:15Z</time>
      </trkpt>
      <trkpt lat="44.82171" lon="6.1701">
        <ele>1054.2231445312</ele>
        <time>2020-08-16T12:45:16Z</time>
      </trkpt>
      <trkpt lat="44.8218" lon="6.16989">
        <ele>1051.3388671875</ele>
        <time>2020-08-16T12:45:28Z</time>
      </trkpt>
      <trkpt lat="44.82185" lon="6.16974">
        <ele>1045.5710449219</ele>
        <time>2020-08-16T12:45:37Z</time>
      </trkpt>
      <trkpt lat="44.82192" lon="6.16964">
        <ele>1044.1291503906</ele>
        <time>2020-08-16T12:45:45Z</time>
      </trkpt>
      <trkpt lat="44.82195" lon="6.16955">
        <ele>1043.1677246094</ele>
        <time>2020-08-16T12:45:50Z</time>
      </trkpt>
      <trkpt lat="44.82205" lon="6.16935">
        <ele>1041.2451171875</ele>
        <time>2020-08-16T12:46:01Z</time>
      </trkpt>
      <trkpt lat="44.82206" lon="6.16929">
        <ele>1041.7258300781</ele>
        <time>2020-08-16T12:46:03Z</time>
      </trkpt>
      <trkpt lat="44.82206" lon="6.16925">
        <ele>1041.2451171875</ele>
        <time>2020-08-16T12:46:05Z</time>
      </trkpt>
      <trkpt lat="44.82211" lon="6.16913">
        <ele>1043.6484375</ele>
        <time>2020-08-16T12:46:11Z</time>
      </trkpt>
      <trkpt lat="44.82214" lon="6.1691">
        <ele>1045.5710449219</ele>
        <time>2020-08-16T12:46:13Z</time>
      </trkpt>
      <trkpt lat="44.82215" lon="6.16904">
        <ele>1047.4936523438</ele>
        <time>2020-08-16T12:46:16Z</time>
      </trkpt>
      <trkpt lat="44.82219" lon="6.16887">
        <ele>1048.4548339844</ele>
        <time>2020-08-16T12:46:26Z</time>
      </trkpt>
      <trkpt lat="44.82223" lon="6.16873">
        <ele>1047.9743652344</ele>
        <time>2020-08-16T12:46:38Z</time>
      </trkpt>
      <trkpt lat="44.82228" lon="6.16861">
        <ele>1049.4162597656</ele>
        <time>2020-08-16T12:46:46Z</time>
      </trkpt>
      <trkpt lat="44.82231" lon="6.16845">
        <ele>1048.4548339844</ele>
        <time>2020-08-16T12:46:54Z</time>
      </trkpt>
      <trkpt lat="44.82227" lon="6.16835">
        <ele>1049.4162597656</ele>
        <time>2020-08-16T12:46:58Z</time>
      </trkpt>
      <trkpt lat="44.82228" lon="6.16831">
        <ele>1050.3776855469</ele>
        <time>2020-08-16T12:47:00Z</time>
      </trkpt>
      <trkpt lat="44.82225" lon="6.16826">
        <ele>1050.3776855469</ele>
        <time>2020-08-16T12:47:02Z</time>
      </trkpt>
      <trkpt lat="44.82228" lon="6.16817">
        <ele>1052.3002929688</ele>
        <time>2020-08-16T12:47:06Z</time>
      </trkpt>
      <trkpt lat="44.82231" lon="6.16808">
        <ele>1054.2231445312</ele>
        <time>2020-08-16T12:47:10Z</time>
      </trkpt>
      <trkpt lat="44.82234" lon="6.16797">
        <ele>1052.7810058594</ele>
        <time>2020-08-16T12:47:15Z</time>
      </trkpt>
      <trkpt lat="44.82235" lon="6.16793">
        <ele>1054.7036132812</ele>
        <time>2020-08-16T12:47:17Z</time>
      </trkpt>
      <trkpt lat="44.82232" lon="6.16789">
        <ele>1051.8195800781</ele>
        <time>2020-08-16T12:47:20Z</time>
      </trkpt>
      <trkpt lat="44.82232" lon="6.16782">
        <ele>1052.3002929688</ele>
        <time>2020-08-16T12:47:25Z</time>
      </trkpt>
      <trkpt lat="44.82235" lon="6.16762">
        <ele>1049.8969726562</ele>
        <time>2020-08-16T12:47:35Z</time>
      </trkpt>
      <trkpt lat="44.8224" lon="6.16753">
        <ele>1048.4548339844</ele>
        <time>2020-08-16T12:47:39Z</time>
      </trkpt>
      <trkpt lat="44.82241" lon="6.1675">
        <ele>1047.9743652344</ele>
        <time>2020-08-16T12:47:41Z</time>
      </trkpt>
      <trkpt lat="44.82241" lon="6.16745">
        <ele>1047.9743652344</ele>
        <time>2020-08-16T12:47:44Z</time>
      </trkpt>
      <trkpt lat="44.82242" lon="6.16738">
        <ele>1047.4936523438</ele>
        <time>2020-08-16T12:47:49Z</time>
      </trkpt>
      <trkpt lat="44.82239" lon="6.16723">
        <ele>1046.5324707031</ele>
        <time>2020-08-16T12:47:55Z</time>
      </trkpt>
      <trkpt lat="44.82233" lon="6.16704">
        <ele>1045.0903320312</ele>
        <time>2020-08-16T12:48:07Z</time>
      </trkpt>
      <trkpt lat="44.82232" lon="6.16697">
        <ele>1044.6096191406</ele>
        <time>2020-08-16T12:48:10Z</time>
      </trkpt>
      <trkpt lat="44.82233" lon="6.16686">
        <ele>1045.5710449219</ele>
        <time>2020-08-16T12:48:15Z</time>
      </trkpt>
      <trkpt lat="44.82228" lon="6.16673">
        <ele>1044.1291503906</ele>
        <time>2020-08-16T12:48:24Z</time>
      </trkpt>
      <trkpt lat="44.82227" lon="6.16668">
        <ele>1044.1291503906</ele>
        <time>2020-08-16T12:48:28Z</time>
      </trkpt>
      <trkpt lat="44.82221" lon="6.16644">
        <ele>1044.1291503906</ele>
        <time>2020-08-16T12:48:41Z</time>
      </trkpt>
      <trkpt lat="44.82219" lon="6.16625">
        <ele>1044.6096191406</ele>
        <time>2020-08-16T12:48:51Z</time>
      </trkpt>
      <trkpt lat="44.8222" lon="6.16624">
        <ele>1044.6096191406</ele>
        <time>2020-08-16T12:48:52Z</time>
      </trkpt>
      <trkpt lat="44.82215" lon="6.16606">
        <ele>1044.6096191406</ele>
        <time>2020-08-16T12:49:03Z</time>
      </trkpt>
      <trkpt lat="44.82213" lon="6.166">
        <ele>1044.6096191406</ele>
        <time>2020-08-16T12:49:06Z</time>
      </trkpt>
      <trkpt lat="44.82211" lon="6.16594">
        <ele>1045.0903320312</ele>
        <time>2020-08-16T12:49:09Z</time>
      </trkpt>
      <trkpt lat="44.82201" lon="6.16563">
        <ele>1047.9743652344</ele>
        <time>2020-08-16T12:49:23Z</time>
      </trkpt>
      <trkpt lat="44.82198" lon="6.16527">
        <ele>1051.3388671875</ele>
        <time>2020-08-16T12:49:42Z</time>
      </trkpt>
      <trkpt lat="44.82195" lon="6.16504">
        <ele>1049.4162597656</ele>
        <time>2020-08-16T12:49:54Z</time>
      </trkpt>
      <trkpt lat="44.82191" lon="6.16497">
        <ele>1048.935546875</ele>
        <time>2020-08-16T12:49:58Z</time>
      </trkpt>
      <trkpt lat="44.82187" lon="6.16484">
        <ele>1047.9743652344</ele>
        <time>2020-08-16T12:50:03Z</time>
      </trkpt>
      <trkpt lat="44.82185" lon="6.16463">
        <ele>1046.5324707031</ele>
        <time>2020-08-16T12:50:13Z</time>
      </trkpt>
      <trkpt lat="44.82184" lon="6.1644">
        <ele>1045.0903320312</ele>
        <time>2020-08-16T12:50:27Z</time>
      </trkpt>
      <trkpt lat="44.82175" lon="6.16418">
        <ele>1045.0903320312</ele>
        <time>2020-08-16T12:50:40Z</time>
      </trkpt>
      <trkpt lat="44.8217" lon="6.16403">
        <ele>1045.0903320312</ele>
        <time>2020-08-16T12:50:49Z</time>
      </trkpt>
      <trkpt lat="44.82162" lon="6.16376">
        <ele>1046.0517578125</ele>
        <time>2020-08-16T12:51:03Z</time>
      </trkpt>
      <trkpt lat="44.82152" lon="6.16354">
        <ele>1047.4936523438</ele>
        <time>2020-08-16T12:51:15Z</time>
      </trkpt>
      <trkpt lat="44.82139" lon="6.16332">
        <ele>1048.4548339844</ele>
        <time>2020-08-16T12:51:28Z</time>
      </trkpt>
      <trkpt lat="44.82138" lon="6.16321">
        <ele>1048.935546875</ele>
        <time>2020-08-16T12:51:33Z</time>
      </trkpt>
      <trkpt lat="44.82138" lon="6.16308">
        <ele>1048.935546875</ele>
        <time>2020-08-16T12:51:38Z</time>
      </trkpt>
      <trkpt lat="44.82138" lon="6.16299">
        <ele>1048.4548339844</ele>
        <time>2020-08-16T12:51:42Z</time>
      </trkpt>
      <trkpt lat="44.82137" lon="6.16296">
        <ele>1048.4548339844</ele>
        <time>2020-08-16T12:51:44Z</time>
      </trkpt>
      <trkpt lat="44.82136" lon="6.16289">
        <ele>1048.4548339844</ele>
        <time>2020-08-16T12:51:48Z</time>
      </trkpt>
      <trkpt lat="44.82133" lon="6.1628">
        <ele>1048.4548339844</ele>
        <time>2020-08-16T12:51:52Z</time>
      </trkpt>
      <trkpt lat="44.82131" lon="6.16269">
        <ele>1047.9743652344</ele>
        <time>2020-08-16T12:51:56Z</time>
      </trkpt>
      <trkpt lat="44.82131" lon="6.1626">
        <ele>1047.9743652344</ele>
        <time>2020-08-16T12:52:00Z</time>
      </trkpt>
      <trkpt lat="44.8213" lon="6.16249">
        <ele>1046.5324707031</ele>
        <time>2020-08-16T12:52:09Z</time>
      </trkpt>
      <trkpt lat="44.82127" lon="6.16246">
        <ele>1047.0129394531</ele>
        <time>2020-08-16T12:52:12Z</time>
      </trkpt>
      <trkpt lat="44.82121" lon="6.16239">
        <ele>1046.5324707031</ele>
        <time>2020-08-16T12:52:16Z</time>
      </trkpt>
      <trkpt lat="44.82103" lon="6.16238">
        <ele>1046.5324707031</ele>
        <time>2020-08-16T12:52:26Z</time>
      </trkpt>
      <trkpt lat="44.82083" lon="6.16242">
        <ele>1048.4548339844</ele>
        <time>2020-08-16T12:52:36Z</time>
      </trkpt>
      <trkpt lat="44.82075" lon="6.16268">
        <ele>1043.6484375</ele>
        <time>2020-08-16T12:52:47Z</time>
      </trkpt>
      <trkpt lat="44.82068" lon="6.16288">
        <ele>1041.2451171875</ele>
        <time>2020-08-16T12:52:56Z</time>
      </trkpt>
      <trkpt lat="44.82068" lon="6.16301">
        <ele>1039.8032226562</ele>
        <time>2020-08-16T12:53:01Z</time>
      </trkpt>
      <trkpt lat="44.82072" lon="6.16318">
        <ele>1038.361328125</ele>
        <time>2020-08-16T12:53:08Z</time>
      </trkpt>
      <trkpt lat="44.82071" lon="6.16323">
        <ele>1035.9577636719</ele>
        <time>2020-08-16T12:53:11Z</time>
      </trkpt>
      <trkpt lat="44.8207" lon="6.16326">
        <ele>1035.4770507812</ele>
        <time>2020-08-16T12:53:13Z</time>
      </trkpt>
      <trkpt lat="44.82071" lon="6.16343">
        <ele>1033.0737304688</ele>
        <time>2020-08-16T12:53:24Z</time>
      </trkpt>
      <trkpt lat="44.82072" lon="6.16348">
        <ele>1033.5544433594</ele>
        <time>2020-08-16T12:53:26Z</time>
      </trkpt>
      <trkpt lat="44.82074" lon="6.1636">
        <ele>1033.5544433594</ele>
        <time>2020-08-16T12:53:32Z</time>
      </trkpt>
      <trkpt lat="44.82072" lon="6.16367">
        <ele>1034.03515625</ele>
        <time>2020-08-16T12:53:37Z</time>
      </trkpt>
      <trkpt lat="44.82073" lon="6.16374">
        <ele>1032.5932617188</ele>
        <time>2020-08-16T12:53:41Z</time>
      </trkpt>
      <trkpt lat="44.82078" lon="6.16408">
        <ele>1031.1513671875</ele>
        <time>2020-08-16T12:53:59Z</time>
      </trkpt>
      <trkpt lat="44.82083" lon="6.16433">
        <ele>1030.6706542969</ele>
        <time>2020-08-16T12:54:13Z</time>
      </trkpt>
      <trkpt lat="44.82088" lon="6.16452">
        <ele>1030.6706542969</ele>
        <time>2020-08-16T12:54:22Z</time>
      </trkpt>
      <trkpt lat="44.82087" lon="6.16468">
        <ele>1033.0737304688</ele>
        <time>2020-08-16T12:54:29Z</time>
      </trkpt>
      <trkpt lat="44.82083" lon="6.16487">
        <ele>1031.6318359375</ele>
        <time>2020-08-16T12:54:37Z</time>
      </trkpt>
      <trkpt lat="44.82081" lon="6.16498">
        <ele>1031.6318359375</ele>
        <time>2020-08-16T12:54:42Z</time>
      </trkpt>
      <trkpt lat="44.82076" lon="6.16509">
        <ele>1031.6318359375</ele>
        <time>2020-08-16T12:54:49Z</time>
      </trkpt>
      <trkpt lat="44.82072" lon="6.16524">
        <ele>1032.1125488281</ele>
        <time>2020-08-16T12:54:58Z</time>
      </trkpt>
      <trkpt lat="44.82071" lon="6.16533">
        <ele>1033.0737304688</ele>
        <time>2020-08-16T12:55:03Z</time>
      </trkpt>
      <trkpt lat="44.82069" lon="6.16539">
        <ele>1032.5932617188</ele>
        <time>2020-08-16T12:55:06Z</time>
      </trkpt>
      <trkpt lat="44.82067" lon="6.16556">
        <ele>1033.0737304688</ele>
        <time>2020-08-16T12:55:16Z</time>
      </trkpt>
      <trkpt lat="44.82068" lon="6.16563">
        <ele>1032.5932617188</ele>
        <time>2020-08-16T12:55:19Z</time>
      </trkpt>
      <trkpt lat="44.82067" lon="6.16569">
        <ele>1033.5544433594</ele>
        <time>2020-08-16T12:55:22Z</time>
      </trkpt>
      <trkpt lat="44.82064" lon="6.16576">
        <ele>1035.9577636719</ele>
        <time>2020-08-16T12:55:26Z</time>
      </trkpt>
      <trkpt lat="44.8206" lon="6.16585">
        <ele>1036.4387207031</ele>
        <time>2020-08-16T12:55:31Z</time>
      </trkpt>
      <trkpt lat="44.82061" lon="6.1659">
        <ele>1036.9191894531</ele>
        <time>2020-08-16T12:55:34Z</time>
      </trkpt>
      <trkpt lat="44.8207" lon="6.16598">
        <ele>1040.2839355469</ele>
        <time>2020-08-16T12:55:43Z</time>
      </trkpt>
      <trkpt lat="44.82071" lon="6.16596">
        <ele>1039.8032226562</ele>
        <time>2020-08-16T12:55:56Z</time>
      </trkpt>
    </trkseg>
  </trk>
</gpx>